<?xml version='1.0' encoding='UTF-8'?><gpx version="1.1" creator="JPX - https://github.com/jenetics/jpx" xmlns="http://www.topografix.com/GPX/1/1"><trk><trkseg><trkpt lat="45.819078146553" lon="12.201599343002995"><ele>85.0</ele><time>2026-04-12T13:49:22Z</time></trkpt><trkpt lat="45.81895658387971" lon="12.201573206741807"><ele>85.0</ele><time>2026-04-12T13:49:24Z</time></trkpt><trkpt lat="45.81886233387701" lon="12.201620169009457"><ele>85.0</ele><time>2026-04-12T13:49:26Z</time></trkpt><trkpt lat="45.818786591166194" lon="12.201696167818039"><ele>85.0</ele><time>2026-04-12T13:49:29Z</time></trkpt><trkpt lat="45.81864895604172" lon="12.201676752944397"><ele>85.0</ele><time>2026-04-12T13:49:31Z</time></trkpt><trkpt lat="45.818557550301385" lon="12.201625276042575"><ele>85.0</ele><time>2026-04-12T13:49:32Z</time></trkpt><trkpt lat="45.818444072662004" lon="12.201571616854824"><ele>85.0</ele><time>2026-04-12T13:49:33Z</time></trkpt><trkpt lat="45.81832056067611" lon="12.20151814202163"><ele>85.0</ele><time>2026-04-12T13:49:34Z</time></trkpt><trkpt lat="45.81820701260813" lon="12.20147821990036"><ele>84.5</ele><time>2026-04-12T13:49:35Z</time></trkpt><trkpt lat="45.818080592916075" lon="12.201422593228198"><ele>84.0</ele><time>2026-04-12T13:49:36Z</time></trkpt><trkpt lat="45.817954371283754" lon="12.201369891672659"><ele>83.5</ele><time>2026-04-12T13:49:37Z</time></trkpt><trkpt lat="45.817821360736076" lon="12.201314519958894"><ele>83.0</ele><time>2026-04-12T13:49:38Z</time></trkpt><trkpt lat="45.81768270162384" lon="12.201249903400193"><ele>83.33333333333334</ele><time>2026-04-12T13:49:39Z</time></trkpt><trkpt lat="45.81753818227871" lon="12.201187922553135"><ele>83.66666666666667</ele><time>2026-04-12T13:49:40Z</time></trkpt><trkpt lat="45.8173899651437" lon="12.201133034922073"><ele>84.0</ele><time>2026-04-12T13:49:41Z</time></trkpt><trkpt lat="45.817236111276166" lon="12.201067416498384"><ele>84.0</ele><time>2026-04-12T13:49:42Z</time></trkpt><trkpt lat="45.81708612229369" lon="12.201010337528952"><ele>84.0</ele><time>2026-04-12T13:49:43Z</time></trkpt><trkpt lat="45.816931643642896" lon="12.200944566467614"><ele>84.0</ele><time>2026-04-12T13:49:44Z</time></trkpt><trkpt lat="45.816776908620554" lon="12.200885637826419"><ele>83.0</ele><time>2026-04-12T13:49:45Z</time></trkpt><trkpt lat="45.81662499673443" lon="12.200819975490617"><ele>82.0</ele><time>2026-04-12T13:49:46Z</time></trkpt><trkpt lat="45.816473928570815" lon="12.200757749195228"><ele>81.0</ele><time>2026-04-12T13:49:47Z</time></trkpt><trkpt lat="45.816307843266955" lon="12.200690201532195"><ele>81.33333333333333</ele><time>2026-04-12T13:49:48Z</time></trkpt><trkpt lat="45.81613209280902" lon="12.200621401479582"><ele>81.66666666666666</ele><time>2026-04-12T13:49:49Z</time></trkpt><trkpt lat="45.81595450736377" lon="12.200549804543245"><ele>82.0</ele><time>2026-04-12T13:49:50Z</time></trkpt><trkpt lat="45.8157774705206" lon="12.20047713413518"><ele>81.33333333333333</ele><time>2026-04-12T13:49:51Z</time></trkpt><trkpt lat="45.8156297658723" lon="12.20041238322076"><ele>80.66666666666667</ele><time>2026-04-12T13:49:52Z</time></trkpt><trkpt lat="45.815475955771" lon="12.200351238334276"><ele>80.0</ele><time>2026-04-12T13:49:53Z</time></trkpt><trkpt lat="45.81533701605218" lon="12.200297332984068"><ele>80.0</ele><time>2026-04-12T13:49:54Z</time></trkpt><trkpt lat="45.81519337351768" lon="12.20023838878306"><ele>80.0</ele><time>2026-04-12T13:49:55Z</time></trkpt><trkpt lat="45.81504309646687" lon="12.200175545783772"><ele>80.0</ele><time>2026-04-12T13:49:56Z</time></trkpt><trkpt lat="45.81488716809679" lon="12.200108659375937"><ele>79.66666666666667</ele><time>2026-04-12T13:49:57Z</time></trkpt><trkpt lat="45.814731756578205" lon="12.200042738699493"><ele>79.33333333333333</ele><time>2026-04-12T13:49:58Z</time></trkpt><trkpt lat="45.81457227407565" lon="12.199975245915452"><ele>79.0</ele><time>2026-04-12T13:49:59Z</time></trkpt><trkpt lat="45.81441672699164" lon="12.199908438712363"><ele>77.66666666666666</ele><time>2026-04-12T13:50:00Z</time></trkpt><trkpt lat="45.814262303494914" lon="12.199840484009576"><ele>76.33333333333333</ele><time>2026-04-12T13:50:01Z</time></trkpt><trkpt lat="45.81410398387784" lon="12.19977298556069"><ele>75.0</ele><time>2026-04-12T13:50:02Z</time></trkpt><trkpt lat="45.81393595727706" lon="12.19970833193688"><ele>75.0</ele><time>2026-04-12T13:50:03Z</time></trkpt><trkpt lat="45.813751010656354" lon="12.199642922673215"><ele>75.0</ele><time>2026-04-12T13:50:04Z</time></trkpt><trkpt lat="45.81353166375003" lon="12.19955649031295"><ele>75.0</ele><time>2026-04-12T13:50:05Z</time></trkpt><trkpt lat="45.81327955867794" lon="12.199452694707348"><ele>74.0</ele><time>2026-04-12T13:50:06Z</time></trkpt><trkpt lat="45.81299855726621" lon="12.19934081214569"><ele>73.0</ele><time>2026-04-12T13:50:07Z</time></trkpt><trkpt lat="45.812710348683375" lon="12.19922511982773"><ele>73.0</ele><time>2026-04-12T13:50:08Z</time></trkpt><trkpt lat="45.8124028584434" lon="12.199099473118402"><ele>73.0</ele><time>2026-04-12T13:50:09Z</time></trkpt><trkpt lat="45.81212010546599" lon="12.198968074928953"><ele>72.5</ele><time>2026-04-12T13:50:10Z</time></trkpt><trkpt lat="45.811864523172986" lon="12.198845063206448"><ele>72.0</ele><time>2026-04-12T13:50:11Z</time></trkpt><trkpt lat="45.81162682329557" lon="12.198714457531459"><ele>72.0</ele><time>2026-04-12T13:50:12Z</time></trkpt><trkpt lat="45.81140637274196" lon="12.198578287679812"><ele>72.0</ele><time>2026-04-12T13:50:13Z</time></trkpt><trkpt lat="45.81120395141459" lon="12.198429658108827"><ele>72.0</ele><time>2026-04-12T13:50:14Z</time></trkpt><trkpt lat="45.811022820532585" lon="12.198263574012387"><ele>72.0</ele><time>2026-04-12T13:50:15Z</time></trkpt><trkpt lat="45.81084193626562" lon="12.198070577732034"><ele>72.0</ele><time>2026-04-12T13:50:16Z</time></trkpt><trkpt lat="45.810659090134244" lon="12.197854500825262"><ele>72.0</ele><time>2026-04-12T13:50:17Z</time></trkpt><trkpt lat="45.81048995749084" lon="12.197637608780882"><ele>72.0</ele><time>2026-04-12T13:50:18Z</time></trkpt><trkpt lat="45.81033549377708" lon="12.197412541908385"><ele>72.0</ele><time>2026-04-12T13:50:19Z</time></trkpt><trkpt lat="45.81019388549871" lon="12.197187350053552"><ele>71.33333333333333</ele><time>2026-04-12T13:50:20Z</time></trkpt><trkpt lat="45.81006442009964" lon="12.196972891003618"><ele>70.66666666666666</ele><time>2026-04-12T13:50:21Z</time></trkpt><trkpt lat="45.809939949503516" lon="12.196776059044264"><ele>70.0</ele><time>2026-04-12T13:50:22Z</time></trkpt><trkpt lat="45.80981983157901" lon="12.196594662436688"><ele>70.0</ele><time>2026-04-12T13:50:23Z</time></trkpt><trkpt lat="45.809700162568305" lon="12.196407556582813"><ele>70.0</ele><time>2026-04-12T13:50:24Z</time></trkpt><trkpt lat="45.809565210056505" lon="12.196179352279358"><ele>70.0</ele><time>2026-04-12T13:50:25Z</time></trkpt><trkpt lat="45.80940657514506" lon="12.19592278136362"><ele>70.5</ele><time>2026-04-12T13:50:26Z</time></trkpt><trkpt lat="45.80923563096799" lon="12.195653078540978"><ele>71.0</ele><time>2026-04-12T13:50:27Z</time></trkpt><trkpt lat="45.809073341068625" lon="12.195391780746764"><ele>71.0</ele><time>2026-04-12T13:50:28Z</time></trkpt><trkpt lat="45.808912421392144" lon="12.195130673245295"><ele>71.0</ele><time>2026-04-12T13:50:29Z</time></trkpt><trkpt lat="45.80874393909263" lon="12.1948621740256"><ele>71.0</ele><time>2026-04-12T13:50:30Z</time></trkpt><trkpt lat="45.808579585074405" lon="12.19459255213086"><ele>71.0</ele><time>2026-04-12T13:50:31Z</time></trkpt><trkpt lat="45.80841465405701" lon="12.194331789715436"><ele>71.0</ele><time>2026-04-12T13:50:32Z</time></trkpt><trkpt lat="45.80825661988645" lon="12.194083012778632"><ele>71.0</ele><time>2026-04-12T13:50:33Z</time></trkpt><trkpt lat="45.808100359194135" lon="12.193835730175502"><ele>71.0</ele><time>2026-04-12T13:50:34Z</time></trkpt><trkpt lat="45.807946736204855" lon="12.193592317629692"><ele>71.0</ele><time>2026-04-12T13:50:35Z</time></trkpt><trkpt lat="45.80779100676386" lon="12.193345853456815"><ele>71.0</ele><time>2026-04-12T13:50:36Z</time></trkpt><trkpt lat="45.807639205787886" lon="12.193103611901515"><ele>71.0</ele><time>2026-04-12T13:50:37Z</time></trkpt><trkpt lat="45.80748508009843" lon="12.1928613575821"><ele>71.0</ele><time>2026-04-12T13:50:38Z</time></trkpt><trkpt lat="45.80733162678318" lon="12.192618185864907"><ele>71.0</ele><time>2026-04-12T13:50:39Z</time></trkpt><trkpt lat="45.80717977261225" lon="12.19237654197722"><ele>70.33333333333334</ele><time>2026-04-12T13:50:40Z</time></trkpt><trkpt lat="45.807028409137985" lon="12.192137778301557"><ele>69.66666666666667</ele><time>2026-04-12T13:50:41Z</time></trkpt><trkpt lat="45.8068785780665" lon="12.191905873002208"><ele>69.0</ele><time>2026-04-12T13:50:42Z</time></trkpt><trkpt lat="45.806729820414624" lon="12.19166498563607"><ele>68.66666666666667</ele><time>2026-04-12T13:50:43Z</time></trkpt><trkpt lat="45.806582140595886" lon="12.191429131729333"><ele>68.33333333333334</ele><time>2026-04-12T13:50:44Z</time></trkpt><trkpt lat="45.80643350564303" lon="12.191193009002422"><ele>68.0</ele><time>2026-04-12T13:50:45Z</time></trkpt><trkpt lat="45.80628646198667" lon="12.19096253315915"><ele>68.0</ele><time>2026-04-12T13:50:46Z</time></trkpt><trkpt lat="45.80614448552881" lon="12.190734577001306"><ele>68.0</ele><time>2026-04-12T13:50:47Z</time></trkpt><trkpt lat="45.806001433419624" lon="12.190506109950782"><ele>68.0</ele><time>2026-04-12T13:50:48Z</time></trkpt><trkpt lat="45.8058590572214" lon="12.190287689940762"><ele>68.0</ele><time>2026-04-12T13:50:49Z</time></trkpt><trkpt lat="45.80572042759604" lon="12.190072662703518"><ele>68.0</ele><time>2026-04-12T13:50:50Z</time></trkpt><trkpt lat="45.80557726938746" lon="12.18986684437208"><ele>68.0</ele><time>2026-04-12T13:50:51Z</time></trkpt><trkpt lat="45.805448196509275" lon="12.189662457070538"><ele>68.33333333333334</ele><time>2026-04-12T13:50:52Z</time></trkpt><trkpt lat="45.80533233986302" lon="12.189466771248764"><ele>68.66666666666667</ele><time>2026-04-12T13:50:53Z</time></trkpt><trkpt lat="45.805215372949974" lon="12.189286290222753"><ele>69.0</ele><time>2026-04-12T13:50:54Z</time></trkpt><trkpt lat="45.80509792938266" lon="12.189119921734806"><ele>69.0</ele><time>2026-04-12T13:50:55Z</time></trkpt><trkpt lat="45.80498856508602" lon="12.188981761854032"><ele>69.0</ele><time>2026-04-12T13:50:56Z</time></trkpt><trkpt lat="45.80489133828863" lon="12.188859558130956"><ele>69.0</ele><time>2026-04-12T13:50:57Z</time></trkpt><trkpt lat="45.80481361458886" lon="12.188735147902822"><ele>69.0</ele><time>2026-04-12T13:50:58Z</time></trkpt><trkpt lat="45.804759746236876" lon="12.188618662226155"><ele>69.0</ele><time>2026-04-12T13:50:59Z</time></trkpt><trkpt lat="45.80473103150618" lon="12.188512380649778"><ele>69.0</ele><time>2026-04-12T13:51:00Z</time></trkpt><trkpt lat="45.80472260062992" lon="12.1884179637108"><ele>69.0</ele><time>2026-04-12T13:51:01Z</time></trkpt><trkpt lat="45.804741717853325" lon="12.188316807104146"><ele>69.0</ele><time>2026-04-12T13:51:02Z</time></trkpt><trkpt lat="45.80475860196687" lon="12.18821667289418"><ele>69.0</ele><time>2026-04-12T13:51:03Z</time></trkpt><trkpt lat="45.8047440133292" lon="12.188117464843074"><ele>69.0</ele><time>2026-04-12T13:51:04Z</time></trkpt><trkpt lat="45.80469417099687" lon="12.188023850936878"><ele>69.0</ele><time>2026-04-12T13:51:05Z</time></trkpt><trkpt lat="45.80460752262788" lon="12.187940877623438"><ele>69.33333333333333</ele><time>2026-04-12T13:51:06Z</time></trkpt><trkpt lat="45.80448140209859" lon="12.187864744205095"><ele>69.66666666666666</ele><time>2026-04-12T13:51:07Z</time></trkpt><trkpt lat="45.804317716231466" lon="12.187750934745317"><ele>70.0</ele><time>2026-04-12T13:51:08Z</time></trkpt><trkpt lat="45.80416093804669" lon="12.187555872092013"><ele>70.0</ele><time>2026-04-12T13:51:09Z</time></trkpt><trkpt lat="45.80400367461364" lon="12.18734514832149"><ele>70.0</ele><time>2026-04-12T13:51:10Z</time></trkpt><trkpt lat="45.80384000874643" lon="12.187089934841481"><ele>70.0</ele><time>2026-04-12T13:51:11Z</time></trkpt><trkpt lat="45.80365264338341" lon="12.186793475775666"><ele>70.0</ele><time>2026-04-12T13:51:12Z</time></trkpt><trkpt lat="45.8034453085716" lon="12.186465420093171"><ele>68.0</ele><time>2026-04-12T13:51:13Z</time></trkpt><trkpt lat="45.80322853010336" lon="12.186139296914495"><ele>66.0</ele><time>2026-04-12T13:51:14Z</time></trkpt><trkpt lat="45.80301979371256" lon="12.1857971677628"><ele>66.5</ele><time>2026-04-12T13:51:15Z</time></trkpt><trkpt lat="45.80282475245905" lon="12.18549648908114"><ele>67.0</ele><time>2026-04-12T13:51:16Z</time></trkpt><trkpt lat="45.8026469853925" lon="12.185215685744504"><ele>67.0</ele><time>2026-04-12T13:51:17Z</time></trkpt><trkpt lat="45.802477717824836" lon="12.184948796761109"><ele>67.0</ele><time>2026-04-12T13:51:18Z</time></trkpt><trkpt lat="45.8023177214925" lon="12.184695246836986"><ele>67.0</ele><time>2026-04-12T13:51:19Z</time></trkpt><trkpt lat="45.80216548013419" lon="12.184454976040978"><ele>67.0</ele><time>2026-04-12T13:51:20Z</time></trkpt><trkpt lat="45.80202236613155" lon="12.184223660950332"><ele>67.0</ele><time>2026-04-12T13:51:21Z</time></trkpt><trkpt lat="45.80188518482882" lon="12.184002713592925"><ele>67.0</ele><time>2026-04-12T13:51:22Z</time></trkpt><trkpt lat="45.801744888741965" lon="12.183778792557725"><ele>67.0</ele><time>2026-04-12T13:51:23Z</time></trkpt><trkpt lat="45.8016031791104" lon="12.183555567322514"><ele>67.0</ele><time>2026-04-12T13:51:24Z</time></trkpt><trkpt lat="45.80146346666472" lon="12.183332825117715"><ele>67.0</ele><time>2026-04-12T13:51:25Z</time></trkpt><trkpt lat="45.801335214661776" lon="12.183129887219874"><ele>67.0</ele><time>2026-04-12T13:51:26Z</time></trkpt><trkpt lat="45.801212479291266" lon="12.182938250771901"><ele>67.0</ele><time>2026-04-12T13:51:27Z</time></trkpt><trkpt lat="45.801094751485905" lon="12.182750874259614"><ele>67.33333333333333</ele><time>2026-04-12T13:51:28Z</time></trkpt><trkpt lat="45.800985445931644" lon="12.182574966404438"><ele>67.66666666666667</ele><time>2026-04-12T13:51:29Z</time></trkpt><trkpt lat="45.8008786094513" lon="12.182410303874098"><ele>68.0</ele><time>2026-04-12T13:51:30Z</time></trkpt><trkpt lat="45.80077596758381" lon="12.182248311559196"><ele>68.0</ele><time>2026-04-12T13:51:31Z</time></trkpt><trkpt lat="45.800674338076135" lon="12.1820879264827"><ele>68.0</ele><time>2026-04-12T13:51:32Z</time></trkpt><trkpt lat="45.80058099708254" lon="12.181939164259262"><ele>68.0</ele><time>2026-04-12T13:51:33Z</time></trkpt><trkpt lat="45.80048982139279" lon="12.181796838191696"><ele>68.0</ele><time>2026-04-12T13:51:34Z</time></trkpt><trkpt lat="45.80040124560427" lon="12.181658343179729"><ele>68.0</ele><time>2026-04-12T13:51:35Z</time></trkpt><trkpt lat="45.80031145112765" lon="12.181515791857821"><ele>68.0</ele><time>2026-04-12T13:51:36Z</time></trkpt><trkpt lat="45.80020178707802" lon="12.181360949751424"><ele>68.0</ele><time>2026-04-12T13:51:37Z</time></trkpt><trkpt lat="45.80008524125115" lon="12.181142318569588"><ele>67.5</ele><time>2026-04-12T13:51:38Z</time></trkpt><trkpt lat="45.79993110041675" lon="12.180897430500895"><ele>67.0</ele><time>2026-04-12T13:51:39Z</time></trkpt><trkpt lat="45.7997604872001" lon="12.180626639073674"><ele>67.0</ele><time>2026-04-12T13:51:40Z</time></trkpt><trkpt lat="45.79956649926286" lon="12.180335031403951"><ele>67.0</ele><time>2026-04-12T13:51:41Z</time></trkpt><trkpt lat="45.799390266031025" lon="12.180036818516806"><ele>67.5</ele><time>2026-04-12T13:51:42Z</time></trkpt><trkpt lat="45.799189518443775" lon="12.17973018168025"><ele>68.0</ele><time>2026-04-12T13:51:43Z</time></trkpt><trkpt lat="45.798991441182466" lon="12.179427433548275"><ele>68.0</ele><time>2026-04-12T13:51:44Z</time></trkpt><trkpt lat="45.79881821677297" lon="12.17914943762389"><ele>68.0</ele><time>2026-04-12T13:51:45Z</time></trkpt><trkpt lat="45.79865314134371" lon="12.178885385843751"><ele>67.5</ele><time>2026-04-12T13:51:46Z</time></trkpt><trkpt lat="45.79848615269423" lon="12.178615163716131"><ele>67.0</ele><time>2026-04-12T13:51:47Z</time></trkpt><trkpt lat="45.798321918740825" lon="12.17835012093546"><ele>67.5</ele><time>2026-04-12T13:51:48Z</time></trkpt><trkpt lat="45.798156602837274" lon="12.178086230983869"><ele>68.0</ele><time>2026-04-12T13:51:49Z</time></trkpt><trkpt lat="45.797991766347266" lon="12.177829460734461"><ele>68.0</ele><time>2026-04-12T13:51:50Z</time></trkpt><trkpt lat="45.79782973577242" lon="12.177576790666953"><ele>68.0</ele><time>2026-04-12T13:51:51Z</time></trkpt><trkpt lat="45.79766901820998" lon="12.177324236843118"><ele>68.5</ele><time>2026-04-12T13:51:52Z</time></trkpt><trkpt lat="45.797513200531654" lon="12.177076780056948"><ele>69.0</ele><time>2026-04-12T13:51:53Z</time></trkpt><trkpt lat="45.7973582795927" lon="12.176828881227193"><ele>69.0</ele><time>2026-04-12T13:51:54Z</time></trkpt><trkpt lat="45.79720711332576" lon="12.176583711636637"><ele>69.0</ele><time>2026-04-12T13:51:55Z</time></trkpt><trkpt lat="45.79705555471655" lon="12.176346669221916"><ele>68.66666666666667</ele><time>2026-04-12T13:51:56Z</time></trkpt><trkpt lat="45.796906375643886" lon="12.176110959576256"><ele>68.33333333333334</ele><time>2026-04-12T13:51:57Z</time></trkpt><trkpt lat="45.79676070647946" lon="12.175879176163683"><ele>68.0</ele><time>2026-04-12T13:51:58Z</time></trkpt><trkpt lat="45.796616555918725" lon="12.175650910257838"><ele>68.0</ele><time>2026-04-12T13:51:59Z</time></trkpt><trkpt lat="45.79647487720558" lon="12.175427274695249"><ele>68.0</ele><time>2026-04-12T13:52:00Z</time></trkpt><trkpt lat="45.79633458864635" lon="12.175206534830822"><ele>68.0</ele><time>2026-04-12T13:52:01Z</time></trkpt><trkpt lat="45.79619670118388" lon="12.174985154844562"><ele>68.0</ele><time>2026-04-12T13:52:02Z</time></trkpt><trkpt lat="45.79605611274272" lon="12.17477135055591"><ele>68.0</ele><time>2026-04-12T13:52:03Z</time></trkpt><trkpt lat="45.795915784611815" lon="12.174547166802485"><ele>68.0</ele><time>2026-04-12T13:52:04Z</time></trkpt><trkpt lat="45.79577673025331" lon="12.174331229889555"><ele>68.33333333333334</ele><time>2026-04-12T13:52:05Z</time></trkpt><trkpt lat="45.79563991123817" lon="12.174109536594642"><ele>68.66666666666667</ele><time>2026-04-12T13:52:06Z</time></trkpt><trkpt lat="45.79550815176512" lon="12.173892912605524"><ele>69.0</ele><time>2026-04-12T13:52:07Z</time></trkpt><trkpt lat="45.79537086972433" lon="12.17367744703609"><ele>69.0</ele><time>2026-04-12T13:52:08Z</time></trkpt><trkpt lat="45.79523272623755" lon="12.173467385349745"><ele>69.0</ele><time>2026-04-12T13:52:09Z</time></trkpt><trkpt lat="45.79509610696071" lon="12.173261474169967"><ele>69.0</ele><time>2026-04-12T13:52:10Z</time></trkpt><trkpt lat="45.794960758561544" lon="12.173055151288727"><ele>69.33333333333333</ele><time>2026-04-12T13:52:11Z</time></trkpt><trkpt lat="45.79483740477861" lon="12.172859679749179"><ele>69.66666666666666</ele><time>2026-04-12T13:52:12Z</time></trkpt><trkpt lat="45.794720888145555" lon="12.172660691020608"><ele>70.0</ele><time>2026-04-12T13:52:13Z</time></trkpt><trkpt lat="45.79460279902209" lon="12.17244413472051"><ele>70.66666666666666</ele><time>2026-04-12T13:52:14Z</time></trkpt><trkpt lat="45.79450003869435" lon="12.172201347641264"><ele>71.33333333333333</ele><time>2026-04-12T13:52:15Z</time></trkpt><trkpt lat="45.79441350701339" lon="12.171942943117617"><ele>72.0</ele><time>2026-04-12T13:52:16Z</time></trkpt><trkpt lat="45.79434285717534" lon="12.1716747805185"><ele>71.33333333333333</ele><time>2026-04-12T13:52:17Z</time></trkpt><trkpt lat="45.794283685211425" lon="12.171402549583812"><ele>70.66666666666666</ele><time>2026-04-12T13:52:18Z</time></trkpt><trkpt lat="45.794224762864076" lon="12.171128513050887"><ele>70.0</ele><time>2026-04-12T13:52:19Z</time></trkpt><trkpt lat="45.79417026943433" lon="12.170863977186904"><ele>70.66666666666666</ele><time>2026-04-12T13:52:20Z</time></trkpt><trkpt lat="45.79411453279194" lon="12.170619523369169"><ele>71.33333333333333</ele><time>2026-04-12T13:52:21Z</time></trkpt><trkpt lat="45.79405872677597" lon="12.17037656924219"><ele>72.0</ele><time>2026-04-12T13:52:22Z</time></trkpt><trkpt lat="45.794000652939786" lon="12.170129191300994"><ele>72.0</ele><time>2026-04-12T13:52:23Z</time></trkpt><trkpt lat="45.79394384931001" lon="12.169879080729617"><ele>72.0</ele><time>2026-04-12T13:52:24Z</time></trkpt><trkpt lat="45.793887570884806" lon="12.169628290213655"><ele>72.0</ele><time>2026-04-12T13:52:25Z</time></trkpt><trkpt lat="45.793831512490925" lon="12.169368685880423"><ele>72.33333333333333</ele><time>2026-04-12T13:52:26Z</time></trkpt><trkpt lat="45.79377207619564" lon="12.169107080224242"><ele>72.66666666666666</ele><time>2026-04-12T13:52:27Z</time></trkpt><trkpt lat="45.79371007214846" lon="12.16883389434438"><ele>73.0</ele><time>2026-04-12T13:52:28Z</time></trkpt><trkpt lat="45.793647826841564" lon="12.168560938769646"><ele>73.0</ele><time>2026-04-12T13:52:29Z</time></trkpt><trkpt lat="45.79358300304644" lon="12.168293086960631"><ele>73.0</ele><time>2026-04-12T13:52:30Z</time></trkpt><trkpt lat="45.79352487372769" lon="12.168043301043689"><ele>73.0</ele><time>2026-04-12T13:52:31Z</time></trkpt><trkpt lat="45.793473993406536" lon="12.167808390647531"><ele>73.0</ele><time>2026-04-12T13:52:32Z</time></trkpt><trkpt lat="45.7934268968564" lon="12.167581382607866"><ele>73.0</ele><time>2026-04-12T13:52:33Z</time></trkpt><trkpt lat="45.79337847388235" lon="12.167365504666376"><ele>73.0</ele><time>2026-04-12T13:52:34Z</time></trkpt><trkpt lat="45.793326738896894" lon="12.167147121151086"><ele>73.0</ele><time>2026-04-12T13:52:35Z</time></trkpt><trkpt lat="45.79327523851191" lon="12.166937812806689"><ele>73.0</ele><time>2026-04-12T13:52:36Z</time></trkpt><trkpt lat="45.79322864409825" lon="12.166734312626659"><ele>73.0</ele><time>2026-04-12T13:52:37Z</time></trkpt><trkpt lat="45.79318407093829" lon="12.166536151434391"><ele>73.0</ele><time>2026-04-12T13:52:38Z</time></trkpt><trkpt lat="45.793145397625324" lon="12.16634330436069"><ele>73.0</ele><time>2026-04-12T13:52:39Z</time></trkpt><trkpt lat="45.793103706724864" lon="12.166158635768644"><ele>73.0</ele><time>2026-04-12T13:52:40Z</time></trkpt><trkpt lat="45.7930622522093" lon="12.165974457557338"><ele>73.0</ele><time>2026-04-12T13:52:41Z</time></trkpt><trkpt lat="45.79301724405273" lon="12.165790168012204"><ele>73.0</ele><time>2026-04-12T13:52:42Z</time></trkpt><trkpt lat="45.7929724709874" lon="12.165592287607097"><ele>73.0</ele><time>2026-04-12T13:52:43Z</time></trkpt><trkpt lat="45.7929279154191" lon="12.165403415805898"><ele>73.0</ele><time>2026-04-12T13:52:44Z</time></trkpt><trkpt lat="45.79289012943628" lon="12.165228941004862"><ele>73.0</ele><time>2026-04-12T13:52:45Z</time></trkpt><trkpt lat="45.792856658153745" lon="12.165083478882709"><ele>73.0</ele><time>2026-04-12T13:52:46Z</time></trkpt><trkpt lat="45.79283407621202" lon="12.16498324772876"><ele>73.0</ele><time>2026-04-12T13:52:47Z</time></trkpt><trkpt lat="45.792812753773916" lon="12.164885582902906"><ele>73.2</ele><time>2026-04-12T13:52:50Z</time></trkpt><trkpt lat="45.79276531122081" lon="12.16471018863924"><ele>73.4</ele><time>2026-04-12T13:53:05Z</time></trkpt><trkpt lat="45.79274166631088" lon="12.1645914846039"><ele>73.60000000000001</ele><time>2026-04-12T13:53:06Z</time></trkpt><trkpt lat="45.792745155165555" lon="12.164452758965833"><ele>73.8</ele><time>2026-04-12T13:53:07Z</time></trkpt><trkpt lat="45.79275980689374" lon="12.164332200166477"><ele>74.0</ele><time>2026-04-12T13:53:08Z</time></trkpt><trkpt lat="45.79287624941612" lon="12.164205057179627"><ele>74.0</ele><time>2026-04-12T13:53:09Z</time></trkpt><trkpt lat="45.79299526817908" lon="12.164079038187198"><ele>74.0</ele><time>2026-04-12T13:53:10Z</time></trkpt><trkpt lat="45.793106021651674" lon="12.16395923176968"><ele>74.0</ele><time>2026-04-12T13:53:11Z</time></trkpt><trkpt lat="45.793226252307996" lon="12.163831769104451"><ele>74.0</ele><time>2026-04-12T13:53:12Z</time></trkpt><trkpt lat="45.79336711797867" lon="12.163686270661575"><ele>75.0</ele><time>2026-04-12T13:53:13Z</time></trkpt><trkpt lat="45.79353431275714" lon="12.163539195038256"><ele>76.0</ele><time>2026-04-12T13:53:14Z</time></trkpt><trkpt lat="45.79372539731609" lon="12.163397658041148"><ele>77.0</ele><time>2026-04-12T13:53:15Z</time></trkpt><trkpt lat="45.79394114495522" lon="12.163268166489429"><ele>77.0</ele><time>2026-04-12T13:53:16Z</time></trkpt><trkpt lat="45.79417721311354" lon="12.163146009471133"><ele>77.0</ele><time>2026-04-12T13:53:17Z</time></trkpt><trkpt lat="45.79442352998657" lon="12.163020091251019"><ele>76.5</ele><time>2026-04-12T13:53:18Z</time></trkpt><trkpt lat="45.79465213165163" lon="12.162901396170039"><ele>76.0</ele><time>2026-04-12T13:53:19Z</time></trkpt><trkpt lat="45.79485935329265" lon="12.162794587702876"><ele>76.0</ele><time>2026-04-12T13:53:20Z</time></trkpt><trkpt lat="45.79505862727726" lon="12.162680372572106"><ele>76.0</ele><time>2026-04-12T13:53:21Z</time></trkpt><trkpt lat="45.79526100791997" lon="12.162567779223284"><ele>76.0</ele><time>2026-04-12T13:53:22Z</time></trkpt><trkpt lat="45.79544784143792" lon="12.162476520085725"><ele>76.33333333333333</ele><time>2026-04-12T13:53:23Z</time></trkpt><trkpt lat="45.795628257520654" lon="12.16242041364004"><ele>76.66666666666667</ele><time>2026-04-12T13:53:24Z</time></trkpt><trkpt lat="45.795814695665705" lon="12.162399849760394"><ele>77.0</ele><time>2026-04-12T13:53:25Z</time></trkpt><trkpt lat="45.79601496508437" lon="12.162413306187279"><ele>77.0</ele><time>2026-04-12T13:53:26Z</time></trkpt><trkpt lat="45.79621962367478" lon="12.162453340698537"><ele>77.0</ele><time>2026-04-12T13:53:27Z</time></trkpt><trkpt lat="45.7964239067528" lon="12.162495830565813"><ele>77.0</ele><time>2026-04-12T13:53:28Z</time></trkpt><trkpt lat="45.796624839592276" lon="12.162529141579645"><ele>77.0</ele><time>2026-04-12T13:53:29Z</time></trkpt><trkpt lat="45.79680464126357" lon="12.162567786786097"><ele>77.0</ele><time>2026-04-12T13:53:30Z</time></trkpt><trkpt lat="45.796990727004186" lon="12.1626054500204"><ele>77.0</ele><time>2026-04-12T13:53:31Z</time></trkpt><trkpt lat="45.797176723369724" lon="12.162646814248328"><ele>77.33333333333334</ele><time>2026-04-12T13:53:32Z</time></trkpt><trkpt lat="45.79736551864153" lon="12.162673576627805"><ele>77.66666666666667</ele><time>2026-04-12T13:53:33Z</time></trkpt><trkpt lat="45.797540346060565" lon="12.16269051634861"><ele>78.0</ele><time>2026-04-12T13:53:34Z</time></trkpt><trkpt lat="45.797729109806774" lon="12.162665834593227"><ele>78.33333333333333</ele><time>2026-04-12T13:53:35Z</time></trkpt><trkpt lat="45.79794383635681" lon="12.162599307746502"><ele>78.66666666666666</ele><time>2026-04-12T13:53:36Z</time></trkpt><trkpt lat="45.79816492987723" lon="12.162518941951731"><ele>79.0</ele><time>2026-04-12T13:53:37Z</time></trkpt><trkpt lat="45.798355306527796" lon="12.162453565736719"><ele>79.0</ele><time>2026-04-12T13:53:38Z</time></trkpt><trkpt lat="45.79852860337625" lon="12.162407826754901"><ele>79.0</ele><time>2026-04-12T13:53:39Z</time></trkpt><trkpt lat="45.79869481138453" lon="12.162369064290997"><ele>79.0</ele><time>2026-04-12T13:53:40Z</time></trkpt><trkpt lat="45.79884892049047" lon="12.162326323705432"><ele>79.0</ele><time>2026-04-12T13:53:41Z</time></trkpt><trkpt lat="45.7989855702397" lon="12.162284896658432"><ele>79.0</ele><time>2026-04-12T13:53:42Z</time></trkpt><trkpt lat="45.799114603959545" lon="12.162248597531613"><ele>79.0</ele><time>2026-04-12T13:53:43Z</time></trkpt><trkpt lat="45.79922983534235" lon="12.16221661725077"><ele>79.0</ele><time>2026-04-12T13:53:44Z</time></trkpt><trkpt lat="45.79933481726852" lon="12.162177511191413"><ele>80.80000000000001</ele><time>2026-04-12T13:53:45Z</time></trkpt><trkpt lat="45.799430132939534" lon="12.16213439382574"><ele>82.60000000000001</ele><time>2026-04-12T13:53:46Z</time></trkpt><trkpt lat="45.7995242631318" lon="12.162083736539477"><ele>84.4</ele><time>2026-04-12T13:53:47Z</time></trkpt><trkpt lat="45.79961183698072" lon="12.162003550679508"><ele>86.2</ele><time>2026-04-12T13:53:48Z</time></trkpt><trkpt lat="45.79967373644203" lon="12.161873238050843"><ele>88.0</ele><time>2026-04-12T13:53:49Z</time></trkpt><trkpt lat="45.79975446070574" lon="12.161722036397235"><ele>88.0</ele><time>2026-04-12T13:53:50Z</time></trkpt><trkpt lat="45.79987592804176" lon="12.161581880600925"><ele>88.0</ele><time>2026-04-12T13:53:51Z</time></trkpt><trkpt lat="45.80001339135054" lon="12.161421281156542"><ele>88.0</ele><time>2026-04-12T13:53:52Z</time></trkpt><trkpt lat="45.800143007766735" lon="12.161244009160445"><ele>91.66666666666666</ele><time>2026-04-12T13:53:53Z</time></trkpt><trkpt lat="45.800253122475546" lon="12.161088484756666"><ele>95.33333333333333</ele><time>2026-04-12T13:53:54Z</time></trkpt><trkpt lat="45.80037217718264" lon="12.160930377926439"><ele>99.0</ele><time>2026-04-12T13:53:55Z</time></trkpt><trkpt lat="45.80049075109705" lon="12.160763027417275"><ele>98.0</ele><time>2026-04-12T13:53:56Z</time></trkpt><trkpt lat="45.80061664367069" lon="12.16061383222943"><ele>97.0</ele><time>2026-04-12T13:53:57Z</time></trkpt><trkpt lat="45.800750814680136" lon="12.160460820072473"><ele>96.0</ele><time>2026-04-12T13:53:58Z</time></trkpt><trkpt lat="45.800887467649325" lon="12.16031812441522"><ele>99.0</ele><time>2026-04-12T13:53:59Z</time></trkpt><trkpt lat="45.80102505147744" lon="12.160176493374854"><ele>102.0</ele><time>2026-04-12T13:54:00Z</time></trkpt><trkpt lat="45.801160590535645" lon="12.160034721562688"><ele>105.0</ele><time>2026-04-12T13:54:01Z</time></trkpt><trkpt lat="45.80129448199686" lon="12.159894435700352"><ele>105.33333333333334</ele><time>2026-04-12T13:54:02Z</time></trkpt><trkpt lat="45.80142641218436" lon="12.159756162603207"><ele>105.66666666666667</ele><time>2026-04-12T13:54:03Z</time></trkpt><trkpt lat="45.801559002017214" lon="12.159621728557482"><ele>106.0</ele><time>2026-04-12T13:54:04Z</time></trkpt><trkpt lat="45.801685025578045" lon="12.15948096896662"><ele>106.0</ele><time>2026-04-12T13:54:05Z</time></trkpt><trkpt lat="45.801816589074704" lon="12.159351576942083"><ele>106.0</ele><time>2026-04-12T13:54:06Z</time></trkpt><trkpt lat="45.80195543818635" lon="12.159223086346312"><ele>106.0</ele><time>2026-04-12T13:54:07Z</time></trkpt><trkpt lat="45.802104608202065" lon="12.159116599907318"><ele>108.66666666666667</ele><time>2026-04-12T13:54:08Z</time></trkpt><trkpt lat="45.80226716164544" lon="12.159036340534044"><ele>111.33333333333334</ele><time>2026-04-12T13:54:09Z</time></trkpt><trkpt lat="45.80243866994251" lon="12.158978874549279"><ele>114.0</ele><time>2026-04-12T13:54:10Z</time></trkpt><trkpt lat="45.802613091565036" lon="12.158928209858106"><ele>116.66666666666666</ele><time>2026-04-12T13:54:11Z</time></trkpt><trkpt lat="45.80279049975845" lon="12.158864441789008"><ele>119.33333333333333</ele><time>2026-04-12T13:54:12Z</time></trkpt><trkpt lat="45.802956781060274" lon="12.158802097314087"><ele>122.0</ele><time>2026-04-12T13:54:13Z</time></trkpt><trkpt lat="45.80312898392219" lon="12.158741471775278"><ele>122.0</ele><time>2026-04-12T13:54:14Z</time></trkpt><trkpt lat="45.80332797781904" lon="12.158667319294729"><ele>122.0</ele><time>2026-04-12T13:54:15Z</time></trkpt><trkpt lat="45.80353052241604" lon="12.158589359387127"><ele>122.0</ele><time>2026-04-12T13:54:16Z</time></trkpt><trkpt lat="45.803734129764734" lon="12.158515508903163"><ele>124.0</ele><time>2026-04-12T13:54:17Z</time></trkpt><trkpt lat="45.80391857906499" lon="12.158432734313793"><ele>126.0</ele><time>2026-04-12T13:54:18Z</time></trkpt><trkpt lat="45.804082102923786" lon="12.158320446946092"><ele>128.0</ele><time>2026-04-12T13:54:19Z</time></trkpt><trkpt lat="45.80423390866851" lon="12.158181232891295"><ele>130.33333333333331</ele><time>2026-04-12T13:54:20Z</time></trkpt><trkpt lat="45.80439547384708" lon="12.158018721874775"><ele>132.66666666666666</ele><time>2026-04-12T13:54:21Z</time></trkpt><trkpt lat="45.80454905123231" lon="12.157856830553909"><ele>135.0</ele><time>2026-04-12T13:54:22Z</time></trkpt><trkpt lat="45.80469432523216" lon="12.157700171096005"><ele>135.0</ele><time>2026-04-12T13:54:23Z</time></trkpt><trkpt lat="45.80481837257828" lon="12.157527014459998"><ele>135.0</ele><time>2026-04-12T13:54:24Z</time></trkpt><trkpt lat="45.804929821848845" lon="12.157350044539148"><ele>135.0</ele><time>2026-04-12T13:54:25Z</time></trkpt><trkpt lat="45.80503124027168" lon="12.157120411419628"><ele>136.33333333333334</ele><time>2026-04-12T13:54:26Z</time></trkpt><trkpt lat="45.80511863175752" lon="12.15685081114492"><ele>137.66666666666669</ele><time>2026-04-12T13:54:27Z</time></trkpt><trkpt lat="45.80518454647421" lon="12.156547097543548"><ele>139.0</ele><time>2026-04-12T13:54:28Z</time></trkpt><trkpt lat="45.80526036258064" lon="12.156247900651985"><ele>144.66666666666669</ele><time>2026-04-12T13:54:29Z</time></trkpt><trkpt lat="45.805342958689785" lon="12.155971550642013"><ele>150.33333333333334</ele><time>2026-04-12T13:54:30Z</time></trkpt><trkpt lat="45.80542335825588" lon="12.155706321137046"><ele>156.0</ele><time>2026-04-12T13:54:31Z</time></trkpt><trkpt lat="45.80550133317324" lon="12.155449001358047"><ele>157.66666666666666</ele><time>2026-04-12T13:54:32Z</time></trkpt><trkpt lat="45.80557035467317" lon="12.155198760986375"><ele>159.33333333333331</ele><time>2026-04-12T13:54:33Z</time></trkpt><trkpt lat="45.80563405504562" lon="12.154953458479762"><ele>161.0</ele><time>2026-04-12T13:54:34Z</time></trkpt><trkpt lat="45.8056977534939" lon="12.154720618005987"><ele>161.66666666666666</ele><time>2026-04-12T13:54:35Z</time></trkpt><trkpt lat="45.80576254708223" lon="12.154496110949312"><ele>162.33333333333334</ele><time>2026-04-12T13:54:36Z</time></trkpt><trkpt lat="45.805840460570415" lon="12.154271587153"><ele>163.0</ele><time>2026-04-12T13:54:37Z</time></trkpt><trkpt lat="45.80594958796281" lon="12.154047766745824"><ele>165.66666666666669</ele><time>2026-04-12T13:54:38Z</time></trkpt><trkpt lat="45.80607907691489" lon="12.153859589303835"><ele>168.33333333333334</ele><time>2026-04-12T13:54:39Z</time></trkpt><trkpt lat="45.806213319166105" lon="12.153709217475285"><ele>171.0</ele><time>2026-04-12T13:54:40Z</time></trkpt><trkpt lat="45.80634320112823" lon="12.153579560219805"><ele>171.0</ele><time>2026-04-12T13:54:41Z</time></trkpt><trkpt lat="45.80646760968671" lon="12.153459392795199"><ele>171.0</ele><time>2026-04-12T13:54:42Z</time></trkpt><trkpt lat="45.8065910393691" lon="12.153355495854695"><ele>171.0</ele><time>2026-04-12T13:54:43Z</time></trkpt><trkpt lat="45.8067382487179" lon="12.153284272572545"><ele>171.0</ele><time>2026-04-12T13:54:44Z</time></trkpt><trkpt lat="45.8068979543583" lon="12.153242473697754"><ele>173.0</ele><time>2026-04-12T13:54:45Z</time></trkpt><trkpt lat="45.807069835389775" lon="12.153249005313842"><ele>175.0</ele><time>2026-04-12T13:54:46Z</time></trkpt><trkpt lat="45.80724650194044" lon="12.153290439946655"><ele>177.0</ele><time>2026-04-12T13:54:47Z</time></trkpt><trkpt lat="45.80741299888448" lon="12.153360289035291"><ele>177.0</ele><time>2026-04-12T13:54:48Z</time></trkpt><trkpt lat="45.80757795051652" lon="12.153455492353592"><ele>177.0</ele><time>2026-04-12T13:54:49Z</time></trkpt><trkpt lat="45.80773097413581" lon="12.153541946757983"><ele>177.0</ele><time>2026-04-12T13:54:50Z</time></trkpt><trkpt lat="45.80786793825295" lon="12.153614854660571"><ele>176.75</ele><time>2026-04-12T13:54:51Z</time></trkpt><trkpt lat="45.80799668680168" lon="12.153672985627091"><ele>176.5</ele><time>2026-04-12T13:54:52Z</time></trkpt><trkpt lat="45.80811118081072" lon="12.153727038534528"><ele>176.25</ele><time>2026-04-12T13:54:53Z</time></trkpt><trkpt lat="45.80821985180069" lon="12.153770743772373"><ele>176.0</ele><time>2026-04-12T13:54:54Z</time></trkpt><trkpt lat="45.80832654310025" lon="12.1537834082481"><ele>176.0</ele><time>2026-04-12T13:54:55Z</time></trkpt><trkpt lat="45.80842763350832" lon="12.153753790800787"><ele>176.0</ele><time>2026-04-12T13:54:56Z</time></trkpt><trkpt lat="45.808523941272725" lon="12.153672203322778"><ele>176.0</ele><time>2026-04-12T13:54:57Z</time></trkpt><trkpt lat="45.80860543280921" lon="12.153516662311914"><ele>176.0</ele><time>2026-04-12T13:54:58Z</time></trkpt><trkpt lat="45.80868209174345" lon="12.153351045882305"><ele>177.25</ele><time>2026-04-12T13:54:59Z</time></trkpt><trkpt lat="45.80874275112732" lon="12.153143944232601"><ele>178.5</ele><time>2026-04-12T13:55:00Z</time></trkpt><trkpt lat="45.808794637175204" lon="12.152941412598228"><ele>179.75</ele><time>2026-04-12T13:55:01Z</time></trkpt><trkpt lat="45.80885067234791" lon="12.152755829944057"><ele>181.0</ele><time>2026-04-12T13:55:02Z</time></trkpt><trkpt lat="45.80890178707144" lon="12.152570924529282"><ele>181.0</ele><time>2026-04-12T13:55:03Z</time></trkpt><trkpt lat="45.80895544548578" lon="12.152373983138014"><ele>181.0</ele><time>2026-04-12T13:55:04Z</time></trkpt><trkpt lat="45.809011672543114" lon="12.152162262111698"><ele>181.0</ele><time>2026-04-12T13:55:05Z</time></trkpt><trkpt lat="45.80907123897782" lon="12.151940826807598"><ele>183.33333333333334</ele><time>2026-04-12T13:55:06Z</time></trkpt><trkpt lat="45.80913281109375" lon="12.151716465892891"><ele>185.66666666666666</ele><time>2026-04-12T13:55:07Z</time></trkpt><trkpt lat="45.809198395084415" lon="12.151484147501261"><ele>188.0</ele><time>2026-04-12T13:55:08Z</time></trkpt><trkpt lat="45.80926555746699" lon="12.151250881587607"><ele>189.33333333333331</ele><time>2026-04-12T13:55:09Z</time></trkpt><trkpt lat="45.809331349786476" lon="12.151020716829239"><ele>190.66666666666666</ele><time>2026-04-12T13:55:10Z</time></trkpt><trkpt lat="45.80940095520068" lon="12.150792706448767"><ele>192.0</ele><time>2026-04-12T13:55:11Z</time></trkpt><trkpt lat="45.80947737936262" lon="12.15056940540422"><ele>192.0</ele><time>2026-04-12T13:55:12Z</time></trkpt><trkpt lat="45.809553102563854" lon="12.15036177362531"><ele>192.0</ele><time>2026-04-12T13:55:13Z</time></trkpt><trkpt lat="45.809610952069825" lon="12.150169938680193"><ele>192.0</ele><time>2026-04-12T13:55:14Z</time></trkpt><trkpt lat="45.809657194834195" lon="12.149988662347718"><ele>192.0</ele><time>2026-04-12T13:55:15Z</time></trkpt><trkpt lat="45.809684885723314" lon="12.149786692965364"><ele>192.66666666666669</ele><time>2026-04-12T13:55:16Z</time></trkpt><trkpt lat="45.809709653400674" lon="12.1495500156811"><ele>193.33333333333334</ele><time>2026-04-12T13:55:17Z</time></trkpt><trkpt lat="45.80975028499502" lon="12.149317633581429"><ele>194.0</ele><time>2026-04-12T13:55:18Z</time></trkpt><trkpt lat="45.8097594867053" lon="12.149062313235683"><ele>197.0</ele><time>2026-04-12T13:55:19Z</time></trkpt><trkpt lat="45.80976670977422" lon="12.148817564414546"><ele>200.0</ele><time>2026-04-12T13:55:20Z</time></trkpt><trkpt lat="45.80978005885137" lon="12.148599666886575"><ele>203.0</ele><time>2026-04-12T13:55:21Z</time></trkpt><trkpt lat="45.809784825580266" lon="12.148374831030605"><ele>204.5</ele><time>2026-04-12T13:55:22Z</time></trkpt><trkpt lat="45.80979620087279" lon="12.148164162966202"><ele>206.0</ele><time>2026-04-12T13:55:23Z</time></trkpt><trkpt lat="45.80980943867496" lon="12.147983537942546"><ele>207.5</ele><time>2026-04-12T13:55:24Z</time></trkpt><trkpt lat="45.80983898209594" lon="12.147822292043168"><ele>209.0</ele><time>2026-04-12T13:55:25Z</time></trkpt><trkpt lat="45.809896720710256" lon="12.147700620529095"><ele>209.0</ele><time>2026-04-12T13:55:26Z</time></trkpt><trkpt lat="45.80997749159095" lon="12.147616874777697"><ele>209.0</ele><time>2026-04-12T13:55:27Z</time></trkpt><trkpt lat="45.810072882675634" lon="12.147570029965172"><ele>209.0</ele><time>2026-04-12T13:55:28Z</time></trkpt><trkpt lat="45.81019041325963" lon="12.14752420006046"><ele>209.0</ele><time>2026-04-12T13:55:29Z</time></trkpt><trkpt lat="45.81030144492929" lon="12.147496185516404"><ele>209.0</ele><time>2026-04-12T13:55:30Z</time></trkpt><trkpt lat="45.81042265664912" lon="12.1474784334855"><ele>207.66666666666669</ele><time>2026-04-12T13:55:31Z</time></trkpt><trkpt lat="45.810571129119076" lon="12.147455127981681"><ele>206.33333333333331</ele><time>2026-04-12T13:55:32Z</time></trkpt><trkpt lat="45.81073051723748" lon="12.14743313354558"><ele>205.0</ele><time>2026-04-12T13:55:33Z</time></trkpt><trkpt lat="45.8108972099375" lon="12.1474249420174"><ele>206.33333333333331</ele><time>2026-04-12T13:55:34Z</time></trkpt><trkpt lat="45.811075622511225" lon="12.147453875091319"><ele>207.66666666666669</ele><time>2026-04-12T13:55:35Z</time></trkpt><trkpt lat="45.811234635444585" lon="12.147471108317518"><ele>209.0</ele><time>2026-04-12T13:55:36Z</time></trkpt><trkpt lat="45.811391312668675" lon="12.147496620599917"><ele>209.0</ele><time>2026-04-12T13:55:37Z</time></trkpt><trkpt lat="45.811550208897735" lon="12.14751615983391"><ele>209.0</ele><time>2026-04-12T13:55:38Z</time></trkpt><trkpt lat="45.81171195147971" lon="12.147530268617876"><ele>209.0</ele><time>2026-04-12T13:55:39Z</time></trkpt><trkpt lat="45.81187281761369" lon="12.147540796001552"><ele>208.33333333333334</ele><time>2026-04-12T13:55:40Z</time></trkpt><trkpt lat="45.812036107904405" lon="12.147557968549734"><ele>207.66666666666669</ele><time>2026-04-12T13:55:41Z</time></trkpt><trkpt lat="45.81220079913448" lon="12.1475714877585"><ele>207.0</ele><time>2026-04-12T13:55:42Z</time></trkpt><trkpt lat="45.81236460279845" lon="12.147588442798279"><ele>207.0</ele><time>2026-04-12T13:55:43Z</time></trkpt><trkpt lat="45.81252814683495" lon="12.147602017415059"><ele>207.0</ele><time>2026-04-12T13:55:44Z</time></trkpt><trkpt lat="45.8126946291368" lon="12.14760218624436"><ele>207.0</ele><time>2026-04-12T13:55:45Z</time></trkpt><trkpt lat="45.81284709309618" lon="12.14755581267941"><ele>208.0</ele><time>2026-04-12T13:55:46Z</time></trkpt><trkpt lat="45.81299759897145" lon="12.147471616521193"><ele>209.0</ele><time>2026-04-12T13:55:47Z</time></trkpt><trkpt lat="45.813133291934676" lon="12.147347422284893"><ele>210.0</ele><time>2026-04-12T13:55:48Z</time></trkpt><trkpt lat="45.81325853498973" lon="12.147203944442696"><ele>210.0</ele><time>2026-04-12T13:55:49Z</time></trkpt><trkpt lat="45.81338126778087" lon="12.14705963896922"><ele>210.0</ele><time>2026-04-12T13:55:50Z</time></trkpt><trkpt lat="45.813507890729575" lon="12.146919902274325"><ele>210.0</ele><time>2026-04-12T13:55:51Z</time></trkpt><trkpt lat="45.81363876525159" lon="12.146786697653946"><ele>210.0</ele><time>2026-04-12T13:55:52Z</time></trkpt><trkpt lat="45.81376006057523" lon="12.14665674902467"><ele>210.0</ele><time>2026-04-12T13:55:53Z</time></trkpt><trkpt lat="45.81386774762407" lon="12.146529762736458"><ele>210.0</ele><time>2026-04-12T13:55:54Z</time></trkpt><trkpt lat="45.81395939889802" lon="12.146397671921456"><ele>210.0</ele><time>2026-04-12T13:55:55Z</time></trkpt><trkpt lat="45.81402835614908" lon="12.146265347482577"><ele>211.5</ele><time>2026-04-12T13:55:56Z</time></trkpt><trkpt lat="45.814091212122605" lon="12.146135636144209"><ele>213.0</ele><time>2026-04-12T13:55:57Z</time></trkpt><trkpt lat="45.81414583033048" lon="12.145990456571132"><ele>214.5</ele><time>2026-04-12T13:55:58Z</time></trkpt><trkpt lat="45.81418031895709" lon="12.145824940069057"><ele>216.0</ele><time>2026-04-12T13:55:59Z</time></trkpt><trkpt lat="45.81421717780396" lon="12.145649921483631"><ele>217.20000000000002</ele><time>2026-04-12T13:56:00Z</time></trkpt><trkpt lat="45.81424659357796" lon="12.145485086528133"><ele>218.40000000000003</ele><time>2026-04-12T13:56:01Z</time></trkpt><trkpt lat="45.81426317895674" lon="12.145327231258921"><ele>219.6</ele><time>2026-04-12T13:56:02Z</time></trkpt><trkpt lat="45.81426565469307" lon="12.145175775270491"><ele>220.8</ele><time>2026-04-12T13:56:03Z</time></trkpt><trkpt lat="45.814263005853924" lon="12.145040999404094"><ele>222.0</ele><time>2026-04-12T13:56:04Z</time></trkpt><trkpt lat="45.81425996791301" lon="12.144934005588427"><ele>221.8</ele><time>2026-04-12T13:56:05Z</time></trkpt><trkpt lat="45.81428661523934" lon="12.144758389055502"><ele>221.6</ele><time>2026-04-12T13:56:07Z</time></trkpt><trkpt lat="45.81432441751153" lon="12.144623837630476"><ele>221.40000000000003</ele><time>2026-04-12T13:56:08Z</time></trkpt><trkpt lat="45.81438143164084" lon="12.144497436697838"><ele>221.20000000000002</ele><time>2026-04-12T13:56:09Z</time></trkpt><trkpt lat="45.814455953435356" lon="12.144381340633963"><ele>221.0</ele><time>2026-04-12T13:56:10Z</time></trkpt><trkpt lat="45.81454217810515" lon="12.144276956044195"><ele>221.00000000000003</ele><time>2026-04-12T13:56:11Z</time></trkpt><trkpt lat="45.81462735801108" lon="12.14420152515087"><ele>221.0</ele><time>2026-04-12T13:56:12Z</time></trkpt><trkpt lat="45.81470574821287" lon="12.144154508878563"><ele>221.0</ele><time>2026-04-12T13:56:13Z</time></trkpt><trkpt lat="45.81477057631155" lon="12.144104191875005"><ele>221.0</ele><time>2026-04-12T13:56:14Z</time></trkpt><trkpt lat="45.81483839494233" lon="12.144047830331349"><ele>221.00000000000003</ele><time>2026-04-12T13:56:16Z</time></trkpt><trkpt lat="45.8147750702861" lon="12.144097505909924"><ele>221.0</ele><time>2026-04-12T13:56:21Z</time></trkpt><trkpt lat="45.81467300376796" lon="12.14411896864956"><ele>221.0</ele><time>2026-04-12T13:56:23Z</time></trkpt><trkpt lat="45.81461020909463" lon="12.14420487482336"><ele>221.00000000000003</ele><time>2026-04-12T13:56:24Z</time></trkpt><trkpt lat="45.81452235474102" lon="12.144284305631379"><ele>221.00000000000003</ele><time>2026-04-12T13:56:25Z</time></trkpt><trkpt lat="45.81441888140798" lon="12.144393734493077"><ele>221.0</ele><time>2026-04-12T13:56:26Z</time></trkpt><trkpt lat="45.814336215043404" lon="12.144512566920202"><ele>221.0</ele><time>2026-04-12T13:56:27Z</time></trkpt><trkpt lat="45.814284838094" lon="12.144626151166468"><ele>221.25</ele><time>2026-04-12T13:56:28Z</time></trkpt><trkpt lat="45.81424817765541" lon="12.144758917507009"><ele>221.5</ele><time>2026-04-12T13:56:29Z</time></trkpt><trkpt lat="45.81422691629428" lon="12.144918641673646"><ele>221.75</ele><time>2026-04-12T13:56:30Z</time></trkpt><trkpt lat="45.814221006022734" lon="12.145100479909052"><ele>222.0</ele><time>2026-04-12T13:56:31Z</time></trkpt><trkpt lat="45.81422085148692" lon="12.145273226880512"><ele>222.0</ele><time>2026-04-12T13:56:32Z</time></trkpt><trkpt lat="45.81422291632509" lon="12.14543346931223"><ele>222.0</ele><time>2026-04-12T13:56:33Z</time></trkpt><trkpt lat="45.81419842998339" lon="12.1455879045723"><ele>222.0</ele><time>2026-04-12T13:56:34Z</time></trkpt><trkpt lat="45.814156660523814" lon="12.145740754680348"><ele>222.0</ele><time>2026-04-12T13:56:35Z</time></trkpt><trkpt lat="45.81411988816871" lon="12.145879374245837"><ele>222.0</ele><time>2026-04-12T13:56:36Z</time></trkpt><trkpt lat="45.814085046097276" lon="12.145993412677399"><ele>221.0</ele><time>2026-04-12T13:56:37Z</time></trkpt><trkpt lat="45.81404771378195" lon="12.146106431992353"><ele>220.0</ele><time>2026-04-12T13:56:38Z</time></trkpt><trkpt lat="45.814005692365384" lon="12.14621945690805"><ele>219.0</ele><time>2026-04-12T13:56:39Z</time></trkpt><trkpt lat="45.81395454627261" lon="12.146316269626732"><ele>218.0</ele><time>2026-04-12T13:56:40Z</time></trkpt><trkpt lat="45.81389994305978" lon="12.14640070217722"><ele>217.0</ele><time>2026-04-12T13:56:41Z</time></trkpt><trkpt lat="45.813849854343665" lon="12.146473736347222"><ele>216.0</ele><time>2026-04-12T13:56:42Z</time></trkpt><trkpt lat="45.813768078659706" lon="12.146486305120867"><ele>216.0</ele><time>2026-04-12T13:56:44Z</time></trkpt><trkpt lat="45.813737472555374" lon="12.146393820518675"><ele>216.0</ele><time>2026-04-12T13:56:45Z</time></trkpt><trkpt lat="45.8136731024285" lon="12.146364727111377"><ele>216.0</ele><time>2026-04-12T13:56:46Z</time></trkpt><trkpt lat="45.81360129844374" lon="12.146354089192066"><ele>216.0</ele><time>2026-04-12T13:56:47Z</time></trkpt><trkpt lat="45.81351485307495" lon="12.146339835511958"><ele>216.0</ele><time>2026-04-12T13:56:48Z</time></trkpt><trkpt lat="45.81342681117496" lon="12.146326961465087"><ele>216.0</ele><time>2026-04-12T13:56:49Z</time></trkpt><trkpt lat="45.81335404235459" lon="12.146317288616627"><ele>215.8</ele><time>2026-04-12T13:56:50Z</time></trkpt><trkpt lat="45.81321203996318" lon="12.14628766168111"><ele>215.60000000000002</ele><time>2026-04-12T13:56:52Z</time></trkpt><trkpt lat="45.8131331706243" lon="12.146255192404865"><ele>215.4</ele><time>2026-04-12T13:56:53Z</time></trkpt><trkpt lat="45.81306231335751" lon="12.146210171525205"><ele>215.2</ele><time>2026-04-12T13:56:54Z</time></trkpt><trkpt lat="45.81300319516159" lon="12.146147794252572"><ele>215.0</ele><time>2026-04-12T13:56:55Z</time></trkpt><trkpt lat="45.812921933962464" lon="12.146040956720164"><ele>215.0</ele><time>2026-04-12T13:56:57Z</time></trkpt><trkpt lat="45.812852690940915" lon="12.145941912591212"><ele>215.0</ele><time>2026-04-12T13:56:59Z</time></trkpt><trkpt lat="45.81281771443402" lon="12.145847123470746"><ele>215.0</ele><time>2026-04-12T13:57:00Z</time></trkpt><trkpt lat="45.81279287117558" lon="12.145762366106784"><ele>215.0</ele><time>2026-04-12T13:57:01Z</time></trkpt><trkpt lat="45.81273993055186" lon="12.145619279354122"><ele>215.0</ele><time>2026-04-12T13:57:03Z</time></trkpt><trkpt lat="45.81266150738446" lon="12.145523395374287"><ele>216.4</ele><time>2026-04-12T13:57:05Z</time></trkpt><trkpt lat="45.81256507291415" lon="12.145500417705733"><ele>217.8</ele><time>2026-04-12T13:57:07Z</time></trkpt><trkpt lat="45.81245129304206" lon="12.1455636508316"><ele>219.2</ele><time>2026-04-12T13:57:09Z</time></trkpt><trkpt lat="45.81236760168123" lon="12.145594212688318"><ele>220.6</ele><time>2026-04-12T13:57:10Z</time></trkpt><trkpt lat="45.81230579633174" lon="12.145634589044246"><ele>222.0</ele><time>2026-04-12T13:57:11Z</time></trkpt><trkpt lat="45.81222148702686" lon="12.145676450439804"><ele>222.0</ele><time>2026-04-12T13:57:13Z</time></trkpt><trkpt lat="45.812118341900856" lon="12.145658774465916"><ele>222.0</ele><time>2026-04-12T13:57:15Z</time></trkpt><trkpt lat="45.81204944042762" lon="12.145639526501425"><ele>222.0</ele><time>2026-04-12T13:57:16Z</time></trkpt><trkpt lat="45.81198187500073" lon="12.145649765175891"><ele>222.0</ele><time>2026-04-12T13:57:17Z</time></trkpt><trkpt lat="45.81191702591513" lon="12.145613207326049"><ele>222.0</ele><time>2026-04-12T13:57:18Z</time></trkpt><trkpt lat="45.81185115858288" lon="12.145583875260133"><ele>222.0</ele><time>2026-04-12T13:57:19Z</time></trkpt><trkpt lat="45.811787887546316" lon="12.14560970332483"><ele>222.0</ele><time>2026-04-12T13:57:20Z</time></trkpt><trkpt lat="45.81172520254288" lon="12.145600629766971"><ele>220.66666666666666</ele><time>2026-04-12T13:57:21Z</time></trkpt><trkpt lat="45.81165662762945" lon="12.145655734536335"><ele>219.33333333333331</ele><time>2026-04-12T13:57:22Z</time></trkpt><trkpt lat="45.8116238127142" lon="12.145743629508322"><ele>218.0</ele><time>2026-04-12T13:57:23Z</time></trkpt><trkpt lat="45.81159752848111" lon="12.14591163022076"><ele>216.66666666666666</ele><time>2026-04-12T13:57:25Z</time></trkpt><trkpt lat="45.811557720141266" lon="12.146068458153248"><ele>215.33333333333331</ele><time>2026-04-12T13:57:27Z</time></trkpt><trkpt lat="45.81150817941212" lon="12.146125962275022"><ele>214.0</ele><time>2026-04-12T13:57:29Z</time></trkpt><trkpt lat="45.81144255114415" lon="12.146084683602298"><ele>213.99999999999997</ele><time>2026-04-12T13:57:31Z</time></trkpt><trkpt lat="45.81140201830023" lon="12.146008168763103"><ele>214.0</ele><time>2026-04-12T13:57:34Z</time></trkpt><trkpt lat="45.8114375712538" lon="12.14586976600547"><ele>214.0</ele><time>2026-04-12T13:57:36Z</time></trkpt><trkpt lat="45.81147065752102" lon="12.14579085096716"><ele>214.0</ele><time>2026-04-12T13:57:37Z</time></trkpt><trkpt lat="45.81148912790737" lon="12.14569684596178"><ele>213.99999999999997</ele><time>2026-04-12T13:57:38Z</time></trkpt><trkpt lat="45.81148695170755" lon="12.145589566897593"><ele>214.0</ele><time>2026-04-12T13:57:39Z</time></trkpt><trkpt lat="45.81149502610708" lon="12.145476221996391"><ele>213.99999999999997</ele><time>2026-04-12T13:57:40Z</time></trkpt><trkpt lat="45.81149153709086" lon="12.145364644666309"><ele>214.0</ele><time>2026-04-12T13:57:41Z</time></trkpt><trkpt lat="45.8114805403054" lon="12.145247742549035"><ele>214.0</ele><time>2026-04-12T13:57:42Z</time></trkpt><trkpt lat="45.81146310344603" lon="12.145139297372134"><ele>214.0</ele><time>2026-04-12T13:57:43Z</time></trkpt><trkpt lat="45.811433654052" lon="12.145036000131118"><ele>213.99999999999997</ele><time>2026-04-12T13:57:44Z</time></trkpt><trkpt lat="45.811393291801856" lon="12.14493450404409"><ele>214.0</ele><time>2026-04-12T13:57:45Z</time></trkpt><trkpt lat="45.81134044237035" lon="12.14485040614718"><ele>215.66666666666666</ele><time>2026-04-12T13:57:46Z</time></trkpt><trkpt lat="45.81127694058438" lon="12.144767794358012"><ele>217.33333333333331</ele><time>2026-04-12T13:57:47Z</time></trkpt><trkpt lat="45.81122160536289" lon="12.144696084091409"><ele>219.0</ele><time>2026-04-12T13:57:48Z</time></trkpt><trkpt lat="45.81117435451709" lon="12.144628326861564"><ele>220.66666666666669</ele><time>2026-04-12T13:57:49Z</time></trkpt><trkpt lat="45.81111552591638" lon="12.14450173191076"><ele>222.33333333333334</ele><time>2026-04-12T13:57:51Z</time></trkpt><trkpt lat="45.811089683925715" lon="12.144414359073956"><ele>224.0</ele><time>2026-04-12T13:57:52Z</time></trkpt><trkpt lat="45.81104992948766" lon="12.14431548756468"><ele>224.0</ele><time>2026-04-12T13:57:53Z</time></trkpt><trkpt lat="45.81103833413087" lon="12.144208435561705"><ele>224.0</ele><time>2026-04-12T13:57:54Z</time></trkpt><trkpt lat="45.81101748220974" lon="12.14410729550406"><ele>224.0</ele><time>2026-04-12T13:57:55Z</time></trkpt><trkpt lat="45.810997973310755" lon="12.144002522200097"><ele>224.0</ele><time>2026-04-12T13:57:56Z</time></trkpt><trkpt lat="45.810967773045924" lon="12.143904309595316"><ele>224.0</ele><time>2026-04-12T13:57:57Z</time></trkpt><trkpt lat="45.81095745751056" lon="12.143796713741358"><ele>224.0</ele><time>2026-04-12T13:57:58Z</time></trkpt><trkpt lat="45.81094083079539" lon="12.143697672065038"><ele>224.0</ele><time>2026-04-12T13:57:59Z</time></trkpt><trkpt lat="45.810929641213335" lon="12.143607075316558"><ele>224.66666666666669</ele><time>2026-04-12T13:58:00Z</time></trkpt><trkpt lat="45.81092231530581" lon="12.143456803118308"><ele>225.33333333333334</ele><time>2026-04-12T13:58:02Z</time></trkpt><trkpt lat="45.810924950268934" lon="12.143345387810196"><ele>226.0</ele><time>2026-04-12T13:58:03Z</time></trkpt><trkpt lat="45.8109332770442" lon="12.143245939890175"><ele>226.66666666666669</ele><time>2026-04-12T13:58:04Z</time></trkpt><trkpt lat="45.81094753298359" lon="12.143120628772584"><ele>227.33333333333334</ele><time>2026-04-12T13:58:05Z</time></trkpt><trkpt lat="45.8109669120544" lon="12.14297902807602"><ele>228.0</ele><time>2026-04-12T13:58:06Z</time></trkpt><trkpt lat="45.81098587258062" lon="12.142866175006752"><ele>228.33333333333334</ele><time>2026-04-12T13:58:07Z</time></trkpt><trkpt lat="45.81100939490189" lon="12.142739523199468"><ele>228.66666666666669</ele><time>2026-04-12T13:58:08Z</time></trkpt><trkpt lat="45.81103323095269" lon="12.142617030084287"><ele>229.0</ele><time>2026-04-12T13:58:09Z</time></trkpt><trkpt lat="45.81105738339568" lon="12.142500400836601"><ele>229.33333333333334</ele><time>2026-04-12T13:58:10Z</time></trkpt><trkpt lat="45.811066537809786" lon="12.142397387904525"><ele>229.66666666666669</ele><time>2026-04-12T13:58:11Z</time></trkpt><trkpt lat="45.811092766970326" lon="12.14227564100272"><ele>230.0</ele><time>2026-04-12T13:58:13Z</time></trkpt><trkpt lat="45.81111942504815" lon="12.142188128124614"><ele>230.16666666666669</ele><time>2026-04-12T13:58:42Z</time></trkpt><trkpt lat="45.81114910809332" lon="12.142032761723202"><ele>230.33333333333334</ele><time>2026-04-12T13:58:44Z</time></trkpt><trkpt lat="45.811169409068334" lon="12.141932572504905"><ele>230.5</ele><time>2026-04-12T13:58:45Z</time></trkpt><trkpt lat="45.81119292163388" lon="12.141825905076859"><ele>230.66666666666669</ele><time>2026-04-12T13:58:46Z</time></trkpt><trkpt lat="45.811221791203124" lon="12.141714859086926"><ele>230.83333333333334</ele><time>2026-04-12T13:58:47Z</time></trkpt><trkpt lat="45.81124486280862" lon="12.141611710918832"><ele>231.0</ele><time>2026-04-12T13:58:48Z</time></trkpt><trkpt lat="45.81127926059054" lon="12.14153217412407"><ele>231.0</ele><time>2026-04-12T13:58:49Z</time></trkpt><trkpt lat="45.811334155850616" lon="12.141481248583322"><ele>231.0</ele><time>2026-04-12T13:58:50Z</time></trkpt><trkpt lat="45.81140060669632" lon="12.141412274305715"><ele>231.0</ele><time>2026-04-12T13:58:51Z</time></trkpt><trkpt lat="45.81146956298201" lon="12.141334247239376"><ele>231.0</ele><time>2026-04-12T13:58:52Z</time></trkpt><trkpt lat="45.81154885393095" lon="12.141279496444168"><ele>231.0</ele><time>2026-04-12T13:58:53Z</time></trkpt><trkpt lat="45.81160672126828" lon="12.141215005436234"><ele>231.0</ele><time>2026-04-12T13:58:54Z</time></trkpt><trkpt lat="45.811657755494345" lon="12.1411274185182"><ele>231.0</ele><time>2026-04-12T13:58:55Z</time></trkpt><trkpt lat="45.8116879406432" lon="12.140970470104616"><ele>231.00000000000003</ele><time>2026-04-12T13:58:56Z</time></trkpt><trkpt lat="45.811734021127364" lon="12.140829271521149"><ele>231.00000000000003</ele><time>2026-04-12T13:58:57Z</time></trkpt><trkpt lat="45.811778609119166" lon="12.140702893264265"><ele>231.0</ele><time>2026-04-12T13:58:58Z</time></trkpt><trkpt lat="45.811817116385924" lon="12.14057602059552"><ele>231.0</ele><time>2026-04-12T13:58:59Z</time></trkpt><trkpt lat="45.81184554075621" lon="12.140452298634129"><ele>231.60000000000002</ele><time>2026-04-12T13:59:00Z</time></trkpt><trkpt lat="45.81185692370765" lon="12.140343012218274"><ele>232.20000000000002</ele><time>2026-04-12T13:59:01Z</time></trkpt><trkpt lat="45.81186714391876" lon="12.1401784401761"><ele>232.79999999999998</ele><time>2026-04-12T13:59:03Z</time></trkpt><trkpt lat="45.81182615819688" lon="12.140030944731071"><ele>233.39999999999998</ele><time>2026-04-12T13:59:05Z</time></trkpt><trkpt lat="45.81170618846058" lon="12.1399533795293"><ele>234.0</ele><time>2026-04-12T13:59:07Z</time></trkpt><trkpt lat="45.811630782598996" lon="12.139940195143712"><ele>235.6</ele><time>2026-04-12T13:59:08Z</time></trkpt><trkpt lat="45.811544274529254" lon="12.139938193391474"><ele>237.2</ele><time>2026-04-12T13:59:09Z</time></trkpt><trkpt lat="45.81143263033006" lon="12.139945531574774"><ele>238.79999999999998</ele><time>2026-04-12T13:59:10Z</time></trkpt><trkpt lat="45.81133070798217" lon="12.139941214487354"><ele>240.39999999999998</ele><time>2026-04-12T13:59:11Z</time></trkpt><trkpt lat="45.81124370779996" lon="12.13993704323835"><ele>242.0</ele><time>2026-04-12T13:59:12Z</time></trkpt><trkpt lat="45.811164070823594" lon="12.13995883271151"><ele>242.0</ele><time>2026-04-12T13:59:13Z</time></trkpt><trkpt lat="45.81105557451217" lon="12.139936536371122"><ele>242.0</ele><time>2026-04-12T13:59:15Z</time></trkpt><trkpt lat="45.81098758223975" lon="12.1399019932955"><ele>242.0</ele><time>2026-04-12T13:59:19Z</time></trkpt><trkpt lat="45.81094837102358" lon="12.13979413644902"><ele>242.0</ele><time>2026-04-12T13:59:22Z</time></trkpt><trkpt lat="45.810945879821794" lon="12.139608800221252"><ele>242.0</ele><time>2026-04-12T13:59:24Z</time></trkpt><trkpt lat="45.810947127966806" lon="12.139506541313525"><ele>241.39999999999998</ele><time>2026-04-12T13:59:25Z</time></trkpt><trkpt lat="45.81094759872601" lon="12.139398471915129"><ele>240.79999999999998</ele><time>2026-04-12T13:59:26Z</time></trkpt><trkpt lat="45.81092912479588" lon="12.139252096645935"><ele>240.2</ele><time>2026-04-12T13:59:28Z</time></trkpt><trkpt lat="45.81089142787894" lon="12.139123439238139"><ele>239.6</ele><time>2026-04-12T13:59:30Z</time></trkpt><trkpt lat="45.8108186744548" lon="12.13903958646386"><ele>239.0</ele><time>2026-04-12T13:59:32Z</time></trkpt><trkpt lat="45.81073574376298" lon="12.1389447219025"><ele>239.0</ele><time>2026-04-12T13:59:34Z</time></trkpt><trkpt lat="45.81062503416611" lon="12.138853971316133"><ele>238.99999999999997</ele><time>2026-04-12T13:59:36Z</time></trkpt><trkpt lat="45.81050825590725" lon="12.138760456685254"><ele>238.99999999999997</ele><time>2026-04-12T13:59:38Z</time></trkpt><trkpt lat="45.81045153946198" lon="12.138704925603607"><ele>239.0</ele><time>2026-04-12T13:59:39Z</time></trkpt><trkpt lat="45.810403075414634" lon="12.138599090524405"><ele>239.0</ele><time>2026-04-12T13:59:41Z</time></trkpt><trkpt lat="45.810398870290626" lon="12.138494724940145"><ele>239.0</ele><time>2026-04-12T13:59:44Z</time></trkpt><trkpt lat="45.8104179530431" lon="12.13836532072523"><ele>238.99999999999997</ele><time>2026-04-12T13:59:46Z</time></trkpt><trkpt lat="45.81044753935341" lon="12.138203902239551"><ele>238.99999999999997</ele><time>2026-04-12T13:59:48Z</time></trkpt><trkpt lat="45.81046449377025" lon="12.13811455599266"><ele>239.0</ele><time>2026-04-12T13:59:49Z</time></trkpt><trkpt lat="45.81048867563553" lon="12.137939719388346"><ele>239.0</ele><time>2026-04-12T13:59:51Z</time></trkpt><trkpt lat="45.81049353004195" lon="12.137847886801843"><ele>240.00000000000003</ele><time>2026-04-12T13:59:52Z</time></trkpt><trkpt lat="45.81049879973822" lon="12.137753221060512"><ele>241.0</ele><time>2026-04-12T13:59:53Z</time></trkpt><trkpt lat="45.81050026213962" lon="12.137649617472064"><ele>242.0</ele><time>2026-04-12T13:59:54Z</time></trkpt><trkpt lat="45.810492580205036" lon="12.13753455681164"><ele>243.0</ele><time>2026-04-12T13:59:55Z</time></trkpt><trkpt lat="45.81047105984829" lon="12.137419256742193"><ele>244.00000000000003</ele><time>2026-04-12T13:59:56Z</time></trkpt><trkpt lat="45.81042348153046" lon="12.137309764401879"><ele>245.0</ele><time>2026-04-12T13:59:57Z</time></trkpt><trkpt lat="45.810380349274475" lon="12.137205692199972"><ele>245.83333333333334</ele><time>2026-04-12T13:59:58Z</time></trkpt><trkpt lat="45.81032475348169" lon="12.137103255701735"><ele>246.66666666666669</ele><time>2026-04-12T13:59:59Z</time></trkpt><trkpt lat="45.81027934318075" lon="12.136983313139266"><ele>247.5</ele><time>2026-04-12T14:00:00Z</time></trkpt><trkpt lat="45.81021663942931" lon="12.136879324682127"><ele>248.33333333333331</ele><time>2026-04-12T14:00:01Z</time></trkpt><trkpt lat="45.81018903536818" lon="12.136760742794028"><ele>249.16666666666666</ele><time>2026-04-12T14:00:02Z</time></trkpt><trkpt lat="45.810185245050334" lon="12.136656483558339"><ele>250.0</ele><time>2026-04-12T14:00:03Z</time></trkpt><trkpt lat="45.81020192806837" lon="12.136566620607653"><ele>250.83333333333331</ele><time>2026-04-12T14:00:04Z</time></trkpt><trkpt lat="45.81024285018725" lon="12.136477045939202"><ele>251.66666666666666</ele><time>2026-04-12T14:00:05Z</time></trkpt><trkpt lat="45.81030539071183" lon="12.13640411936638"><ele>252.5</ele><time>2026-04-12T14:00:06Z</time></trkpt><trkpt lat="45.81038406369585" lon="12.136342847555696"><ele>253.33333333333331</ele><time>2026-04-12T14:00:07Z</time></trkpt><trkpt lat="45.8104455264859" lon="12.136273925595965"><ele>254.16666666666666</ele><time>2026-04-12T14:00:08Z</time></trkpt><trkpt lat="45.810541134332354" lon="12.136157300266019"><ele>255.0</ele><time>2026-04-12T14:00:10Z</time></trkpt><trkpt lat="45.81060062257159" lon="12.136076185026914"><ele>255.0</ele><time>2026-04-12T14:00:11Z</time></trkpt><trkpt lat="45.81064543853665" lon="12.13595966443635"><ele>255.0</ele><time>2026-04-12T14:00:12Z</time></trkpt><trkpt lat="45.810672933110006" lon="12.135826674339784"><ele>255.0</ele><time>2026-04-12T14:00:13Z</time></trkpt><trkpt lat="45.810725073143324" lon="12.135720399961427"><ele>255.0</ele><time>2026-04-12T14:00:14Z</time></trkpt><trkpt lat="45.810768219900766" lon="12.135611621912982"><ele>255.0</ele><time>2026-04-12T14:00:15Z</time></trkpt><trkpt lat="45.8108123175182" lon="12.13551548886226"><ele>255.0</ele><time>2026-04-12T14:00:16Z</time></trkpt><trkpt lat="45.81084816269887" lon="12.135404385517129"><ele>255.5</ele><time>2026-04-12T14:00:17Z</time></trkpt><trkpt lat="45.81088516588579" lon="12.135301173345963"><ele>256.0</ele><time>2026-04-12T14:00:18Z</time></trkpt><trkpt lat="45.81091917761732" lon="12.135201178194404"><ele>256.5</ele><time>2026-04-12T14:00:19Z</time></trkpt><trkpt lat="45.81097482675749" lon="12.135120367444951"><ele>257.0</ele><time>2026-04-12T14:00:20Z</time></trkpt><trkpt lat="45.81101535571349" lon="12.135047785947497"><ele>257.5</ele><time>2026-04-12T14:00:21Z</time></trkpt><trkpt lat="45.81105839416205" lon="12.134964447408699"><ele>258.0</ele><time>2026-04-12T14:00:22Z</time></trkpt><trkpt lat="45.811119310309394" lon="12.134896137325725"><ele>258.6666666666667</ele><time>2026-04-12T14:00:23Z</time></trkpt><trkpt lat="45.81119218425844" lon="12.134837429079969"><ele>259.3333333333333</ele><time>2026-04-12T14:00:24Z</time></trkpt><trkpt lat="45.81128112654949" lon="12.134800139456782"><ele>260.0</ele><time>2026-04-12T14:00:25Z</time></trkpt><trkpt lat="45.81136262657294" lon="12.134746761133513"><ele>260.66666666666663</ele><time>2026-04-12T14:00:26Z</time></trkpt><trkpt lat="45.81143357769101" lon="12.134705220669575"><ele>261.3333333333333</ele><time>2026-04-12T14:00:27Z</time></trkpt><trkpt lat="45.81151965830132" lon="12.13465558410106"><ele>262.0</ele><time>2026-04-12T14:00:28Z</time></trkpt><trkpt lat="45.811602135796754" lon="12.134603566914459"><ele>262.0</ele><time>2026-04-12T14:00:29Z</time></trkpt><trkpt lat="45.81168501814811" lon="12.134557966580973"><ele>262.0</ele><time>2026-04-12T14:00:30Z</time></trkpt><trkpt lat="45.81176367474175" lon="12.134515175098867"><ele>262.0</ele><time>2026-04-12T14:00:31Z</time></trkpt><trkpt lat="45.81184079624414" lon="12.13446841517202"><ele>262.0</ele><time>2026-04-12T14:00:32Z</time></trkpt><trkpt lat="45.811922483863555" lon="12.134414468508831"><ele>262.0</ele><time>2026-04-12T14:00:33Z</time></trkpt><trkpt lat="45.81199158968704" lon="12.134367483341403"><ele>262.0</ele><time>2026-04-12T14:00:34Z</time></trkpt><trkpt lat="45.81207634396698" lon="12.134330753578936"><ele>263.8333333333333</ele><time>2026-04-12T14:00:35Z</time></trkpt><trkpt lat="45.8121498329264" lon="12.134285647440892"><ele>265.66666666666663</ele><time>2026-04-12T14:00:36Z</time></trkpt><trkpt lat="45.81222348094226" lon="12.13421861060005"><ele>267.5</ele><time>2026-04-12T14:00:37Z</time></trkpt><trkpt lat="45.812291439005705" lon="12.134171134785477"><ele>269.3333333333333</ele><time>2026-04-12T14:00:38Z</time></trkpt><trkpt lat="45.812364286561206" lon="12.134116245017186"><ele>271.1666666666667</ele><time>2026-04-12T14:00:39Z</time></trkpt><trkpt lat="45.812423191766364" lon="12.134057072234544"><ele>273.0</ele><time>2026-04-12T14:00:40Z</time></trkpt><trkpt lat="45.81248590027297" lon="12.133967465506805"><ele>273.0</ele><time>2026-04-12T14:00:41Z</time></trkpt><trkpt lat="45.81251420757764" lon="12.133872937159113"><ele>273.0</ele><time>2026-04-12T14:00:42Z</time></trkpt><trkpt lat="45.812548478351374" lon="12.133774913084682"><ele>273.0</ele><time>2026-04-12T14:00:43Z</time></trkpt><trkpt lat="45.81253786205879" lon="12.133654306662278"><ele>273.0</ele><time>2026-04-12T14:00:44Z</time></trkpt><trkpt lat="45.81252457631163" lon="12.133524651407747"><ele>273.0</ele><time>2026-04-12T14:00:45Z</time></trkpt><trkpt lat="45.81252161269094" lon="12.133364824154578"><ele>273.0</ele><time>2026-04-12T14:00:46Z</time></trkpt><trkpt lat="45.8125329944874" lon="12.133203215653115"><ele>273.2</ele><time>2026-04-12T14:00:47Z</time></trkpt><trkpt lat="45.81252923037478" lon="12.133062501789446"><ele>273.4</ele><time>2026-04-12T14:00:48Z</time></trkpt><trkpt lat="45.81252705275474" lon="12.132924599196464"><ele>273.59999999999997</ele><time>2026-04-12T14:00:49Z</time></trkpt><trkpt lat="45.81252680570373" lon="12.13279819573294"><ele>273.8</ele><time>2026-04-12T14:00:50Z</time></trkpt><trkpt lat="45.81253169225993" lon="12.132666515790328"><ele>274.0</ele><time>2026-04-12T14:00:51Z</time></trkpt><trkpt lat="45.812547693260534" lon="12.132524642815572"><ele>273.8</ele><time>2026-04-12T14:00:52Z</time></trkpt><trkpt lat="45.81256641742036" lon="12.132379228740595"><ele>273.59999999999997</ele><time>2026-04-12T14:00:53Z</time></trkpt><trkpt lat="45.812618870212226" lon="12.132243070514628"><ele>273.4</ele><time>2026-04-12T14:00:54Z</time></trkpt><trkpt lat="45.81267354228372" lon="12.132109421042736"><ele>273.2</ele><time>2026-04-12T14:00:55Z</time></trkpt><trkpt lat="45.81274822446893" lon="12.131989748889652"><ele>273.0</ele><time>2026-04-12T14:00:56Z</time></trkpt><trkpt lat="45.812826328977295" lon="12.131852183206835"><ele>274.8</ele><time>2026-04-12T14:00:57Z</time></trkpt><trkpt lat="45.81290478646947" lon="12.131717796106338"><ele>276.6</ele><time>2026-04-12T14:00:58Z</time></trkpt><trkpt lat="45.812986103251454" lon="12.131589203038262"><ele>278.4</ele><time>2026-04-12T14:00:59Z</time></trkpt><trkpt lat="45.81305428892711" lon="12.131486717446572"><ele>280.2</ele><time>2026-04-12T14:01:00Z</time></trkpt><trkpt lat="45.81312554967699" lon="12.13138470514152"><ele>282.0</ele><time>2026-04-12T14:01:01Z</time></trkpt><trkpt lat="45.81319198984936" lon="12.131277831342128"><ele>282.4</ele><time>2026-04-12T14:01:02Z</time></trkpt><trkpt lat="45.813267018177925" lon="12.1311698037244"><ele>282.79999999999995</ele><time>2026-04-12T14:01:03Z</time></trkpt><trkpt lat="45.8133136132233" lon="12.13103489966848"><ele>283.2</ele><time>2026-04-12T14:01:04Z</time></trkpt><trkpt lat="45.81336821284479" lon="12.130910481870373"><ele>283.59999999999997</ele><time>2026-04-12T14:01:05Z</time></trkpt><trkpt lat="45.81339197810606" lon="12.130779836283207"><ele>284.0</ele><time>2026-04-12T14:01:06Z</time></trkpt><trkpt lat="45.813395793240865" lon="12.13064031618716"><ele>285.0</ele><time>2026-04-12T14:01:07Z</time></trkpt><trkpt lat="45.8134088734898" lon="12.130506902836157"><ele>286.0</ele><time>2026-04-12T14:01:08Z</time></trkpt><trkpt lat="45.81343297575895" lon="12.130354341141384"><ele>287.0</ele><time>2026-04-12T14:01:09Z</time></trkpt><trkpt lat="45.813442757667914" lon="12.130207723815179"><ele>288.0</ele><time>2026-04-12T14:01:10Z</time></trkpt><trkpt lat="45.81346783014065" lon="12.130076154859573"><ele>289.0</ele><time>2026-04-12T14:01:11Z</time></trkpt><trkpt lat="45.813493906290645" lon="12.129988944013718"><ele>289.59999999999997</ele><time>2026-04-12T14:01:12Z</time></trkpt><trkpt lat="45.81356144601603" lon="12.129835693528825"><ele>290.2</ele><time>2026-04-12T14:01:14Z</time></trkpt><trkpt lat="45.813604217129274" lon="12.12973675210052"><ele>290.79999999999995</ele><time>2026-04-12T14:01:15Z</time></trkpt><trkpt lat="45.81362093534862" lon="12.129633530132526"><ele>291.4</ele><time>2026-04-12T14:01:16Z</time></trkpt><trkpt lat="45.81370961740375" lon="12.129581331577942"><ele>292.0</ele><time>2026-04-12T14:01:18Z</time></trkpt><trkpt lat="45.81378656066914" lon="12.129550120938466"><ele>292.0</ele><time>2026-04-12T14:01:21Z</time></trkpt><trkpt lat="45.81378168793261" lon="12.129396991098947"><ele>292.0</ele><time>2026-04-12T14:01:23Z</time></trkpt><trkpt lat="45.81376654613891" lon="12.129262052760884"><ele>292.0</ele><time>2026-04-12T14:01:24Z</time></trkpt><trkpt lat="45.813769675961034" lon="12.12908478390322"><ele>292.0</ele><time>2026-04-12T14:01:25Z</time></trkpt><trkpt lat="45.81377609846207" lon="12.128839356978268"><ele>292.0</ele><time>2026-04-12T14:01:26Z</time></trkpt><trkpt lat="45.813786824367746" lon="12.128539024019211"><ele>292.0</ele><time>2026-04-12T14:01:27Z</time></trkpt><trkpt lat="45.81380610502254" lon="12.128294223677948"><ele>292.0</ele><time>2026-04-12T14:01:28Z</time></trkpt><trkpt lat="45.81382080156703" lon="12.128095622012017"><ele>292.0</ele><time>2026-04-12T14:01:29Z</time></trkpt><trkpt lat="45.81382453960538" lon="12.12792166601184"><ele>292.0</ele><time>2026-04-12T14:01:30Z</time></trkpt><trkpt lat="45.81379014919686" lon="12.127745875423752"><ele>292.0</ele><time>2026-04-12T14:01:31Z</time></trkpt><trkpt lat="45.81372837263176" lon="12.127550988680783"><ele>292.0</ele><time>2026-04-12T14:01:32Z</time></trkpt><trkpt lat="45.8136492208137" lon="12.127373321619741"><ele>292.66666666666663</ele><time>2026-04-12T14:01:33Z</time></trkpt><trkpt lat="45.81358535668256" lon="12.127248592943525"><ele>293.3333333333333</ele><time>2026-04-12T14:01:34Z</time></trkpt><trkpt lat="45.81352714841967" lon="12.127152776357619"><ele>294.0</ele><time>2026-04-12T14:01:35Z</time></trkpt><trkpt lat="45.81348359125553" lon="12.12708049846729"><ele>294.6666666666667</ele><time>2026-04-12T14:01:36Z</time></trkpt><trkpt lat="45.81343407913272" lon="12.126965591766657"><ele>295.33333333333337</ele><time>2026-04-12T14:01:38Z</time></trkpt><trkpt lat="45.81334521450775" lon="12.126935119427591"><ele>296.0</ele><time>2026-04-12T14:01:40Z</time></trkpt><trkpt lat="45.813267534354736" lon="12.12684556996818"><ele>296.83333333333337</ele><time>2026-04-12T14:01:42Z</time></trkpt><trkpt lat="45.81321733304811" lon="12.126768408157464"><ele>297.6666666666667</ele><time>2026-04-12T14:01:43Z</time></trkpt><trkpt lat="45.81316976047427" lon="12.12669019332083"><ele>298.5</ele><time>2026-04-12T14:01:44Z</time></trkpt><trkpt lat="45.813120889293714" lon="12.126626297377591"><ele>299.3333333333333</ele><time>2026-04-12T14:01:45Z</time></trkpt><trkpt lat="45.81300447683473" lon="12.126550625721126"><ele>300.16666666666663</ele><time>2026-04-12T14:01:47Z</time></trkpt><trkpt lat="45.812937339270434" lon="12.126540323662793"><ele>301.0</ele><time>2026-04-12T14:01:48Z</time></trkpt><trkpt lat="45.812872344457155" lon="12.126545094601061"><ele>301.0</ele><time>2026-04-12T14:01:49Z</time></trkpt><trkpt lat="45.81279959806642" lon="12.126556276512892"><ele>301.0</ele><time>2026-04-12T14:01:50Z</time></trkpt><trkpt lat="45.81273132293594" lon="12.12656758755926"><ele>301.0</ele><time>2026-04-12T14:01:51Z</time></trkpt><trkpt lat="45.81263284617081" lon="12.126539111059056"><ele>301.0</ele><time>2026-04-12T14:01:53Z</time></trkpt><trkpt lat="45.812570821908515" lon="12.126418797829741"><ele>301.0</ele><time>2026-04-12T14:01:55Z</time></trkpt><trkpt lat="45.81254263537233" lon="12.126279822272624"><ele>301.0</ele><time>2026-04-12T14:01:57Z</time></trkpt><trkpt lat="45.812529067765276" lon="12.126175258959028"><ele>301.16666666666663</ele><time>2026-04-12T14:01:58Z</time></trkpt><trkpt lat="45.81251224021791" lon="12.12606284336918"><ele>301.3333333333333</ele><time>2026-04-12T14:01:59Z</time></trkpt><trkpt lat="45.81249349667704" lon="12.12597142245918"><ele>301.5</ele><time>2026-04-12T14:02:00Z</time></trkpt><trkpt lat="45.8124444407182" lon="12.125814232830097"><ele>301.6666666666667</ele><time>2026-04-12T14:02:02Z</time></trkpt><trkpt lat="45.81239885004952" lon="12.125744572577089"><ele>301.83333333333337</ele><time>2026-04-12T14:02:03Z</time></trkpt><trkpt lat="45.812298782003474" lon="12.125665932186429"><ele>302.0</ele><time>2026-04-12T14:02:05Z</time></trkpt><trkpt lat="45.812174710000036" lon="12.125646347584851"><ele>302.00000000000006</ele><time>2026-04-12T14:02:07Z</time></trkpt><trkpt lat="45.812109761727335" lon="12.12565844354382"><ele>302.0</ele><time>2026-04-12T14:02:08Z</time></trkpt><trkpt lat="45.81204183646123" lon="12.125677023045274"><ele>302.0</ele><time>2026-04-12T14:02:09Z</time></trkpt><trkpt lat="45.811979491067724" lon="12.125721185346244"><ele>302.0</ele><time>2026-04-12T14:02:10Z</time></trkpt><trkpt lat="45.81192465260329" lon="12.125775039619032"><ele>302.0</ele><time>2026-04-12T14:02:11Z</time></trkpt><trkpt lat="45.81187769777839" lon="12.125853266418975"><ele>302.00000000000006</ele><time>2026-04-12T14:02:12Z</time></trkpt><trkpt lat="45.81183424379189" lon="12.125946950058918"><ele>302.0</ele><time>2026-04-12T14:02:13Z</time></trkpt><trkpt lat="45.81179496059678" lon="12.126044275752538"><ele>303.33333333333337</ele><time>2026-04-12T14:02:14Z</time></trkpt><trkpt lat="45.811760871110245" lon="12.126140103854178"><ele>304.6666666666667</ele><time>2026-04-12T14:02:15Z</time></trkpt><trkpt lat="45.81173032389534" lon="12.126220401684465"><ele>306.0</ele><time>2026-04-12T14:02:16Z</time></trkpt><trkpt lat="45.81164654037608" lon="12.12630787501563"><ele>307.3333333333333</ele><time>2026-04-12T14:02:18Z</time></trkpt><trkpt lat="45.81154363942123" lon="12.126323629498986"><ele>308.66666666666663</ele><time>2026-04-12T14:02:20Z</time></trkpt><trkpt lat="45.81145678877954" lon="12.12627984607036"><ele>310.0</ele><time>2026-04-12T14:02:22Z</time></trkpt><trkpt lat="45.8113846687965" lon="12.126142687394244"><ele>310.0</ele><time>2026-04-12T14:02:24Z</time></trkpt><trkpt lat="45.81135662599071" lon="12.126053845879351"><ele>310.0</ele><time>2026-04-12T14:02:25Z</time></trkpt><trkpt lat="45.811326019902516" lon="12.125939129015617"><ele>310.0</ele><time>2026-04-12T14:02:26Z</time></trkpt><trkpt lat="45.81129653460168" lon="12.125847128900473"><ele>310.0</ele><time>2026-04-12T14:02:27Z</time></trkpt><trkpt lat="45.8112514694472" lon="12.125764782581921"><ele>310.0</ele><time>2026-04-12T14:02:28Z</time></trkpt><trkpt lat="45.811185018569496" lon="12.125692155314741"><ele>310.0</ele><time>2026-04-12T14:02:29Z</time></trkpt><trkpt lat="45.811119990860966" lon="12.125653181763797"><ele>309.8</ele><time>2026-04-12T14:02:30Z</time></trkpt><trkpt lat="45.81101223576195" lon="12.125589558817815"><ele>309.6</ele><time>2026-04-12T14:02:31Z</time></trkpt><trkpt lat="45.81091550716199" lon="12.125521347281852"><ele>309.4</ele><time>2026-04-12T14:02:32Z</time></trkpt><trkpt lat="45.810842681326456" lon="12.125448897698847"><ele>309.2</ele><time>2026-04-12T14:02:33Z</time></trkpt><trkpt lat="45.81077729098251" lon="12.125356649116569"><ele>309.0</ele><time>2026-04-12T14:02:34Z</time></trkpt><trkpt lat="45.810695175433445" lon="12.125249654250622"><ele>309.0</ele><time>2026-04-12T14:02:35Z</time></trkpt><trkpt lat="45.81061510209344" lon="12.125156729882343"><ele>309.0</ele><time>2026-04-12T14:02:36Z</time></trkpt><trkpt lat="45.81053417374583" lon="12.125076720355143"><ele>309.0</ele><time>2026-04-12T14:02:37Z</time></trkpt><trkpt lat="45.81045095272892" lon="12.12499598535723"><ele>309.0</ele><time>2026-04-12T14:02:38Z</time></trkpt><trkpt lat="45.81037241079801" lon="12.124918940345541"><ele>309.0</ele><time>2026-04-12T14:02:39Z</time></trkpt><trkpt lat="45.81031339843242" lon="12.124854820990494"><ele>310.4</ele><time>2026-04-12T14:02:40Z</time></trkpt><trkpt lat="45.81023916138805" lon="12.124797975782496"><ele>311.79999999999995</ele><time>2026-04-12T14:02:41Z</time></trkpt><trkpt lat="45.81015023266508" lon="12.124752482476943"><ele>313.20000000000005</ele><time>2026-04-12T14:02:42Z</time></trkpt><trkpt lat="45.81004264374655" lon="12.124693392301225"><ele>314.6</ele><time>2026-04-12T14:02:43Z</time></trkpt><trkpt lat="45.80997144942943" lon="12.124648487083808"><ele>316.0</ele><time>2026-04-12T14:02:44Z</time></trkpt><trkpt lat="45.80989356157676" lon="12.124584787028581"><ele>316.3333333333333</ele><time>2026-04-12T14:02:45Z</time></trkpt><trkpt lat="45.80982542468785" lon="12.124492899970797"><ele>316.66666666666663</ele><time>2026-04-12T14:02:46Z</time></trkpt><trkpt lat="45.80976156421894" lon="12.124430688252039"><ele>317.0</ele><time>2026-04-12T14:02:47Z</time></trkpt><trkpt lat="45.80969801445185" lon="12.124381839156522"><ele>317.3333333333333</ele><time>2026-04-12T14:02:48Z</time></trkpt><trkpt lat="45.809622122709825" lon="12.124359201462857"><ele>317.6666666666667</ele><time>2026-04-12T14:02:49Z</time></trkpt><trkpt lat="45.809540356341884" lon="12.124364174198185"><ele>318.0</ele><time>2026-04-12T14:02:50Z</time></trkpt><trkpt lat="45.809450018149946" lon="12.124407332900931"><ele>318.0</ele><time>2026-04-12T14:02:51Z</time></trkpt><trkpt lat="45.80937084881748" lon="12.12446654369124"><ele>318.0</ele><time>2026-04-12T14:02:52Z</time></trkpt><trkpt lat="45.80926854589467" lon="12.1245115629452"><ele>318.0</ele><time>2026-04-12T14:02:53Z</time></trkpt><trkpt lat="45.80919063927437" lon="12.124544266076587"><ele>318.0</ele><time>2026-04-12T14:02:54Z</time></trkpt><trkpt lat="45.80908730044269" lon="12.124568950921612"><ele>318.0</ele><time>2026-04-12T14:02:55Z</time></trkpt><trkpt lat="45.80898341382845" lon="12.12457849653105"><ele>318.2</ele><time>2026-04-12T14:02:56Z</time></trkpt><trkpt lat="45.80889590075517" lon="12.124614215740584"><ele>318.4</ele><time>2026-04-12T14:02:57Z</time></trkpt><trkpt lat="45.80881276761523" lon="12.124678053367857"><ele>318.59999999999997</ele><time>2026-04-12T14:02:58Z</time></trkpt><trkpt lat="45.80873660366931" lon="12.124753632502276"><ele>318.8</ele><time>2026-04-12T14:02:59Z</time></trkpt><trkpt lat="45.80866685339855" lon="12.124807773114695"><ele>319.0</ele><time>2026-04-12T14:03:00Z</time></trkpt><trkpt lat="45.80858010118576" lon="12.124859319335357"><ele>319.0</ele><time>2026-04-12T14:03:01Z</time></trkpt><trkpt lat="45.80849435437582" lon="12.12485824978788"><ele>319.0</ele><time>2026-04-12T14:03:02Z</time></trkpt><trkpt lat="45.808389225841225" lon="12.124837644404035"><ele>319.0</ele><time>2026-04-12T14:03:03Z</time></trkpt><trkpt lat="45.808270630108105" lon="12.12485378732064"><ele>319.0</ele><time>2026-04-12T14:03:04Z</time></trkpt><trkpt lat="45.80815974307611" lon="12.124891095739443"><ele>319.0</ele><time>2026-04-12T14:03:05Z</time></trkpt><trkpt lat="45.80804498226724" lon="12.124945926562388"><ele>317.25</ele><time>2026-04-12T14:03:06Z</time></trkpt><trkpt lat="45.807921891898914" lon="12.125004588327768"><ele>315.5</ele><time>2026-04-12T14:03:07Z</time></trkpt><trkpt lat="45.80779628600748" lon="12.125052229986123"><ele>313.75</ele><time>2026-04-12T14:03:08Z</time></trkpt><trkpt lat="45.80768306138483" lon="12.125081410721707"><ele>312.0</ele><time>2026-04-12T14:03:09Z</time></trkpt><trkpt lat="45.80757902864727" lon="12.125101157762602"><ele>311.5</ele><time>2026-04-12T14:03:10Z</time></trkpt><trkpt lat="45.807448466802015" lon="12.1251058185981"><ele>311.0</ele><time>2026-04-12T14:03:11Z</time></trkpt><trkpt lat="45.80733400141188" lon="12.125117024331205"><ele>310.5</ele><time>2026-04-12T14:03:12Z</time></trkpt><trkpt lat="45.80721109973153" lon="12.125119364151795"><ele>310.0</ele><time>2026-04-12T14:03:13Z</time></trkpt><trkpt lat="45.80709803691451" lon="12.12511277221455"><ele>310.0</ele><time>2026-04-12T14:03:14Z</time></trkpt><trkpt lat="45.806990108129526" lon="12.125100370903029"><ele>310.0</ele><time>2026-04-12T14:03:15Z</time></trkpt><trkpt lat="45.80687660990485" lon="12.125097392555352"><ele>310.0</ele><time>2026-04-12T14:03:16Z</time></trkpt><trkpt lat="45.80675846862141" lon="12.125086291604056"><ele>310.0</ele><time>2026-04-12T14:03:17Z</time></trkpt><trkpt lat="45.80664289102506" lon="12.125074090385949"><ele>310.75</ele><time>2026-04-12T14:03:18Z</time></trkpt><trkpt lat="45.806528066346765" lon="12.125054529670766"><ele>311.5</ele><time>2026-04-12T14:03:19Z</time></trkpt><trkpt lat="45.80641188442131" lon="12.125044968873832"><ele>312.25</ele><time>2026-04-12T14:03:20Z</time></trkpt><trkpt lat="45.806296132792696" lon="12.125036518580204"><ele>313.0</ele><time>2026-04-12T14:03:21Z</time></trkpt><trkpt lat="45.80618502504682" lon="12.125033987349068"><ele>313.0</ele><time>2026-04-12T14:03:22Z</time></trkpt><trkpt lat="45.80607108980947" lon="12.125050399794866"><ele>313.0</ele><time>2026-04-12T14:03:23Z</time></trkpt><trkpt lat="45.80595890237798" lon="12.12508888130111"><ele>313.0</ele><time>2026-04-12T14:03:24Z</time></trkpt><trkpt lat="45.80585698813519" lon="12.125143355784209"><ele>313.0</ele><time>2026-04-12T14:03:25Z</time></trkpt><trkpt lat="45.805747617701684" lon="12.125180127379886"><ele>312.6</ele><time>2026-04-12T14:03:26Z</time></trkpt><trkpt lat="45.805641404002245" lon="12.125227849734385"><ele>312.20000000000005</ele><time>2026-04-12T14:03:27Z</time></trkpt><trkpt lat="45.80554664501924" lon="12.125257850580027"><ele>311.8</ele><time>2026-04-12T14:03:28Z</time></trkpt><trkpt lat="45.80547732964213" lon="12.125295517817959"><ele>311.40000000000003</ele><time>2026-04-12T14:03:29Z</time></trkpt><trkpt lat="45.80541408521733" lon="12.125305923539091"><ele>311.0</ele><time>2026-04-12T14:03:30Z</time></trkpt><trkpt lat="45.805308247492285" lon="12.125305925111455"><ele>311.0</ele><time>2026-04-12T14:03:32Z</time></trkpt><trkpt lat="45.80520871856523" lon="12.125243837041902"><ele>311.0</ele><time>2026-04-12T14:03:34Z</time></trkpt><trkpt lat="45.805148878941885" lon="12.125164615580955"><ele>311.0</ele><time>2026-04-12T14:03:35Z</time></trkpt><trkpt lat="45.80509674888223" lon="12.12507817815896"><ele>311.0</ele><time>2026-04-12T14:03:36Z</time></trkpt><trkpt lat="45.805025030024716" lon="12.124988970974275"><ele>311.0</ele><time>2026-04-12T14:03:37Z</time></trkpt><trkpt lat="45.80494389319822" lon="12.124905125893829"><ele>309.40000000000003</ele><time>2026-04-12T14:03:38Z</time></trkpt><trkpt lat="45.80486396958911" lon="12.12484253612786"><ele>307.8</ele><time>2026-04-12T14:03:39Z</time></trkpt><trkpt lat="45.804779143204534" lon="12.124771787100702"><ele>306.20000000000005</ele><time>2026-04-12T14:03:40Z</time></trkpt><trkpt lat="45.80469380966755" lon="12.124712893815705"><ele>304.6</ele><time>2026-04-12T14:03:41Z</time></trkpt><trkpt lat="45.80460369204628" lon="12.124671561990583"><ele>303.0</ele><time>2026-04-12T14:03:42Z</time></trkpt><trkpt lat="45.804509724538896" lon="12.124640551559045"><ele>303.0</ele><time>2026-04-12T14:03:43Z</time></trkpt><trkpt lat="45.804417351802904" lon="12.124620243473945"><ele>303.0</ele><time>2026-04-12T14:03:44Z</time></trkpt><trkpt lat="45.80432626977657" lon="12.12460713674243"><ele>303.0</ele><time>2026-04-12T14:03:45Z</time></trkpt><trkpt lat="45.80423005948591" lon="12.124591537605996"><ele>303.0</ele><time>2026-04-12T14:03:46Z</time></trkpt><trkpt lat="45.80414469758821" lon="12.124555508878535"><ele>303.0</ele><time>2026-04-12T14:03:47Z</time></trkpt><trkpt lat="45.80407420138429" lon="12.124556846203367"><ele>303.0</ele><time>2026-04-12T14:03:48Z</time></trkpt><trkpt lat="45.80397413353093" lon="12.124479519171437"><ele>302.8333333333333</ele><time>2026-04-12T14:03:50Z</time></trkpt><trkpt lat="45.80393120037434" lon="12.124408877999006"><ele>302.6666666666667</ele><time>2026-04-12T14:03:51Z</time></trkpt><trkpt lat="45.80389988068068" lon="12.124319680183701"><ele>302.5</ele><time>2026-04-12T14:03:52Z</time></trkpt><trkpt lat="45.80387347893665" lon="12.124219094044854"><ele>302.33333333333337</ele><time>2026-04-12T14:03:53Z</time></trkpt><trkpt lat="45.80385520792732" lon="12.124100828035699"><ele>302.1666666666667</ele><time>2026-04-12T14:03:54Z</time></trkpt><trkpt lat="45.80384182548694" lon="12.12397405908191"><ele>302.0</ele><time>2026-04-12T14:03:55Z</time></trkpt><trkpt lat="45.80383474419944" lon="12.123844572547783"><ele>301.83333333333337</ele><time>2026-04-12T14:03:56Z</time></trkpt><trkpt lat="45.80383046112123" lon="12.123744315642304"><ele>301.6666666666667</ele><time>2026-04-12T14:03:57Z</time></trkpt><trkpt lat="45.8037877194654" lon="12.123600715772898"><ele>301.5</ele><time>2026-04-12T14:03:59Z</time></trkpt><trkpt lat="45.80371439630717" lon="12.123515334066727"><ele>301.3333333333333</ele><time>2026-04-12T14:04:01Z</time></trkpt><trkpt lat="45.80362835495998" lon="12.123496376603553"><ele>301.16666666666663</ele><time>2026-04-12T14:04:03Z</time></trkpt><trkpt lat="45.80354654527892" lon="12.123522184666657"><ele>301.0</ele><time>2026-04-12T14:04:05Z</time></trkpt><trkpt lat="45.803459527884904" lon="12.1236188352183"><ele>301.0</ele><time>2026-04-12T14:04:07Z</time></trkpt><trkpt lat="45.80338332262296" lon="12.123758952055436"><ele>301.0</ele><time>2026-04-12T14:04:09Z</time></trkpt><trkpt lat="45.80331421105301" lon="12.12387786994488"><ele>301.0</ele><time>2026-04-12T14:04:11Z</time></trkpt><trkpt lat="45.803278189960466" lon="12.12396744052537"><ele>301.0</ele><time>2026-04-12T14:04:12Z</time></trkpt><trkpt lat="45.80323642864314" lon="12.124044762162962"><ele>301.0</ele><time>2026-04-12T14:04:13Z</time></trkpt><trkpt lat="45.803192312993986" lon="12.124124557498691"><ele>301.0</ele><time>2026-04-12T14:04:14Z</time></trkpt><trkpt lat="45.8031144383298" lon="12.124231529948588"><ele>300.0</ele><time>2026-04-12T14:04:16Z</time></trkpt><trkpt lat="45.80300212712382" lon="12.124287627530933"><ele>299.0</ele><time>2026-04-12T14:04:18Z</time></trkpt><trkpt lat="45.802892095880146" lon="12.124318614689756"><ele>298.0</ele><time>2026-04-12T14:04:20Z</time></trkpt><trkpt lat="45.80276299022615" lon="12.124299620130431"><ele>297.0</ele><time>2026-04-12T14:04:22Z</time></trkpt><trkpt lat="45.80269732406979" lon="12.124285393576018"><ele>296.0</ele><time>2026-04-12T14:04:23Z</time></trkpt><trkpt lat="45.802616924046504" lon="12.124252210687631"><ele>296.0</ele><time>2026-04-12T14:04:24Z</time></trkpt><trkpt lat="45.80254286087841" lon="12.12423824436911"><ele>296.0</ele><time>2026-04-12T14:04:25Z</time></trkpt><trkpt lat="45.80246329828981" lon="12.124227134753728"><ele>296.0</ele><time>2026-04-12T14:04:26Z</time></trkpt><trkpt lat="45.8023776951631" lon="12.124219960283519"><ele>296.0</ele><time>2026-04-12T14:04:27Z</time></trkpt><trkpt lat="45.80229616622767" lon="12.124216196139935"><ele>296.0</ele><time>2026-04-12T14:04:28Z</time></trkpt><trkpt lat="45.80221497393529" lon="12.124214921291822"><ele>296.0</ele><time>2026-04-12T14:04:29Z</time></trkpt><trkpt lat="45.802134804869475" lon="12.124213956752932"><ele>296.0</ele><time>2026-04-12T14:04:30Z</time></trkpt><trkpt lat="45.80206083143559" lon="12.12422155094108"><ele>296.0</ele><time>2026-04-12T14:04:31Z</time></trkpt><trkpt lat="45.801976430174584" lon="12.12423509016507"><ele>296.0</ele><time>2026-04-12T14:04:32Z</time></trkpt><trkpt lat="45.801901859793176" lon="12.124237328223629"><ele>296.0</ele><time>2026-04-12T14:04:33Z</time></trkpt><trkpt lat="45.80181245218992" lon="12.124243027287283"><ele>296.0</ele><time>2026-04-12T14:04:34Z</time></trkpt><trkpt lat="45.801730415740685" lon="12.12425182581213"><ele>296.0</ele><time>2026-04-12T14:04:35Z</time></trkpt><trkpt lat="45.80163691031546" lon="12.124263620626712"><ele>295.83333333333337</ele><time>2026-04-12T14:04:36Z</time></trkpt><trkpt lat="45.80155609826317" lon="12.124270544358057"><ele>295.6666666666667</ele><time>2026-04-12T14:04:37Z</time></trkpt><trkpt lat="45.80146511924466" lon="12.124272699285171"><ele>295.5</ele><time>2026-04-12T14:04:38Z</time></trkpt><trkpt lat="45.801371793234765" lon="12.124286995067527"><ele>295.3333333333333</ele><time>2026-04-12T14:04:39Z</time></trkpt><trkpt lat="45.80129965081462" lon="12.124307638782092"><ele>295.16666666666663</ele><time>2026-04-12T14:04:40Z</time></trkpt><trkpt lat="45.80120704547241" lon="12.124304834813264"><ele>295.0</ele><time>2026-04-12T14:04:41Z</time></trkpt><trkpt lat="45.801133360237664" lon="12.12430460318567"><ele>295.0</ele><time>2026-04-12T14:04:42Z</time></trkpt><trkpt lat="45.8010490166851" lon="12.124315626753528"><ele>295.0</ele><time>2026-04-12T14:04:43Z</time></trkpt><trkpt lat="45.80095955776974" lon="12.12430766832004"><ele>295.0</ele><time>2026-04-12T14:04:44Z</time></trkpt><trkpt lat="45.8008767165762" lon="12.12431141752814"><ele>295.0</ele><time>2026-04-12T14:04:45Z</time></trkpt><trkpt lat="45.800795137667784" lon="12.12431234883605"><ele>295.0</ele><time>2026-04-12T14:04:46Z</time></trkpt><trkpt lat="45.80070948455821" lon="12.124316440922987"><ele>295.0</ele><time>2026-04-12T14:04:47Z</time></trkpt><trkpt lat="45.80061818129393" lon="12.12431796598638"><ele>294.8</ele><time>2026-04-12T14:04:48Z</time></trkpt><trkpt lat="45.80053537234927" lon="12.12431618679657"><ele>294.6</ele><time>2026-04-12T14:04:49Z</time></trkpt><trkpt lat="45.80046674858195" lon="12.124326757691314"><ele>294.4</ele><time>2026-04-12T14:04:50Z</time></trkpt><trkpt lat="45.80035049474468" lon="12.124316991280802"><ele>294.2</ele><time>2026-04-12T14:04:52Z</time></trkpt><trkpt lat="45.80024925961211" lon="12.124287042041678"><ele>294.0</ele><time>2026-04-12T14:04:54Z</time></trkpt><trkpt lat="45.80015710938812" lon="12.124212294276457"><ele>293.2</ele><time>2026-04-12T14:04:56Z</time></trkpt><trkpt lat="45.800058571341935" lon="12.124130674913658"><ele>292.4</ele><time>2026-04-12T14:04:58Z</time></trkpt><trkpt lat="45.799965456077445" lon="12.124055729128262"><ele>291.6</ele><time>2026-04-12T14:05:00Z</time></trkpt><trkpt lat="45.79986393494314" lon="12.123978148381967"><ele>290.8</ele><time>2026-04-12T14:05:02Z</time></trkpt><trkpt lat="45.79977180178343" lon="12.123904750417914"><ele>290.0</ele><time>2026-04-12T14:05:04Z</time></trkpt><trkpt lat="45.799667912658826" lon="12.123814392175266"><ele>289.6666666666667</ele><time>2026-04-12T14:05:06Z</time></trkpt><trkpt lat="45.7995709771236" lon="12.123717590698263"><ele>289.33333333333337</ele><time>2026-04-12T14:05:08Z</time></trkpt><trkpt lat="45.79947753138985" lon="12.123609939528878"><ele>289.0</ele><time>2026-04-12T14:05:10Z</time></trkpt><trkpt lat="45.799420340977164" lon="12.123554277886383"><ele>288.6666666666667</ele><time>2026-04-12T14:05:11Z</time></trkpt><trkpt lat="45.79936627320103" lon="12.123500644849988"><ele>288.3333333333333</ele><time>2026-04-12T14:05:12Z</time></trkpt><trkpt lat="45.79930623630453" lon="12.123443436205939"><ele>288.0</ele><time>2026-04-12T14:05:13Z</time></trkpt><trkpt lat="45.79923818426683" lon="12.123394416692765"><ele>287.6666666666667</ele><time>2026-04-12T14:05:14Z</time></trkpt><trkpt lat="45.79916530941637" lon="12.123354371656418"><ele>287.3333333333333</ele><time>2026-04-12T14:05:15Z</time></trkpt><trkpt lat="45.79908624584019" lon="12.123308401522204"><ele>287.0</ele><time>2026-04-12T14:05:16Z</time></trkpt><trkpt lat="45.79901223447744" lon="12.123254133671287"><ele>286.66666666666663</ele><time>2026-04-12T14:05:17Z</time></trkpt><trkpt lat="45.79894244416531" lon="12.123205255718647"><ele>286.3333333333333</ele><time>2026-04-12T14:05:18Z</time></trkpt><trkpt lat="45.798878504479156" lon="12.123148804312526"><ele>286.0</ele><time>2026-04-12T14:05:19Z</time></trkpt><trkpt lat="45.79881602746067" lon="12.123079496216599"><ele>286.0</ele><time>2026-04-12T14:05:20Z</time></trkpt><trkpt lat="45.798753210540035" lon="12.123009120051048"><ele>286.0</ele><time>2026-04-12T14:05:21Z</time></trkpt><trkpt lat="45.7986866064236" lon="12.122938831953533"><ele>286.0</ele><time>2026-04-12T14:05:22Z</time></trkpt><trkpt lat="45.79861792407913" lon="12.12285978492771"><ele>286.0</ele><time>2026-04-12T14:05:23Z</time></trkpt><trkpt lat="45.79856009359504" lon="12.122789410927767"><ele>286.0</ele><time>2026-04-12T14:05:24Z</time></trkpt><trkpt lat="45.798502911785725" lon="12.122703837172807"><ele>286.0</ele><time>2026-04-12T14:05:25Z</time></trkpt><trkpt lat="45.79844939565801" lon="12.122616286190416"><ele>284.3333333333333</ele><time>2026-04-12T14:05:26Z</time></trkpt><trkpt lat="45.79840708672933" lon="12.12251687532953"><ele>282.66666666666663</ele><time>2026-04-12T14:05:27Z</time></trkpt><trkpt lat="45.79836870630242" lon="12.122415510766727"><ele>281.0</ele><time>2026-04-12T14:05:28Z</time></trkpt><trkpt lat="45.79833103286831" lon="12.122314164346022"><ele>279.3333333333333</ele><time>2026-04-12T14:05:29Z</time></trkpt><trkpt lat="45.79829000471692" lon="12.12222365784735"><ele>277.6666666666667</ele><time>2026-04-12T14:05:30Z</time></trkpt><trkpt lat="45.79825526476989" lon="12.122142688927779"><ele>276.0</ele><time>2026-04-12T14:05:31Z</time></trkpt><trkpt lat="45.79816317723389" lon="12.122026678846245"><ele>276.0</ele><time>2026-04-12T14:05:33Z</time></trkpt><trkpt lat="45.798043583066864" lon="12.121948660258596"><ele>276.0</ele><time>2026-04-12T14:05:35Z</time></trkpt><trkpt lat="45.79796606144006" lon="12.121938576965174"><ele>276.0</ele><time>2026-04-12T14:05:36Z</time></trkpt><trkpt lat="45.79789154432833" lon="12.121940191043922"><ele>276.0</ele><time>2026-04-12T14:05:37Z</time></trkpt><trkpt lat="45.797760693381825" lon="12.121956994716392"><ele>276.0</ele><time>2026-04-12T14:05:39Z</time></trkpt><trkpt lat="45.797682317792734" lon="12.122001709965328"><ele>273.3333333333333</ele><time>2026-04-12T14:05:40Z</time></trkpt><trkpt lat="45.797618535213516" lon="12.1220448694254"><ele>270.6666666666667</ele><time>2026-04-12T14:05:41Z</time></trkpt><trkpt lat="45.797552820375614" lon="12.122076612633135"><ele>268.0</ele><time>2026-04-12T14:05:42Z</time></trkpt><trkpt lat="45.79748738315695" lon="12.122105782202572"><ele>265.33333333333337</ele><time>2026-04-12T14:05:43Z</time></trkpt><trkpt lat="45.79740072054602" lon="12.122234546734816"><ele>262.6666666666667</ele><time>2026-04-12T14:05:45Z</time></trkpt><trkpt lat="45.79736491927865" lon="12.122334289223668"><ele>260.0</ele><time>2026-04-12T14:05:46Z</time></trkpt><trkpt lat="45.797328783344696" lon="12.122416943446067"><ele>258.8</ele><time>2026-04-12T14:05:47Z</time></trkpt><trkpt lat="45.797289009588994" lon="12.122508654699109"><ele>257.6</ele><time>2026-04-12T14:05:48Z</time></trkpt><trkpt lat="45.79724602371193" lon="12.122594095394044"><ele>256.4</ele><time>2026-04-12T14:05:49Z</time></trkpt><trkpt lat="45.79716051325645" lon="12.122713458364956"><ele>255.2</ele><time>2026-04-12T14:05:51Z</time></trkpt><trkpt lat="45.79706404188115" lon="12.122810292032543"><ele>254.0</ele><time>2026-04-12T14:05:53Z</time></trkpt><trkpt lat="45.79699805252857" lon="12.122819113118727"><ele>254.00000000000003</ele><time>2026-04-12T14:05:54Z</time></trkpt><trkpt lat="45.796866023377" lon="12.122799098536257"><ele>254.0</ele><time>2026-04-12T14:05:56Z</time></trkpt><trkpt lat="45.79679162793122" lon="12.122808988118349"><ele>254.0</ele><time>2026-04-12T14:05:57Z</time></trkpt><trkpt lat="45.796712781655295" lon="12.122842880745534"><ele>254.0</ele><time>2026-04-12T14:05:58Z</time></trkpt><trkpt lat="45.79664317831083" lon="12.122897391833627"><ele>254.00000000000003</ele><time>2026-04-12T14:05:59Z</time></trkpt><trkpt lat="45.79657575671935" lon="12.122950534112713"><ele>254.0</ele><time>2026-04-12T14:06:00Z</time></trkpt><trkpt lat="45.79651587148564" lon="12.12298118734396"><ele>252.66666666666669</ele><time>2026-04-12T14:06:01Z</time></trkpt><trkpt lat="45.79644290477138" lon="12.123008332823865"><ele>251.33333333333334</ele><time>2026-04-12T14:06:02Z</time></trkpt><trkpt lat="45.79637848406618" lon="12.123047513627595"><ele>250.0</ele><time>2026-04-12T14:06:03Z</time></trkpt><trkpt lat="45.79629049473627" lon="12.123153139435185"><ele>248.66666666666669</ele><time>2026-04-12T14:06:05Z</time></trkpt><trkpt lat="45.796243951063865" lon="12.12322206529932"><ele>247.33333333333334</ele><time>2026-04-12T14:06:07Z</time></trkpt><trkpt lat="45.796187401536066" lon="12.12313397760822"><ele>246.0</ele><time>2026-04-12T14:06:11Z</time></trkpt><trkpt lat="45.79623111333226" lon="12.123068289346142"><ele>246.0</ele><time>2026-04-12T14:06:13Z</time></trkpt><trkpt lat="45.79629788036129" lon="12.122971555179738"><ele>246.0</ele><time>2026-04-12T14:06:15Z</time></trkpt><trkpt lat="45.79636285840645" lon="12.122847899230578"><ele>246.0</ele><time>2026-04-12T14:06:17Z</time></trkpt><trkpt lat="45.796410708644586" lon="12.122748028106027"><ele>246.0</ele><time>2026-04-12T14:06:19Z</time></trkpt><trkpt lat="45.7963993442641" lon="12.122650376079717"><ele>246.0</ele><time>2026-04-12T14:06:21Z</time></trkpt><trkpt lat="45.79633165230636" lon="12.122611147370911"><ele>246.0</ele><time>2026-04-12T14:06:23Z</time></trkpt><trkpt lat="45.79621615508096" lon="12.12265344654763"><ele>246.00000000000003</ele><time>2026-04-12T14:06:25Z</time></trkpt><trkpt lat="45.79615181911057" lon="12.122699836725264"><ele>246.0</ele><time>2026-04-12T14:06:26Z</time></trkpt><trkpt lat="45.79608287487547" lon="12.122735994796157"><ele>246.00000000000003</ele><time>2026-04-12T14:06:27Z</time></trkpt><trkpt lat="45.79602257232005" lon="12.122777576045078"><ele>246.00000000000003</ele><time>2026-04-12T14:06:28Z</time></trkpt><trkpt lat="45.79595166085961" lon="12.122816427664826"><ele>246.0</ele><time>2026-04-12T14:06:29Z</time></trkpt><trkpt lat="45.7958908210599" lon="12.122859059229286"><ele>246.00000000000003</ele><time>2026-04-12T14:06:30Z</time></trkpt><trkpt lat="45.7958249581416" lon="12.12289706046144"><ele>246.00000000000003</ele><time>2026-04-12T14:06:31Z</time></trkpt><trkpt lat="45.79570584574837" lon="12.122962366515564"><ele>245.5</ele><time>2026-04-12T14:06:33Z</time></trkpt><trkpt lat="45.79565051823263" lon="12.123005467862637"><ele>245.0</ele><time>2026-04-12T14:06:34Z</time></trkpt><trkpt lat="45.79554565502206" lon="12.123124321139741"><ele>244.5</ele><time>2026-04-12T14:06:36Z</time></trkpt><trkpt lat="45.79549986241175" lon="12.123202730021568"><ele>244.0</ele><time>2026-04-12T14:06:37Z</time></trkpt><trkpt lat="45.79546103021227" lon="12.123302215074224"><ele>243.5</ele><time>2026-04-12T14:06:38Z</time></trkpt><trkpt lat="45.79541855738396" lon="12.123404772216006"><ele>243.0</ele><time>2026-04-12T14:06:39Z</time></trkpt><trkpt lat="45.795368970883075" lon="12.123502298267468"><ele>241.83333333333334</ele><time>2026-04-12T14:06:40Z</time></trkpt><trkpt lat="45.795306086186805" lon="12.123580883307827"><ele>240.66666666666669</ele><time>2026-04-12T14:06:41Z</time></trkpt><trkpt lat="45.79524697765698" lon="12.123660209081692"><ele>239.5</ele><time>2026-04-12T14:06:42Z</time></trkpt><trkpt lat="45.79519603422314" lon="12.12374591013444"><ele>238.33333333333334</ele><time>2026-04-12T14:06:43Z</time></trkpt><trkpt lat="45.7951536497764" lon="12.123839682661433"><ele>237.16666666666669</ele><time>2026-04-12T14:06:44Z</time></trkpt><trkpt lat="45.79510920035281" lon="12.12394293800847"><ele>236.0</ele><time>2026-04-12T14:06:45Z</time></trkpt><trkpt lat="45.795066273841286" lon="12.124038562974391"><ele>234.66666666666669</ele><time>2026-04-12T14:06:46Z</time></trkpt><trkpt lat="45.79502465562136" lon="12.124120336049504"><ele>233.33333333333334</ele><time>2026-04-12T14:06:47Z</time></trkpt><trkpt lat="45.794939559241314" lon="12.124243436412447"><ele>232.0</ele><time>2026-04-12T14:06:49Z</time></trkpt><trkpt lat="45.794872765613036" lon="12.124285846149533"><ele>230.66666666666669</ele><time>2026-04-12T14:06:50Z</time></trkpt><trkpt lat="45.794794969702956" lon="12.124306938622334"><ele>229.33333333333334</ele><time>2026-04-12T14:06:51Z</time></trkpt><trkpt lat="45.79471211773901" lon="12.124300420666442"><ele>228.0</ele><time>2026-04-12T14:06:52Z</time></trkpt><trkpt lat="45.794635480605" lon="12.124281274651032"><ele>228.0</ele><time>2026-04-12T14:06:53Z</time></trkpt><trkpt lat="45.7945564598183" lon="12.124262792913076"><ele>228.0</ele><time>2026-04-12T14:06:54Z</time></trkpt><trkpt lat="45.794475469971275" lon="12.124269287391254"><ele>228.0</ele><time>2026-04-12T14:06:55Z</time></trkpt><trkpt lat="45.794386233290844" lon="12.124277508494675"><ele>228.0</ele><time>2026-04-12T14:06:56Z</time></trkpt><trkpt lat="45.79429783784463" lon="12.124296831240539"><ele>228.0</ele><time>2026-04-12T14:06:57Z</time></trkpt><trkpt lat="45.794221442299154" lon="12.12435078438876"><ele>228.0</ele><time>2026-04-12T14:06:58Z</time></trkpt><trkpt lat="45.79414491422071" lon="12.124429969664503"><ele>227.60000000000002</ele><time>2026-04-12T14:06:59Z</time></trkpt><trkpt lat="45.794074978770496" lon="12.12450455356109"><ele>227.20000000000002</ele><time>2026-04-12T14:07:00Z</time></trkpt><trkpt lat="45.794002023600775" lon="12.124581207821523"><ele>226.8</ele><time>2026-04-12T14:07:01Z</time></trkpt><trkpt lat="45.793914296637524" lon="12.124650019706518"><ele>226.4</ele><time>2026-04-12T14:07:02Z</time></trkpt><trkpt lat="45.79382090754623" lon="12.124712561238972"><ele>226.0</ele><time>2026-04-12T14:07:03Z</time></trkpt><trkpt lat="45.793733495217985" lon="12.12479383472899"><ele>226.0</ele><time>2026-04-12T14:07:04Z</time></trkpt><trkpt lat="45.793643470117026" lon="12.124868354999728"><ele>226.00000000000003</ele><time>2026-04-12T14:07:05Z</time></trkpt><trkpt lat="45.79357059379825" lon="12.124922789701012"><ele>226.00000000000003</ele><time>2026-04-12T14:07:06Z</time></trkpt><trkpt lat="45.793482494613514" lon="12.124989971420282"><ele>226.0</ele><time>2026-04-12T14:07:07Z</time></trkpt><trkpt lat="45.79338325050092" lon="12.12507153124422"><ele>226.0</ele><time>2026-04-12T14:07:08Z</time></trkpt><trkpt lat="45.79329437515072" lon="12.125149841728968"><ele>224.99999999999997</ele><time>2026-04-12T14:07:09Z</time></trkpt><trkpt lat="45.793236087053394" lon="12.125234407766671"><ele>224.0</ele><time>2026-04-12T14:07:10Z</time></trkpt><trkpt lat="45.79315070554728" lon="12.125288153957"><ele>223.0</ele><time>2026-04-12T14:07:11Z</time></trkpt><trkpt lat="45.79308473461622" lon="12.125351378824698"><ele>222.0</ele><time>2026-04-12T14:07:12Z</time></trkpt><trkpt lat="45.7930239827434" lon="12.12541563290091"><ele>220.99999999999997</ele><time>2026-04-12T14:07:13Z</time></trkpt><trkpt lat="45.79297496622496" lon="12.125476829939728"><ele>220.0</ele><time>2026-04-12T14:07:14Z</time></trkpt><trkpt lat="45.79288271581254" lon="12.125559286487816"><ele>219.99999999999997</ele><time>2026-04-12T14:07:16Z</time></trkpt><trkpt lat="45.792765618283774" lon="12.125562542466806"><ele>220.0</ele><time>2026-04-12T14:07:18Z</time></trkpt><trkpt lat="45.792687305481195" lon="12.125540908029372"><ele>220.0</ele><time>2026-04-12T14:07:19Z</time></trkpt><trkpt lat="45.792605917363346" lon="12.12549558325001"><ele>220.0</ele><time>2026-04-12T14:07:20Z</time></trkpt><trkpt lat="45.79254110676282" lon="12.12544047681031"><ele>219.99999999999997</ele><time>2026-04-12T14:07:21Z</time></trkpt><trkpt lat="45.7924708567421" lon="12.125384637872418"><ele>220.0</ele><time>2026-04-12T14:07:22Z</time></trkpt><trkpt lat="45.79240802788625" lon="12.125353430131687"><ele>218.99999999999997</ele><time>2026-04-12T14:07:23Z</time></trkpt><trkpt lat="45.79234649714183" lon="12.125323958153857"><ele>218.0</ele><time>2026-04-12T14:07:24Z</time></trkpt><trkpt lat="45.792262001010094" lon="12.125306415354727"><ele>217.0</ele><time>2026-04-12T14:07:25Z</time></trkpt><trkpt lat="45.79218401222349" lon="12.125312893389621"><ele>216.0</ele><time>2026-04-12T14:07:26Z</time></trkpt><trkpt lat="45.79209947170977" lon="12.125331872311516"><ele>214.99999999999997</ele><time>2026-04-12T14:07:27Z</time></trkpt><trkpt lat="45.792027584631825" lon="12.12537641233026"><ele>214.0</ele><time>2026-04-12T14:07:28Z</time></trkpt><trkpt lat="45.79194458441569" lon="12.12543252815192"><ele>214.0</ele><time>2026-04-12T14:07:29Z</time></trkpt><trkpt lat="45.79184989125265" lon="12.125467892279143"><ele>213.99999999999997</ele><time>2026-04-12T14:07:30Z</time></trkpt><trkpt lat="45.791763848417176" lon="12.12548969158091"><ele>213.99999999999997</ele><time>2026-04-12T14:07:31Z</time></trkpt><trkpt lat="45.79167239883577" lon="12.12551526789612"><ele>214.0</ele><time>2026-04-12T14:07:32Z</time></trkpt><trkpt lat="45.79159709534078" lon="12.125547331588429"><ele>214.0</ele><time>2026-04-12T14:07:33Z</time></trkpt><trkpt lat="45.7914936938574" lon="12.125578693643854"><ele>212.33333333333331</ele><time>2026-04-12T14:07:34Z</time></trkpt><trkpt lat="45.791417232396405" lon="12.125609921030494"><ele>210.66666666666666</ele><time>2026-04-12T14:07:35Z</time></trkpt><trkpt lat="45.79133561717202" lon="12.12564569536443"><ele>209.0</ele><time>2026-04-12T14:07:36Z</time></trkpt><trkpt lat="45.791240800376045" lon="12.125658289090891"><ele>207.33333333333331</ele><time>2026-04-12T14:07:37Z</time></trkpt><trkpt lat="45.79114629606067" lon="12.12566741685883"><ele>205.66666666666666</ele><time>2026-04-12T14:07:38Z</time></trkpt><trkpt lat="45.791054599776594" lon="12.125675865962394"><ele>204.0</ele><time>2026-04-12T14:07:39Z</time></trkpt><trkpt lat="45.79096019624518" lon="12.12568684957575"><ele>201.5</ele><time>2026-04-12T14:07:40Z</time></trkpt><trkpt lat="45.79087191910187" lon="12.125701185003628"><ele>199.0</ele><time>2026-04-12T14:07:41Z</time></trkpt><trkpt lat="45.79078364234275" lon="12.125712564375405"><ele>196.5</ele><time>2026-04-12T14:07:42Z</time></trkpt><trkpt lat="45.790696135488545" lon="12.125724728803293"><ele>194.0</ele><time>2026-04-12T14:07:43Z</time></trkpt><trkpt lat="45.790632251905926" lon="12.12572917567209"><ele>191.5</ele><time>2026-04-12T14:07:44Z</time></trkpt><trkpt lat="45.79055658280571" lon="12.125717827504628"><ele>189.0</ele><time>2026-04-12T14:07:45Z</time></trkpt><trkpt lat="45.790474165077896" lon="12.125668748251927"><ele>189.0</ele><time>2026-04-12T14:07:46Z</time></trkpt><trkpt lat="45.79038364773386" lon="12.125602756575404"><ele>189.0</ele><time>2026-04-12T14:07:47Z</time></trkpt><trkpt lat="45.79028821509683" lon="12.125540241262026"><ele>189.0</ele><time>2026-04-12T14:07:48Z</time></trkpt><trkpt lat="45.790205971057745" lon="12.125486227252823"><ele>189.0</ele><time>2026-04-12T14:07:49Z</time></trkpt><trkpt lat="45.79012312193181" lon="12.125435405771947"><ele>189.0</ele><time>2026-04-12T14:07:50Z</time></trkpt><trkpt lat="45.790056154121665" lon="12.125394215028905"><ele>187.0</ele><time>2026-04-12T14:07:51Z</time></trkpt><trkpt lat="45.789948542638285" lon="12.12534529359183"><ele>185.0</ele><time>2026-04-12T14:07:53Z</time></trkpt><trkpt lat="45.78987779714932" lon="12.125343771855958"><ele>183.0</ele><time>2026-04-12T14:07:54Z</time></trkpt><trkpt lat="45.78979306614461" lon="12.125356347542649"><ele>181.0</ele><time>2026-04-12T14:07:55Z</time></trkpt><trkpt lat="45.789704725650196" lon="12.125362766615897"><ele>179.0</ele><time>2026-04-12T14:07:56Z</time></trkpt><trkpt lat="45.789605687972774" lon="12.12537152995804"><ele>179.0</ele><time>2026-04-12T14:07:57Z</time></trkpt><trkpt lat="45.789525732043884" lon="12.125377196413618"><ele>179.0</ele><time>2026-04-12T14:07:58Z</time></trkpt><trkpt lat="45.7894444404713" lon="12.125378754939963"><ele>179.0</ele><time>2026-04-12T14:07:59Z</time></trkpt><trkpt lat="45.78933660879961" lon="12.125395328261696"><ele>179.0</ele><time>2026-04-12T14:08:01Z</time></trkpt><trkpt lat="45.78926987294369" lon="12.125393643660985"><ele>179.0</ele><time>2026-04-12T14:08:02Z</time></trkpt><trkpt lat="45.78919521959683" lon="12.125399007394666"><ele>179.0</ele><time>2026-04-12T14:08:03Z</time></trkpt><trkpt lat="45.789090079426416" lon="12.125441232552593"><ele>178.00000000000003</ele><time>2026-04-12T14:08:05Z</time></trkpt><trkpt lat="45.789034441847136" lon="12.125495899688557"><ele>177.0</ele><time>2026-04-12T14:08:06Z</time></trkpt><trkpt lat="45.78899344873559" lon="12.125580891695416"><ele>176.0</ele><time>2026-04-12T14:08:07Z</time></trkpt><trkpt lat="45.788950698028025" lon="12.125681034183492"><ele>175.0</ele><time>2026-04-12T14:08:08Z</time></trkpt><trkpt lat="45.788909885259876" lon="12.125762323654666"><ele>174.0</ele><time>2026-04-12T14:08:09Z</time></trkpt><trkpt lat="45.7888684648984" lon="12.125846698659142"><ele>173.00000000000003</ele><time>2026-04-12T14:08:10Z</time></trkpt><trkpt lat="45.78881685721298" lon="12.125927372609882"><ele>172.0</ele><time>2026-04-12T14:08:11Z</time></trkpt><trkpt lat="45.78876510499569" lon="12.125999444241058"><ele>171.39999999999998</ele><time>2026-04-12T14:08:12Z</time></trkpt><trkpt lat="45.78870436114068" lon="12.126081163347754"><ele>170.79999999999998</ele><time>2026-04-12T14:08:13Z</time></trkpt><trkpt lat="45.78865900980031" lon="12.126161041404208"><ele>170.2</ele><time>2026-04-12T14:08:14Z</time></trkpt><trkpt lat="45.788605404237785" lon="12.126225613842998"><ele>169.6</ele><time>2026-04-12T14:08:15Z</time></trkpt><trkpt lat="45.78852104806016" lon="12.126358588046763"><ele>169.0</ele><time>2026-04-12T14:08:17Z</time></trkpt><trkpt lat="45.78845409377051" lon="12.126507234008411"><ele>166.0</ele><time>2026-04-12T14:08:19Z</time></trkpt><trkpt lat="45.78841509192966" lon="12.126586963859484"><ele>163.0</ele><time>2026-04-12T14:08:20Z</time></trkpt><trkpt lat="45.788333414419355" lon="12.126712774689013"><ele>160.0</ele><time>2026-04-12T14:08:22Z</time></trkpt><trkpt lat="45.78825201404365" lon="12.126769839212052"><ele>157.0</ele><time>2026-04-12T14:08:24Z</time></trkpt><trkpt lat="45.78816999996554" lon="12.126755593606008"><ele>154.0</ele><time>2026-04-12T14:08:26Z</time></trkpt><trkpt lat="45.78811124896682" lon="12.12666230232546"><ele>151.0</ele><time>2026-04-12T14:08:28Z</time></trkpt><trkpt lat="45.78809310024571" lon="12.12656763352606"><ele>150.8</ele><time>2026-04-12T14:08:29Z</time></trkpt><trkpt lat="45.78808320328832" lon="12.12647063093905"><ele>150.6</ele><time>2026-04-12T14:08:30Z</time></trkpt><trkpt lat="45.78804911106963" lon="12.126315030204877"><ele>150.4</ele><time>2026-04-12T14:08:32Z</time></trkpt><trkpt lat="45.78803452197918" lon="12.126184548239744"><ele>150.2</ele><time>2026-04-12T14:08:34Z</time></trkpt><trkpt lat="45.788076653191894" lon="12.126065724093309"><ele>150.0</ele><time>2026-04-12T14:08:36Z</time></trkpt><trkpt lat="45.788157534788105" lon="12.125959951838857"><ele>150.0</ele><time>2026-04-12T14:08:38Z</time></trkpt><trkpt lat="45.78819270032741" lon="12.12585943196007"><ele>150.0</ele><time>2026-04-12T14:08:40Z</time></trkpt><trkpt lat="45.788158746492" lon="12.125746138987097"><ele>150.0</ele><time>2026-04-12T14:08:42Z</time></trkpt><trkpt lat="45.788059515172094" lon="12.125706098165507"><ele>150.0</ele><time>2026-04-12T14:08:44Z</time></trkpt><trkpt lat="45.78793259971918" lon="12.125752304739652"><ele>150.0</ele><time>2026-04-12T14:08:46Z</time></trkpt><trkpt lat="45.7878545377143" lon="12.125772721327778"><ele>150.0</ele><time>2026-04-12T14:08:47Z</time></trkpt><trkpt lat="45.78779400252386" lon="12.125799688423994"><ele>150.0</ele><time>2026-04-12T14:08:48Z</time></trkpt><trkpt lat="45.78768817594824" lon="12.125843292266396"><ele>150.0</ele><time>2026-04-12T14:08:50Z</time></trkpt><trkpt lat="45.78760309568303" lon="12.125755522286509"><ele>150.0</ele><time>2026-04-12T14:08:52Z</time></trkpt><trkpt lat="45.78755872452816" lon="12.125673219764503"><ele>150.0</ele><time>2026-04-12T14:08:53Z</time></trkpt><trkpt lat="45.78751602597702" lon="12.125581996946913"><ele>150.0</ele><time>2026-04-12T14:08:54Z</time></trkpt><trkpt lat="45.78745800845013" lon="12.125506790954933"><ele>149.0</ele><time>2026-04-12T14:08:55Z</time></trkpt><trkpt lat="45.78740028024379" lon="12.125427443902842"><ele>148.0</ele><time>2026-04-12T14:08:56Z</time></trkpt><trkpt lat="45.78733788255841" lon="12.125340770223037"><ele>147.0</ele><time>2026-04-12T14:08:57Z</time></trkpt><trkpt lat="45.787279616207385" lon="12.125263802022594"><ele>146.0</ele><time>2026-04-12T14:08:58Z</time></trkpt><trkpt lat="45.78721875888857" lon="12.12518395268946"><ele>145.0</ele><time>2026-04-12T14:08:59Z</time></trkpt><trkpt lat="45.78717178837856" lon="12.125086758081583"><ele>144.0</ele><time>2026-04-12T14:09:00Z</time></trkpt><trkpt lat="45.787126133425225" lon="12.12499998375707"><ele>144.0</ele><time>2026-04-12T14:09:01Z</time></trkpt><trkpt lat="45.78708465043772" lon="12.124921708281885"><ele>144.0</ele><time>2026-04-12T14:09:02Z</time></trkpt><trkpt lat="45.787042970263656" lon="12.124844254729688"><ele>144.0</ele><time>2026-04-12T14:09:03Z</time></trkpt><trkpt lat="45.787012139674886" lon="12.124760222568293"><ele>144.0</ele><time>2026-04-12T14:09:04Z</time></trkpt><trkpt lat="45.7869986859395" lon="12.12456723906277"><ele>144.0</ele><time>2026-04-12T14:09:06Z</time></trkpt><trkpt lat="45.78697864894605" lon="12.124476346902782"><ele>144.0</ele><time>2026-04-12T14:09:07Z</time></trkpt><trkpt lat="45.78686444109714" lon="12.124364646004384"><ele>141.8</ele><time>2026-04-12T14:09:09Z</time></trkpt><trkpt lat="45.786777587246625" lon="12.124303690601469"><ele>139.60000000000002</ele><time>2026-04-12T14:09:10Z</time></trkpt><trkpt lat="45.786706426501205" lon="12.124210248652332"><ele>137.4</ele><time>2026-04-12T14:09:11Z</time></trkpt><trkpt lat="45.786637611851994" lon="12.124120395687783"><ele>135.20000000000002</ele><time>2026-04-12T14:09:12Z</time></trkpt><trkpt lat="45.786554586586334" lon="12.12405817246435"><ele>133.0</ele><time>2026-04-12T14:09:13Z</time></trkpt><trkpt lat="45.78646425189878" lon="12.12400869253061"><ele>133.0</ele><time>2026-04-12T14:09:14Z</time></trkpt><trkpt lat="45.786380504798" lon="12.12395381430847"><ele>133.0</ele><time>2026-04-12T14:09:15Z</time></trkpt><trkpt lat="45.7862977936886" lon="12.123893298734613"><ele>133.0</ele><time>2026-04-12T14:09:16Z</time></trkpt><trkpt lat="45.78621558013595" lon="12.123835730797603"><ele>133.0</ele><time>2026-04-12T14:09:17Z</time></trkpt><trkpt lat="45.78613301696108" lon="12.123774683358649"><ele>133.0</ele><time>2026-04-12T14:09:18Z</time></trkpt><trkpt lat="45.78605379131486" lon="12.123712504960892"><ele>129.8</ele><time>2026-04-12T14:09:19Z</time></trkpt><trkpt lat="45.78597455012757" lon="12.12364958581913"><ele>126.60000000000001</ele><time>2026-04-12T14:09:20Z</time></trkpt><trkpt lat="45.785894974162645" lon="12.123587441427565"><ele>123.39999999999999</ele><time>2026-04-12T14:09:21Z</time></trkpt><trkpt lat="45.785817263901365" lon="12.123526049691234"><ele>120.19999999999999</ele><time>2026-04-12T14:09:22Z</time></trkpt><trkpt lat="45.785742158149844" lon="12.12345786587803"><ele>117.0</ele><time>2026-04-12T14:09:23Z</time></trkpt><trkpt lat="45.7856632485797" lon="12.123392752904268"><ele>117.0</ele><time>2026-04-12T14:09:24Z</time></trkpt><trkpt lat="45.78557512550029" lon="12.123318875394622"><ele>116.99999999999999</ele><time>2026-04-12T14:09:25Z</time></trkpt><trkpt lat="45.78549139863792" lon="12.123231469737423"><ele>116.99999999999999</ele><time>2026-04-12T14:09:26Z</time></trkpt><trkpt lat="45.785421321199124" lon="12.123133479266134"><ele>117.0</ele><time>2026-04-12T14:09:27Z</time></trkpt><trkpt lat="45.785365226768356" lon="12.123046920309529"><ele>117.0</ele><time>2026-04-12T14:09:28Z</time></trkpt><trkpt lat="45.78531840302674" lon="12.122982978926318"><ele>117.5</ele><time>2026-04-12T14:09:29Z</time></trkpt><trkpt lat="45.785251624997215" lon="12.12290261218449"><ele>118.0</ele><time>2026-04-12T14:09:31Z</time></trkpt><trkpt lat="45.78520956211859" lon="12.122817107781781"><ele>118.5</ele><time>2026-04-12T14:09:37Z</time></trkpt><trkpt lat="45.78516702888083" lon="12.122696950021266"><ele>119.0</ele><time>2026-04-12T14:09:39Z</time></trkpt><trkpt lat="45.78510767292698" lon="12.122621607606172"><ele>119.5</ele><time>2026-04-12T14:09:41Z</time></trkpt><trkpt lat="45.78510186433527" lon="12.122727984577837"><ele>120.0</ele><time>2026-04-12T14:09:48Z</time></trkpt><trkpt lat="45.7852413650981" lon="12.122838230781364"><ele>120.0</ele><time>2026-04-12T14:09:50Z</time></trkpt><trkpt lat="45.78537925245648" lon="12.12293149546126"><ele>120.0</ele><time>2026-04-12T14:09:51Z</time></trkpt><trkpt lat="45.78548345779072" lon="12.123011624196627"><ele>120.0</ele><time>2026-04-12T14:09:52Z</time></trkpt><trkpt lat="45.78557222449587" lon="12.123043087035425"><ele>120.0</ele><time>2026-04-12T14:09:53Z</time></trkpt><trkpt lat="45.78565617186003" lon="12.123038293888166"><ele>120.0</ele><time>2026-04-12T14:09:54Z</time></trkpt><trkpt lat="45.785728265040774" lon="12.123002456288605"><ele>120.0</ele><time>2026-04-12T14:09:55Z</time></trkpt><trkpt lat="45.78579898953373" lon="12.122917033183251"><ele>120.0</ele><time>2026-04-12T14:09:56Z</time></trkpt><trkpt lat="45.78587644887006" lon="12.122773081310015"><ele>120.0</ele><time>2026-04-12T14:09:57Z</time></trkpt><trkpt lat="45.785961364445285" lon="12.122607657021817"><ele>120.0</ele><time>2026-04-12T14:09:58Z</time></trkpt><trkpt lat="45.7860638635398" lon="12.122454488246666"><ele>123.25</ele><time>2026-04-12T14:09:59Z</time></trkpt><trkpt lat="45.786189394873496" lon="12.122299653163612"><ele>126.5</ele><time>2026-04-12T14:10:00Z</time></trkpt><trkpt lat="45.78630906191083" lon="12.122194800357997"><ele>129.75</ele><time>2026-04-12T14:10:01Z</time></trkpt><trkpt lat="45.786417204688085" lon="12.122125329494235"><ele>133.0</ele><time>2026-04-12T14:10:02Z</time></trkpt><trkpt lat="45.786531915534766" lon="12.122077461484558"><ele>133.0</ele><time>2026-04-12T14:10:03Z</time></trkpt><trkpt lat="45.78663732363993" lon="12.122067892528912"><ele>133.0</ele><time>2026-04-12T14:10:04Z</time></trkpt><trkpt lat="45.78673500334229" lon="12.12208857031823"><ele>133.0</ele><time>2026-04-12T14:10:05Z</time></trkpt><trkpt lat="45.786832515198654" lon="12.122163040057652"><ele>133.0</ele><time>2026-04-12T14:10:06Z</time></trkpt><trkpt lat="45.786935655012414" lon="12.122284902000919"><ele>133.0</ele><time>2026-04-12T14:10:07Z</time></trkpt><trkpt lat="45.78703234822968" lon="12.12243878879936"><ele>138.0</ele><time>2026-04-12T14:10:08Z</time></trkpt><trkpt lat="45.787135166233426" lon="12.122596729249562"><ele>143.0</ele><time>2026-04-12T14:10:09Z</time></trkpt><trkpt lat="45.787240581343546" lon="12.122742947621118"><ele>148.0</ele><time>2026-04-12T14:10:10Z</time></trkpt><trkpt lat="45.78735608039999" lon="12.122900528936526"><ele>148.0</ele><time>2026-04-12T14:10:11Z</time></trkpt><trkpt lat="45.787471705869876" lon="12.123059563372243"><ele>148.0</ele><time>2026-04-12T14:10:12Z</time></trkpt><trkpt lat="45.78758614660746" lon="12.123213661461568"><ele>148.0</ele><time>2026-04-12T14:10:13Z</time></trkpt><trkpt lat="45.787717770091795" lon="12.123372864298236"><ele>154.0</ele><time>2026-04-12T14:10:14Z</time></trkpt><trkpt lat="45.787861460947994" lon="12.123544643044148"><ele>160.0</ele><time>2026-04-12T14:10:15Z</time></trkpt><trkpt lat="45.788004913444965" lon="12.12371720773528"><ele>166.0</ele><time>2026-04-12T14:10:16Z</time></trkpt><trkpt lat="45.78812729626251" lon="12.123862146875904"><ele>166.0</ele><time>2026-04-12T14:10:17Z</time></trkpt><trkpt lat="45.788231928031045" lon="12.123983664677677"><ele>166.0</ele><time>2026-04-12T14:10:18Z</time></trkpt><trkpt lat="45.78834181895208" lon="12.124109829762714"><ele>166.0</ele><time>2026-04-12T14:10:19Z</time></trkpt><trkpt lat="45.78845108892656" lon="12.124195668866157"><ele>166.0</ele><time>2026-04-12T14:10:20Z</time></trkpt><trkpt lat="45.78856974444941" lon="12.124234834817928"><ele>170.66666666666669</ele><time>2026-04-12T14:10:21Z</time></trkpt><trkpt lat="45.78871635055088" lon="12.124235634473267"><ele>175.33333333333334</ele><time>2026-04-12T14:10:22Z</time></trkpt><trkpt lat="45.788874803036656" lon="12.124215264572406"><ele>180.0</ele><time>2026-04-12T14:10:23Z</time></trkpt><trkpt lat="45.78904329037585" lon="12.124170456194056"><ele>180.0</ele><time>2026-04-12T14:10:24Z</time></trkpt><trkpt lat="45.78923442116994" lon="12.12412779559022"><ele>180.0</ele><time>2026-04-12T14:10:25Z</time></trkpt><trkpt lat="45.789420958424785" lon="12.124104621866394"><ele>180.0</ele><time>2026-04-12T14:10:26Z</time></trkpt><trkpt lat="45.78957486858609" lon="12.124088487801464"><ele>184.33333333333331</ele><time>2026-04-12T14:10:27Z</time></trkpt><trkpt lat="45.78971839451196" lon="12.124056642477747"><ele>188.66666666666666</ele><time>2026-04-12T14:10:28Z</time></trkpt><trkpt lat="45.78988308187192" lon="12.123985990229897"><ele>193.0</ele><time>2026-04-12T14:10:29Z</time></trkpt><trkpt lat="45.79006135417644" lon="12.123870950842432"><ele>193.66666666666666</ele><time>2026-04-12T14:10:30Z</time></trkpt><trkpt lat="45.79023718313003" lon="12.123718955138811"><ele>194.33333333333331</ele><time>2026-04-12T14:10:31Z</time></trkpt><trkpt lat="45.79041345570592" lon="12.123571816619133"><ele>195.0</ele><time>2026-04-12T14:10:32Z</time></trkpt><trkpt lat="45.79057721774655" lon="12.123438582239844"><ele>195.0</ele><time>2026-04-12T14:10:33Z</time></trkpt><trkpt lat="45.790722207250646" lon="12.123314842132375"><ele>195.0</ele><time>2026-04-12T14:10:34Z</time></trkpt><trkpt lat="45.79086748584503" lon="12.12321152905309"><ele>195.0</ele><time>2026-04-12T14:10:35Z</time></trkpt><trkpt lat="45.79100993114371" lon="12.123100873978562"><ele>198.33333333333331</ele><time>2026-04-12T14:10:36Z</time></trkpt><trkpt lat="45.79115332149958" lon="12.122978308367678"><ele>201.66666666666666</ele><time>2026-04-12T14:10:37Z</time></trkpt><trkpt lat="45.79129688940523" lon="12.122868825248352"><ele>205.0</ele><time>2026-04-12T14:10:38Z</time></trkpt><trkpt lat="45.79143703055752" lon="12.122786853112995"><ele>205.0</ele><time>2026-04-12T14:10:39Z</time></trkpt><trkpt lat="45.791566325707464" lon="12.122724396612956"><ele>205.0</ele><time>2026-04-12T14:10:40Z</time></trkpt><trkpt lat="45.79171116412843" lon="12.122667149588557"><ele>205.0</ele><time>2026-04-12T14:10:41Z</time></trkpt><trkpt lat="45.79186024131602" lon="12.122600684792138"><ele>205.0</ele><time>2026-04-12T14:10:42Z</time></trkpt><trkpt lat="45.79199684713845" lon="12.12253264386706"><ele>206.6</ele><time>2026-04-12T14:10:43Z</time></trkpt><trkpt lat="45.79212431777925" lon="12.1224723078635"><ele>208.2</ele><time>2026-04-12T14:10:44Z</time></trkpt><trkpt lat="45.79223348224981" lon="12.122427612790176"><ele>209.8</ele><time>2026-04-12T14:10:45Z</time></trkpt><trkpt lat="45.79232941838436" lon="12.12238603762943"><ele>211.4</ele><time>2026-04-12T14:10:46Z</time></trkpt><trkpt lat="45.792422661491116" lon="12.122339543712068"><ele>213.0</ele><time>2026-04-12T14:10:47Z</time></trkpt><trkpt lat="45.79251438671679" lon="12.12227281462527"><ele>214.33333333333331</ele><time>2026-04-12T14:10:48Z</time></trkpt><trkpt lat="45.79262941452096" lon="12.122159489800321"><ele>215.66666666666666</ele><time>2026-04-12T14:10:49Z</time></trkpt><trkpt lat="45.79277210469997" lon="12.12199644222751"><ele>217.0</ele><time>2026-04-12T14:10:50Z</time></trkpt><trkpt lat="45.79291823564953" lon="12.12183726046988"><ele>219.75</ele><time>2026-04-12T14:10:51Z</time></trkpt><trkpt lat="45.79303645529998" lon="12.121719064042468"><ele>222.5</ele><time>2026-04-12T14:10:52Z</time></trkpt><trkpt lat="45.79316258214784" lon="12.121630553399802"><ele>225.25</ele><time>2026-04-12T14:10:53Z</time></trkpt><trkpt lat="45.79329935088427" lon="12.12159012877629"><ele>228.0</ele><time>2026-04-12T14:10:54Z</time></trkpt><trkpt lat="45.79344273128055" lon="12.121595827636185"><ele>231.0</ele><time>2026-04-12T14:10:55Z</time></trkpt><trkpt lat="45.793592403078655" lon="12.121641575066613"><ele>234.0</ele><time>2026-04-12T14:10:56Z</time></trkpt><trkpt lat="45.793766635064244" lon="12.121682018437122"><ele>237.0</ele><time>2026-04-12T14:10:57Z</time></trkpt><trkpt lat="45.79396839868697" lon="12.121710702968066"><ele>237.0</ele><time>2026-04-12T14:10:58Z</time></trkpt><trkpt lat="45.79416561626579" lon="12.121740834483639"><ele>237.0</ele><time>2026-04-12T14:10:59Z</time></trkpt><trkpt lat="45.79434957272732" lon="12.121771036295605"><ele>237.0</ele><time>2026-04-12T14:11:00Z</time></trkpt><trkpt lat="45.79450883576067" lon="12.12180831192079"><ele>239.66666666666669</ele><time>2026-04-12T14:11:01Z</time></trkpt><trkpt lat="45.79466063548372" lon="12.12185270551227"><ele>242.33333333333334</ele><time>2026-04-12T14:11:02Z</time></trkpt><trkpt lat="45.794819499899276" lon="12.121907339613855"><ele>245.0</ele><time>2026-04-12T14:11:03Z</time></trkpt><trkpt lat="45.79497957073879" lon="12.121953457232403"><ele>245.0</ele><time>2026-04-12T14:11:04Z</time></trkpt><trkpt lat="45.79514427386745" lon="12.122002092130035"><ele>245.0</ele><time>2026-04-12T14:11:05Z</time></trkpt><trkpt lat="45.79532580789773" lon="12.12203809086601"><ele>245.0</ele><time>2026-04-12T14:11:06Z</time></trkpt><trkpt lat="45.795502510152986" lon="12.122038754572221"><ele>246.66666666666669</ele><time>2026-04-12T14:11:07Z</time></trkpt><trkpt lat="45.79568093143512" lon="12.122010680494117"><ele>248.33333333333331</ele><time>2026-04-12T14:11:08Z</time></trkpt><trkpt lat="45.79585635567764" lon="12.121970055843558"><ele>250.0</ele><time>2026-04-12T14:11:09Z</time></trkpt><trkpt lat="45.79602107743099" lon="12.121943487915804"><ele>250.5</ele><time>2026-04-12T14:11:10Z</time></trkpt><trkpt lat="45.79616125280261" lon="12.121923293414438"><ele>251.0</ele><time>2026-04-12T14:11:11Z</time></trkpt><trkpt lat="45.79627397165744" lon="12.121877147262843"><ele>251.5</ele><time>2026-04-12T14:11:12Z</time></trkpt><trkpt lat="45.79636606584285" lon="12.1218023237983"><ele>252.0</ele><time>2026-04-12T14:11:13Z</time></trkpt><trkpt lat="45.79644329471122" lon="12.121670498125926"><ele>254.33333333333331</ele><time>2026-04-12T14:11:14Z</time></trkpt><trkpt lat="45.79649683017763" lon="12.121468195022846"><ele>256.66666666666663</ele><time>2026-04-12T14:11:15Z</time></trkpt><trkpt lat="45.7965372988856" lon="12.121231778489301"><ele>259.0</ele><time>2026-04-12T14:11:16Z</time></trkpt><trkpt lat="45.79659525631956" lon="12.121001306824764"><ele>259.0</ele><time>2026-04-12T14:11:17Z</time></trkpt><trkpt lat="45.79668017622223" lon="12.120814025628025"><ele>259.0</ele><time>2026-04-12T14:11:18Z</time></trkpt><trkpt lat="45.79680011508447" lon="12.120656861687465"><ele>259.0</ele><time>2026-04-12T14:11:19Z</time></trkpt><trkpt lat="45.79695027236294" lon="12.12053573803511"><ele>262.66666666666663</ele><time>2026-04-12T14:11:20Z</time></trkpt><trkpt lat="45.797116516382935" lon="12.12041919489745"><ele>266.3333333333333</ele><time>2026-04-12T14:11:21Z</time></trkpt><trkpt lat="45.797289528302095" lon="12.120274382302675"><ele>270.0</ele><time>2026-04-12T14:11:22Z</time></trkpt><trkpt lat="45.79744452644892" lon="12.120132130712602"><ele>270.0</ele><time>2026-04-12T14:11:23Z</time></trkpt><trkpt lat="45.797575154231865" lon="12.120006405574062"><ele>270.0</ele><time>2026-04-12T14:11:24Z</time></trkpt><trkpt lat="45.79771401083683" lon="12.11989415043565"><ele>270.0</ele><time>2026-04-12T14:11:25Z</time></trkpt><trkpt lat="45.79786589733756" lon="12.119783289443232"><ele>273.3333333333333</ele><time>2026-04-12T14:11:26Z</time></trkpt><trkpt lat="45.798023230266026" lon="12.119687482327986"><ele>276.66666666666663</ele><time>2026-04-12T14:11:27Z</time></trkpt><trkpt lat="45.79817941607745" lon="12.119598225004925"><ele>280.0</ele><time>2026-04-12T14:11:28Z</time></trkpt><trkpt lat="45.79834283784871" lon="12.119512129539881"><ele>279.3333333333333</ele><time>2026-04-12T14:11:29Z</time></trkpt><trkpt lat="45.79851391411112" lon="12.119430625200179"><ele>278.6666666666667</ele><time>2026-04-12T14:11:30Z</time></trkpt><trkpt lat="45.79868487088854" lon="12.119352171208567"><ele>278.0</ele><time>2026-04-12T14:11:31Z</time></trkpt><trkpt lat="45.7988481695202" lon="12.119275590567101"><ele>278.0</ele><time>2026-04-12T14:11:32Z</time></trkpt><trkpt lat="45.79898976812512" lon="12.119210508157291"><ele>278.0</ele><time>2026-04-12T14:11:33Z</time></trkpt><trkpt lat="45.79912926748301" lon="12.119147949335336"><ele>278.0</ele><time>2026-04-12T14:11:34Z</time></trkpt><trkpt lat="45.79925215933382" lon="12.11908550308662"><ele>278.0</ele><time>2026-04-12T14:11:35Z</time></trkpt><trkpt lat="45.799365919076614" lon="12.119036484200423"><ele>280.4</ele><time>2026-04-12T14:11:36Z</time></trkpt><trkpt lat="45.7994608866438" lon="12.11898840442741"><ele>282.8</ele><time>2026-04-12T14:11:37Z</time></trkpt><trkpt lat="45.79954065888867" lon="12.118948064830567"><ele>285.2</ele><time>2026-04-12T14:11:39Z</time></trkpt><trkpt lat="45.79959227508372" lon="12.118864730674256"><ele>287.6</ele><time>2026-04-12T14:11:46Z</time></trkpt><trkpt lat="45.79955832359569" lon="12.11870485660713"><ele>290.0</ele><time>2026-04-12T14:11:48Z</time></trkpt><trkpt lat="45.79950904524113" lon="12.118625190114232"><ele>290.0</ele><time>2026-04-12T14:11:49Z</time></trkpt><trkpt lat="45.799453929981915" lon="12.118559640926627"><ele>290.0</ele><time>2026-04-12T14:11:50Z</time></trkpt><trkpt lat="45.79938142050133" lon="12.118499399102882"><ele>290.0</ele><time>2026-04-12T14:11:51Z</time></trkpt><trkpt lat="45.79930677242658" lon="12.118439138791995"><ele>290.0</ele><time>2026-04-12T14:11:52Z</time></trkpt><trkpt lat="45.799228566046025" lon="12.11838305723246"><ele>290.0</ele><time>2026-04-12T14:11:53Z</time></trkpt><trkpt lat="45.799139166044796" lon="12.118343988057742"><ele>290.0</ele><time>2026-04-12T14:11:54Z</time></trkpt><trkpt lat="45.79905192661317" lon="12.118314020028267"><ele>289.83333333333337</ele><time>2026-04-12T14:11:55Z</time></trkpt><trkpt lat="45.798966932683044" lon="12.118292513916636"><ele>289.6666666666667</ele><time>2026-04-12T14:11:56Z</time></trkpt><trkpt lat="45.79889386400884" lon="12.118273257976455"><ele>289.5</ele><time>2026-04-12T14:11:57Z</time></trkpt><trkpt lat="45.79883542245995" lon="12.118234510591956"><ele>289.3333333333333</ele><time>2026-04-12T14:11:58Z</time></trkpt><trkpt lat="45.79876074367416" lon="12.118167579052379"><ele>289.16666666666663</ele><time>2026-04-12T14:11:59Z</time></trkpt><trkpt lat="45.79868640798713" lon="12.118086475130854"><ele>289.0</ele><time>2026-04-12T14:12:00Z</time></trkpt><trkpt lat="45.798618036779175" lon="12.117998586555228"><ele>289.0</ele><time>2026-04-12T14:12:01Z</time></trkpt><trkpt lat="45.79856063174423" lon="12.117894957827673"><ele>289.0</ele><time>2026-04-12T14:12:02Z</time></trkpt><trkpt lat="45.79850998248192" lon="12.117776632026906"><ele>289.0</ele><time>2026-04-12T14:12:03Z</time></trkpt><trkpt lat="45.79844592425661" lon="12.117646552435506"><ele>289.0</ele><time>2026-04-12T14:12:04Z</time></trkpt><trkpt lat="45.798373179885644" lon="12.117515131967066"><ele>289.0</ele><time>2026-04-12T14:12:05Z</time></trkpt><trkpt lat="45.798312182030756" lon="12.117391189453835"><ele>287.8333333333333</ele><time>2026-04-12T14:12:06Z</time></trkpt><trkpt lat="45.79825322999765" lon="12.117296885264464"><ele>286.66666666666663</ele><time>2026-04-12T14:12:07Z</time></trkpt><trkpt lat="45.7981884285106" lon="12.11721543958009"><ele>285.5</ele><time>2026-04-12T14:12:08Z</time></trkpt><trkpt lat="45.798113357433614" lon="12.117166880894983"><ele>284.3333333333333</ele><time>2026-04-12T14:12:09Z</time></trkpt><trkpt lat="45.79802760455808" lon="12.117111950948926"><ele>283.1666666666667</ele><time>2026-04-12T14:12:10Z</time></trkpt><trkpt lat="45.79794778733359" lon="12.117070313696894"><ele>282.0</ele><time>2026-04-12T14:12:11Z</time></trkpt><trkpt lat="45.79785279438257" lon="12.117054109271995"><ele>282.0</ele><time>2026-04-12T14:12:12Z</time></trkpt><trkpt lat="45.79774393483555" lon="12.117047582166295"><ele>282.0</ele><time>2026-04-12T14:12:13Z</time></trkpt><trkpt lat="45.7976383825852" lon="12.117067334601384"><ele>282.0</ele><time>2026-04-12T14:12:14Z</time></trkpt><trkpt lat="45.79753461955069" lon="12.117087022044723"><ele>282.0</ele><time>2026-04-12T14:12:15Z</time></trkpt><trkpt lat="45.79742591923309" lon="12.117127142572235"><ele>282.0</ele><time>2026-04-12T14:12:16Z</time></trkpt><trkpt lat="45.797305021929404" lon="12.117164600414824"><ele>281.2</ele><time>2026-04-12T14:12:17Z</time></trkpt><trkpt lat="45.7972027033877" lon="12.117208044646295"><ele>280.4</ele><time>2026-04-12T14:12:18Z</time></trkpt><trkpt lat="45.79710532049925" lon="12.117256490092949"><ele>279.6</ele><time>2026-04-12T14:12:19Z</time></trkpt><trkpt lat="45.79700932809076" lon="12.117292789055313"><ele>278.8</ele><time>2026-04-12T14:12:20Z</time></trkpt><trkpt lat="45.79691708317153" lon="12.11729851650529"><ele>278.0</ele><time>2026-04-12T14:12:21Z</time></trkpt><trkpt lat="45.796826253500306" lon="12.117287560811715"><ele>276.5</ele><time>2026-04-12T14:12:22Z</time></trkpt><trkpt lat="45.796743406424895" lon="12.117266643717796"><ele>275.0</ele><time>2026-04-12T14:12:23Z</time></trkpt><trkpt lat="45.796671380134086" lon="12.117276648014586"><ele>273.5</ele><time>2026-04-12T14:12:24Z</time></trkpt><trkpt lat="45.79660899036184" lon="12.117320078295336"><ele>272.0</ele><time>2026-04-12T14:12:25Z</time></trkpt><trkpt lat="45.79655905418734" lon="12.117397433602765"><ele>270.5</ele><time>2026-04-12T14:12:26Z</time></trkpt><trkpt lat="45.79650437508282" lon="12.117497536437602"><ele>269.0</ele><time>2026-04-12T14:12:27Z</time></trkpt><trkpt lat="45.7964535960123" lon="12.117611596875047"><ele>267.4</ele><time>2026-04-12T14:12:28Z</time></trkpt><trkpt lat="45.79639582526703" lon="12.117744521069712"><ele>265.79999999999995</ele><time>2026-04-12T14:12:29Z</time></trkpt><trkpt lat="45.79633923674473" lon="12.117842897868917"><ele>264.20000000000005</ele><time>2026-04-12T14:12:30Z</time></trkpt><trkpt lat="45.796277289748" lon="12.11790111427492"><ele>262.6</ele><time>2026-04-12T14:12:31Z</time></trkpt><trkpt lat="45.79620704948544" lon="12.117943105215955"><ele>261.0</ele><time>2026-04-12T14:12:32Z</time></trkpt><trkpt lat="45.796112929466226" lon="12.117996695290653"><ele>261.0</ele><time>2026-04-12T14:12:33Z</time></trkpt><trkpt lat="45.79602353576831" lon="12.118048660128627"><ele>261.0</ele><time>2026-04-12T14:12:34Z</time></trkpt><trkpt lat="45.795917108402314" lon="12.118116232840165"><ele>261.0</ele><time>2026-04-12T14:12:35Z</time></trkpt><trkpt lat="45.79582187468099" lon="12.118173258432849"><ele>261.0</ele><time>2026-04-12T14:12:36Z</time></trkpt><trkpt lat="45.795732260356786" lon="12.11823504931639"><ele>261.0</ele><time>2026-04-12T14:12:37Z</time></trkpt><trkpt lat="45.79562735693294" lon="12.118288359015233"><ele>260.40000000000003</ele><time>2026-04-12T14:12:38Z</time></trkpt><trkpt lat="45.79553249860347" lon="12.118355044409617"><ele>259.8</ele><time>2026-04-12T14:12:39Z</time></trkpt><trkpt lat="45.795438727339885" lon="12.118429956096719"><ele>259.20000000000005</ele><time>2026-04-12T14:12:40Z</time></trkpt><trkpt lat="45.79534423222012" lon="12.118485705345497"><ele>258.6</ele><time>2026-04-12T14:12:41Z</time></trkpt><trkpt lat="45.79525317111033" lon="12.118527234193358"><ele>258.0</ele><time>2026-04-12T14:12:42Z</time></trkpt><trkpt lat="45.79515316049479" lon="12.118548546029023"><ele>256.75</ele><time>2026-04-12T14:12:43Z</time></trkpt><trkpt lat="45.7950294892553" lon="12.118569005287647"><ele>255.5</ele><time>2026-04-12T14:12:44Z</time></trkpt><trkpt lat="45.79490788254998" lon="12.11858707387029"><ele>254.25</ele><time>2026-04-12T14:12:45Z</time></trkpt><trkpt lat="45.794797859150904" lon="12.118629438366245"><ele>253.0</ele><time>2026-04-12T14:12:46Z</time></trkpt><trkpt lat="45.79469973779911" lon="12.118646762909638"><ele>252.99999999999997</ele><time>2026-04-12T14:12:47Z</time></trkpt><trkpt lat="45.79462174565987" lon="12.118660053822524"><ele>253.0</ele><time>2026-04-12T14:12:48Z</time></trkpt><trkpt lat="45.794558689792936" lon="12.118678596175457"><ele>253.0</ele><time>2026-04-12T14:12:49Z</time></trkpt><trkpt lat="45.79445926494376" lon="12.11863214572751"><ele>253.0</ele><time>2026-04-12T14:12:51Z</time></trkpt><trkpt lat="45.794427666561575" lon="12.11847054525959"><ele>252.99999999999997</ele><time>2026-04-12T14:12:53Z</time></trkpt><trkpt lat="45.794452497315" lon="12.11837885557148"><ele>253.0</ele><time>2026-04-12T14:12:54Z</time></trkpt><trkpt lat="45.79450195645634" lon="12.118280307237146"><ele>253.49999999999997</ele><time>2026-04-12T14:12:55Z</time></trkpt><trkpt lat="45.794565972252904" lon="12.118185399781366"><ele>254.0</ele><time>2026-04-12T14:12:56Z</time></trkpt><trkpt lat="45.79463093793565" lon="12.118073129061031"><ele>254.5</ele><time>2026-04-12T14:12:57Z</time></trkpt><trkpt lat="45.79469344459341" lon="12.117945663707545"><ele>255.0</ele><time>2026-04-12T14:12:58Z</time></trkpt><trkpt lat="45.79472961961974" lon="12.117842408159298"><ele>255.49999999999997</ele><time>2026-04-12T14:12:59Z</time></trkpt><trkpt lat="45.79475707865048" lon="12.117756664205258"><ele>256.0</ele><time>2026-04-12T14:13:00Z</time></trkpt><trkpt lat="45.794773068563664" lon="12.11759516838221"><ele>256.0</ele><time>2026-04-12T14:13:02Z</time></trkpt><trkpt lat="45.794734980137115" lon="12.11751707096926"><ele>256.0</ele><time>2026-04-12T14:13:03Z</time></trkpt><trkpt lat="45.79462573529736" lon="12.117441178302853"><ele>256.0</ele><time>2026-04-12T14:13:05Z</time></trkpt><trkpt lat="45.79456394917813" lon="12.117461648817901"><ele>256.0</ele><time>2026-04-12T14:13:06Z</time></trkpt><trkpt lat="45.794484846567975" lon="12.117498861502511"><ele>256.0</ele><time>2026-04-12T14:13:07Z</time></trkpt><trkpt lat="45.79438177249964" lon="12.117580786955283"><ele>253.5</ele><time>2026-04-12T14:13:08Z</time></trkpt><trkpt lat="45.794267391498686" lon="12.117646084224312"><ele>251.0</ele><time>2026-04-12T14:13:09Z</time></trkpt><trkpt lat="45.79416177513778" lon="12.117672635935872"><ele>248.5</ele><time>2026-04-12T14:13:10Z</time></trkpt><trkpt lat="45.79403855890106" lon="12.117685872276459"><ele>246.0</ele><time>2026-04-12T14:13:11Z</time></trkpt><trkpt lat="45.79391970937726" lon="12.117686912164684"><ele>246.0</ele><time>2026-04-12T14:13:12Z</time></trkpt><trkpt lat="45.793818462657995" lon="12.1176850531225"><ele>246.00000000000003</ele><time>2026-04-12T14:13:13Z</time></trkpt><trkpt lat="45.79370108835155" lon="12.117671203947513"><ele>246.00000000000003</ele><time>2026-04-12T14:13:14Z</time></trkpt><trkpt lat="45.79359423724462" lon="12.11763561530246"><ele>246.0</ele><time>2026-04-12T14:13:15Z</time></trkpt><trkpt lat="45.793490970796384" lon="12.117598838351439"><ele>246.0</ele><time>2026-04-12T14:13:16Z</time></trkpt><trkpt lat="45.79339966824865" lon="12.117578482916617"><ele>246.4</ele><time>2026-04-12T14:13:17Z</time></trkpt><trkpt lat="45.79332778591262" lon="12.117563566921415"><ele>246.8</ele><time>2026-04-12T14:13:18Z</time></trkpt><trkpt lat="45.79325445206246" lon="12.117458059446108"><ele>247.20000000000002</ele><time>2026-04-12T14:13:20Z</time></trkpt><trkpt lat="45.793249914790636" lon="12.117274664343931"><ele>247.60000000000002</ele><time>2026-04-12T14:13:22Z</time></trkpt><trkpt lat="45.793234839563674" lon="12.117161421157348"><ele>248.0</ele><time>2026-04-12T14:13:23Z</time></trkpt><trkpt lat="45.79314091582895" lon="12.117080707498172"><ele>248.0</ele><time>2026-04-12T14:13:25Z</time></trkpt><trkpt lat="45.79307785738218" lon="12.117099564418568"><ele>248.0</ele><time>2026-04-12T14:13:26Z</time></trkpt><trkpt lat="45.792953188789575" lon="12.11713589292887"><ele>248.0</ele><time>2026-04-12T14:13:27Z</time></trkpt><trkpt lat="45.7928313996812" lon="12.117171343687914"><ele>248.0</ele><time>2026-04-12T14:13:28Z</time></trkpt><trkpt lat="45.792720922451494" lon="12.117192654973868"><ele>248.0</ele><time>2026-04-12T14:13:29Z</time></trkpt><trkpt lat="45.79262489636217" lon="12.117173320329966"><ele>246.4</ele><time>2026-04-12T14:13:30Z</time></trkpt><trkpt lat="45.79253500319838" lon="12.117137596988464"><ele>244.8</ele><time>2026-04-12T14:13:31Z</time></trkpt><trkpt lat="45.792449842014335" lon="12.117083442077949"><ele>243.2</ele><time>2026-04-12T14:13:32Z</time></trkpt><trkpt lat="45.79236381436051" lon="12.117012137430104"><ele>241.6</ele><time>2026-04-12T14:13:33Z</time></trkpt><trkpt lat="45.792293448831096" lon="12.116958117800133"><ele>240.0</ele><time>2026-04-12T14:13:34Z</time></trkpt><trkpt lat="45.792211351716524" lon="12.116927983706539"><ele>240.0</ele><time>2026-04-12T14:13:35Z</time></trkpt><trkpt lat="45.792132912378115" lon="12.116926853248414"><ele>240.0</ele><time>2026-04-12T14:13:36Z</time></trkpt><trkpt lat="45.7920686240743" lon="12.116933785777551"><ele>240.0</ele><time>2026-04-12T14:13:37Z</time></trkpt><trkpt lat="45.79197876858789" lon="12.116979616107281"><ele>240.0</ele><time>2026-04-12T14:13:39Z</time></trkpt><trkpt lat="45.791932915093206" lon="12.117046127270116"><ele>240.0</ele><time>2026-04-12T14:13:40Z</time></trkpt><trkpt lat="45.791874703402144" lon="12.117114132558914"><ele>240.0</ele><time>2026-04-12T14:13:41Z</time></trkpt><trkpt lat="45.791813347002844" lon="12.117139466298433"><ele>240.0</ele><time>2026-04-12T14:13:42Z</time></trkpt><trkpt lat="45.79174691509391" lon="12.11715849989762"><ele>238.0</ele><time>2026-04-12T14:13:43Z</time></trkpt><trkpt lat="45.791683767637764" lon="12.11717262476325"><ele>236.0</ele><time>2026-04-12T14:13:44Z</time></trkpt><trkpt lat="45.791607623288556" lon="12.11719501767256"><ele>234.0</ele><time>2026-04-12T14:13:45Z</time></trkpt><trkpt lat="45.79153698639625" lon="12.117201403591631"><ele>232.0</ele><time>2026-04-12T14:13:46Z</time></trkpt><trkpt lat="45.791404464532384" lon="12.117228739458435"><ele>230.0</ele><time>2026-04-12T14:13:48Z</time></trkpt><trkpt lat="45.7913403174986" lon="12.117242381586347"><ele>228.0</ele><time>2026-04-12T14:13:49Z</time></trkpt><trkpt lat="45.791265544382085" lon="12.117267870876583"><ele>228.0</ele><time>2026-04-12T14:13:50Z</time></trkpt><trkpt lat="45.79120028444594" lon="12.117290566852475"><ele>228.0</ele><time>2026-04-12T14:13:51Z</time></trkpt><trkpt lat="45.7911376404082" lon="12.117309433737347"><ele>228.0</ele><time>2026-04-12T14:13:52Z</time></trkpt><trkpt lat="45.79106835470501" lon="12.117322500975565"><ele>228.0</ele><time>2026-04-12T14:13:53Z</time></trkpt><trkpt lat="45.79099937530678" lon="12.117318407662166"><ele>228.0</ele><time>2026-04-12T14:13:54Z</time></trkpt><trkpt lat="45.79092635284293" lon="12.117323276061812"><ele>228.0</ele><time>2026-04-12T14:13:55Z</time></trkpt><trkpt lat="45.79081253912434" lon="12.1173200913067"><ele>225.83333333333334</ele><time>2026-04-12T14:13:57Z</time></trkpt><trkpt lat="45.79071016727645" lon="12.117391312030373"><ele>223.66666666666669</ele><time>2026-04-12T14:13:59Z</time></trkpt><trkpt lat="45.790633913556555" lon="12.117450846676835"><ele>221.5</ele><time>2026-04-12T14:14:00Z</time></trkpt><trkpt lat="45.790566100043904" lon="12.117508057765459"><ele>219.33333333333334</ele><time>2026-04-12T14:14:01Z</time></trkpt><trkpt lat="45.79049517656818" lon="12.117556045631305"><ele>217.16666666666669</ele><time>2026-04-12T14:14:02Z</time></trkpt><trkpt lat="45.7904193698021" lon="12.11757458200607"><ele>215.0</ele><time>2026-04-12T14:14:03Z</time></trkpt><trkpt lat="45.79033576046458" lon="12.117565737620728"><ele>214.00000000000003</ele><time>2026-04-12T14:14:04Z</time></trkpt><trkpt lat="45.79025634650119" lon="12.117516877203474"><ele>213.0</ele><time>2026-04-12T14:14:05Z</time></trkpt><trkpt lat="45.790182958681655" lon="12.117460996912113"><ele>212.0</ele><time>2026-04-12T14:14:06Z</time></trkpt><trkpt lat="45.79012560968044" lon="12.117398381336757"><ele>211.0</ele><time>2026-04-12T14:14:07Z</time></trkpt><trkpt lat="45.79007719038591" lon="12.11733921452589"><ele>210.00000000000003</ele><time>2026-04-12T14:14:08Z</time></trkpt><trkpt lat="45.790002504380325" lon="12.117277185345454"><ele>209.0</ele><time>2026-04-12T14:14:10Z</time></trkpt><trkpt lat="45.789923841633126" lon="12.117234609760784"><ele>208.0</ele><time>2026-04-12T14:14:12Z</time></trkpt><trkpt lat="45.789850467020166" lon="12.117266045796907"><ele>207.0</ele><time>2026-04-12T14:14:14Z</time></trkpt><trkpt lat="45.78978605059427" lon="12.117311035213099"><ele>206.0</ele><time>2026-04-12T14:14:15Z</time></trkpt><trkpt lat="45.789726223923935" lon="12.11737082640808"><ele>205.0</ele><time>2026-04-12T14:14:16Z</time></trkpt><trkpt lat="45.789609790598895" lon="12.117435963411701"><ele>204.0</ele><time>2026-04-12T14:14:18Z</time></trkpt><trkpt lat="45.789486205666876" lon="12.1174431331159"><ele>203.0</ele><time>2026-04-12T14:14:20Z</time></trkpt><trkpt lat="45.78941576420799" lon="12.117421761330375"><ele>202.0</ele><time>2026-04-12T14:14:21Z</time></trkpt><trkpt lat="45.78930127899665" lon="12.117366840310892"><ele>201.0</ele><time>2026-04-12T14:14:23Z</time></trkpt><trkpt lat="45.789196620865795" lon="12.117290364585443"><ele>200.0</ele><time>2026-04-12T14:14:25Z</time></trkpt><trkpt lat="45.78909489320892" lon="12.11726721380345"><ele>199.0</ele><time>2026-04-12T14:14:27Z</time></trkpt><trkpt lat="45.78897791448198" lon="12.117301397960752"><ele>196.39999999999998</ele><time>2026-04-12T14:14:29Z</time></trkpt><trkpt lat="45.7888835506456" lon="12.117356687820033"><ele>193.8</ele><time>2026-04-12T14:14:31Z</time></trkpt><trkpt lat="45.78875076075853" lon="12.117373377967958"><ele>191.2</ele><time>2026-04-12T14:14:33Z</time></trkpt><trkpt lat="45.78868725823138" lon="12.117377297588991"><ele>188.60000000000002</ele><time>2026-04-12T14:14:34Z</time></trkpt><trkpt lat="45.788559224071726" lon="12.117335796239088"><ele>186.0</ele><time>2026-04-12T14:14:36Z</time></trkpt><trkpt lat="45.788491249515175" lon="12.11732364221506"><ele>183.66666666666666</ele><time>2026-04-12T14:14:37Z</time></trkpt><trkpt lat="45.7884165284669" lon="12.117325472965438"><ele>181.33333333333334</ele><time>2026-04-12T14:14:38Z</time></trkpt><trkpt lat="45.78833558754228" lon="12.117345927425806"><ele>179.0</ele><time>2026-04-12T14:14:39Z</time></trkpt><trkpt lat="45.788273534542164" lon="12.117425203360341"><ele>176.66666666666669</ele><time>2026-04-12T14:14:40Z</time></trkpt><trkpt lat="45.78819862911101" lon="12.117469857178992"><ele>174.33333333333334</ele><time>2026-04-12T14:14:41Z</time></trkpt><trkpt lat="45.78812063580936" lon="12.117524064672216"><ele>172.0</ele><time>2026-04-12T14:14:42Z</time></trkpt><trkpt lat="45.788047506174905" lon="12.117573013474061"><ele>171.83333333333334</ele><time>2026-04-12T14:14:43Z</time></trkpt><trkpt lat="45.787971186004675" lon="12.117624594908047"><ele>171.66666666666669</ele><time>2026-04-12T14:14:44Z</time></trkpt><trkpt lat="45.7878886563875" lon="12.11767741069788"><ele>171.5</ele><time>2026-04-12T14:14:45Z</time></trkpt><trkpt lat="45.78780730992849" lon="12.117729747196845"><ele>171.33333333333334</ele><time>2026-04-12T14:14:46Z</time></trkpt><trkpt lat="45.78773996249102" lon="12.117780582049802"><ele>171.16666666666666</ele><time>2026-04-12T14:14:47Z</time></trkpt><trkpt lat="45.787680806837" lon="12.117821019234952"><ele>171.0</ele><time>2026-04-12T14:14:48Z</time></trkpt><trkpt lat="45.78760691617798" lon="12.117862343723969"><ele>168.99999999999997</ele><time>2026-04-12T14:14:49Z</time></trkpt><trkpt lat="45.787545192834386" lon="12.117899077602964"><ele>167.0</ele><time>2026-04-12T14:14:50Z</time></trkpt><trkpt lat="45.78746525594039" lon="12.1179068695513"><ele>165.0</ele><time>2026-04-12T14:14:51Z</time></trkpt><trkpt lat="45.78739357017128" lon="12.11793737763735"><ele>163.0</ele><time>2026-04-12T14:14:52Z</time></trkpt><trkpt lat="45.7873230460315" lon="12.11792512589495"><ele>161.0</ele><time>2026-04-12T14:14:53Z</time></trkpt><trkpt lat="45.78724203677848" lon="12.117911551410566"><ele>158.99999999999997</ele><time>2026-04-12T14:14:54Z</time></trkpt><trkpt lat="45.78717436824901" lon="12.11791050533245"><ele>157.0</ele><time>2026-04-12T14:14:55Z</time></trkpt><trkpt lat="45.78709448649607" lon="12.117970586016595"><ele>157.0</ele><time>2026-04-12T14:14:57Z</time></trkpt><trkpt lat="45.7870705335848" lon="12.118103036095746"><ele>157.0</ele><time>2026-04-12T14:14:59Z</time></trkpt><trkpt lat="45.78707524307598" lon="12.118198028469244"><ele>157.0</ele><time>2026-04-12T14:15:00Z</time></trkpt><trkpt lat="45.78705627724564" lon="12.118345582937904"><ele>157.0</ele><time>2026-04-12T14:15:02Z</time></trkpt><trkpt lat="45.78695921138239" lon="12.118425234303375"><ele>157.0</ele><time>2026-04-12T14:15:04Z</time></trkpt><trkpt lat="45.78688893845223" lon="12.118464859606798"><ele>154.0</ele><time>2026-04-12T14:15:05Z</time></trkpt><trkpt lat="45.78680861394238" lon="12.11859217932831"><ele>151.0</ele><time>2026-04-12T14:15:07Z</time></trkpt><trkpt lat="45.78677935667715" lon="12.11876445884161"><ele>148.0</ele><time>2026-04-12T14:15:09Z</time></trkpt><trkpt lat="45.78677752060305" lon="12.118857562265477"><ele>145.0</ele><time>2026-04-12T14:15:10Z</time></trkpt><trkpt lat="45.786767759281" lon="12.119028285938546"><ele>142.0</ele><time>2026-04-12T14:15:12Z</time></trkpt><trkpt lat="45.78668037239542" lon="12.119095650324557"><ele>141.2</ele><time>2026-04-12T14:15:14Z</time></trkpt><trkpt lat="45.786597624227255" lon="12.11915642369087"><ele>140.39999999999998</ele><time>2026-04-12T14:15:16Z</time></trkpt><trkpt lat="45.78653894528259" lon="12.119280857810512"><ele>139.60000000000002</ele><time>2026-04-12T14:15:18Z</time></trkpt><trkpt lat="45.78653935270685" lon="12.119466567776307"><ele>138.8</ele><time>2026-04-12T14:15:20Z</time></trkpt><trkpt lat="45.7865446772852" lon="12.119639395570866"><ele>138.0</ele><time>2026-04-12T14:15:22Z</time></trkpt><trkpt lat="45.78654764467798" lon="12.119747786705437"><ele>138.0</ele><time>2026-04-12T14:15:24Z</time></trkpt><trkpt lat="45.78655134874024" lon="12.11985739222081"><ele>138.0</ele><time>2026-04-12T14:15:27Z</time></trkpt><trkpt lat="45.7865494046991" lon="12.119977278677451"><ele>138.0</ele><time>2026-04-12T14:28:30Z</time></trkpt><trkpt lat="45.786561330821186" lon="12.120071724963307"><ele>138.0</ele><time>2026-04-12T14:28:31Z</time></trkpt><trkpt lat="45.7865686757641" lon="12.120200806130986"><ele>138.0</ele><time>2026-04-12T14:28:32Z</time></trkpt><trkpt lat="45.78656806436279" lon="12.120390218919239"><ele>138.0</ele><time>2026-04-12T14:28:33Z</time></trkpt><trkpt lat="45.78655974878775" lon="12.120598426733963"><ele>137.25</ele><time>2026-04-12T14:28:34Z</time></trkpt><trkpt lat="45.786517761277445" lon="12.12077853723979"><ele>136.5</ele><time>2026-04-12T14:28:35Z</time></trkpt><trkpt lat="45.7865156008405" lon="12.120964053132644"><ele>135.75</ele><time>2026-04-12T14:28:36Z</time></trkpt><trkpt lat="45.786486788762794" lon="12.121116862173078"><ele>135.0</ele><time>2026-04-12T14:28:37Z</time></trkpt><trkpt lat="45.786481099674006" lon="12.121255271667408"><ele>135.0</ele><time>2026-04-12T14:28:38Z</time></trkpt><trkpt lat="45.7865002947509" lon="12.121381376579933"><ele>135.0</ele><time>2026-04-12T14:28:39Z</time></trkpt><trkpt lat="45.78655007795278" lon="12.121517023180205"><ele>135.0</ele><time>2026-04-12T14:28:40Z</time></trkpt><trkpt lat="45.78659601537821" lon="12.121634341873625"><ele>135.0</ele><time>2026-04-12T14:28:41Z</time></trkpt><trkpt lat="45.786600754484496" lon="12.121742782073472"><ele>135.0</ele><time>2026-04-12T14:28:42Z</time></trkpt><trkpt lat="45.78662152835813" lon="12.121834871665289"><ele>135.0</ele><time>2026-04-12T14:28:43Z</time></trkpt><trkpt lat="45.78661442513305" lon="12.121970712163453"><ele>134.6</ele><time>2026-04-12T14:28:45Z</time></trkpt><trkpt lat="45.78655572092158" lon="12.122080351172343"><ele>134.2</ele><time>2026-04-12T14:28:52Z</time></trkpt><trkpt lat="45.78644815971056" lon="12.122085732201539"><ele>133.8</ele><time>2026-04-12T14:28:53Z</time></trkpt><trkpt lat="45.78634402437154" lon="12.122131465388108"><ele>133.4</ele><time>2026-04-12T14:28:54Z</time></trkpt><trkpt lat="45.78623508506871" lon="12.122228781646728"><ele>133.0</ele><time>2026-04-12T14:28:55Z</time></trkpt><trkpt lat="45.7861450022551" lon="12.12232707067915"><ele>133.4</ele><time>2026-04-12T14:28:56Z</time></trkpt><trkpt lat="45.78605995761886" lon="12.122430751823808"><ele>133.8</ele><time>2026-04-12T14:28:57Z</time></trkpt><trkpt lat="45.78598149264972" lon="12.122541061258882"><ele>134.2</ele><time>2026-04-12T14:28:58Z</time></trkpt><trkpt lat="45.785910023882884" lon="12.12265256642472"><ele>134.6</ele><time>2026-04-12T14:28:59Z</time></trkpt><trkpt lat="45.78584678652643" lon="12.122772257078504"><ele>135.0</ele><time>2026-04-12T14:29:00Z</time></trkpt><trkpt lat="45.785789806206495" lon="12.122880495609987"><ele>132.5</ele><time>2026-04-12T14:29:01Z</time></trkpt><trkpt lat="45.785717401944325" lon="12.122946179955205"><ele>130.0</ele><time>2026-04-12T14:29:02Z</time></trkpt><trkpt lat="45.78566436759238" lon="12.122996403437964"><ele>127.5</ele><time>2026-04-12T14:29:03Z</time></trkpt><trkpt lat="45.785586653083854" lon="12.123007651824764"><ele>125.0</ele><time>2026-04-12T14:29:04Z</time></trkpt><trkpt lat="45.78550334453688" lon="12.122990263529239"><ele>122.5</ele><time>2026-04-12T14:29:05Z</time></trkpt><trkpt lat="45.78542718797024" lon="12.122946198078306"><ele>120.0</ele><time>2026-04-12T14:29:06Z</time></trkpt><trkpt lat="45.785357977410364" lon="12.122861622403382"><ele>120.0</ele><time>2026-04-12T14:29:07Z</time></trkpt><trkpt lat="45.785276366475706" lon="12.122819653738844"><ele>120.0</ele><time>2026-04-12T14:29:08Z</time></trkpt><trkpt lat="45.785207043712134" lon="12.122762079309073"><ele>120.0</ele><time>2026-04-12T14:29:09Z</time></trkpt><trkpt lat="45.78514229725604" lon="12.12271725916776"><ele>120.0</ele><time>2026-04-12T14:29:10Z</time></trkpt><trkpt lat="45.78507675509222" lon="12.12268583029789"><ele>120.0</ele><time>2026-04-12T14:29:11Z</time></trkpt><trkpt lat="45.78499858528329" lon="12.122686161217464"><ele>120.0</ele><time>2026-04-12T14:29:12Z</time></trkpt><trkpt lat="45.7848942252162" lon="12.122707125117193"><ele>117.25</ele><time>2026-04-12T14:29:13Z</time></trkpt><trkpt lat="45.7847746781432" lon="12.122711595183887"><ele>114.5</ele><time>2026-04-12T14:29:14Z</time></trkpt><trkpt lat="45.784642048777876" lon="12.122714105990484"><ele>111.75</ele><time>2026-04-12T14:29:15Z</time></trkpt><trkpt lat="45.784490332918274" lon="12.12273459618623"><ele>109.0</ele><time>2026-04-12T14:29:16Z</time></trkpt><trkpt lat="45.7843289656516" lon="12.122755826941013"><ele>107.0</ele><time>2026-04-12T14:29:17Z</time></trkpt><trkpt lat="45.78417645110893" lon="12.122788739613627"><ele>105.0</ele><time>2026-04-12T14:29:18Z</time></trkpt><trkpt lat="45.78401978539912" lon="12.122810532427588"><ele>103.0</ele><time>2026-04-12T14:29:19Z</time></trkpt><trkpt lat="45.78385642479262" lon="12.122828187191997"><ele>103.0</ele><time>2026-04-12T14:29:20Z</time></trkpt><trkpt lat="45.78369076640609" lon="12.122832232590198"><ele>103.0</ele><time>2026-04-12T14:29:21Z</time></trkpt><trkpt lat="45.78353096145599" lon="12.122825324154375"><ele>103.0</ele><time>2026-04-12T14:29:22Z</time></trkpt><trkpt lat="45.783370972401634" lon="12.122816711042319"><ele>102.5</ele><time>2026-04-12T14:29:23Z</time></trkpt><trkpt lat="45.78322705962295" lon="12.122804491211552"><ele>102.0</ele><time>2026-04-12T14:29:24Z</time></trkpt><trkpt lat="45.783095206454725" lon="12.122787303578708"><ele>101.5</ele><time>2026-04-12T14:29:25Z</time></trkpt><trkpt lat="45.78296892093887" lon="12.122702054625265"><ele>101.0</ele><time>2026-04-12T14:29:26Z</time></trkpt><trkpt lat="45.78282552481822" lon="12.122602823593303"><ele>101.0</ele><time>2026-04-12T14:29:27Z</time></trkpt><trkpt lat="45.782662852060085" lon="12.122513721862987"><ele>101.0</ele><time>2026-04-12T14:29:28Z</time></trkpt><trkpt lat="45.78249610059253" lon="12.122431518698033"><ele>101.0</ele><time>2026-04-12T14:29:29Z</time></trkpt><trkpt lat="45.78233077859349" lon="12.122370480073409"><ele>100.33333333333333</ele><time>2026-04-12T14:29:30Z</time></trkpt><trkpt lat="45.78217120880612" lon="12.122322510383732"><ele>99.66666666666666</ele><time>2026-04-12T14:29:31Z</time></trkpt><trkpt lat="45.78199455009682" lon="12.122292097020505"><ele>99.0</ele><time>2026-04-12T14:29:32Z</time></trkpt><trkpt lat="45.78178763580007" lon="12.122278996769962"><ele>98.66666666666666</ele><time>2026-04-12T14:29:33Z</time></trkpt><trkpt lat="45.78160481050059" lon="12.122292871358358"><ele>98.33333333333333</ele><time>2026-04-12T14:29:34Z</time></trkpt><trkpt lat="45.78144206840322" lon="12.122306189316618"><ele>98.0</ele><time>2026-04-12T14:29:35Z</time></trkpt><trkpt lat="45.781290655525424" lon="12.122303952330926"><ele>98.0</ele><time>2026-04-12T14:29:36Z</time></trkpt><trkpt lat="45.78114645736774" lon="12.12228332567601"><ele>98.0</ele><time>2026-04-12T14:29:37Z</time></trkpt><trkpt lat="45.781004359378684" lon="12.122235423999472"><ele>98.0</ele><time>2026-04-12T14:29:38Z</time></trkpt><trkpt lat="45.78086634800267" lon="12.122140351640603"><ele>98.0</ele><time>2026-04-12T14:29:39Z</time></trkpt><trkpt lat="45.78073246380157" lon="12.122022329892783"><ele>97.5</ele><time>2026-04-12T14:29:40Z</time></trkpt><trkpt lat="45.7806182008123" lon="12.121892079813902"><ele>97.0</ele><time>2026-04-12T14:29:41Z</time></trkpt><trkpt lat="45.78050921929427" lon="12.121773531064019"><ele>96.5</ele><time>2026-04-12T14:29:42Z</time></trkpt><trkpt lat="45.78041835326573" lon="12.12163583908385"><ele>96.0</ele><time>2026-04-12T14:29:43Z</time></trkpt><trkpt lat="45.78033524054892" lon="12.121509236816788"><ele>96.0</ele><time>2026-04-12T14:29:44Z</time></trkpt><trkpt lat="45.7802505055624" lon="12.121397468773452"><ele>96.0</ele><time>2026-04-12T14:29:45Z</time></trkpt><trkpt lat="45.78015234345256" lon="12.121284734861327"><ele>96.0</ele><time>2026-04-12T14:29:46Z</time></trkpt><trkpt lat="45.78003101988566" lon="12.121199934434701"><ele>96.0</ele><time>2026-04-12T14:29:47Z</time></trkpt><trkpt lat="45.77989772851731" lon="12.121159295434678"><ele>96.0</ele><time>2026-04-12T14:29:48Z</time></trkpt><trkpt lat="45.77977654668613" lon="12.121158427792066"><ele>96.0</ele><time>2026-04-12T14:29:49Z</time></trkpt><trkpt lat="45.779659667837436" lon="12.121201870353724"><ele>96.0</ele><time>2026-04-12T14:29:50Z</time></trkpt><trkpt lat="45.77953209240772" lon="12.121290824178475"><ele>96.0</ele><time>2026-04-12T14:29:51Z</time></trkpt><trkpt lat="45.7794251505022" lon="12.121415897973804"><ele>96.0</ele><time>2026-04-12T14:29:52Z</time></trkpt><trkpt lat="45.77931302313126" lon="12.121530150394642"><ele>96.0</ele><time>2026-04-12T14:29:53Z</time></trkpt><trkpt lat="45.77921373847111" lon="12.121624417944908"><ele>96.0</ele><time>2026-04-12T14:29:54Z</time></trkpt><trkpt lat="45.779126969412125" lon="12.12172633078643"><ele>96.0</ele><time>2026-04-12T14:29:55Z</time></trkpt><trkpt lat="45.77905202514383" lon="12.121840249907516"><ele>96.0</ele><time>2026-04-12T14:29:56Z</time></trkpt><trkpt lat="45.77898565706096" lon="12.121946112650255"><ele>96.0</ele><time>2026-04-12T14:29:57Z</time></trkpt><trkpt lat="45.77891333587511" lon="12.122015931442245"><ele>96.0</ele><time>2026-04-12T14:29:58Z</time></trkpt><trkpt lat="45.778837339305625" lon="12.122031099526493"><ele>96.0</ele><time>2026-04-12T14:29:59Z</time></trkpt><trkpt lat="45.77871483536985" lon="12.12192670653839"><ele>96.0</ele><time>2026-04-12T14:30:01Z</time></trkpt><trkpt lat="45.778632122669826" lon="12.12189692755896"><ele>96.0</ele><time>2026-04-12T14:30:02Z</time></trkpt><trkpt lat="45.778555174361536" lon="12.121929636572244"><ele>96.0</ele><time>2026-04-12T14:30:03Z</time></trkpt><trkpt lat="45.77851218272913" lon="12.122021447742853"><ele>96.0</ele><time>2026-04-12T14:30:04Z</time></trkpt><trkpt lat="45.77850338638724" lon="12.122162942509979"><ele>96.0</ele><time>2026-04-12T14:30:05Z</time></trkpt><trkpt lat="45.77850604084495" lon="12.122320745534829"><ele>96.0</ele><time>2026-04-12T14:30:06Z</time></trkpt><trkpt lat="45.77849074199714" lon="12.122477168347023"><ele>95.33333333333333</ele><time>2026-04-12T14:30:07Z</time></trkpt><trkpt lat="45.77846092021385" lon="12.122607225359694"><ele>94.66666666666667</ele><time>2026-04-12T14:30:08Z</time></trkpt><trkpt lat="45.77843150102104" lon="12.12270144271054"><ele>94.0</ele><time>2026-04-12T14:30:09Z</time></trkpt><trkpt lat="45.77838479733996" lon="12.122791160759544"><ele>93.33333333333334</ele><time>2026-04-12T14:30:18Z</time></trkpt><trkpt lat="45.77831804599798" lon="12.122920602191531"><ele>92.66666666666667</ele><time>2026-04-12T14:30:20Z</time></trkpt><trkpt lat="45.77827416007787" lon="12.122988817675221"><ele>92.0</ele><time>2026-04-12T14:30:21Z</time></trkpt><trkpt lat="45.77822080557282" lon="12.123070214205946"><ele>92.0</ele><time>2026-04-12T14:30:22Z</time></trkpt><trkpt lat="45.7781731366654" lon="12.123145251662537"><ele>92.0</ele><time>2026-04-12T14:30:23Z</time></trkpt><trkpt lat="45.77812781918926" lon="12.123216591776952"><ele>92.0</ele><time>2026-04-12T14:30:24Z</time></trkpt><trkpt lat="45.778080540711166" lon="12.123290802059808"><ele>92.0</ele><time>2026-04-12T14:30:25Z</time></trkpt><trkpt lat="45.77802785138121" lon="12.123373763300991"><ele>92.0</ele><time>2026-04-12T14:30:26Z</time></trkpt><trkpt lat="45.777968914228026" lon="12.123465299124588"><ele>92.0</ele><time>2026-04-12T14:30:27Z</time></trkpt><trkpt lat="45.77790438246684" lon="12.123565772033528"><ele>92.0</ele><time>2026-04-12T14:30:28Z</time></trkpt><trkpt lat="45.777834016279115" lon="12.123678345291227"><ele>92.0</ele><time>2026-04-12T14:30:29Z</time></trkpt><trkpt lat="45.777760665599715" lon="12.123810863418191"><ele>92.0</ele><time>2026-04-12T14:30:30Z</time></trkpt><trkpt lat="45.7776926595848" lon="12.123955923484244"><ele>92.0</ele><time>2026-04-12T14:30:31Z</time></trkpt><trkpt lat="45.77763282463725" lon="12.124114167108491"><ele>91.75</ele><time>2026-04-12T14:30:32Z</time></trkpt><trkpt lat="45.77758003559749" lon="12.124301304368979"><ele>91.5</ele><time>2026-04-12T14:30:33Z</time></trkpt><trkpt lat="45.777536812300525" lon="12.124498468267387"><ele>91.25</ele><time>2026-04-12T14:30:34Z</time></trkpt><trkpt lat="45.77751390874912" lon="12.124689301730559"><ele>91.0</ele><time>2026-04-12T14:30:35Z</time></trkpt><trkpt lat="45.77750522095328" lon="12.124893314847505"><ele>90.66666666666666</ele><time>2026-04-12T14:30:36Z</time></trkpt><trkpt lat="45.77748696566477" lon="12.125088903812603"><ele>90.33333333333333</ele><time>2026-04-12T14:30:37Z</time></trkpt><trkpt lat="45.77747294688577" lon="12.12528206674912"><ele>90.0</ele><time>2026-04-12T14:30:38Z</time></trkpt><trkpt lat="45.77753980379711" lon="12.12555110312843"><ele>90.0</ele><time>2026-04-12T14:30:39Z</time></trkpt><trkpt lat="45.77756818145803" lon="12.125763374138284"><ele>90.0</ele><time>2026-04-12T14:30:40Z</time></trkpt><trkpt lat="45.77759197308699" lon="12.125989575014511"><ele>90.0</ele><time>2026-04-12T14:30:41Z</time></trkpt><trkpt lat="45.77764232782438" lon="12.126215246148014"><ele>90.0</ele><time>2026-04-12T14:30:42Z</time></trkpt><trkpt lat="45.777703574823086" lon="12.1264437182798"><ele>90.0</ele><time>2026-04-12T14:30:43Z</time></trkpt><trkpt lat="45.777777236111554" lon="12.126636729520786"><ele>90.0</ele><time>2026-04-12T14:30:44Z</time></trkpt><trkpt lat="45.77785466001928" lon="12.126811158540097"><ele>90.0</ele><time>2026-04-12T14:30:45Z</time></trkpt><trkpt lat="45.77794218935865" lon="12.126982202156237"><ele>90.0</ele><time>2026-04-12T14:30:46Z</time></trkpt><trkpt lat="45.77803777623349" lon="12.127137005167794"><ele>90.0</ele><time>2026-04-12T14:30:47Z</time></trkpt><trkpt lat="45.77813960126161" lon="12.127290087400478"><ele>90.0</ele><time>2026-04-12T14:30:48Z</time></trkpt><trkpt lat="45.77823861321555" lon="12.127438661174113"><ele>90.0</ele><time>2026-04-12T14:30:49Z</time></trkpt><trkpt lat="45.77833458582585" lon="12.127586199603167"><ele>90.0</ele><time>2026-04-12T14:30:50Z</time></trkpt><trkpt lat="45.778434960894664" lon="12.12774523707448"><ele>90.0</ele><time>2026-04-12T14:30:51Z</time></trkpt><trkpt lat="45.778538501414246" lon="12.127908763317684"><ele>90.0</ele><time>2026-04-12T14:30:52Z</time></trkpt><trkpt lat="45.77863713472611" lon="12.128067842560695"><ele>90.0</ele><time>2026-04-12T14:30:53Z</time></trkpt><trkpt lat="45.77873017789126" lon="12.128212280928466"><ele>90.0</ele><time>2026-04-12T14:30:54Z</time></trkpt><trkpt lat="45.77881525343793" lon="12.128360378873895"><ele>90.0</ele><time>2026-04-12T14:30:55Z</time></trkpt><trkpt lat="45.77890610158395" lon="12.128512458938197"><ele>90.0</ele><time>2026-04-12T14:30:56Z</time></trkpt><trkpt lat="45.77899965417524" lon="12.128665785587023"><ele>90.0</ele><time>2026-04-12T14:30:57Z</time></trkpt><trkpt lat="45.779090627026854" lon="12.128811168558284"><ele>90.0</ele><time>2026-04-12T14:30:58Z</time></trkpt><trkpt lat="45.77917872521206" lon="12.128953586113155"><ele>90.0</ele><time>2026-04-12T14:30:59Z</time></trkpt><trkpt lat="45.779269176252704" lon="12.12910337234928"><ele>90.0</ele><time>2026-04-12T14:31:00Z</time></trkpt><trkpt lat="45.77936005950559" lon="12.129258942157195"><ele>90.0</ele><time>2026-04-12T14:31:01Z</time></trkpt><trkpt lat="45.77945153515822" lon="12.129418315581697"><ele>90.0</ele><time>2026-04-12T14:31:02Z</time></trkpt><trkpt lat="45.7795465547184" lon="12.129576494666722"><ele>90.0</ele><time>2026-04-12T14:31:03Z</time></trkpt><trkpt lat="45.77964327817063" lon="12.129730495907198"><ele>90.0</ele><time>2026-04-12T14:31:04Z</time></trkpt><trkpt lat="45.77974365127415" lon="12.129892004685926"><ele>90.0</ele><time>2026-04-12T14:31:05Z</time></trkpt><trkpt lat="45.779840850959495" lon="12.130057141757568"><ele>90.0</ele><time>2026-04-12T14:31:06Z</time></trkpt><trkpt lat="45.77993792107766" lon="12.130227087602877"><ele>90.0</ele><time>2026-04-12T14:31:07Z</time></trkpt><trkpt lat="45.780044319819645" lon="12.130406453310721"><ele>90.0</ele><time>2026-04-12T14:31:08Z</time></trkpt><trkpt lat="45.780157546675554" lon="12.130592455626106"><ele>90.0</ele><time>2026-04-12T14:31:09Z</time></trkpt><trkpt lat="45.78026540617354" lon="12.130757296116185"><ele>90.0</ele><time>2026-04-12T14:31:10Z</time></trkpt><trkpt lat="45.780368736251056" lon="12.130928528713673"><ele>89.33333333333333</ele><time>2026-04-12T14:31:11Z</time></trkpt><trkpt lat="45.78047321793199" lon="12.131104425764065"><ele>88.66666666666666</ele><time>2026-04-12T14:31:12Z</time></trkpt><trkpt lat="45.78058147634115" lon="12.13128551742178"><ele>88.0</ele><time>2026-04-12T14:31:13Z</time></trkpt><trkpt lat="45.78069136110051" lon="12.131470210491619"><ele>88.33333333333333</ele><time>2026-04-12T14:31:14Z</time></trkpt><trkpt lat="45.780803921069364" lon="12.131648384570843"><ele>88.66666666666667</ele><time>2026-04-12T14:31:15Z</time></trkpt><trkpt lat="45.78091369451141" lon="12.131824241831179"><ele>89.0</ele><time>2026-04-12T14:31:16Z</time></trkpt><trkpt lat="45.781025716452156" lon="12.132009200362633"><ele>88.66666666666667</ele><time>2026-04-12T14:31:17Z</time></trkpt><trkpt lat="45.78113594186484" lon="12.132196059424254"><ele>88.33333333333333</ele><time>2026-04-12T14:31:18Z</time></trkpt><trkpt lat="45.78124611221473" lon="12.132382616604039"><ele>88.0</ele><time>2026-04-12T14:31:19Z</time></trkpt><trkpt lat="45.78135865046996" lon="12.132566714822081"><ele>88.0</ele><time>2026-04-12T14:31:20Z</time></trkpt><trkpt lat="45.78147392758518" lon="12.132758455996624"><ele>88.0</ele><time>2026-04-12T14:31:21Z</time></trkpt><trkpt lat="45.78159021452962" lon="12.132949995519654"><ele>88.0</ele><time>2026-04-12T14:31:22Z</time></trkpt><trkpt lat="45.78171040035874" lon="12.133145425449747"><ele>88.66666666666666</ele><time>2026-04-12T14:31:23Z</time></trkpt><trkpt lat="45.78183140182816" lon="12.133347610315008"><ele>89.33333333333333</ele><time>2026-04-12T14:31:24Z</time></trkpt><trkpt lat="45.781951314288925" lon="12.133545186915557"><ele>90.0</ele><time>2026-04-12T14:31:25Z</time></trkpt><trkpt lat="45.78206905165766" lon="12.133738322084309"><ele>90.0</ele><time>2026-04-12T14:31:26Z</time></trkpt><trkpt lat="45.78217559483392" lon="12.133916496637779"><ele>90.0</ele><time>2026-04-12T14:31:27Z</time></trkpt><trkpt lat="45.78227759953073" lon="12.134085175014553"><ele>90.0</ele><time>2026-04-12T14:31:28Z</time></trkpt><trkpt lat="45.78237821110689" lon="12.134250732384308"><ele>89.66666666666667</ele><time>2026-04-12T14:31:29Z</time></trkpt><trkpt lat="45.78247488653393" lon="12.134408399369828"><ele>89.33333333333334</ele><time>2026-04-12T14:31:30Z</time></trkpt><trkpt lat="45.78257383005886" lon="12.13457579335506"><ele>89.0</ele><time>2026-04-12T14:31:31Z</time></trkpt><trkpt lat="45.78267799080381" lon="12.134750440554047"><ele>90.0</ele><time>2026-04-12T14:31:32Z</time></trkpt><trkpt lat="45.78278345499586" lon="12.134926230933806"><ele>91.0</ele><time>2026-04-12T14:31:33Z</time></trkpt><trkpt lat="45.782881485875315" lon="12.135096104660068"><ele>92.0</ele><time>2026-04-12T14:31:34Z</time></trkpt><trkpt lat="45.78297445565699" lon="12.135257110702932"><ele>92.0</ele><time>2026-04-12T14:31:35Z</time></trkpt><trkpt lat="45.78305828412663" lon="12.13541623807294"><ele>92.0</ele><time>2026-04-12T14:31:36Z</time></trkpt><trkpt lat="45.78313403191718" lon="12.13556202183301"><ele>92.0</ele><time>2026-04-12T14:31:37Z</time></trkpt><trkpt lat="45.78320388298822" lon="12.135701249948163"><ele>92.0</ele><time>2026-04-12T14:31:38Z</time></trkpt><trkpt lat="45.783265098710956" lon="12.135830662169981"><ele>91.83333333333334</ele><time>2026-04-12T14:31:39Z</time></trkpt><trkpt lat="45.783319173714084" lon="12.135950256964243"><ele>91.66666666666667</ele><time>2026-04-12T14:31:40Z</time></trkpt><trkpt lat="45.783369400664206" lon="12.136064169037168"><ele>91.5</ele><time>2026-04-12T14:31:41Z</time></trkpt><trkpt lat="45.78341472303963" lon="12.136174500127455"><ele>91.33333333333333</ele><time>2026-04-12T14:31:42Z</time></trkpt><trkpt lat="45.78345288692556" lon="12.136276153864955"><ele>91.16666666666666</ele><time>2026-04-12T14:31:43Z</time></trkpt><trkpt lat="45.783474824269895" lon="12.136374485130062"><ele>91.0</ele><time>2026-04-12T14:31:44Z</time></trkpt><trkpt lat="45.78347564252859" lon="12.136466333183211"><ele>91.0</ele><time>2026-04-12T14:31:45Z</time></trkpt><trkpt lat="45.783453152924196" lon="12.13663692452643"><ele>91.0</ele><time>2026-04-12T14:31:47Z</time></trkpt><trkpt lat="45.78351353921759" lon="12.136790075837846"><ele>91.0</ele><time>2026-04-12T14:31:49Z</time></trkpt><trkpt lat="45.78358615982821" lon="12.136848772879631"><ele>91.0</ele><time>2026-04-12T14:31:50Z</time></trkpt><trkpt lat="45.78366165720086" lon="12.136919003876375"><ele>91.0</ele><time>2026-04-12T14:31:51Z</time></trkpt><trkpt lat="45.78372679300565" lon="12.137013152282423"><ele>91.0</ele><time>2026-04-12T14:31:52Z</time></trkpt><trkpt lat="45.783774260000776" lon="12.137117917905037"><ele>91.0</ele><time>2026-04-12T14:31:53Z</time></trkpt><trkpt lat="45.7838149226272" lon="12.137228270906046"><ele>91.0</ele><time>2026-04-12T14:31:54Z</time></trkpt><trkpt lat="45.78385879263499" lon="12.137356817722385"><ele>91.0</ele><time>2026-04-12T14:31:55Z</time></trkpt><trkpt lat="45.78390724460516" lon="12.137508782168096"><ele>91.0</ele><time>2026-04-12T14:31:56Z</time></trkpt><trkpt lat="45.78396164403945" lon="12.13767571781925"><ele>90.75</ele><time>2026-04-12T14:31:57Z</time></trkpt><trkpt lat="45.78401967423265" lon="12.137856402671176"><ele>90.5</ele><time>2026-04-12T14:31:58Z</time></trkpt><trkpt lat="45.78407466805947" lon="12.13802072899689"><ele>90.25</ele><time>2026-04-12T14:31:59Z</time></trkpt><trkpt lat="45.78412373613694" lon="12.138169640872375"><ele>90.0</ele><time>2026-04-12T14:32:00Z</time></trkpt><trkpt lat="45.784176234956995" lon="12.138327415686991"><ele>90.0</ele><time>2026-04-12T14:32:01Z</time></trkpt><trkpt lat="45.78422982951494" lon="12.138491081882597"><ele>90.0</ele><time>2026-04-12T14:32:02Z</time></trkpt><trkpt lat="45.78429013356597" lon="12.138672875552654"><ele>90.0</ele><time>2026-04-12T14:32:03Z</time></trkpt><trkpt lat="45.78435411958211" lon="12.138869254089908"><ele>90.0</ele><time>2026-04-12T14:32:04Z</time></trkpt><trkpt lat="45.78442357162246" lon="12.139079069918314"><ele>90.0</ele><time>2026-04-12T14:32:05Z</time></trkpt><trkpt lat="45.78449693154192" lon="12.139296480725383"><ele>90.0</ele><time>2026-04-12T14:32:06Z</time></trkpt><trkpt lat="45.784571759534664" lon="12.139524143302953"><ele>90.0</ele><time>2026-04-12T14:32:07Z</time></trkpt><trkpt lat="45.78464814610147" lon="12.139750131393678"><ele>90.0</ele><time>2026-04-12T14:32:08Z</time></trkpt><trkpt lat="45.784721048894774" lon="12.139968131733939"><ele>90.0</ele><time>2026-04-12T14:32:09Z</time></trkpt><trkpt lat="45.78479679502817" lon="12.14019757486343"><ele>90.0</ele><time>2026-04-12T14:32:10Z</time></trkpt><trkpt lat="45.78487474744935" lon="12.140430460793358"><ele>90.0</ele><time>2026-04-12T14:32:11Z</time></trkpt><trkpt lat="45.78494556617098" lon="12.140650014775417"><ele>90.0</ele><time>2026-04-12T14:32:12Z</time></trkpt><trkpt lat="45.785012852130855" lon="12.140853712640212"><ele>90.0</ele><time>2026-04-12T14:32:13Z</time></trkpt><trkpt lat="45.78507675859783" lon="12.141044770454396"><ele>90.0</ele><time>2026-04-12T14:32:14Z</time></trkpt><trkpt lat="45.78513991020472" lon="12.141233555936536"><ele>90.0</ele><time>2026-04-12T14:32:15Z</time></trkpt><trkpt lat="45.785202742524945" lon="12.141419221511295"><ele>90.0</ele><time>2026-04-12T14:32:16Z</time></trkpt><trkpt lat="45.78526768445636" lon="12.141615630312424"><ele>90.0</ele><time>2026-04-12T14:32:17Z</time></trkpt><trkpt lat="45.78533195637334" lon="12.141802317204217"><ele>90.0</ele><time>2026-04-12T14:32:18Z</time></trkpt><trkpt lat="45.78539460029385" lon="12.141991307357214"><ele>90.0</ele><time>2026-04-12T14:32:19Z</time></trkpt><trkpt lat="45.78545543646055" lon="12.142169897943104"><ele>90.0</ele><time>2026-04-12T14:32:20Z</time></trkpt><trkpt lat="45.78550962667343" lon="12.142341479168426"><ele>90.0</ele><time>2026-04-12T14:32:21Z</time></trkpt><trkpt lat="45.785562036560854" lon="12.14250864711712"><ele>90.0</ele><time>2026-04-12T14:32:22Z</time></trkpt><trkpt lat="45.7856163847967" lon="12.142667694929917"><ele>90.0</ele><time>2026-04-12T14:32:23Z</time></trkpt><trkpt lat="45.78566785963727" lon="12.142825058040959"><ele>90.0</ele><time>2026-04-12T14:32:24Z</time></trkpt><trkpt lat="45.785717956129155" lon="12.142979825215901"><ele>90.0</ele><time>2026-04-12T14:32:25Z</time></trkpt><trkpt lat="45.78576929525804" lon="12.143145163437316"><ele>89.0</ele><time>2026-04-12T14:32:26Z</time></trkpt><trkpt lat="45.78581921833841" lon="12.143316590304101"><ele>88.0</ele><time>2026-04-12T14:32:27Z</time></trkpt><trkpt lat="45.785867537996204" lon="12.143484258636121"><ele>87.0</ele><time>2026-04-12T14:32:28Z</time></trkpt><trkpt lat="45.78591573446938" lon="12.143655700761796"><ele>86.0</ele><time>2026-04-12T14:32:29Z</time></trkpt><trkpt lat="45.785959473654124" lon="12.143817340881196"><ele>86.0</ele><time>2026-04-12T14:32:30Z</time></trkpt><trkpt lat="45.78600759276329" lon="12.143986046170024"><ele>86.0</ele><time>2026-04-12T14:32:31Z</time></trkpt><trkpt lat="45.78605317179658" lon="12.144157918059166"><ele>86.0</ele><time>2026-04-12T14:32:32Z</time></trkpt><trkpt lat="45.786101132623315" lon="12.144331579254143"><ele>86.0</ele><time>2026-04-12T14:32:33Z</time></trkpt><trkpt lat="45.786150334895154" lon="12.14450577703265"><ele>86.0</ele><time>2026-04-12T14:32:34Z</time></trkpt><trkpt lat="45.78620065349162" lon="12.144677328996158"><ele>86.0</ele><time>2026-04-12T14:32:35Z</time></trkpt><trkpt lat="45.78624946842978" lon="12.144854610550954"><ele>86.0</ele><time>2026-04-12T14:32:36Z</time></trkpt><trkpt lat="45.78629783048836" lon="12.145035392320635"><ele>86.0</ele><time>2026-04-12T14:32:37Z</time></trkpt><trkpt lat="45.786346415419665" lon="12.145216658807596"><ele>85.75</ele><time>2026-04-12T14:32:38Z</time></trkpt><trkpt lat="45.786394239446516" lon="12.145407673779566"><ele>85.5</ele><time>2026-04-12T14:32:39Z</time></trkpt><trkpt lat="45.78643850181091" lon="12.145600566302976"><ele>85.25</ele><time>2026-04-12T14:32:40Z</time></trkpt><trkpt lat="45.786479135083496" lon="12.145792020210711"><ele>85.0</ele><time>2026-04-12T14:32:41Z</time></trkpt><trkpt lat="45.786524109390555" lon="12.145995359421311"><ele>84.66666666666666</ele><time>2026-04-12T14:32:42Z</time></trkpt><trkpt lat="45.786565283544405" lon="12.146192458308127"><ele>84.33333333333333</ele><time>2026-04-12T14:32:43Z</time></trkpt><trkpt lat="45.786610928448255" lon="12.14640499125781"><ele>84.0</ele><time>2026-04-12T14:32:44Z</time></trkpt><trkpt lat="45.786657922536875" lon="12.146626439675599"><ele>84.0</ele><time>2026-04-12T14:32:45Z</time></trkpt><trkpt lat="45.78671136529401" lon="12.146866457452859"><ele>84.0</ele><time>2026-04-12T14:32:46Z</time></trkpt><trkpt lat="45.78676120319662" lon="12.147096429414894"><ele>84.0</ele><time>2026-04-12T14:32:47Z</time></trkpt><trkpt lat="45.78680991280672" lon="12.147325445903896"><ele>83.0</ele><time>2026-04-12T14:32:48Z</time></trkpt><trkpt lat="45.78686136411669" lon="12.147557863546261"><ele>82.0</ele><time>2026-04-12T14:32:49Z</time></trkpt><trkpt lat="45.78691071619322" lon="12.147788928022221"><ele>81.0</ele><time>2026-04-12T14:32:50Z</time></trkpt><trkpt lat="45.7869605090683" lon="12.148019195418922"><ele>81.66666666666667</ele><time>2026-04-12T14:32:51Z</time></trkpt><trkpt lat="45.78700588231874" lon="12.14823555601548"><ele>82.33333333333334</ele><time>2026-04-12T14:32:52Z</time></trkpt><trkpt lat="45.787050009113564" lon="12.148446466540406"><ele>83.0</ele><time>2026-04-12T14:32:53Z</time></trkpt><trkpt lat="45.787095456465465" lon="12.148655367990552"><ele>83.0</ele><time>2026-04-12T14:32:54Z</time></trkpt><trkpt lat="45.787142571790824" lon="12.148874854144113"><ele>83.0</ele><time>2026-04-12T14:32:55Z</time></trkpt><trkpt lat="45.78718837439923" lon="12.149096156605712"><ele>83.0</ele><time>2026-04-12T14:32:56Z</time></trkpt><trkpt lat="45.787236351849785" lon="12.149318680305253"><ele>82.66666666666667</ele><time>2026-04-12T14:32:57Z</time></trkpt><trkpt lat="45.78728231058052" lon="12.14953845212124"><ele>82.33333333333333</ele><time>2026-04-12T14:32:58Z</time></trkpt><trkpt lat="45.78732797614506" lon="12.149746064507141"><ele>82.0</ele><time>2026-04-12T14:32:59Z</time></trkpt><trkpt lat="45.78737210256754" lon="12.1499442376955"><ele>81.75</ele><time>2026-04-12T14:33:00Z</time></trkpt><trkpt lat="45.78741575195238" lon="12.150142167224416"><ele>81.5</ele><time>2026-04-12T14:33:01Z</time></trkpt><trkpt lat="45.7874628585698" lon="12.150335723401987"><ele>81.25</ele><time>2026-04-12T14:33:02Z</time></trkpt><trkpt lat="45.78751832196789" lon="12.150539498511074"><ele>81.0</ele><time>2026-04-12T14:33:03Z</time></trkpt><trkpt lat="45.787585822276185" lon="12.150732220858597"><ele>80.66666666666667</ele><time>2026-04-12T14:33:04Z</time></trkpt><trkpt lat="45.787666170927885" lon="12.150913715337312"><ele>80.33333333333334</ele><time>2026-04-12T14:33:05Z</time></trkpt><trkpt lat="45.787754851642944" lon="12.151091687303483"><ele>80.0</ele><time>2026-04-12T14:33:06Z</time></trkpt><trkpt lat="45.78785534823045" lon="12.151262520628881"><ele>80.0</ele><time>2026-04-12T14:33:07Z</time></trkpt><trkpt lat="45.78795959263582" lon="12.151423020603655"><ele>80.0</ele><time>2026-04-12T14:33:08Z</time></trkpt><trkpt lat="45.78806213220009" lon="12.151577500342544"><ele>80.0</ele><time>2026-04-12T14:33:09Z</time></trkpt><trkpt lat="45.788160573392645" lon="12.151722554037956"><ele>80.0</ele><time>2026-04-12T14:33:10Z</time></trkpt><trkpt lat="45.788258255393465" lon="12.151862247097135"><ele>80.0</ele><time>2026-04-12T14:33:11Z</time></trkpt><trkpt lat="45.78835840392783" lon="12.152008141437923"><ele>80.0</ele><time>2026-04-12T14:33:12Z</time></trkpt><trkpt lat="45.78846536068586" lon="12.152163699013563"><ele>80.0</ele><time>2026-04-12T14:33:13Z</time></trkpt><trkpt lat="45.78857341744957" lon="12.152326114151458"><ele>79.66666666666667</ele><time>2026-04-12T14:33:14Z</time></trkpt><trkpt lat="45.7886946468642" lon="12.152504628782756"><ele>79.33333333333333</ele><time>2026-04-12T14:33:15Z</time></trkpt><trkpt lat="45.78880803848183" lon="12.152667220133228"><ele>79.0</ele><time>2026-04-12T14:33:16Z</time></trkpt><trkpt lat="45.78891612655083" lon="12.152823895202538"><ele>79.0</ele><time>2026-04-12T14:33:17Z</time></trkpt><trkpt lat="45.78901494875053" lon="12.152975295608062"><ele>79.0</ele><time>2026-04-12T14:33:18Z</time></trkpt><trkpt lat="45.78910958145207" lon="12.153119439041044"><ele>79.0</ele><time>2026-04-12T14:33:19Z</time></trkpt><trkpt lat="45.78920232063389" lon="12.153267252098974"><ele>79.0</ele><time>2026-04-12T14:33:20Z</time></trkpt><trkpt lat="45.78929262169944" lon="12.153408570967906"><ele>79.25</ele><time>2026-04-12T14:33:21Z</time></trkpt><trkpt lat="45.78938719190701" lon="12.153557998875907"><ele>79.5</ele><time>2026-04-12T14:33:22Z</time></trkpt><trkpt lat="45.78948617666516" lon="12.15372062275784"><ele>79.75</ele><time>2026-04-12T14:33:23Z</time></trkpt><trkpt lat="45.78958809389406" lon="12.153890207393292"><ele>80.0</ele><time>2026-04-12T14:33:24Z</time></trkpt><trkpt lat="45.78968990068647" lon="12.154061019304608"><ele>80.0</ele><time>2026-04-12T14:33:25Z</time></trkpt><trkpt lat="45.789784117236614" lon="12.154238606753962"><ele>80.0</ele><time>2026-04-12T14:33:26Z</time></trkpt><trkpt lat="45.789877415560035" lon="12.154417647231641"><ele>80.0</ele><time>2026-04-12T14:33:27Z</time></trkpt><trkpt lat="45.78996767234997" lon="12.154592791924108"><ele>80.0</ele><time>2026-04-12T14:33:28Z</time></trkpt><trkpt lat="45.79005495718415" lon="12.154765945442321"><ele>80.0</ele><time>2026-04-12T14:33:29Z</time></trkpt><trkpt lat="45.79013872302543" lon="12.15494315274754"><ele>80.0</ele><time>2026-04-12T14:33:30Z</time></trkpt><trkpt lat="45.790224942580465" lon="12.155126338396402"><ele>79.66666666666667</ele><time>2026-04-12T14:33:31Z</time></trkpt><trkpt lat="45.79031010273146" lon="12.155311706148142"><ele>79.33333333333333</ele><time>2026-04-12T14:33:32Z</time></trkpt><trkpt lat="45.79039395575077" lon="12.155506098775971"><ele>79.0</ele><time>2026-04-12T14:33:33Z</time></trkpt><trkpt lat="45.790474297127325" lon="12.15570834367028"><ele>78.0</ele><time>2026-04-12T14:33:34Z</time></trkpt><trkpt lat="45.7905512228373" lon="12.155901249464002"><ele>77.0</ele><time>2026-04-12T14:33:35Z</time></trkpt><trkpt lat="45.79062289667181" lon="12.156088206165913"><ele>76.0</ele><time>2026-04-12T14:33:36Z</time></trkpt><trkpt lat="45.79069139465128" lon="12.156274167138141"><ele>76.0</ele><time>2026-04-12T14:33:37Z</time></trkpt><trkpt lat="45.79075521692483" lon="12.156459166910857"><ele>76.0</ele><time>2026-04-12T14:33:38Z</time></trkpt><trkpt lat="45.79082061217031" lon="12.156650752294896"><ele>76.0</ele><time>2026-04-12T14:33:39Z</time></trkpt><trkpt lat="45.79088347947664" lon="12.1568511739002"><ele>76.0</ele><time>2026-04-12T14:33:40Z</time></trkpt><trkpt lat="45.790942906222064" lon="12.157043772873765"><ele>76.25</ele><time>2026-04-12T14:33:41Z</time></trkpt><trkpt lat="45.79099704941683" lon="12.157219669893232"><ele>76.5</ele><time>2026-04-12T14:33:42Z</time></trkpt><trkpt lat="45.79104462026182" lon="12.157387183668579"><ele>76.75</ele><time>2026-04-12T14:33:43Z</time></trkpt><trkpt lat="45.79108916124047" lon="12.157551516396913"><ele>77.0</ele><time>2026-04-12T14:33:44Z</time></trkpt><trkpt lat="45.79113021120391" lon="12.157714376142563"><ele>77.25</ele><time>2026-04-12T14:33:45Z</time></trkpt><trkpt lat="45.79116832017971" lon="12.157872869102356"><ele>77.5</ele><time>2026-04-12T14:33:46Z</time></trkpt><trkpt lat="45.791205493768445" lon="12.158029250487091"><ele>77.75</ele><time>2026-04-12T14:33:47Z</time></trkpt><trkpt lat="45.79123919365451" lon="12.15817992575264"><ele>78.0</ele><time>2026-04-12T14:33:48Z</time></trkpt><trkpt lat="45.791273664976096" lon="12.158328205220187"><ele>77.6</ele><time>2026-04-12T14:33:49Z</time></trkpt><trkpt lat="45.791302880820325" lon="12.158470232899512"><ele>77.19999999999999</ele><time>2026-04-12T14:33:50Z</time></trkpt><trkpt lat="45.79133126257486" lon="12.158608039607762"><ele>76.8</ele><time>2026-04-12T14:33:51Z</time></trkpt><trkpt lat="45.791362028025965" lon="12.158741872168275"><ele>76.39999999999999</ele><time>2026-04-12T14:33:52Z</time></trkpt><trkpt lat="45.79139246268144" lon="12.158871470656646"><ele>76.0</ele><time>2026-04-12T14:33:53Z</time></trkpt><trkpt lat="45.791436776389595" lon="12.159040611973488"><ele>75.75</ele><time>2026-04-12T14:33:54Z</time></trkpt><trkpt lat="45.79148813335553" lon="12.159265260947398"><ele>75.5</ele><time>2026-04-12T14:33:55Z</time></trkpt><trkpt lat="45.7915341523543" lon="12.159451456044929"><ele>75.25</ele><time>2026-04-12T14:33:56Z</time></trkpt><trkpt lat="45.79156957835008" lon="12.159607781113037"><ele>75.0</ele><time>2026-04-12T14:33:57Z</time></trkpt><trkpt lat="45.79159350236522" lon="12.159728168865001"><ele>74.75</ele><time>2026-04-12T14:33:58Z</time></trkpt><trkpt lat="45.791626671886014" lon="12.159890836501308"><ele>74.5</ele><time>2026-04-12T14:33:59Z</time></trkpt><trkpt lat="45.791673279151254" lon="12.160108550571127"><ele>74.25</ele><time>2026-04-12T14:34:00Z</time></trkpt><trkpt lat="45.79172500372006" lon="12.160322673035113"><ele>74.0</ele><time>2026-04-12T14:34:01Z</time></trkpt><trkpt lat="45.79177734008105" lon="12.160544596379292"><ele>74.0</ele><time>2026-04-12T14:34:02Z</time></trkpt><trkpt lat="45.79182370378121" lon="12.160744120916695"><ele>74.0</ele><time>2026-04-12T14:34:03Z</time></trkpt><trkpt lat="45.791866199382376" lon="12.160933055694278"><ele>74.0</ele><time>2026-04-12T14:34:04Z</time></trkpt><trkpt lat="45.791907209326" lon="12.161123959096049"><ele>74.0</ele><time>2026-04-12T14:34:05Z</time></trkpt><trkpt lat="45.7919533099601" lon="12.161327387688997"><ele>74.25</ele><time>2026-04-12T14:34:06Z</time></trkpt><trkpt lat="45.79199894539952" lon="12.161525863879406"><ele>74.5</ele><time>2026-04-12T14:34:07Z</time></trkpt><trkpt lat="45.79204548349516" lon="12.161725497516027"><ele>74.75</ele><time>2026-04-12T14:34:08Z</time></trkpt><trkpt lat="45.79208800879682" lon="12.161911664594436"><ele>75.0</ele><time>2026-04-12T14:34:09Z</time></trkpt><trkpt lat="45.79213238665096" lon="12.16209556034778"><ele>75.0</ele><time>2026-04-12T14:34:10Z</time></trkpt><trkpt lat="45.7921778607285" lon="12.162288794422063"><ele>75.0</ele><time>2026-04-12T14:34:11Z</time></trkpt><trkpt lat="45.792220844151124" lon="12.162480922822347"><ele>75.0</ele><time>2026-04-12T14:34:12Z</time></trkpt><trkpt lat="45.792263016767876" lon="12.16268155179316"><ele>75.0</ele><time>2026-04-12T14:34:13Z</time></trkpt><trkpt lat="45.79230878187956" lon="12.162880993613703"><ele>75.0</ele><time>2026-04-12T14:34:14Z</time></trkpt><trkpt lat="45.79235646688905" lon="12.163085205088056"><ele>75.0</ele><time>2026-04-12T14:34:15Z</time></trkpt><trkpt lat="45.792404243940915" lon="12.163286143554993"><ele>75.0</ele><time>2026-04-12T14:34:16Z</time></trkpt><trkpt lat="45.792449349091456" lon="12.163480573466352"><ele>75.0</ele><time>2026-04-12T14:34:17Z</time></trkpt><trkpt lat="45.792488233333394" lon="12.163644692154481"><ele>75.0</ele><time>2026-04-12T14:34:18Z</time></trkpt><trkpt lat="45.79252294713996" lon="12.163786657892361"><ele>75.0</ele><time>2026-04-12T14:34:19Z</time></trkpt><trkpt lat="45.79255245881874" lon="12.163913734334628"><ele>75.0</ele><time>2026-04-12T14:34:20Z</time></trkpt><trkpt lat="45.79257910128058" lon="12.164046303642014"><ele>75.0</ele><time>2026-04-12T14:34:21Z</time></trkpt><trkpt lat="45.79261519853069" lon="12.16421985197314"><ele>75.0</ele><time>2026-04-12T14:34:22Z</time></trkpt><trkpt lat="45.79266331278177" lon="12.164448497070328"><ele>74.66666666666667</ele><time>2026-04-12T14:34:23Z</time></trkpt><trkpt lat="45.79272490141964" lon="12.164697957907807"><ele>74.33333333333334</ele><time>2026-04-12T14:34:24Z</time></trkpt><trkpt lat="45.79279228473842" lon="12.164964296238697"><ele>74.0</ele><time>2026-04-12T14:34:25Z</time></trkpt><trkpt lat="45.79286332469803" lon="12.165280864032457"><ele>73.5</ele><time>2026-04-12T14:34:26Z</time></trkpt><trkpt lat="45.79293826734783" lon="12.165622408313489"><ele>73.0</ele><time>2026-04-12T14:34:27Z</time></trkpt><trkpt lat="45.79300518966811" lon="12.165927303488346"><ele>73.0</ele><time>2026-04-12T14:34:28Z</time></trkpt><trkpt lat="45.7930714400802" lon="12.166206923390842"><ele>73.0</ele><time>2026-04-12T14:34:29Z</time></trkpt><trkpt lat="45.793133059406834" lon="12.166468042917474"><ele>73.0</ele><time>2026-04-12T14:34:30Z</time></trkpt><trkpt lat="45.7931923249484" lon="12.166718190394775"><ele>73.0</ele><time>2026-04-12T14:34:31Z</time></trkpt><trkpt lat="45.7932478131482" lon="12.166957546637306"><ele>73.0</ele><time>2026-04-12T14:34:32Z</time></trkpt><trkpt lat="45.79330054856492" lon="12.16719029946484"><ele>73.0</ele><time>2026-04-12T14:34:33Z</time></trkpt><trkpt lat="45.79335435218278" lon="12.167436164289496"><ele>73.0</ele><time>2026-04-12T14:34:34Z</time></trkpt><trkpt lat="45.793411423931396" lon="12.167689295926884"><ele>73.0</ele><time>2026-04-12T14:34:35Z</time></trkpt><trkpt lat="45.79347135812793" lon="12.167946329355942"><ele>73.0</ele><time>2026-04-12T14:34:36Z</time></trkpt><trkpt lat="45.793530486407676" lon="12.168206648836485"><ele>73.0</ele><time>2026-04-12T14:34:37Z</time></trkpt><trkpt lat="45.7935982646119" lon="12.168470537989096"><ele>73.0</ele><time>2026-04-12T14:34:38Z</time></trkpt><trkpt lat="45.79365254167316" lon="12.168735488884293"><ele>73.0</ele><time>2026-04-12T14:34:39Z</time></trkpt><trkpt lat="45.79370385551638" lon="12.16897958510877"><ele>73.33333333333333</ele><time>2026-04-12T14:34:40Z</time></trkpt><trkpt lat="45.79375465591849" lon="12.169205950469227"><ele>73.66666666666667</ele><time>2026-04-12T14:34:41Z</time></trkpt><trkpt lat="45.79380403083649" lon="12.169423264750137"><ele>74.0</ele><time>2026-04-12T14:34:42Z</time></trkpt><trkpt lat="45.79385317600108" lon="12.16963089947434"><ele>74.0</ele><time>2026-04-12T14:34:43Z</time></trkpt><trkpt lat="45.79390146956963" lon="12.169841543760237"><ele>74.0</ele><time>2026-04-12T14:34:44Z</time></trkpt><trkpt lat="45.79395042475223" lon="12.170061194167092"><ele>74.0</ele><time>2026-04-12T14:34:45Z</time></trkpt><trkpt lat="45.79399679137011" lon="12.170269229162637"><ele>73.5</ele><time>2026-04-12T14:34:46Z</time></trkpt><trkpt lat="45.7940432590315" lon="12.170469282118896"><ele>73.0</ele><time>2026-04-12T14:34:47Z</time></trkpt><trkpt lat="45.79408840317171" lon="12.170655156837931"><ele>72.5</ele><time>2026-04-12T14:34:48Z</time></trkpt><trkpt lat="45.79412842449995" lon="12.170830761626664"><ele>72.0</ele><time>2026-04-12T14:34:49Z</time></trkpt><trkpt lat="45.79416534128648" lon="12.171000399386427"><ele>71.5</ele><time>2026-04-12T14:34:50Z</time></trkpt><trkpt lat="45.79420237366541" lon="12.171163935658598"><ele>71.0</ele><time>2026-04-12T14:34:51Z</time></trkpt><trkpt lat="45.7942374730387" lon="12.171335755479337"><ele>70.5</ele><time>2026-04-12T14:34:52Z</time></trkpt><trkpt lat="45.79428531204778" lon="12.171535404240045"><ele>70.0</ele><time>2026-04-12T14:34:53Z</time></trkpt><trkpt lat="45.794334283558406" lon="12.171729548466395"><ele>70.0</ele><time>2026-04-12T14:34:54Z</time></trkpt><trkpt lat="45.7943785613652" lon="12.171913580712479"><ele>70.0</ele><time>2026-04-12T14:34:55Z</time></trkpt><trkpt lat="45.79443111239241" lon="12.172092258766197"><ele>70.0</ele><time>2026-04-12T14:34:56Z</time></trkpt><trkpt lat="45.794496861243175" lon="12.172280124416115"><ele>70.0</ele><time>2026-04-12T14:34:57Z</time></trkpt><trkpt lat="45.794570412457254" lon="12.172452157354073"><ele>70.0</ele><time>2026-04-12T14:34:58Z</time></trkpt><trkpt lat="45.79464648475706" lon="12.17260509494411"><ele>70.0</ele><time>2026-04-12T14:34:59Z</time></trkpt><trkpt lat="45.79472673491829" lon="12.17274908943405"><ele>70.0</ele><time>2026-04-12T14:35:00Z</time></trkpt><trkpt lat="45.794810320993975" lon="12.172878790017123"><ele>70.0</ele><time>2026-04-12T14:35:01Z</time></trkpt><trkpt lat="45.7948869072665" lon="12.173002610262394"><ele>70.0</ele><time>2026-04-12T14:35:02Z</time></trkpt><trkpt lat="45.79496406976593" lon="12.173123340084008"><ele>70.0</ele><time>2026-04-12T14:35:03Z</time></trkpt><trkpt lat="45.79504612482376" lon="12.173253773785305"><ele>70.0</ele><time>2026-04-12T14:35:04Z</time></trkpt><trkpt lat="45.79513106582026" lon="12.173388695169296"><ele>70.0</ele><time>2026-04-12T14:35:05Z</time></trkpt><trkpt lat="45.79523112719521" lon="12.173544651552932"><ele>69.75</ele><time>2026-04-12T14:35:06Z</time></trkpt><trkpt lat="45.79533819849174" lon="12.173714586942749"><ele>69.5</ele><time>2026-04-12T14:35:07Z</time></trkpt><trkpt lat="45.795437196575485" lon="12.173872395813785"><ele>69.25</ele><time>2026-04-12T14:35:08Z</time></trkpt><trkpt lat="45.7955311335304" lon="12.174020424982782"><ele>69.0</ele><time>2026-04-12T14:35:09Z</time></trkpt><trkpt lat="45.79559782815731" lon="12.174176825624103"><ele>69.0</ele><time>2026-04-12T14:35:10Z</time></trkpt><trkpt lat="45.795637910359666" lon="12.174337280969853"><ele>69.0</ele><time>2026-04-12T14:35:11Z</time></trkpt><trkpt lat="45.795655077136495" lon="12.174490485043725"><ele>69.0</ele><time>2026-04-12T14:35:12Z</time></trkpt><trkpt lat="45.79562625243715" lon="12.174636241020936"><ele>69.0</ele><time>2026-04-12T14:35:13Z</time></trkpt><trkpt lat="45.79559496650178" lon="12.174823526466575"><ele>68.66666666666667</ele><time>2026-04-12T14:35:14Z</time></trkpt><trkpt lat="45.79543763990854" lon="12.175011430340186"><ele>68.33333333333334</ele><time>2026-04-12T14:35:15Z</time></trkpt><trkpt lat="45.795288891403466" lon="12.17524428174899"><ele>68.0</ele><time>2026-04-12T14:35:16Z</time></trkpt><trkpt lat="45.795140230037674" lon="12.175498449192803"><ele>67.5</ele><time>2026-04-12T14:35:17Z</time></trkpt><trkpt lat="45.79498868352195" lon="12.175723901131185"><ele>67.0</ele><time>2026-04-12T14:35:18Z</time></trkpt><trkpt lat="45.79479283842694" lon="12.176046878705415"><ele>67.0</ele><time>2026-04-12T14:35:19Z</time></trkpt><trkpt lat="45.79459017772203" lon="12.176414644834939"><ele>67.0</ele><time>2026-04-12T14:35:20Z</time></trkpt><trkpt lat="45.79437844245333" lon="12.176761711362074"><ele>67.0</ele><time>2026-04-12T14:35:21Z</time></trkpt><trkpt lat="45.794187672446306" lon="12.17706959396341"><ele>67.0</ele><time>2026-04-12T14:35:22Z</time></trkpt><trkpt lat="45.79401443700298" lon="12.177356302461943"><ele>67.0</ele><time>2026-04-12T14:35:23Z</time></trkpt><trkpt lat="45.79385067156546" lon="12.177621914807476"><ele>67.0</ele><time>2026-04-12T14:35:24Z</time></trkpt><trkpt lat="45.79369812154238" lon="12.177874835597581"><ele>67.0</ele><time>2026-04-12T14:35:25Z</time></trkpt><trkpt lat="45.793547837672044" lon="12.17812110709896"><ele>67.0</ele><time>2026-04-12T14:35:26Z</time></trkpt><trkpt lat="45.793394139561855" lon="12.1783801453755"><ele>67.0</ele><time>2026-04-12T14:35:27Z</time></trkpt><trkpt lat="45.793252252196105" lon="12.178621893971894"><ele>67.0</ele><time>2026-04-12T14:35:28Z</time></trkpt><trkpt lat="45.7931117622454" lon="12.178856500588099"><ele>67.0</ele><time>2026-04-12T14:35:29Z</time></trkpt><trkpt lat="45.792970989283525" lon="12.179082522951774"><ele>66.66666666666666</ele><time>2026-04-12T14:35:30Z</time></trkpt><trkpt lat="45.792835929538896" lon="12.179306889280884"><ele>66.33333333333333</ele><time>2026-04-12T14:35:31Z</time></trkpt><trkpt lat="45.79269616986795" lon="12.179534191804935"><ele>66.0</ele><time>2026-04-12T14:35:32Z</time></trkpt><trkpt lat="45.792550282060624" lon="12.179746197941782"><ele>65.66666666666667</ele><time>2026-04-12T14:35:33Z</time></trkpt><trkpt lat="45.792402034976114" lon="12.179953340259557"><ele>65.33333333333334</ele><time>2026-04-12T14:35:34Z</time></trkpt><trkpt lat="45.792249565407715" lon="12.180152223470614"><ele>65.0</ele><time>2026-04-12T14:35:35Z</time></trkpt><trkpt lat="45.79209917162537" lon="12.180351202321999"><ele>65.0</ele><time>2026-04-12T14:35:36Z</time></trkpt><trkpt lat="45.791950224471805" lon="12.180552992282866"><ele>65.0</ele><time>2026-04-12T14:35:37Z</time></trkpt><trkpt lat="45.79180474713167" lon="12.180757333492013"><ele>65.0</ele><time>2026-04-12T14:35:38Z</time></trkpt><trkpt lat="45.791660482161895" lon="12.18095521415961"><ele>64.33333333333334</ele><time>2026-04-12T14:35:39Z</time></trkpt><trkpt lat="45.79151550168482" lon="12.181149367889487"><ele>63.66666666666667</ele><time>2026-04-12T14:35:40Z</time></trkpt><trkpt lat="45.79137514799507" lon="12.181342094374852"><ele>63.0</ele><time>2026-04-12T14:35:41Z</time></trkpt><trkpt lat="45.79123376582491" lon="12.181535774765212"><ele>62.66666666666667</ele><time>2026-04-12T14:35:42Z</time></trkpt><trkpt lat="45.791091791406686" lon="12.18172417637254"><ele>62.333333333333336</ele><time>2026-04-12T14:35:43Z</time></trkpt><trkpt lat="45.790957287723614" lon="12.181915506544984"><ele>62.0</ele><time>2026-04-12T14:35:44Z</time></trkpt><trkpt lat="45.790823697515535" lon="12.18210474842784"><ele>62.0</ele><time>2026-04-12T14:35:45Z</time></trkpt><trkpt lat="45.79068516027497" lon="12.182290527895523"><ele>62.0</ele><time>2026-04-12T14:35:46Z</time></trkpt><trkpt lat="45.79055173626708" lon="12.182473424280712"><ele>62.0</ele><time>2026-04-12T14:35:47Z</time></trkpt><trkpt lat="45.79041617981406" lon="12.182654135953534"><ele>62.66666666666667</ele><time>2026-04-12T14:35:48Z</time></trkpt><trkpt lat="45.79027615044836" lon="12.182840340878222"><ele>63.33333333333333</ele><time>2026-04-12T14:35:49Z</time></trkpt><trkpt lat="45.79013965854522" lon="12.183026914308243"><ele>64.0</ele><time>2026-04-12T14:35:50Z</time></trkpt><trkpt lat="45.789999288968936" lon="12.183214924719467"><ele>64.0</ele><time>2026-04-12T14:35:51Z</time></trkpt><trkpt lat="45.78985932573786" lon="12.18340188082083"><ele>64.0</ele><time>2026-04-12T14:35:52Z</time></trkpt><trkpt lat="45.78972123423546" lon="12.183596351830621"><ele>64.0</ele><time>2026-04-12T14:35:53Z</time></trkpt><trkpt lat="45.78958557604957" lon="12.183792186400483"><ele>64.0</ele><time>2026-04-12T14:35:54Z</time></trkpt><trkpt lat="45.78945293539077" lon="12.18399281039154"><ele>64.0</ele><time>2026-04-12T14:35:55Z</time></trkpt><trkpt lat="45.78932590236428" lon="12.184204307757073"><ele>64.0</ele><time>2026-04-12T14:35:56Z</time></trkpt><trkpt lat="45.78921001451719" lon="12.184427924818399"><ele>63.0</ele><time>2026-04-12T14:35:57Z</time></trkpt><trkpt lat="45.78909732954571" lon="12.184658933750823"><ele>62.0</ele><time>2026-04-12T14:35:58Z</time></trkpt><trkpt lat="45.78898596846595" lon="12.18489072604713"><ele>61.0</ele><time>2026-04-12T14:35:59Z</time></trkpt><trkpt lat="45.78887871172373" lon="12.185132671748432"><ele>61.0</ele><time>2026-04-12T14:36:00Z</time></trkpt><trkpt lat="45.78878673865808" lon="12.185384526020519"><ele>61.0</ele><time>2026-04-12T14:36:01Z</time></trkpt><trkpt lat="45.788710442125044" lon="12.185649322575392"><ele>61.0</ele><time>2026-04-12T14:36:02Z</time></trkpt><trkpt lat="45.78864004449229" lon="12.18591432532161"><ele>61.0</ele><time>2026-04-12T14:36:03Z</time></trkpt><trkpt lat="45.788562295503375" lon="12.186178594317632"><ele>61.0</ele><time>2026-04-12T14:36:04Z</time></trkpt><trkpt lat="45.78849175552886" lon="12.186421364193766"><ele>61.0</ele><time>2026-04-12T14:36:05Z</time></trkpt><trkpt lat="45.78842618843398" lon="12.1866480396247"><ele>60.666666666666664</ele><time>2026-04-12T14:36:06Z</time></trkpt><trkpt lat="45.78836036925453" lon="12.186866999598635"><ele>60.33333333333333</ele><time>2026-04-12T14:36:07Z</time></trkpt><trkpt lat="45.78828882118862" lon="12.187092487749505"><ele>60.0</ele><time>2026-04-12T14:36:08Z</time></trkpt><trkpt lat="45.78821867268858" lon="12.187329501937937"><ele>61.0</ele><time>2026-04-12T14:36:09Z</time></trkpt><trkpt lat="45.788154897897996" lon="12.187550970669689"><ele>62.0</ele><time>2026-04-12T14:36:10Z</time></trkpt><trkpt lat="45.78810824012879" lon="12.187756778460653"><ele>63.0</ele><time>2026-04-12T14:36:11Z</time></trkpt><trkpt lat="45.78809288275613" lon="12.187946478980846"><ele>63.0</ele><time>2026-04-12T14:36:12Z</time></trkpt><trkpt lat="45.78809297959777" lon="12.188091803330746"><ele>63.0</ele><time>2026-04-12T14:36:13Z</time></trkpt><trkpt lat="45.78807493538337" lon="12.188217719586968"><ele>63.0</ele><time>2026-04-12T14:36:14Z</time></trkpt><trkpt lat="45.78803215077428" lon="12.188361687505443"><ele>63.0</ele><time>2026-04-12T14:36:15Z</time></trkpt><trkpt lat="45.7879875756714" lon="12.18856799565742"><ele>63.0</ele><time>2026-04-12T14:36:16Z</time></trkpt><trkpt lat="45.78795813477597" lon="12.188838011774047"><ele>63.0</ele><time>2026-04-12T14:36:17Z</time></trkpt><trkpt lat="45.787911952660664" lon="12.189124949282734"><ele>63.0</ele><time>2026-04-12T14:36:18Z</time></trkpt><trkpt lat="45.78788027098638" lon="12.189398860752227"><ele>62.33333333333333</ele><time>2026-04-12T14:36:19Z</time></trkpt><trkpt lat="45.787898801164886" lon="12.189675431901524"><ele>61.666666666666664</ele><time>2026-04-12T14:36:20Z</time></trkpt><trkpt lat="45.787949136426754" lon="12.189966202335471"><ele>61.0</ele><time>2026-04-12T14:36:21Z</time></trkpt><trkpt lat="45.78801736422699" lon="12.190284897738428"><ele>60.5</ele><time>2026-04-12T14:36:22Z</time></trkpt><trkpt lat="45.78808090317241" lon="12.190635250656507"><ele>60.0</ele><time>2026-04-12T14:36:23Z</time></trkpt><trkpt lat="45.78814911093784" lon="12.191016899534477"><ele>59.5</ele><time>2026-04-12T14:36:24Z</time></trkpt><trkpt lat="45.788228521659306" lon="12.19140303780727"><ele>59.0</ele><time>2026-04-12T14:36:25Z</time></trkpt><trkpt lat="45.78828705485511" lon="12.191808125964588"><ele>59.0</ele><time>2026-04-12T14:36:26Z</time></trkpt><trkpt lat="45.788354109898876" lon="12.192202418648598"><ele>59.0</ele><time>2026-04-12T14:36:27Z</time></trkpt><trkpt lat="45.78841803307683" lon="12.192562119958609"><ele>59.5</ele><time>2026-04-12T14:36:28Z</time></trkpt><trkpt lat="45.7884859594966" lon="12.192903294423706"><ele>60.0</ele><time>2026-04-12T14:36:29Z</time></trkpt><trkpt lat="45.78854932932578" lon="12.193280994687118"><ele>60.0</ele><time>2026-04-12T14:36:30Z</time></trkpt><trkpt lat="45.78862051903682" lon="12.193687098849376"><ele>60.0</ele><time>2026-04-12T14:36:31Z</time></trkpt><trkpt lat="45.78870119833953" lon="12.194076250024368"><ele>60.0</ele><time>2026-04-12T14:36:32Z</time></trkpt><trkpt lat="45.78874989830576" lon="12.194438926390177"><ele>60.0</ele><time>2026-04-12T14:36:33Z</time></trkpt><trkpt lat="45.78880673422578" lon="12.194781094962"><ele>60.5</ele><time>2026-04-12T14:36:34Z</time></trkpt><trkpt lat="45.788866382135694" lon="12.195114684701648"><ele>61.0</ele><time>2026-04-12T14:36:35Z</time></trkpt><trkpt lat="45.78892524441695" lon="12.195460298190863"><ele>61.0</ele><time>2026-04-12T14:36:36Z</time></trkpt><trkpt lat="45.78898304982409" lon="12.195799489005875"><ele>61.0</ele><time>2026-04-12T14:36:37Z</time></trkpt><trkpt lat="45.789040066457886" lon="12.19613154397229"><ele>61.0</ele><time>2026-04-12T14:36:38Z</time></trkpt><trkpt lat="45.78909729973918" lon="12.196460845736832"><ele>61.0</ele><time>2026-04-12T14:36:39Z</time></trkpt><trkpt lat="45.789157582217435" lon="12.196792639212113"><ele>61.0</ele><time>2026-04-12T14:36:40Z</time></trkpt><trkpt lat="45.78921600926181" lon="12.197123936732716"><ele>61.0</ele><time>2026-04-12T14:36:41Z</time></trkpt><trkpt lat="45.78927476028017" lon="12.197455700814098"><ele>61.0</ele><time>2026-04-12T14:36:42Z</time></trkpt><trkpt lat="45.78933314364359" lon="12.19778608285186"><ele>61.0</ele><time>2026-04-12T14:36:43Z</time></trkpt><trkpt lat="45.78939562819621" lon="12.198114421910335"><ele>61.5</ele><time>2026-04-12T14:36:44Z</time></trkpt><trkpt lat="45.78945221169348" lon="12.198438186411568"><ele>62.0</ele><time>2026-04-12T14:36:45Z</time></trkpt><trkpt lat="45.78951058905231" lon="12.198762879649172"><ele>61.0</ele><time>2026-04-12T14:36:46Z</time></trkpt><trkpt lat="45.78956750625979" lon="12.199085402363092"><ele>60.0</ele><time>2026-04-12T14:36:47Z</time></trkpt><trkpt lat="45.789619766194754" lon="12.199412325119185"><ele>60.0</ele><time>2026-04-12T14:36:48Z</time></trkpt><trkpt lat="45.789660638580884" lon="12.199736397802674"><ele>60.0</ele><time>2026-04-12T14:36:49Z</time></trkpt><trkpt lat="45.78968458618142" lon="12.20006491972465"><ele>60.0</ele><time>2026-04-12T14:36:50Z</time></trkpt><trkpt lat="45.789686413323125" lon="12.200395905416645"><ele>60.0</ele><time>2026-04-12T14:36:51Z</time></trkpt><trkpt lat="45.78967493125208" lon="12.200719120131904"><ele>60.0</ele><time>2026-04-12T14:36:52Z</time></trkpt><trkpt lat="45.78966928862232" lon="12.201040464564743"><ele>60.0</ele><time>2026-04-12T14:36:53Z</time></trkpt><trkpt lat="45.78966941378596" lon="12.201359065997195"><ele>60.0</ele><time>2026-04-12T14:36:54Z</time></trkpt><trkpt lat="45.78966800848047" lon="12.201669871519874"><ele>60.0</ele><time>2026-04-12T14:36:55Z</time></trkpt><trkpt lat="45.78966653707509" lon="12.201968638809824"><ele>60.0</ele><time>2026-04-12T14:36:56Z</time></trkpt><trkpt lat="45.789657412813696" lon="12.202273017191976"><ele>60.0</ele><time>2026-04-12T14:36:57Z</time></trkpt><trkpt lat="45.7896304024686" lon="12.20258859238408"><ele>60.0</ele><time>2026-04-12T14:36:58Z</time></trkpt><trkpt lat="45.789581502274245" lon="12.202913725445015"><ele>60.0</ele><time>2026-04-12T14:36:59Z</time></trkpt><trkpt lat="45.78951151024737" lon="12.203235580984476"><ele>60.5</ele><time>2026-04-12T14:37:00Z</time></trkpt><trkpt lat="45.78942944148435" lon="12.203552341712411"><ele>61.0</ele><time>2026-04-12T14:37:01Z</time></trkpt><trkpt lat="45.7893441601557" lon="12.203862587830315"><ele>61.0</ele><time>2026-04-12T14:37:02Z</time></trkpt><trkpt lat="45.78926283848718" lon="12.2041737955216"><ele>61.0</ele><time>2026-04-12T14:37:03Z</time></trkpt><trkpt lat="45.78918290944086" lon="12.204481524445477"><ele>61.0</ele><time>2026-04-12T14:37:04Z</time></trkpt><trkpt lat="45.78910989933356" lon="12.204774819487195"><ele>61.0</ele><time>2026-04-12T14:37:05Z</time></trkpt><trkpt lat="45.78903914705662" lon="12.205054096036704"><ele>61.0</ele><time>2026-04-12T14:37:06Z</time></trkpt><trkpt lat="45.78897267130053" lon="12.20531651346225"><ele>61.0</ele><time>2026-04-12T14:37:07Z</time></trkpt><trkpt lat="45.78890950728715" lon="12.205577429278888"><ele>61.0</ele><time>2026-04-12T14:37:08Z</time></trkpt><trkpt lat="45.78883683737827" lon="12.205857787945742"><ele>61.0</ele><time>2026-04-12T14:37:09Z</time></trkpt><trkpt lat="45.78876867285561" lon="12.206144698916239"><ele>61.0</ele><time>2026-04-12T14:37:10Z</time></trkpt><trkpt lat="45.78868190879999" lon="12.20642175025807"><ele>61.0</ele><time>2026-04-12T14:37:11Z</time></trkpt><trkpt lat="45.78862658478733" lon="12.206712831328439"><ele>61.0</ele><time>2026-04-12T14:37:12Z</time></trkpt><trkpt lat="45.78854990381694" lon="12.206979258577961"><ele>61.0</ele><time>2026-04-12T14:37:13Z</time></trkpt><trkpt lat="45.788483381627344" lon="12.207231474858512"><ele>61.0</ele><time>2026-04-12T14:37:14Z</time></trkpt><trkpt lat="45.78842247910406" lon="12.207475037184079"><ele>61.0</ele><time>2026-04-12T14:37:15Z</time></trkpt><trkpt lat="45.788357892948746" lon="12.207726030268706"><ele>61.0</ele><time>2026-04-12T14:37:16Z</time></trkpt><trkpt lat="45.788293461993" lon="12.207978837517498"><ele>61.0</ele><time>2026-04-12T14:37:17Z</time></trkpt><trkpt lat="45.78822372492808" lon="12.208238438537299"><ele>61.0</ele><time>2026-04-12T14:37:18Z</time></trkpt><trkpt lat="45.78815052537881" lon="12.208486629043769"><ele>60.666666666666664</ele><time>2026-04-12T14:37:19Z</time></trkpt><trkpt lat="45.78807344826282" lon="12.208719859097975"><ele>60.33333333333333</ele><time>2026-04-12T14:37:20Z</time></trkpt><trkpt lat="45.78799594437224" lon="12.20893454655411"><ele>60.0</ele><time>2026-04-12T14:37:21Z</time></trkpt><trkpt lat="45.78791758266878" lon="12.209152287503864"><ele>60.0</ele><time>2026-04-12T14:37:22Z</time></trkpt><trkpt lat="45.78784027701531" lon="12.209378002902817"><ele>60.0</ele><time>2026-04-12T14:37:23Z</time></trkpt><trkpt lat="45.787762821780156" lon="12.209604033925306"><ele>60.0</ele><time>2026-04-12T14:37:24Z</time></trkpt><trkpt lat="45.78768155195505" lon="12.20983034107914"><ele>60.0</ele><time>2026-04-12T14:37:25Z</time></trkpt><trkpt lat="45.787600809053274" lon="12.21006031066337"><ele>60.0</ele><time>2026-04-12T14:37:26Z</time></trkpt><trkpt lat="45.78751841703537" lon="12.21029279256954"><ele>60.0</ele><time>2026-04-12T14:37:27Z</time></trkpt><trkpt lat="45.787429731910954" lon="12.210521977423076"><ele>60.66666666666667</ele><time>2026-04-12T14:37:28Z</time></trkpt><trkpt lat="45.787327411834966" lon="12.210740930591854"><ele>61.333333333333336</ele><time>2026-04-12T14:37:29Z</time></trkpt><trkpt lat="45.78721715770107" lon="12.210947003437884"><ele>62.0</ele><time>2026-04-12T14:37:30Z</time></trkpt><trkpt lat="45.78710043086574" lon="12.211132743761285"><ele>62.0</ele><time>2026-04-12T14:37:31Z</time></trkpt><trkpt lat="45.78698817335146" lon="12.211302506294455"><ele>62.0</ele><time>2026-04-12T14:37:32Z</time></trkpt><trkpt lat="45.786884292985775" lon="12.21146346916685"><ele>62.0</ele><time>2026-04-12T14:37:33Z</time></trkpt><trkpt lat="45.78678599968077" lon="12.211630847714716"><ele>62.0</ele><time>2026-04-12T14:37:34Z</time></trkpt><trkpt lat="45.786672285858195" lon="12.211805126068755"><ele>62.0</ele><time>2026-04-12T14:37:35Z</time></trkpt><trkpt lat="45.78655860531146" lon="12.211990925848328"><ele>62.0</ele><time>2026-04-12T14:37:36Z</time></trkpt><trkpt lat="45.78643998181129" lon="12.212182181429936"><ele>62.0</ele><time>2026-04-12T14:37:37Z</time></trkpt><trkpt lat="45.786317810473925" lon="12.212366806237604"><ele>62.0</ele><time>2026-04-12T14:37:38Z</time></trkpt><trkpt lat="45.78619700836917" lon="12.212552904377112"><ele>62.0</ele><time>2026-04-12T14:37:39Z</time></trkpt><trkpt lat="45.78608748868824" lon="12.212740799734952"><ele>61.66666666666667</ele><time>2026-04-12T14:37:40Z</time></trkpt><trkpt lat="45.78598129763721" lon="12.212936198601398"><ele>61.33333333333333</ele><time>2026-04-12T14:37:41Z</time></trkpt><trkpt lat="45.78588692239661" lon="12.213148379441373"><ele>61.0</ele><time>2026-04-12T14:37:42Z</time></trkpt><trkpt lat="45.78580820365238" lon="12.213373544761557"><ele>61.0</ele><time>2026-04-12T14:37:43Z</time></trkpt><trkpt lat="45.785745931601916" lon="12.213601334810791"><ele>61.0</ele><time>2026-04-12T14:37:44Z</time></trkpt><trkpt lat="45.785705220244935" lon="12.213831995080453"><ele>61.0</ele><time>2026-04-12T14:37:45Z</time></trkpt><trkpt lat="45.78567857204243" lon="12.214053624838478"><ele>60.666666666666664</ele><time>2026-04-12T14:37:46Z</time></trkpt><trkpt lat="45.785659765337186" lon="12.214276673358615"><ele>60.33333333333333</ele><time>2026-04-12T14:37:47Z</time></trkpt><trkpt lat="45.78564686694014" lon="12.214501879942327"><ele>60.0</ele><time>2026-04-12T14:37:48Z</time></trkpt><trkpt lat="45.78563868701583" lon="12.214723632988113"><ele>60.66666666666667</ele><time>2026-04-12T14:37:49Z</time></trkpt><trkpt lat="45.785630530756876" lon="12.214944858602031"><ele>61.333333333333336</ele><time>2026-04-12T14:37:50Z</time></trkpt><trkpt lat="45.785621521784115" lon="12.215170457359653"><ele>62.0</ele><time>2026-04-12T14:37:51Z</time></trkpt><trkpt lat="45.78561187692894" lon="12.215402084046834"><ele>62.0</ele><time>2026-04-12T14:37:52Z</time></trkpt><trkpt lat="45.78560126777966" lon="12.215633779797015"><ele>62.0</ele><time>2026-04-12T14:37:53Z</time></trkpt><trkpt lat="45.78559235651437" lon="12.21586247636732"><ele>62.0</ele><time>2026-04-12T14:37:54Z</time></trkpt><trkpt lat="45.78558431326801" lon="12.216089458601315"><ele>62.25</ele><time>2026-04-12T14:37:55Z</time></trkpt><trkpt lat="45.78557461052986" lon="12.216311797469423"><ele>62.5</ele><time>2026-04-12T14:37:56Z</time></trkpt><trkpt lat="45.785565819933105" lon="12.216521667340691"><ele>62.75</ele><time>2026-04-12T14:37:57Z</time></trkpt><trkpt lat="45.785555523674226" lon="12.216729381925425"><ele>63.0</ele><time>2026-04-12T14:37:58Z</time></trkpt><trkpt lat="45.78554894029802" lon="12.216931254737485"><ele>62.5</ele><time>2026-04-12T14:37:59Z</time></trkpt><trkpt lat="45.78554058216554" lon="12.21713014044972"><ele>62.0</ele><time>2026-04-12T14:38:00Z</time></trkpt><trkpt lat="45.785535082833064" lon="12.21732231716214"><ele>61.5</ele><time>2026-04-12T14:38:01Z</time></trkpt><trkpt lat="45.78552651370393" lon="12.217500055757087"><ele>61.0</ele><time>2026-04-12T14:38:02Z</time></trkpt><trkpt lat="45.78551812310016" lon="12.217665517096654"><ele>61.0</ele><time>2026-04-12T14:38:03Z</time></trkpt><trkpt lat="45.78550133030683" lon="12.217823072339542"><ele>60.99999999999999</ele><time>2026-04-12T14:38:04Z</time></trkpt><trkpt lat="45.785473333202994" lon="12.217969135694773"><ele>60.99999999999999</ele><time>2026-04-12T14:38:05Z</time></trkpt><trkpt lat="45.785436853683954" lon="12.218101646651704"><ele>61.0</ele><time>2026-04-12T14:38:06Z</time></trkpt><trkpt lat="45.78539168434521" lon="12.218223532858136"><ele>61.0</ele><time>2026-04-12T14:38:07Z</time></trkpt><trkpt lat="45.785337676698646" lon="12.218334739151858"><ele>61.0</ele><time>2026-04-12T14:38:08Z</time></trkpt><trkpt lat="45.785268931169334" lon="12.218428622420324"><ele>60.99999999999999</ele><time>2026-04-12T14:38:09Z</time></trkpt><trkpt lat="45.78518052671017" lon="12.21850915033862"><ele>60.99999999999999</ele><time>2026-04-12T14:38:10Z</time></trkpt><trkpt lat="45.78510907021461" lon="12.218592793292554"><ele>61.0</ele><time>2026-04-12T14:38:11Z</time></trkpt><trkpt lat="45.785054074541534" lon="12.218689123931577"><ele>61.0</ele><time>2026-04-12T14:38:12Z</time></trkpt><trkpt lat="45.785018464343" lon="12.218798680911103"><ele>60.99999999999999</ele><time>2026-04-12T14:38:13Z</time></trkpt><trkpt lat="45.78499339003976" lon="12.218897636045039"><ele>61.0</ele><time>2026-04-12T14:38:14Z</time></trkpt><trkpt lat="45.78496890741966" lon="12.218986888401798"><ele>61.0</ele><time>2026-04-12T14:38:15Z</time></trkpt><trkpt lat="45.78493878760088" lon="12.21909840391768"><ele>61.0</ele><time>2026-04-12T14:38:16Z</time></trkpt><trkpt lat="45.784917126613" lon="12.219234951508904"><ele>60.99999999999999</ele><time>2026-04-12T14:38:17Z</time></trkpt><trkpt lat="45.78489987607893" lon="12.21937298643559"><ele>61.0</ele><time>2026-04-12T14:38:18Z</time></trkpt><trkpt lat="45.784905361551715" lon="12.219482534369448"><ele>61.0</ele><time>2026-04-12T14:38:19Z</time></trkpt><trkpt lat="45.78492891615303" lon="12.21957109942322"><ele>60.99999999999999</ele><time>2026-04-12T14:38:20Z</time></trkpt><trkpt lat="45.78502410318381" lon="12.219698408699829"><ele>60.99999999999999</ele><time>2026-04-12T14:38:22Z</time></trkpt><trkpt lat="45.7850965641269" lon="12.219770523432262"><ele>61.0</ele><time>2026-04-12T14:38:23Z</time></trkpt><trkpt lat="45.7851191124103" lon="12.21987678545839"><ele>61.0</ele><time>2026-04-12T14:38:24Z</time></trkpt><trkpt lat="45.78511771972761" lon="12.22002737690293"><ele>61.0</ele><time>2026-04-12T14:38:25Z</time></trkpt><trkpt lat="45.785092243688794" lon="12.220231348015957"><ele>61.0</ele><time>2026-04-12T14:38:26Z</time></trkpt><trkpt lat="45.78505700898222" lon="12.22045397086547"><ele>61.0</ele><time>2026-04-12T14:38:27Z</time></trkpt><trkpt lat="45.78501797396709" lon="12.220724560575873"><ele>61.33333333333333</ele><time>2026-04-12T14:38:28Z</time></trkpt><trkpt lat="45.78498534628715" lon="12.220989365850228"><ele>61.66666666666667</ele><time>2026-04-12T14:38:29Z</time></trkpt><trkpt lat="45.78495868653371" lon="12.221227732851416"><ele>62.0</ele><time>2026-04-12T14:38:30Z</time></trkpt><trkpt lat="45.784921546142996" lon="12.221488643684983"><ele>62.333333333333336</ele><time>2026-04-12T14:38:31Z</time></trkpt><trkpt lat="45.7848872312835" lon="12.221765588930825"><ele>62.66666666666667</ele><time>2026-04-12T14:38:32Z</time></trkpt><trkpt lat="45.78485446922151" lon="12.222041748986905"><ele>63.0</ele><time>2026-04-12T14:38:33Z</time></trkpt><trkpt lat="45.78481883854734" lon="12.222319222735218"><ele>62.33333333333333</ele><time>2026-04-12T14:38:34Z</time></trkpt><trkpt lat="45.78478321235521" lon="12.222598575602609"><ele>61.666666666666664</ele><time>2026-04-12T14:38:35Z</time></trkpt><trkpt lat="45.784745087448655" lon="12.222880741726257"><ele>61.0</ele><time>2026-04-12T14:38:36Z</time></trkpt><trkpt lat="45.78470758652109" lon="12.223160032052661"><ele>60.33333333333333</ele><time>2026-04-12T14:38:37Z</time></trkpt><trkpt lat="45.78467185831192" lon="12.22343362740487"><ele>59.66666666666667</ele><time>2026-04-12T14:38:38Z</time></trkpt><trkpt lat="45.78463752186456" lon="12.223699402326577"><ele>59.0</ele><time>2026-04-12T14:38:39Z</time></trkpt><trkpt lat="45.78459845985233" lon="12.223974239239114"><ele>59.0</ele><time>2026-04-12T14:38:40Z</time></trkpt><trkpt lat="45.784560364968094" lon="12.224255202372671"><ele>59.0</ele><time>2026-04-12T14:38:41Z</time></trkpt><trkpt lat="45.784522890151024" lon="12.224538379829472"><ele>59.0</ele><time>2026-04-12T14:38:42Z</time></trkpt><trkpt lat="45.784486988104256" lon="12.224819374683152"><ele>59.0</ele><time>2026-04-12T14:38:43Z</time></trkpt><trkpt lat="45.78445118410018" lon="12.225102116564454"><ele>59.0</ele><time>2026-04-12T14:38:44Z</time></trkpt><trkpt lat="45.78441752817622" lon="12.225382031904378"><ele>59.0</ele><time>2026-04-12T14:38:45Z</time></trkpt><trkpt lat="45.78438303924574" lon="12.225662162447021"><ele>59.0</ele><time>2026-04-12T14:38:46Z</time></trkpt><trkpt lat="45.78434774351596" lon="12.225939989207973"><ele>59.0</ele><time>2026-04-12T14:38:47Z</time></trkpt><trkpt lat="45.784312325668644" lon="12.226215342147514"><ele>59.0</ele><time>2026-04-12T14:38:48Z</time></trkpt><trkpt lat="45.78427790194131" lon="12.22648707006692"><ele>58.66666666666667</ele><time>2026-04-12T14:38:49Z</time></trkpt><trkpt lat="45.78424023618744" lon="12.226756499973444"><ele>58.33333333333333</ele><time>2026-04-12T14:38:50Z</time></trkpt><trkpt lat="45.784200607613286" lon="12.22703010557711"><ele>58.0</ele><time>2026-04-12T14:38:51Z</time></trkpt><trkpt lat="45.784164600399166" lon="12.227306812005667"><ele>57.666666666666664</ele><time>2026-04-12T14:38:52Z</time></trkpt><trkpt lat="45.78412933220601" lon="12.227583633726145"><ele>57.33333333333333</ele><time>2026-04-12T14:38:53Z</time></trkpt><trkpt lat="45.78409429695467" lon="12.227863830787124"><ele>57.0</ele><time>2026-04-12T14:38:54Z</time></trkpt><trkpt lat="45.784058653297784" lon="12.228143815567892"><ele>57.0</ele><time>2026-04-12T14:38:55Z</time></trkpt><trkpt lat="45.7840231997603" lon="12.228426276408102"><ele>57.0</ele><time>2026-04-12T14:38:56Z</time></trkpt><trkpt lat="45.78398716850964" lon="12.228709330690595"><ele>57.0</ele><time>2026-04-12T14:38:57Z</time></trkpt><trkpt lat="45.783949063647654" lon="12.228993148339509"><ele>57.66666666666667</ele><time>2026-04-12T14:38:58Z</time></trkpt><trkpt lat="45.78391061507241" lon="12.229278077045539"><ele>58.333333333333336</ele><time>2026-04-12T14:38:59Z</time></trkpt><trkpt lat="45.78387410917195" lon="12.229561234629067"><ele>59.0</ele><time>2026-04-12T14:39:00Z</time></trkpt><trkpt lat="45.78383708849702" lon="12.229845221098238"><ele>59.333333333333336</ele><time>2026-04-12T14:39:01Z</time></trkpt><trkpt lat="45.7838009942028" lon="12.230127308469106"><ele>59.66666666666667</ele><time>2026-04-12T14:39:02Z</time></trkpt><trkpt lat="45.78376522746411" lon="12.230408164167352"><ele>60.0</ele><time>2026-04-12T14:39:03Z</time></trkpt><trkpt lat="45.78373046226846" lon="12.230687294981996"><ele>59.66666666666667</ele><time>2026-04-12T14:39:04Z</time></trkpt><trkpt lat="45.78369509703096" lon="12.230966639687118"><ele>59.333333333333336</ele><time>2026-04-12T14:39:05Z</time></trkpt><trkpt lat="45.783658529086615" lon="12.23124476589804"><ele>59.0</ele><time>2026-04-12T14:39:06Z</time></trkpt><trkpt lat="45.78362305742895" lon="12.231524392107499"><ele>59.0</ele><time>2026-04-12T14:39:07Z</time></trkpt><trkpt lat="45.78358723560392" lon="12.231802455137249"><ele>59.0</ele><time>2026-04-12T14:39:08Z</time></trkpt><trkpt lat="45.783549078414126" lon="12.232077918561368"><ele>59.0</ele><time>2026-04-12T14:39:09Z</time></trkpt><trkpt lat="45.78351321888632" lon="12.232352737201694"><ele>58.66666666666667</ele><time>2026-04-12T14:39:10Z</time></trkpt><trkpt lat="45.78347613506571" lon="12.232626348862105"><ele>58.33333333333333</ele><time>2026-04-12T14:39:11Z</time></trkpt><trkpt lat="45.7834423180068" lon="12.23289830727267"><ele>58.0</ele><time>2026-04-12T14:39:12Z</time></trkpt><trkpt lat="45.78341017779065" lon="12.23316098063408"><ele>58.0</ele><time>2026-04-12T14:39:13Z</time></trkpt><trkpt lat="45.78337745188691" lon="12.23340933720826"><ele>58.0</ele><time>2026-04-12T14:39:14Z</time></trkpt><trkpt lat="45.783348252231384" lon="12.233652871195083"><ele>58.0</ele><time>2026-04-12T14:39:15Z</time></trkpt><trkpt lat="45.78332653583995" lon="12.233882247623976"><ele>58.25</ele><time>2026-04-12T14:39:16Z</time></trkpt><trkpt lat="45.783302906420616" lon="12.234100073241114"><ele>58.5</ele><time>2026-04-12T14:39:17Z</time></trkpt><trkpt lat="45.783267440048704" lon="12.23429265989018"><ele>58.75</ele><time>2026-04-12T14:39:18Z</time></trkpt><trkpt lat="45.7832310069557" lon="12.234482327448136"><ele>59.0</ele><time>2026-04-12T14:39:19Z</time></trkpt><trkpt lat="45.78317973095536" lon="12.23465260210982"><ele>59.0</ele><time>2026-04-12T14:39:20Z</time></trkpt><trkpt lat="45.78311109308886" lon="12.234793662679431"><ele>59.00000000000001</ele><time>2026-04-12T14:39:21Z</time></trkpt><trkpt lat="45.78304440956072" lon="12.2349169439862"><ele>59.00000000000001</ele><time>2026-04-12T14:39:22Z</time></trkpt><trkpt lat="45.782997549403404" lon="12.235028121430696"><ele>59.0</ele><time>2026-04-12T14:39:23Z</time></trkpt><trkpt lat="45.78297073011363" lon="12.235143982987472"><ele>59.0</ele><time>2026-04-12T14:39:24Z</time></trkpt><trkpt lat="45.78300554453928" lon="12.235305522091585"><ele>59.0</ele><time>2026-04-12T14:39:25Z</time></trkpt><trkpt lat="45.7830429920718" lon="12.235508465079329"><ele>59.0</ele><time>2026-04-12T14:39:26Z</time></trkpt><trkpt lat="45.78306498749563" lon="12.235750885399737"><ele>59.0</ele><time>2026-04-12T14:39:27Z</time></trkpt><trkpt lat="45.78305232656066" lon="12.235999586794643"><ele>59.0</ele><time>2026-04-12T14:39:28Z</time></trkpt><trkpt lat="45.78301825343137" lon="12.236297597365079"><ele>59.0</ele><time>2026-04-12T14:39:29Z</time></trkpt><trkpt lat="45.78297246061609" lon="12.236568243272815"><ele>59.0</ele><time>2026-04-12T14:39:30Z</time></trkpt><trkpt lat="45.78292779239778" lon="12.236817327688588"><ele>59.0</ele><time>2026-04-12T14:39:31Z</time></trkpt><trkpt lat="45.782889618398045" lon="12.237089116529676"><ele>59.0</ele><time>2026-04-12T14:39:32Z</time></trkpt><trkpt lat="45.78286340203384" lon="12.237388586670209"><ele>59.0</ele><time>2026-04-12T14:39:33Z</time></trkpt><trkpt lat="45.78282650886583" lon="12.237681298877536"><ele>58.66666666666667</ele><time>2026-04-12T14:39:34Z</time></trkpt><trkpt lat="45.78278451837515" lon="12.237973794457865"><ele>58.33333333333333</ele><time>2026-04-12T14:39:35Z</time></trkpt><trkpt lat="45.7827442995103" lon="12.238263039313669"><ele>58.0</ele><time>2026-04-12T14:39:36Z</time></trkpt><trkpt lat="45.78270876047439" lon="12.238554164762693"><ele>57.666666666666664</ele><time>2026-04-12T14:39:37Z</time></trkpt><trkpt lat="45.78267148197491" lon="12.238835301418026"><ele>57.33333333333333</ele><time>2026-04-12T14:39:38Z</time></trkpt><trkpt lat="45.7826340684986" lon="12.239116493572194"><ele>57.0</ele><time>2026-04-12T14:39:39Z</time></trkpt><trkpt lat="45.78259857597543" lon="12.239393828257343"><ele>56.66666666666667</ele><time>2026-04-12T14:39:40Z</time></trkpt><trkpt lat="45.78256360616928" lon="12.239660738823261"><ele>56.333333333333336</ele><time>2026-04-12T14:39:41Z</time></trkpt><trkpt lat="45.78252897764144" lon="12.239929638326007"><ele>56.0</ele><time>2026-04-12T14:39:42Z</time></trkpt><trkpt lat="45.782494322455804" lon="12.24019411123976"><ele>56.0</ele><time>2026-04-12T14:39:43Z</time></trkpt><trkpt lat="45.782458462370364" lon="12.240459458578284"><ele>56.0</ele><time>2026-04-12T14:39:44Z</time></trkpt><trkpt lat="45.7824228300694" lon="12.24071915066833"><ele>56.0</ele><time>2026-04-12T14:39:45Z</time></trkpt><trkpt lat="45.78238844011848" lon="12.240972749263928"><ele>56.66666666666667</ele><time>2026-04-12T14:39:46Z</time></trkpt><trkpt lat="45.78235450908516" lon="12.24122285008294"><ele>57.33333333333333</ele><time>2026-04-12T14:39:47Z</time></trkpt><trkpt lat="45.78232267756597" lon="12.24145802972711"><ele>58.0</ele><time>2026-04-12T14:39:48Z</time></trkpt><trkpt lat="45.78229432645873" lon="12.241685712647769"><ele>58.25</ele><time>2026-04-12T14:39:49Z</time></trkpt><trkpt lat="45.782268480585444" lon="12.241899769368338"><ele>58.5</ele><time>2026-04-12T14:39:50Z</time></trkpt><trkpt lat="45.7822448804324" lon="12.242087764499557"><ele>58.75</ele><time>2026-04-12T14:39:51Z</time></trkpt><trkpt lat="45.78222530807531" lon="12.242250415996462"><ele>59.0</ele><time>2026-04-12T14:39:52Z</time></trkpt><trkpt lat="45.78220859449509" lon="12.242401554745502"><ele>58.400000000000006</ele><time>2026-04-12T14:39:53Z</time></trkpt><trkpt lat="45.782200216813784" lon="12.242546973862984"><ele>57.800000000000004</ele><time>2026-04-12T14:39:54Z</time></trkpt><trkpt lat="45.782187267793994" lon="12.242690590044875"><ele>57.199999999999996</ele><time>2026-04-12T14:39:55Z</time></trkpt><trkpt lat="45.78216604610297" lon="12.242823045311415"><ele>56.599999999999994</ele><time>2026-04-12T14:39:56Z</time></trkpt><trkpt lat="45.78212448103977" lon="12.242956208272476"><ele>56.0</ele><time>2026-04-12T14:39:57Z</time></trkpt><trkpt lat="45.782096611923095" lon="12.243118232053376"><ele>56.5</ele><time>2026-04-12T14:39:58Z</time></trkpt><trkpt lat="45.78208195673282" lon="12.243304214403421"><ele>57.0</ele><time>2026-04-12T14:39:59Z</time></trkpt><trkpt lat="45.782066611501016" lon="12.243500458274879"><ele>57.5</ele><time>2026-04-12T14:40:00Z</time></trkpt><trkpt lat="45.78204588793809" lon="12.243723040530226"><ele>58.0</ele><time>2026-04-12T14:40:01Z</time></trkpt><trkpt lat="45.78199431740999" lon="12.243993802086075"><ele>58.5</ele><time>2026-04-12T14:40:02Z</time></trkpt><trkpt lat="45.78196773503194" lon="12.244312315752545"><ele>59.0</ele><time>2026-04-12T14:40:03Z</time></trkpt><trkpt lat="45.78191010781204" lon="12.244636625904763"><ele>58.5</ele><time>2026-04-12T14:40:04Z</time></trkpt><trkpt lat="45.78186590004819" lon="12.244987557374511"><ele>58.0</ele><time>2026-04-12T14:40:05Z</time></trkpt><trkpt lat="45.78181794178662" lon="12.24535510986505"><ele>57.5</ele><time>2026-04-12T14:40:06Z</time></trkpt><trkpt lat="45.781773980304045" lon="12.245685020030638"><ele>57.0</ele><time>2026-04-12T14:40:07Z</time></trkpt><trkpt lat="45.78173286757758" lon="12.246000312770448"><ele>57.0</ele><time>2026-04-12T14:40:08Z</time></trkpt><trkpt lat="45.78169227662646" lon="12.246318149264209"><ele>57.0</ele><time>2026-04-12T14:40:09Z</time></trkpt><trkpt lat="45.78165196974649" lon="12.246634812724757"><ele>57.0</ele><time>2026-04-12T14:40:10Z</time></trkpt><trkpt lat="45.78161041025455" lon="12.246945542613858"><ele>57.0</ele><time>2026-04-12T14:40:11Z</time></trkpt><trkpt lat="45.7815697757111" lon="12.247248740158032"><ele>57.0</ele><time>2026-04-12T14:40:12Z</time></trkpt><trkpt lat="45.78153147535805" lon="12.247535255576109"><ele>57.0</ele><time>2026-04-12T14:40:13Z</time></trkpt><trkpt lat="45.781497380892496" lon="12.247814826413025"><ele>57.0</ele><time>2026-04-12T14:40:14Z</time></trkpt><trkpt lat="45.78146269516346" lon="12.248102914891719"><ele>57.0</ele><time>2026-04-12T14:40:15Z</time></trkpt><trkpt lat="45.78142491150062" lon="12.248389334712872"><ele>56.33333333333333</ele><time>2026-04-12T14:40:16Z</time></trkpt><trkpt lat="45.78138651499542" lon="12.248672610840721"><ele>55.666666666666664</ele><time>2026-04-12T14:40:17Z</time></trkpt><trkpt lat="45.78134977086262" lon="12.248955576807571"><ele>55.0</ele><time>2026-04-12T14:40:18Z</time></trkpt><trkpt lat="45.781311516776064" lon="12.24924756388653"><ele>54.666666666666664</ele><time>2026-04-12T14:40:19Z</time></trkpt><trkpt lat="45.781273268974864" lon="12.24953568496643"><ele>54.33333333333333</ele><time>2026-04-12T14:40:20Z</time></trkpt><trkpt lat="45.781234754948336" lon="12.249824456396533"><ele>54.0</ele><time>2026-04-12T14:40:21Z</time></trkpt><trkpt lat="45.781197241194405" lon="12.25011276187563"><ele>54.0</ele><time>2026-04-12T14:40:22Z</time></trkpt><trkpt lat="45.781160059414304" lon="12.250402864878865"><ele>54.0</ele><time>2026-04-12T14:40:23Z</time></trkpt><trkpt lat="45.78112220686606" lon="12.250693046934343"><ele>54.0</ele><time>2026-04-12T14:40:24Z</time></trkpt><trkpt lat="45.78108414965365" lon="12.25098374173826"><ele>54.0</ele><time>2026-04-12T14:40:25Z</time></trkpt><trkpt lat="45.78104769580429" lon="12.251268364785195"><ele>54.0</ele><time>2026-04-12T14:40:26Z</time></trkpt><trkpt lat="45.78101358856432" lon="12.251547499084172"><ele>54.0</ele><time>2026-04-12T14:40:27Z</time></trkpt><trkpt lat="45.780977086488214" lon="12.25182291410721"><ele>54.0</ele><time>2026-04-12T14:40:28Z</time></trkpt><trkpt lat="45.78093999868219" lon="12.252094988593779"><ele>54.0</ele><time>2026-04-12T14:40:29Z</time></trkpt><trkpt lat="45.780904513909896" lon="12.252363197457688"><ele>54.0</ele><time>2026-04-12T14:40:30Z</time></trkpt><trkpt lat="45.78087069752436" lon="12.252627930476562"><ele>54.33333333333333</ele><time>2026-04-12T14:40:31Z</time></trkpt><trkpt lat="45.78083510246573" lon="12.25289134635038"><ele>54.666666666666664</ele><time>2026-04-12T14:40:32Z</time></trkpt><trkpt lat="45.78080146218644" lon="12.253153029023805"><ele>55.0</ele><time>2026-04-12T14:40:33Z</time></trkpt><trkpt lat="45.78076763895525" lon="12.25341274262602"><ele>55.0</ele><time>2026-04-12T14:40:34Z</time></trkpt><trkpt lat="45.78073418351375" lon="12.25367169660796"><ele>55.0</ele><time>2026-04-12T14:40:35Z</time></trkpt><trkpt lat="45.780699663025146" lon="12.25392045749677"><ele>55.0</ele><time>2026-04-12T14:40:36Z</time></trkpt><trkpt lat="45.78066892142987" lon="12.254171031755215"><ele>55.33333333333333</ele><time>2026-04-12T14:40:37Z</time></trkpt><trkpt lat="45.780639233399334" lon="12.254418149700072"><ele>55.66666666666667</ele><time>2026-04-12T14:40:38Z</time></trkpt><trkpt lat="45.7806069391318" lon="12.254663726796084"><ele>56.0</ele><time>2026-04-12T14:40:39Z</time></trkpt><trkpt lat="45.78057447688827" lon="12.254914023125453"><ele>55.333333333333336</ele><time>2026-04-12T14:40:40Z</time></trkpt><trkpt lat="45.78054246254777" lon="12.25516582317812"><ele>54.66666666666667</ele><time>2026-04-12T14:40:41Z</time></trkpt><trkpt lat="45.780508312717366" lon="12.2554133196383"><ele>54.0</ele><time>2026-04-12T14:40:42Z</time></trkpt><trkpt lat="45.7804751598888" lon="12.255653164340412"><ele>54.0</ele><time>2026-04-12T14:40:43Z</time></trkpt><trkpt lat="45.780443549938695" lon="12.255883758474086"><ele>54.0</ele><time>2026-04-12T14:40:44Z</time></trkpt><trkpt lat="45.7804135974598" lon="12.256104443985317"><ele>54.0</ele><time>2026-04-12T14:40:45Z</time></trkpt><trkpt lat="45.78038492470357" lon="12.25630819735751"><ele>54.400000000000006</ele><time>2026-04-12T14:40:46Z</time></trkpt><trkpt lat="45.7803618821479" lon="12.256499058117145"><ele>54.800000000000004</ele><time>2026-04-12T14:40:47Z</time></trkpt><trkpt lat="45.78033691884491" lon="12.25666990560563"><ele>55.199999999999996</ele><time>2026-04-12T14:40:48Z</time></trkpt><trkpt lat="45.78032451621535" lon="12.256821356544737"><ele>55.599999999999994</ele><time>2026-04-12T14:40:49Z</time></trkpt><trkpt lat="45.78033924099197" lon="12.256941264677963"><ele>56.0</ele><time>2026-04-12T14:40:50Z</time></trkpt><trkpt lat="45.78039670897493" lon="12.257052048680336"><ele>56.0</ele><time>2026-04-12T14:40:51Z</time></trkpt><trkpt lat="45.780490591425824" lon="12.257161626936089"><ele>56.0</ele><time>2026-04-12T14:40:52Z</time></trkpt><trkpt lat="45.780605147622126" lon="12.257285885772742"><ele>56.0</ele><time>2026-04-12T14:40:53Z</time></trkpt><trkpt lat="45.780718358986334" lon="12.257431435083152"><ele>56.0</ele><time>2026-04-12T14:40:54Z</time></trkpt><trkpt lat="45.78083009752069" lon="12.257583193274392"><ele>55.5</ele><time>2026-04-12T14:40:55Z</time></trkpt><trkpt lat="45.780945447448374" lon="12.25769771829566"><ele>55.0</ele><time>2026-04-12T14:40:56Z</time></trkpt><trkpt lat="45.781051036983364" lon="12.257810644749656"><ele>54.5</ele><time>2026-04-12T14:40:57Z</time></trkpt><trkpt lat="45.781173563095834" lon="12.257911929692332"><ele>54.0</ele><time>2026-04-12T14:40:58Z</time></trkpt><trkpt lat="45.78130052213923" lon="12.257997589214824"><ele>54.0</ele><time>2026-04-12T14:40:59Z</time></trkpt><trkpt lat="45.78142248996247" lon="12.258053557175304"><ele>54.0</ele><time>2026-04-12T14:41:00Z</time></trkpt><trkpt lat="45.78152119143963" lon="12.258138141911001"><ele>54.0</ele><time>2026-04-12T14:41:01Z</time></trkpt><trkpt lat="45.78161540258533" lon="12.258261519986808"><ele>54.0</ele><time>2026-04-12T14:41:02Z</time></trkpt><trkpt lat="45.781706782795176" lon="12.258378582090534"><ele>54.166666666666664</ele><time>2026-04-12T14:41:03Z</time></trkpt><trkpt lat="45.781783417770804" lon="12.258484023669912"><ele>54.33333333333333</ele><time>2026-04-12T14:41:04Z</time></trkpt><trkpt lat="45.78184150380249" lon="12.258569803616712"><ele>54.5</ele><time>2026-04-12T14:41:05Z</time></trkpt><trkpt lat="45.78189537741932" lon="12.258687610396624"><ele>54.666666666666664</ele><time>2026-04-12T14:41:07Z</time></trkpt><trkpt lat="45.781891119987655" lon="12.258779218095263"><ele>54.83333333333333</ele><time>2026-04-12T14:41:10Z</time></trkpt><trkpt lat="45.78188897753614" lon="12.258871252947992"><ele>55.0</ele><time>2026-04-12T14:41:15Z</time></trkpt><trkpt lat="45.78175403682115" lon="12.258917871914937"><ele>55.6</ele><time>2026-04-12T14:41:16Z</time></trkpt><trkpt lat="45.78162845507767" lon="12.258965692401453"><ele>56.2</ele><time>2026-04-12T14:41:18Z</time></trkpt><trkpt lat="45.78154290174389" lon="12.258998976790073"><ele>56.8</ele><time>2026-04-12T14:41:19Z</time></trkpt><trkpt lat="45.78145078875193" lon="12.25903373602925"><ele>57.4</ele><time>2026-04-12T14:41:20Z</time></trkpt><trkpt lat="45.78135663993481" lon="12.259064504562335"><ele>58.0</ele><time>2026-04-12T14:41:21Z</time></trkpt><trkpt lat="45.7812526216294" lon="12.259097271996886"><ele>58.0</ele><time>2026-04-12T14:41:22Z</time></trkpt><trkpt lat="45.781141008313575" lon="12.259128609547375"><ele>58.0</ele><time>2026-04-12T14:41:23Z</time></trkpt><trkpt lat="45.78103836858078" lon="12.259157634308758"><ele>58.0</ele><time>2026-04-12T14:41:24Z</time></trkpt><trkpt lat="45.78093802495371" lon="12.25919602698335"><ele>58.0</ele><time>2026-04-12T14:41:25Z</time></trkpt><trkpt lat="45.78084712400078" lon="12.259226505452869"><ele>58.0</ele><time>2026-04-12T14:41:26Z</time></trkpt><trkpt lat="45.78076209016282" lon="12.259256728200928"><ele>57.599999999999994</ele><time>2026-04-12T14:41:27Z</time></trkpt><trkpt lat="45.780664749175976" lon="12.259287479420497"><ele>57.199999999999996</ele><time>2026-04-12T14:41:28Z</time></trkpt><trkpt lat="45.780551458343695" lon="12.259318070382596"><ele>56.8</ele><time>2026-04-12T14:41:29Z</time></trkpt><trkpt lat="45.780437940331076" lon="12.259355784946784"><ele>56.4</ele><time>2026-04-12T14:41:30Z</time></trkpt><trkpt lat="45.78034136597051" lon="12.25938843629102"><ele>56.0</ele><time>2026-04-12T14:41:31Z</time></trkpt><trkpt lat="45.780258751744164" lon="12.259399490767818"><ele>56.0</ele><time>2026-04-12T14:41:32Z</time></trkpt><trkpt lat="45.7801936352264" lon="12.259420811345034"><ele>56.0</ele><time>2026-04-12T14:41:33Z</time></trkpt><trkpt lat="45.7802114580829" lon="12.259736338219478"><ele>56.0</ele><time>2026-04-12T14:41:36Z</time></trkpt><trkpt lat="45.7802634271673" lon="12.259819048154537"><ele>56.0</ele><time>2026-04-12T14:41:37Z</time></trkpt><trkpt lat="45.78017513553464" lon="12.259998800556257"><ele>56.66666666666667</ele><time>2026-04-12T14:41:39Z</time></trkpt><trkpt lat="45.780087934879965" lon="12.260072439103483"><ele>57.33333333333333</ele><time>2026-04-12T14:41:40Z</time></trkpt><trkpt lat="45.779954096841905" lon="12.260182256538343"><ele>58.0</ele><time>2026-04-12T14:41:41Z</time></trkpt><trkpt lat="45.77978562423881" lon="12.260331843145128"><ele>58.0</ele><time>2026-04-12T14:41:42Z</time></trkpt><trkpt lat="45.779642210402876" lon="12.260448551357511"><ele>58.0</ele><time>2026-04-12T14:41:43Z</time></trkpt><trkpt lat="45.779519048036406" lon="12.260562343972609"><ele>58.0</ele><time>2026-04-12T14:41:44Z</time></trkpt><trkpt lat="45.77941001233094" lon="12.260670380391929"><ele>58.0</ele><time>2026-04-12T14:41:45Z</time></trkpt><trkpt lat="45.77932009227338" lon="12.260777113112022"><ele>57.599999999999994</ele><time>2026-04-12T14:41:46Z</time></trkpt><trkpt lat="45.77923551518343" lon="12.260881990848961"><ele>57.199999999999996</ele><time>2026-04-12T14:41:47Z</time></trkpt><trkpt lat="45.77916090676483" lon="12.260971159038192"><ele>56.8</ele><time>2026-04-12T14:41:48Z</time></trkpt><trkpt lat="45.77909267283177" lon="12.261050459722751"><ele>56.4</ele><time>2026-04-12T14:41:49Z</time></trkpt><trkpt lat="45.77903669451655" lon="12.261118812949215"><ele>56.0</ele><time>2026-04-12T14:41:50Z</time></trkpt><trkpt lat="45.77895262726174" lon="12.261215757580974"><ele>56.00000000000001</ele><time>2026-04-12T14:41:52Z</time></trkpt><trkpt lat="45.778878827834795" lon="12.261298260199942"><ele>56.0</ele><time>2026-04-12T14:41:54Z</time></trkpt><trkpt lat="45.77881533238412" lon="12.26137388537933"><ele>56.0</ele><time>2026-04-12T14:41:56Z</time></trkpt><trkpt lat="45.77875122141249" lon="12.261443645239487"><ele>56.0</ele><time>2026-04-12T14:42:02Z</time></trkpt><trkpt lat="45.7786806824551" lon="12.261453275439399"><ele>56.00000000000001</ele><time>2026-04-12T14:42:05Z</time></trkpt><trkpt lat="45.778600163657714" lon="12.261519559611596"><ele>56.0</ele><time>2026-04-12T14:42:07Z</time></trkpt><trkpt lat="45.77860935784086" lon="12.261700683908582"><ele>56.00000000000001</ele><time>2026-04-12T14:42:08Z</time></trkpt><trkpt lat="45.77862530906657" lon="12.261839560150067"><ele>56.0</ele><time>2026-04-12T14:42:09Z</time></trkpt><trkpt lat="45.778637511674894" lon="12.261952769917325"><ele>56.0</ele><time>2026-04-12T14:42:10Z</time></trkpt><trkpt lat="45.778647792047195" lon="12.262059000015912"><ele>56.0</ele><time>2026-04-12T14:42:11Z</time></trkpt><trkpt lat="45.77865708238438" lon="12.262155221974794"><ele>56.00000000000001</ele><time>2026-04-12T14:42:12Z</time></trkpt><trkpt lat="45.77866638251844" lon="12.26224828495177"><ele>56.0</ele><time>2026-04-12T14:42:13Z</time></trkpt><trkpt lat="45.77868475762772" lon="12.262439049464946"><ele>56.0</ele><time>2026-04-12T14:42:15Z</time></trkpt><trkpt lat="45.77869989967054" lon="12.262543801931386"><ele>56.0</ele><time>2026-04-12T14:42:16Z</time></trkpt><trkpt lat="45.77870962323003" lon="12.26263850832453"><ele>56.0</ele><time>2026-04-12T14:42:17Z</time></trkpt><trkpt lat="45.77871956230241" lon="12.262731856001846"><ele>56.0</ele><time>2026-04-12T14:42:18Z</time></trkpt><trkpt lat="45.77873424985285" lon="12.262841317844495"><ele>56.0</ele><time>2026-04-12T14:42:19Z</time></trkpt><trkpt lat="45.77874669222682" lon="12.262958328814037"><ele>56.0</ele><time>2026-04-12T14:42:20Z</time></trkpt><trkpt lat="45.77875796842027" lon="12.263072820326999"><ele>56.0</ele><time>2026-04-12T14:42:21Z</time></trkpt><trkpt lat="45.778752832068385" lon="12.263171085356841"><ele>55.833333333333336</ele><time>2026-04-12T14:42:22Z</time></trkpt><trkpt lat="45.77874645551296" lon="12.263265110149211"><ele>55.66666666666667</ele><time>2026-04-12T14:42:23Z</time></trkpt><trkpt lat="45.778730643698616" lon="12.263353517441434"><ele>55.5</ele><time>2026-04-12T14:42:24Z</time></trkpt><trkpt lat="45.7786665026068" lon="12.263518695754748"><ele>55.33333333333333</ele><time>2026-04-12T14:42:26Z</time></trkpt><trkpt lat="45.77861010825109" lon="12.263590184455488"><ele>55.166666666666664</ele><time>2026-04-12T14:42:27Z</time></trkpt><trkpt lat="45.77854792973605" lon="12.263654167599674"><ele>55.0</ele><time>2026-04-12T14:42:28Z</time></trkpt><trkpt lat="45.778488317008936" lon="12.263727612292564"><ele>54.83333333333333</ele><time>2026-04-12T14:42:29Z</time></trkpt><trkpt lat="45.778425372971135" lon="12.263803808654794"><ele>54.666666666666664</ele><time>2026-04-12T14:42:30Z</time></trkpt><trkpt lat="45.778364338842636" lon="12.263887766761703"><ele>54.5</ele><time>2026-04-12T14:42:31Z</time></trkpt><trkpt lat="45.77831117492052" lon="12.263980425654395"><ele>54.33333333333333</ele><time>2026-04-12T14:42:32Z</time></trkpt><trkpt lat="45.77827046436839" lon="12.264074692565396"><ele>54.166666666666664</ele><time>2026-04-12T14:42:33Z</time></trkpt><trkpt lat="45.778230679451205" lon="12.26417912483545"><ele>54.0</ele><time>2026-04-12T14:42:34Z</time></trkpt><trkpt lat="45.778193248538486" lon="12.264283874332316"><ele>54.0</ele><time>2026-04-12T14:42:35Z</time></trkpt><trkpt lat="45.778162292660525" lon="12.264387275123717"><ele>54.0</ele><time>2026-04-12T14:42:36Z</time></trkpt><trkpt lat="45.778126965949234" lon="12.264496495814578"><ele>54.0</ele><time>2026-04-12T14:42:37Z</time></trkpt><trkpt lat="45.77809031096133" lon="12.264612662443946"><ele>54.0</ele><time>2026-04-12T14:42:38Z</time></trkpt><trkpt lat="45.778050890238795" lon="12.264737461153524"><ele>54.0</ele><time>2026-04-12T14:42:39Z</time></trkpt><trkpt lat="45.778009418032276" lon="12.264848369753572"><ele>54.0</ele><time>2026-04-12T14:42:40Z</time></trkpt><trkpt lat="45.77796574193002" lon="12.264951563797522"><ele>54.0</ele><time>2026-04-12T14:42:41Z</time></trkpt><trkpt lat="45.777909975349914" lon="12.265055151556219"><ele>54.00000000000001</ele><time>2026-04-12T14:42:42Z</time></trkpt><trkpt lat="45.77784612444637" lon="12.265165267431179"><ele>54.00000000000001</ele><time>2026-04-12T14:42:43Z</time></trkpt><trkpt lat="45.77778140591638" lon="12.265274169083314"><ele>54.0</ele><time>2026-04-12T14:42:44Z</time></trkpt><trkpt lat="45.777724019078185" lon="12.26536850107523"><ele>54.0</ele><time>2026-04-12T14:42:45Z</time></trkpt><trkpt lat="45.77766399267542" lon="12.26547115923498"><ele>54.0</ele><time>2026-04-12T14:42:46Z</time></trkpt><trkpt lat="45.777608897082" lon="12.265567687004625"><ele>54.00000000000001</ele><time>2026-04-12T14:42:47Z</time></trkpt><trkpt lat="45.777563393586505" lon="12.265644383793846"><ele>54.00000000000001</ele><time>2026-04-12T14:42:48Z</time></trkpt><trkpt lat="45.777526695523335" lon="12.265720829816233"><ele>54.0</ele><time>2026-04-12T14:42:49Z</time></trkpt><trkpt lat="45.777448543708495" lon="12.265853155270797"><ele>54.0</ele><time>2026-04-12T14:42:51Z</time></trkpt><trkpt lat="45.77737253924814" lon="12.26600878581042"><ele>54.0</ele><time>2026-04-12T14:42:53Z</time></trkpt><trkpt lat="45.77732858096139" lon="12.266103238195921"><ele>54.00000000000001</ele><time>2026-04-12T14:42:54Z</time></trkpt><trkpt lat="45.77728552341778" lon="12.266207190158054"><ele>54.00000000000001</ele><time>2026-04-12T14:42:55Z</time></trkpt><trkpt lat="45.777249950384814" lon="12.266322913583936"><ele>54.0</ele><time>2026-04-12T14:42:56Z</time></trkpt><trkpt lat="45.77722027134949" lon="12.266450503637904"><ele>54.0</ele><time>2026-04-12T14:42:57Z</time></trkpt><trkpt lat="45.777190059446184" lon="12.26659321719166"><ele>53.800000000000004</ele><time>2026-04-12T14:42:58Z</time></trkpt><trkpt lat="45.77715645614869" lon="12.266721275790479"><ele>53.60000000000001</ele><time>2026-04-12T14:42:59Z</time></trkpt><trkpt lat="45.77712716877152" lon="12.266855858317378"><ele>53.4</ele><time>2026-04-12T14:43:00Z</time></trkpt><trkpt lat="45.77711345987512" lon="12.266983412702382"><ele>53.2</ele><time>2026-04-12T14:43:01Z</time></trkpt><trkpt lat="45.777139366485464" lon="12.267107952825421"><ele>53.0</ele><time>2026-04-12T14:43:02Z</time></trkpt><trkpt lat="45.777143309978975" lon="12.267219674405428"><ele>52.599999999999994</ele><time>2026-04-12T14:43:03Z</time></trkpt><trkpt lat="45.7771665385576" lon="12.2673180094666"><ele>52.199999999999996</ele><time>2026-04-12T14:43:04Z</time></trkpt><trkpt lat="45.77718276749325" lon="12.267447497221912"><ele>51.8</ele><time>2026-04-12T14:43:06Z</time></trkpt><trkpt lat="45.77720345909776" lon="12.267604955676639"><ele>51.4</ele><time>2026-04-12T14:43:08Z</time></trkpt><trkpt lat="45.77720477548638" lon="12.267711875901549"><ele>51.0</ele><time>2026-04-12T14:43:09Z</time></trkpt><trkpt lat="45.77705334142703" lon="12.2678037957971"><ele>51.0</ele><time>2026-04-12T14:43:10Z</time></trkpt><trkpt lat="45.77695569928994" lon="12.267853586589855"><ele>51.0</ele><time>2026-04-12T14:43:11Z</time></trkpt><trkpt lat="45.77686697705364" lon="12.267868953224674"><ele>51.0</ele><time>2026-04-12T14:43:12Z</time></trkpt><trkpt lat="45.776783102724984" lon="12.267875901702178"><ele>51.0</ele><time>2026-04-12T14:43:13Z</time></trkpt><trkpt lat="45.776688899099916" lon="12.267890838682922"><ele>51.0</ele><time>2026-04-12T14:43:14Z</time></trkpt><trkpt lat="45.77658360683135" lon="12.267907070611747"><ele>51.5</ele><time>2026-04-12T14:43:15Z</time></trkpt><trkpt lat="45.77647171557852" lon="12.267922933763042"><ele>52.0</ele><time>2026-04-12T14:43:16Z</time></trkpt><trkpt lat="45.77635867729104" lon="12.267939152266875"><ele>52.5</ele><time>2026-04-12T14:43:17Z</time></trkpt><trkpt lat="45.77623524509569" lon="12.267955362501507"><ele>53.0</ele><time>2026-04-12T14:43:18Z</time></trkpt><trkpt lat="45.776114367882066" lon="12.26797183503153"><ele>52.75</ele><time>2026-04-12T14:43:19Z</time></trkpt><trkpt lat="45.77597931422593" lon="12.267991229509121"><ele>52.5</ele><time>2026-04-12T14:43:20Z</time></trkpt><trkpt lat="45.7758340754938" lon="12.268012584244646"><ele>52.25</ele><time>2026-04-12T14:43:21Z</time></trkpt><trkpt lat="45.77568028443894" lon="12.268035675850697"><ele>52.0</ele><time>2026-04-12T14:43:22Z</time></trkpt><trkpt lat="45.77551951339288" lon="12.268059436432216"><ele>52.0</ele><time>2026-04-12T14:43:23Z</time></trkpt><trkpt lat="45.775375506827" lon="12.268079998367202"><ele>52.0</ele><time>2026-04-12T14:43:24Z</time></trkpt><trkpt lat="45.7752269244761" lon="12.268104395356897"><ele>52.0</ele><time>2026-04-12T14:43:25Z</time></trkpt><trkpt lat="45.77506372322629" lon="12.268148954182422"><ele>51.33333333333333</ele><time>2026-04-12T14:43:26Z</time></trkpt><trkpt lat="45.774918426309824" lon="12.268226043591438"><ele>50.66666666666667</ele><time>2026-04-12T14:43:27Z</time></trkpt><trkpt lat="45.77479557767354" lon="12.268331479917398"><ele>50.0</ele><time>2026-04-12T14:43:28Z</time></trkpt><trkpt lat="45.77466947030523" lon="12.268476112421915"><ele>50.0</ele><time>2026-04-12T14:43:29Z</time></trkpt><trkpt lat="45.77454772503574" lon="12.268645108572722"><ele>50.0</ele><time>2026-04-12T14:43:30Z</time></trkpt><trkpt lat="45.77442409066418" lon="12.268807767511998"><ele>50.0</ele><time>2026-04-12T14:43:31Z</time></trkpt><trkpt lat="45.774311498206146" lon="12.268977752562588"><ele>50.0</ele><time>2026-04-12T14:43:32Z</time></trkpt><trkpt lat="45.77420406136787" lon="12.269129554225465"><ele>50.0</ele><time>2026-04-12T14:43:33Z</time></trkpt><trkpt lat="45.774090477563455" lon="12.269288907408601"><ele>50.0</ele><time>2026-04-12T14:43:34Z</time></trkpt><trkpt lat="45.77397510465122" lon="12.269453203733725"><ele>50.0</ele><time>2026-04-12T14:43:35Z</time></trkpt><trkpt lat="45.773858763796326" lon="12.269622531958664"><ele>50.0</ele><time>2026-04-12T14:43:36Z</time></trkpt><trkpt lat="45.77373993997401" lon="12.269785947160608"><ele>50.0</ele><time>2026-04-12T14:43:37Z</time></trkpt><trkpt lat="45.77362082315097" lon="12.269952733261015"><ele>49.66666666666667</ele><time>2026-04-12T14:43:38Z</time></trkpt><trkpt lat="45.773499089589606" lon="12.270120140827984"><ele>49.33333333333333</ele><time>2026-04-12T14:43:39Z</time></trkpt><trkpt lat="45.77337812955667" lon="12.270289558361828"><ele>49.0</ele><time>2026-04-12T14:43:40Z</time></trkpt><trkpt lat="45.77325806172997" lon="12.270458983163236"><ele>49.33333333333333</ele><time>2026-04-12T14:43:41Z</time></trkpt><trkpt lat="45.773139909532" lon="12.270627880817115"><ele>49.66666666666667</ele><time>2026-04-12T14:43:42Z</time></trkpt><trkpt lat="45.77302823580123" lon="12.270778929631833"><ele>50.0</ele><time>2026-04-12T14:43:43Z</time></trkpt><trkpt lat="45.77292888849082" lon="12.270921290932828"><ele>50.0</ele><time>2026-04-12T14:43:44Z</time></trkpt><trkpt lat="45.77283193404838" lon="12.271059175735534"><ele>50.0</ele><time>2026-04-12T14:43:45Z</time></trkpt><trkpt lat="45.772741067884226" lon="12.271185587950775"><ele>50.0</ele><time>2026-04-12T14:43:46Z</time></trkpt><trkpt lat="45.77266398016008" lon="12.271287618032495"><ele>50.0</ele><time>2026-04-12T14:43:47Z</time></trkpt><trkpt lat="45.77261512554897" lon="12.271360421751767"><ele>50.0</ele><time>2026-04-12T14:43:48Z</time></trkpt><trkpt lat="45.77256721591456" lon="12.271422039671972"><ele>49.4</ele><time>2026-04-12T14:43:50Z</time></trkpt><trkpt lat="45.772490034746376" lon="12.271519064225869"><ele>48.8</ele><time>2026-04-12T14:44:02Z</time></trkpt><trkpt lat="45.772432908870464" lon="12.27159454814634"><ele>48.2</ele><time>2026-04-12T14:44:03Z</time></trkpt><trkpt lat="45.77243687924793" lon="12.271776475267327"><ele>47.6</ele><time>2026-04-12T14:44:04Z</time></trkpt><trkpt lat="45.772443441108074" lon="12.271977736119517"><ele>47.0</ele><time>2026-04-12T14:44:05Z</time></trkpt><trkpt lat="45.77245792413237" lon="12.272155050991937"><ele>47.0</ele><time>2026-04-12T14:44:06Z</time></trkpt><trkpt lat="45.772474521514276" lon="12.27234305052211"><ele>47.0</ele><time>2026-04-12T14:44:07Z</time></trkpt><trkpt lat="45.77249002414826" lon="12.27255969931514"><ele>47.0</ele><time>2026-04-12T14:44:08Z</time></trkpt><trkpt lat="45.772505890333036" lon="12.272757999480966"><ele>47.0</ele><time>2026-04-12T14:44:09Z</time></trkpt><trkpt lat="45.77251727954383" lon="12.272959374828343"><ele>46.666666666666664</ele><time>2026-04-12T14:44:10Z</time></trkpt><trkpt lat="45.77252840108999" lon="12.273179201365172"><ele>46.333333333333336</ele><time>2026-04-12T14:44:11Z</time></trkpt><trkpt lat="45.772542073528186" lon="12.273402964171845"><ele>46.0</ele><time>2026-04-12T14:44:12Z</time></trkpt><trkpt lat="45.77255698384135" lon="12.273642918578645"><ele>46.0</ele><time>2026-04-12T14:44:13Z</time></trkpt><trkpt lat="45.7725766110678" lon="12.273887958868459"><ele>46.0</ele><time>2026-04-12T14:44:14Z</time></trkpt><trkpt lat="45.77258664134188" lon="12.274161513521602"><ele>46.0</ele><time>2026-04-12T14:44:15Z</time></trkpt><trkpt lat="45.772603201682095" lon="12.274445182536162"><ele>46.0</ele><time>2026-04-12T14:44:16Z</time></trkpt><trkpt lat="45.772618063436234" lon="12.274717050511997"><ele>46.0</ele><time>2026-04-12T14:44:17Z</time></trkpt><trkpt lat="45.77262149260537" lon="12.274976968047996"><ele>46.0</ele><time>2026-04-12T14:44:18Z</time></trkpt><trkpt lat="45.772612725307205" lon="12.27526041326954"><ele>46.333333333333336</ele><time>2026-04-12T14:44:19Z</time></trkpt><trkpt lat="45.772587351680436" lon="12.275535810195054"><ele>46.666666666666664</ele><time>2026-04-12T14:44:20Z</time></trkpt><trkpt lat="45.7725529252784" lon="12.27580457132673"><ele>47.0</ele><time>2026-04-12T14:44:21Z</time></trkpt><trkpt lat="45.77251443738258" lon="12.27608224661692"><ele>47.0</ele><time>2026-04-12T14:44:22Z</time></trkpt><trkpt lat="45.77246288490963" lon="12.276349852156429"><ele>47.0</ele><time>2026-04-12T14:44:23Z</time></trkpt><trkpt lat="45.772399189850354" lon="12.276614075453168"><ele>47.0</ele><time>2026-04-12T14:44:24Z</time></trkpt><trkpt lat="45.772324418031296" lon="12.27687443604937"><ele>46.666666666666664</ele><time>2026-04-12T14:44:25Z</time></trkpt><trkpt lat="45.772244252323496" lon="12.2771355013645"><ele>46.333333333333336</ele><time>2026-04-12T14:44:26Z</time></trkpt><trkpt lat="45.77216370407159" lon="12.277398716354734"><ele>46.0</ele><time>2026-04-12T14:44:27Z</time></trkpt><trkpt lat="45.77208568601144" lon="12.277664993230903"><ele>46.0</ele><time>2026-04-12T14:44:28Z</time></trkpt><trkpt lat="45.77200919336563" lon="12.277930734002402"><ele>46.0</ele><time>2026-04-12T14:44:29Z</time></trkpt><trkpt lat="45.77193197901334" lon="12.278197327240402"><ele>46.0</ele><time>2026-04-12T14:44:30Z</time></trkpt><trkpt lat="45.77185729608197" lon="12.278451950460259"><ele>46.333333333333336</ele><time>2026-04-12T14:44:31Z</time></trkpt><trkpt lat="45.77178979621917" lon="12.278689734673137"><ele>46.666666666666664</ele><time>2026-04-12T14:44:32Z</time></trkpt><trkpt lat="45.771717938616845" lon="12.278931964906286"><ele>47.0</ele><time>2026-04-12T14:44:33Z</time></trkpt><trkpt lat="45.771646457013354" lon="12.279184482354724"><ele>47.0</ele><time>2026-04-12T14:44:34Z</time></trkpt><trkpt lat="45.771571252711865" lon="12.279437550893004"><ele>47.0</ele><time>2026-04-12T14:44:35Z</time></trkpt><trkpt lat="45.77150305255464" lon="12.279671764636946"><ele>47.0</ele><time>2026-04-12T14:44:36Z</time></trkpt><trkpt lat="45.77144007131567" lon="12.279892607930718"><ele>46.666666666666664</ele><time>2026-04-12T14:44:37Z</time></trkpt><trkpt lat="45.771380934847826" lon="12.280100338107216"><ele>46.333333333333336</ele><time>2026-04-12T14:44:38Z</time></trkpt><trkpt lat="45.77132088184006" lon="12.28030595986616"><ele>46.0</ele><time>2026-04-12T14:44:39Z</time></trkpt><trkpt lat="45.771256595181406" lon="12.28052797974432"><ele>45.333333333333336</ele><time>2026-04-12T14:44:40Z</time></trkpt><trkpt lat="45.77119583074584" lon="12.28074072886659"><ele>44.666666666666664</ele><time>2026-04-12T14:44:41Z</time></trkpt><trkpt lat="45.771137258782275" lon="12.280921850294051"><ele>44.0</ele><time>2026-04-12T14:44:42Z</time></trkpt><trkpt lat="45.77107233175178" lon="12.281128853502434"><ele>44.33333333333333</ele><time>2026-04-12T14:44:43Z</time></trkpt><trkpt lat="45.770999108689544" lon="12.281357452386102"><ele>44.666666666666664</ele><time>2026-04-12T14:44:44Z</time></trkpt><trkpt lat="45.770892586585994" lon="12.28158675395268"><ele>45.0</ele><time>2026-04-12T14:44:45Z</time></trkpt><trkpt lat="45.77075726461424" lon="12.2818057624126"><ele>45.333333333333336</ele><time>2026-04-12T14:44:46Z</time></trkpt><trkpt lat="45.770610946274566" lon="12.282012248735164"><ele>45.66666666666667</ele><time>2026-04-12T14:44:47Z</time></trkpt><trkpt lat="45.770491233805174" lon="12.282209542186036"><ele>46.0</ele><time>2026-04-12T14:44:48Z</time></trkpt><trkpt lat="45.770393132223525" lon="12.282426829797036"><ele>46.0</ele><time>2026-04-12T14:44:49Z</time></trkpt><trkpt lat="45.77030625314007" lon="12.282653552142236"><ele>46.0</ele><time>2026-04-12T14:44:50Z</time></trkpt><trkpt lat="45.770242485023495" lon="12.282890953207298"><ele>46.0</ele><time>2026-04-12T14:44:51Z</time></trkpt><trkpt lat="45.77019057170995" lon="12.283111608065052"><ele>46.333333333333336</ele><time>2026-04-12T14:44:52Z</time></trkpt><trkpt lat="45.77013987161817" lon="12.28332519516251"><ele>46.666666666666664</ele><time>2026-04-12T14:44:53Z</time></trkpt><trkpt lat="45.77008106261109" lon="12.283545477051009"><ele>47.0</ele><time>2026-04-12T14:44:54Z</time></trkpt><trkpt lat="45.77002199107523" lon="12.283756915920508"><ele>46.666666666666664</ele><time>2026-04-12T14:44:55Z</time></trkpt><trkpt lat="45.76996254182901" lon="12.283977335504403"><ele>46.333333333333336</ele><time>2026-04-12T14:44:56Z</time></trkpt><trkpt lat="45.769906179964266" lon="12.284193276844507"><ele>46.0</ele><time>2026-04-12T14:44:57Z</time></trkpt><trkpt lat="45.7698475147111" lon="12.284416576243016"><ele>46.0</ele><time>2026-04-12T14:44:58Z</time></trkpt><trkpt lat="45.76978826739791" lon="12.284642837406693"><ele>46.0</ele><time>2026-04-12T14:44:59Z</time></trkpt><trkpt lat="45.769726181323975" lon="12.28487771280423"><ele>46.0</ele><time>2026-04-12T14:45:00Z</time></trkpt><trkpt lat="45.76966377347038" lon="12.285117417251314"><ele>46.0</ele><time>2026-04-12T14:45:01Z</time></trkpt><trkpt lat="45.76960452303749" lon="12.285347353411096"><ele>46.0</ele><time>2026-04-12T14:45:02Z</time></trkpt><trkpt lat="45.769545733560136" lon="12.285566741863589"><ele>46.0</ele><time>2026-04-12T14:45:03Z</time></trkpt><trkpt lat="45.7694886044074" lon="12.28577859885604"><ele>45.66666666666667</ele><time>2026-04-12T14:45:04Z</time></trkpt><trkpt lat="45.769427894534914" lon="12.286004600268932"><ele>45.333333333333336</ele><time>2026-04-12T14:45:05Z</time></trkpt><trkpt lat="45.769368953268135" lon="12.286239486186"><ele>45.0</ele><time>2026-04-12T14:45:06Z</time></trkpt><trkpt lat="45.76931052136681" lon="12.286480857342262"><ele>44.666666666666664</ele><time>2026-04-12T14:45:07Z</time></trkpt><trkpt lat="45.76925559283968" lon="12.28671854630336"><ele>44.33333333333333</ele><time>2026-04-12T14:45:08Z</time></trkpt><trkpt lat="45.769211697785146" lon="12.286948937721284"><ele>44.0</ele><time>2026-04-12T14:45:09Z</time></trkpt><trkpt lat="45.76918013195272" lon="12.287192156199305"><ele>44.0</ele><time>2026-04-12T14:45:10Z</time></trkpt><trkpt lat="45.769159948690074" lon="12.287447319279297"><ele>44.0</ele><time>2026-04-12T14:45:11Z</time></trkpt><trkpt lat="45.76914648884786" lon="12.287700062688442"><ele>44.0</ele><time>2026-04-12T14:45:12Z</time></trkpt><trkpt lat="45.7691250010641" lon="12.287933187670914"><ele>44.0</ele><time>2026-04-12T14:45:13Z</time></trkpt><trkpt lat="45.76908414279611" lon="12.28815200657204"><ele>44.0</ele><time>2026-04-12T14:45:14Z</time></trkpt><trkpt lat="45.76901609716734" lon="12.288369040367602"><ele>44.0</ele><time>2026-04-12T14:45:15Z</time></trkpt><trkpt lat="45.76892519951148" lon="12.288578422966678"><ele>44.0</ele><time>2026-04-12T14:45:16Z</time></trkpt><trkpt lat="45.768822755653645" lon="12.288780378750753"><ele>44.0</ele><time>2026-04-12T14:45:17Z</time></trkpt><trkpt lat="45.76872381681642" lon="12.288969796317849"><ele>44.0</ele><time>2026-04-12T14:45:18Z</time></trkpt><trkpt lat="45.76863720451189" lon="12.289150569020348"><ele>44.0</ele><time>2026-04-12T14:45:19Z</time></trkpt><trkpt lat="45.768541644999026" lon="12.28934331627361"><ele>44.0</ele><time>2026-04-12T14:45:20Z</time></trkpt><trkpt lat="45.768425816314604" lon="12.289541543312508"><ele>44.0</ele><time>2026-04-12T14:45:21Z</time></trkpt><trkpt lat="45.76830070170336" lon="12.289761515681478"><ele>43.33333333333333</ele><time>2026-04-12T14:45:22Z</time></trkpt><trkpt lat="45.76817521737378" lon="12.290001939684693"><ele>42.666666666666664</ele><time>2026-04-12T14:45:23Z</time></trkpt><trkpt lat="45.76806253466434" lon="12.290249869433952"><ele>42.0</ele><time>2026-04-12T14:45:24Z</time></trkpt><trkpt lat="45.76796684060813" lon="12.290504626580594"><ele>42.0</ele><time>2026-04-12T14:45:25Z</time></trkpt><trkpt lat="45.767882337170725" lon="12.290766653306692"><ele>42.0</ele><time>2026-04-12T14:45:26Z</time></trkpt><trkpt lat="45.76780591910513" lon="12.291037285949304"><ele>42.0</ele><time>2026-04-12T14:45:27Z</time></trkpt><trkpt lat="45.767734110489215" lon="12.291310849796329"><ele>42.0</ele><time>2026-04-12T14:45:28Z</time></trkpt><trkpt lat="45.76766643553086" lon="12.291591285517748"><ele>42.0</ele><time>2026-04-12T14:45:29Z</time></trkpt><trkpt lat="45.76760319500496" lon="12.29187380719459"><ele>42.0</ele><time>2026-04-12T14:45:30Z</time></trkpt><trkpt lat="45.76753445264875" lon="12.292156368377563"><ele>42.0</ele><time>2026-04-12T14:45:31Z</time></trkpt><trkpt lat="45.767462186200554" lon="12.292440364959534"><ele>42.0</ele><time>2026-04-12T14:45:32Z</time></trkpt><trkpt lat="45.76739185899101" lon="12.292719363706441"><ele>42.0</ele><time>2026-04-12T14:45:33Z</time></trkpt><trkpt lat="45.767316919927424" lon="12.29300183708437"><ele>41.666666666666664</ele><time>2026-04-12T14:45:34Z</time></trkpt><trkpt lat="45.76724871871085" lon="12.29327910131071"><ele>41.33333333333333</ele><time>2026-04-12T14:45:35Z</time></trkpt><trkpt lat="45.76718460943152" lon="12.29353747808017"><ele>41.0</ele><time>2026-04-12T14:45:36Z</time></trkpt><trkpt lat="45.7671163157304" lon="12.293779474278317"><ele>41.33333333333333</ele><time>2026-04-12T14:45:37Z</time></trkpt><trkpt lat="45.76701523546338" lon="12.294001080813526"><ele>41.666666666666664</ele><time>2026-04-12T14:45:38Z</time></trkpt><trkpt lat="45.76688940785311" lon="12.294226147435065"><ele>42.0</ele><time>2026-04-12T14:45:39Z</time></trkpt><trkpt lat="45.76673817037652" lon="12.294434980682789"><ele>41.0</ele><time>2026-04-12T14:45:40Z</time></trkpt><trkpt lat="45.766582697052" lon="12.294650094658259"><ele>40.0</ele><time>2026-04-12T14:45:41Z</time></trkpt><trkpt lat="45.76642100080607" lon="12.294848334592153"><ele>39.0</ele><time>2026-04-12T14:45:42Z</time></trkpt><trkpt lat="45.766267818379234" lon="12.29506166746252"><ele>39.0</ele><time>2026-04-12T14:45:43Z</time></trkpt><trkpt lat="45.766141668241765" lon="12.295302007088774"><ele>39.0</ele><time>2026-04-12T14:45:44Z</time></trkpt><trkpt lat="45.76604115070943" lon="12.295575598451574"><ele>39.0</ele><time>2026-04-12T14:45:45Z</time></trkpt><trkpt lat="45.76596074373171" lon="12.295876347309317"><ele>40.0</ele><time>2026-04-12T14:45:46Z</time></trkpt><trkpt lat="45.765886142266304" lon="12.296195119623944"><ele>41.0</ele><time>2026-04-12T14:45:47Z</time></trkpt><trkpt lat="45.76581228860364" lon="12.296514165268945"><ele>41.0</ele><time>2026-04-12T14:45:48Z</time></trkpt><trkpt lat="45.76573358272194" lon="12.296831178158488"><ele>41.0</ele><time>2026-04-12T14:45:49Z</time></trkpt><trkpt lat="45.76565062168809" lon="12.297148138949183"><ele>40.0</ele><time>2026-04-12T14:45:50Z</time></trkpt><trkpt lat="45.765568950856846" lon="12.297466632323603"><ele>39.0</ele><time>2026-04-12T14:45:51Z</time></trkpt><trkpt lat="45.76548793553118" lon="12.297786118550468"><ele>38.666666666666664</ele><time>2026-04-12T14:45:52Z</time></trkpt><trkpt lat="45.76541306374711" lon="12.298098562059847"><ele>38.33333333333333</ele><time>2026-04-12T14:45:53Z</time></trkpt><trkpt lat="45.765341069456575" lon="12.29839161734162"><ele>38.0</ele><time>2026-04-12T14:45:54Z</time></trkpt><trkpt lat="45.76526604007588" lon="12.298663603621096"><ele>37.666666666666664</ele><time>2026-04-12T14:45:55Z</time></trkpt><trkpt lat="45.76519233309845" lon="12.298934624741332"><ele>37.333333333333336</ele><time>2026-04-12T14:45:56Z</time></trkpt><trkpt lat="45.76510180754988" lon="12.299188510611508"><ele>37.0</ele><time>2026-04-12T14:45:57Z</time></trkpt><trkpt lat="45.764960767879536" lon="12.299400733458818"><ele>37.0</ele><time>2026-04-12T14:45:58Z</time></trkpt><trkpt lat="45.76480935494567" lon="12.299599932585105"><ele>37.0</ele><time>2026-04-12T14:45:59Z</time></trkpt><trkpt lat="45.76464873926466" lon="12.29979521929921"><ele>37.0</ele><time>2026-04-12T14:46:00Z</time></trkpt><trkpt lat="45.76445539897776" lon="12.29994285365528"><ele>37.66666666666667</ele><time>2026-04-12T14:46:01Z</time></trkpt><trkpt lat="45.76425919165358" lon="12.300081471689303"><ele>38.333333333333336</ele><time>2026-04-12T14:46:02Z</time></trkpt><trkpt lat="45.76409016955299" lon="12.30024463643911"><ele>39.0</ele><time>2026-04-12T14:46:03Z</time></trkpt><trkpt lat="45.76394383456682" lon="12.300457545609456"><ele>40.0</ele><time>2026-04-12T14:46:04Z</time></trkpt><trkpt lat="45.763819155149164" lon="12.300743772913332"><ele>41.0</ele><time>2026-04-12T14:46:05Z</time></trkpt><trkpt lat="45.76369825181603" lon="12.301064278426718"><ele>41.0</ele><time>2026-04-12T14:46:06Z</time></trkpt><trkpt lat="45.76357011133302" lon="12.301369192928671"><ele>41.0</ele><time>2026-04-12T14:46:07Z</time></trkpt><trkpt lat="45.763439079848126" lon="12.301664860526229"><ele>40.0</ele><time>2026-04-12T14:46:08Z</time></trkpt><trkpt lat="45.76331349598177" lon="12.301955301216283"><ele>39.0</ele><time>2026-04-12T14:46:09Z</time></trkpt><trkpt lat="45.763189942875215" lon="12.302251071639006"><ele>39.0</ele><time>2026-04-12T14:46:10Z</time></trkpt><trkpt lat="45.763065956942185" lon="12.302544166191462"><ele>39.0</ele><time>2026-04-12T14:46:11Z</time></trkpt><trkpt lat="45.76294318735049" lon="12.302834884379772"><ele>39.0</ele><time>2026-04-12T14:46:12Z</time></trkpt><trkpt lat="45.76281948174192" lon="12.303123386287536"><ele>39.0</ele><time>2026-04-12T14:46:13Z</time></trkpt><trkpt lat="45.76269627497075" lon="12.303405970861665"><ele>39.5</ele><time>2026-04-12T14:46:14Z</time></trkpt><trkpt lat="45.762580051615025" lon="12.303689650024214"><ele>40.0</ele><time>2026-04-12T14:46:15Z</time></trkpt><trkpt lat="45.76246248636291" lon="12.30397002247385"><ele>40.0</ele><time>2026-04-12T14:46:16Z</time></trkpt><trkpt lat="45.76234891350051" lon="12.304243846610019"><ele>40.0</ele><time>2026-04-12T14:46:17Z</time></trkpt><trkpt lat="45.7622355969319" lon="12.304518004248486"><ele>40.0</ele><time>2026-04-12T14:46:18Z</time></trkpt><trkpt lat="45.76212141697859" lon="12.304786493002979"><ele>39.333333333333336</ele><time>2026-04-12T14:46:19Z</time></trkpt><trkpt lat="45.762007488037376" lon="12.305052004161244"><ele>38.666666666666664</ele><time>2026-04-12T14:46:20Z</time></trkpt><trkpt lat="45.761892860134715" lon="12.305319031544816"><ele>38.0</ele><time>2026-04-12T14:46:21Z</time></trkpt><trkpt lat="45.76178167178672" lon="12.305583795582958"><ele>38.0</ele><time>2026-04-12T14:46:22Z</time></trkpt><trkpt lat="45.761669310526585" lon="12.305852515043414"><ele>38.0</ele><time>2026-04-12T14:46:23Z</time></trkpt><trkpt lat="45.76155911225407" lon="12.306117996877003"><ele>38.0</ele><time>2026-04-12T14:46:24Z</time></trkpt><trkpt lat="45.761450766187416" lon="12.306379777201375"><ele>38.0</ele><time>2026-04-12T14:46:25Z</time></trkpt><trkpt lat="45.76134048252637" lon="12.306643765077553"><ele>38.0</ele><time>2026-04-12T14:46:26Z</time></trkpt><trkpt lat="45.76122873185086" lon="12.306908899421368"><ele>38.0</ele><time>2026-04-12T14:46:27Z</time></trkpt><trkpt lat="45.76111790601567" lon="12.307171871413013"><ele>37.666666666666664</ele><time>2026-04-12T14:46:28Z</time></trkpt><trkpt lat="45.76100515350652" lon="12.307435879218087"><ele>37.333333333333336</ele><time>2026-04-12T14:46:29Z</time></trkpt><trkpt lat="45.760893715262" lon="12.30769972650642"><ele>37.0</ele><time>2026-04-12T14:46:30Z</time></trkpt><trkpt lat="45.76078350600775" lon="12.307960731940495"><ele>37.0</ele><time>2026-04-12T14:46:31Z</time></trkpt><trkpt lat="45.76067341401996" lon="12.308221856343337"><ele>37.0</ele><time>2026-04-12T14:46:32Z</time></trkpt><trkpt lat="45.760562019553355" lon="12.30848535567472"><ele>37.0</ele><time>2026-04-12T14:46:33Z</time></trkpt><trkpt lat="45.76045320833389" lon="12.308747769214042"><ele>37.333333333333336</ele><time>2026-04-12T14:46:34Z</time></trkpt><trkpt lat="45.760344585969655" lon="12.309008645076947"><ele>37.666666666666664</ele><time>2026-04-12T14:46:35Z</time></trkpt><trkpt lat="45.76023602706198" lon="12.309266728722614"><ele>38.0</ele><time>2026-04-12T14:46:36Z</time></trkpt><trkpt lat="45.76012710208691" lon="12.309526062435094"><ele>37.666666666666664</ele><time>2026-04-12T14:46:37Z</time></trkpt><trkpt lat="45.760017852054354" lon="12.30978416935388"><ele>37.333333333333336</ele><time>2026-04-12T14:46:38Z</time></trkpt><trkpt lat="45.759905914169295" lon="12.310043983594637"><ele>37.0</ele><time>2026-04-12T14:46:39Z</time></trkpt><trkpt lat="45.75979727255238" lon="12.310303344088068"><ele>37.0</ele><time>2026-04-12T14:46:40Z</time></trkpt><trkpt lat="45.7596880638441" lon="12.31056232296514"><ele>37.0</ele><time>2026-04-12T14:46:41Z</time></trkpt><trkpt lat="45.75957795708549" lon="12.310823540145936"><ele>37.0</ele><time>2026-04-12T14:46:42Z</time></trkpt><trkpt lat="45.75946886145975" lon="12.311083360756362"><ele>36.66666666666667</ele><time>2026-04-12T14:46:43Z</time></trkpt><trkpt lat="45.75936032895364" lon="12.31133452760082"><ele>36.333333333333336</ele><time>2026-04-12T14:46:44Z</time></trkpt><trkpt lat="45.75924865574128" lon="12.311566515686467"><ele>36.0</ele><time>2026-04-12T14:46:45Z</time></trkpt><trkpt lat="45.75911630014205" lon="12.311748079897972"><ele>36.0</ele><time>2026-04-12T14:46:46Z</time></trkpt><trkpt lat="45.75903865569093" lon="12.312085448275187"><ele>36.0</ele><time>2026-04-12T14:46:47Z</time></trkpt><trkpt lat="45.75892624464838" lon="12.312290799627862"><ele>36.0</ele><time>2026-04-12T14:46:48Z</time></trkpt><trkpt lat="45.758789305296894" lon="12.312443089478576"><ele>36.0</ele><time>2026-04-12T14:46:49Z</time></trkpt><trkpt lat="45.758627867690684" lon="12.312557190265034"><ele>36.0</ele><time>2026-04-12T14:46:50Z</time></trkpt><trkpt lat="45.75845096724484" lon="12.312639072323773"><ele>36.0</ele><time>2026-04-12T14:46:51Z</time></trkpt><trkpt lat="45.75827388449753" lon="12.312676885856451"><ele>36.0</ele><time>2026-04-12T14:46:52Z</time></trkpt><trkpt lat="45.75808716942795" lon="12.312668709999764"><ele>36.0</ele><time>2026-04-12T14:46:53Z</time></trkpt><trkpt lat="45.75789094479912" lon="12.31264529199611"><ele>36.0</ele><time>2026-04-12T14:46:54Z</time></trkpt><trkpt lat="45.75769262382132" lon="12.312628611931459"><ele>36.0</ele><time>2026-04-12T14:46:55Z</time></trkpt><trkpt lat="45.75748809509144" lon="12.312619977309955"><ele>36.0</ele><time>2026-04-12T14:46:56Z</time></trkpt><trkpt lat="45.75728475548618" lon="12.31261708649929"><ele>36.0</ele><time>2026-04-12T14:46:57Z</time></trkpt><trkpt lat="45.75707965104435" lon="12.312610483251584"><ele>36.0</ele><time>2026-04-12T14:46:58Z</time></trkpt><trkpt lat="45.756882250076" lon="12.312608524103346"><ele>36.0</ele><time>2026-04-12T14:46:59Z</time></trkpt><trkpt lat="45.75668191669421" lon="12.312613404709964"><ele>36.0</ele><time>2026-04-12T14:47:00Z</time></trkpt><trkpt lat="45.75649260254799" lon="12.312610952293747"><ele>35.666666666666664</ele><time>2026-04-12T14:47:01Z</time></trkpt><trkpt lat="45.75631826401644" lon="12.31260999845295"><ele>35.33333333333333</ele><time>2026-04-12T14:47:02Z</time></trkpt><trkpt lat="45.756163396884716" lon="12.312605199752161"><ele>35.0</ele><time>2026-04-12T14:47:03Z</time></trkpt><trkpt lat="45.756022936401386" lon="12.312607925097751"><ele>35.0</ele><time>2026-04-12T14:47:04Z</time></trkpt><trkpt lat="45.755904548694296" lon="12.312616008759264"><ele>35.0</ele><time>2026-04-12T14:47:05Z</time></trkpt><trkpt lat="45.755795433978506" lon="12.312641030322805"><ele>35.0</ele><time>2026-04-12T14:47:06Z</time></trkpt><trkpt lat="45.755641315296046" lon="12.312670626001985"><ele>35.0</ele><time>2026-04-12T14:47:07Z</time></trkpt><trkpt lat="45.75545573045387" lon="12.312682191261475"><ele>35.0</ele><time>2026-04-12T14:47:08Z</time></trkpt><trkpt lat="45.75527692832399" lon="12.312731665953423"><ele>35.0</ele><time>2026-04-12T14:47:09Z</time></trkpt><trkpt lat="45.755116376526324" lon="12.312833070635522"><ele>35.0</ele><time>2026-04-12T14:47:10Z</time></trkpt><trkpt lat="45.75497236099923" lon="12.31291479412698"><ele>34.75</ele><time>2026-04-12T14:47:11Z</time></trkpt><trkpt lat="45.7548406279424" lon="12.312990521652983"><ele>34.5</ele><time>2026-04-12T14:47:12Z</time></trkpt><trkpt lat="45.754713883726474" lon="12.313060288416104"><ele>34.25</ele><time>2026-04-12T14:47:13Z</time></trkpt><trkpt lat="45.75460136171326" lon="12.313125873531266"><ele>34.0</ele><time>2026-04-12T14:47:14Z</time></trkpt><trkpt lat="45.75448794397852" lon="12.313196121804143"><ele>33.75</ele><time>2026-04-12T14:47:15Z</time></trkpt><trkpt lat="45.75435575810468" lon="12.313270872524189"><ele>33.5</ele><time>2026-04-12T14:47:16Z</time></trkpt><trkpt lat="45.75422448675984" lon="12.313344362196975"><ele>33.25</ele><time>2026-04-12T14:47:17Z</time></trkpt><trkpt lat="45.754085304101174" lon="12.313426138107037"><ele>33.0</ele><time>2026-04-12T14:47:18Z</time></trkpt><trkpt lat="45.753941956427276" lon="12.313513895781806"><ele>33.0</ele><time>2026-04-12T14:47:19Z</time></trkpt><trkpt lat="45.75380500967329" lon="12.313587038740014"><ele>33.0</ele><time>2026-04-12T14:47:20Z</time></trkpt><trkpt lat="45.7536784804415" lon="12.31364338862157"><ele>33.0</ele><time>2026-04-12T14:47:21Z</time></trkpt><trkpt lat="45.75355185984294" lon="12.313684377754516"><ele>33.0</ele><time>2026-04-12T14:47:22Z</time></trkpt><trkpt lat="45.75340693112463" lon="12.313692160034842"><ele>33.0</ele><time>2026-04-12T14:47:23Z</time></trkpt><trkpt lat="45.753253086313016" lon="12.313660959469342"><ele>33.0</ele><time>2026-04-12T14:47:24Z</time></trkpt><trkpt lat="45.75311078062616" lon="12.313621070125773"><ele>33.0</ele><time>2026-04-12T14:47:25Z</time></trkpt><trkpt lat="45.75298721082456" lon="12.313615310948597"><ele>33.0</ele><time>2026-04-12T14:47:26Z</time></trkpt><trkpt lat="45.75287317459611" lon="12.313659430715388"><ele>33.0</ele><time>2026-04-12T14:47:27Z</time></trkpt><trkpt lat="45.75276988120623" lon="12.313754849357341"><ele>33.0</ele><time>2026-04-12T14:47:28Z</time></trkpt><trkpt lat="45.752669634978275" lon="12.31390246505682"><ele>33.0</ele><time>2026-04-12T14:47:29Z</time></trkpt><trkpt lat="45.75256575587385" lon="12.314097795526852"><ele>33.0</ele><time>2026-04-12T14:47:30Z</time></trkpt><trkpt lat="45.752462565708456" lon="12.314288290374929"><ele>33.0</ele><time>2026-04-12T14:47:31Z</time></trkpt><trkpt lat="45.752351734536035" lon="12.314457401525418"><ele>33.0</ele><time>2026-04-12T14:47:32Z</time></trkpt><trkpt lat="45.75223980074972" lon="12.314618063624723"><ele>33.0</ele><time>2026-04-12T14:47:33Z</time></trkpt><trkpt lat="45.752129554870365" lon="12.314779612907154"><ele>32.666666666666664</ele><time>2026-04-12T14:47:34Z</time></trkpt><trkpt lat="45.752026845663295" lon="12.314935606976631"><ele>32.33333333333333</ele><time>2026-04-12T14:47:35Z</time></trkpt><trkpt lat="45.751922230505215" lon="12.315092787328345"><ele>32.0</ele><time>2026-04-12T14:47:36Z</time></trkpt><trkpt lat="45.75181140282308" lon="12.315257855553925"><ele>32.0</ele><time>2026-04-12T14:47:37Z</time></trkpt><trkpt lat="45.75169895522727" lon="12.31542997315406"><ele>32.0</ele><time>2026-04-12T14:47:38Z</time></trkpt><trkpt lat="45.75158565953955" lon="12.315601390872828"><ele>32.0</ele><time>2026-04-12T14:47:39Z</time></trkpt><trkpt lat="45.751475620472874" lon="12.315774094949965"><ele>32.33333333333333</ele><time>2026-04-12T14:47:40Z</time></trkpt><trkpt lat="45.751366002145325" lon="12.315941284488254"><ele>32.666666666666664</ele><time>2026-04-12T14:47:41Z</time></trkpt><trkpt lat="45.75125653487564" lon="12.316103925438595"><ele>33.0</ele><time>2026-04-12T14:47:42Z</time></trkpt><trkpt lat="45.75114746785108" lon="12.316269924011834"><ele>32.333333333333336</ele><time>2026-04-12T14:47:43Z</time></trkpt><trkpt lat="45.75103773148555" lon="12.31643457158301"><ele>31.666666666666668</ele><time>2026-04-12T14:47:44Z</time></trkpt><trkpt lat="45.750932077524475" lon="12.316599313704968"><ele>31.0</ele><time>2026-04-12T14:47:45Z</time></trkpt><trkpt lat="45.7508284035125" lon="12.316759744837054"><ele>31.0</ele><time>2026-04-12T14:47:46Z</time></trkpt><trkpt lat="45.75073278918123" lon="12.31690879823214"><ele>31.0</ele><time>2026-04-12T14:47:47Z</time></trkpt><trkpt lat="45.750638213431074" lon="12.317046467575707"><ele>31.0</ele><time>2026-04-12T14:47:48Z</time></trkpt><trkpt lat="45.75055051917072" lon="12.317169321794967"><ele>31.0</ele><time>2026-04-12T14:47:49Z</time></trkpt><trkpt lat="45.750480106181" lon="12.317266286567461"><ele>30.8</ele><time>2026-04-12T14:47:50Z</time></trkpt><trkpt lat="45.750427993685264" lon="12.317341525716863"><ele>30.6</ele><time>2026-04-12T14:47:51Z</time></trkpt><trkpt lat="45.75035649946042" lon="12.31744422164843"><ele>30.4</ele><time>2026-04-12T14:47:53Z</time></trkpt><trkpt lat="45.750313186226904" lon="12.317513643963851"><ele>30.2</ele><time>2026-04-12T14:47:54Z</time></trkpt><trkpt lat="45.75024989525416" lon="12.317625628334541"><ele>30.0</ele><time>2026-04-12T14:47:55Z</time></trkpt><trkpt lat="45.75015168499223" lon="12.317800792104128"><ele>30.0</ele><time>2026-04-12T14:47:56Z</time></trkpt><trkpt lat="45.750056158185515" lon="12.317943290655084"><ele>30.0</ele><time>2026-04-12T14:47:57Z</time></trkpt><trkpt lat="45.749949772467495" lon="12.318103939000713"><ele>30.0</ele><time>2026-04-12T14:47:58Z</time></trkpt><trkpt lat="45.74983601654243" lon="12.31827473875473"><ele>30.666666666666664</ele><time>2026-04-12T14:47:59Z</time></trkpt><trkpt lat="45.74972233675265" lon="12.31844757933494"><ele>31.333333333333332</ele><time>2026-04-12T14:48:00Z</time></trkpt><trkpt lat="45.74961488567869" lon="12.318607583724232"><ele>32.0</ele><time>2026-04-12T14:48:01Z</time></trkpt><trkpt lat="45.749501743315555" lon="12.318779215569018"><ele>31.666666666666664</ele><time>2026-04-12T14:48:02Z</time></trkpt><trkpt lat="45.74937976682817" lon="12.318950448300939"><ele>31.333333333333336</ele><time>2026-04-12T14:48:03Z</time></trkpt><trkpt lat="45.74926187393366" lon="12.3191337025402"><ele>31.0</ele><time>2026-04-12T14:48:04Z</time></trkpt><trkpt lat="45.74914464069512" lon="12.31931317662317"><ele>31.0</ele><time>2026-04-12T14:48:05Z</time></trkpt><trkpt lat="45.74902764191456" lon="12.31949318827657"><ele>31.0</ele><time>2026-04-12T14:48:06Z</time></trkpt><trkpt lat="45.74891071380171" lon="12.319673196158329"><ele>31.0</ele><time>2026-04-12T14:48:07Z</time></trkpt><trkpt lat="45.74880530379741" lon="12.319835815174871"><ele>30.666666666666668</ele><time>2026-04-12T14:48:08Z</time></trkpt><trkpt lat="45.74870004342983" lon="12.32000103590429"><ele>30.333333333333336</ele><time>2026-04-12T14:48:09Z</time></trkpt><trkpt lat="45.748587192032204" lon="12.320179231179807"><ele>30.0</ele><time>2026-04-12T14:48:10Z</time></trkpt><trkpt lat="45.74847218536929" lon="12.320354367734485"><ele>29.666666666666664</ele><time>2026-04-12T14:48:11Z</time></trkpt><trkpt lat="45.74835186376362" lon="12.320535309577036"><ele>29.333333333333332</ele><time>2026-04-12T14:48:12Z</time></trkpt><trkpt lat="45.748229361385725" lon="12.32072027620323"><ele>29.0</ele><time>2026-04-12T14:48:13Z</time></trkpt><trkpt lat="45.74810802882617" lon="12.320909539990229"><ele>29.0</ele><time>2026-04-12T14:48:14Z</time></trkpt><trkpt lat="45.74799391848395" lon="12.321086888087057"><ele>29.0</ele><time>2026-04-12T14:48:15Z</time></trkpt><trkpt lat="45.74788185706502" lon="12.321253171147147"><ele>29.0</ele><time>2026-04-12T14:48:16Z</time></trkpt><trkpt lat="45.747768373771486" lon="12.321422626269364"><ele>29.666666666666664</ele><time>2026-04-12T14:48:17Z</time></trkpt><trkpt lat="45.74763853999439" lon="12.321573583860653"><ele>30.333333333333336</ele><time>2026-04-12T14:48:18Z</time></trkpt><trkpt lat="45.7474971566142" lon="12.321702966392866"><ele>31.0</ele><time>2026-04-12T14:48:19Z</time></trkpt><trkpt lat="45.74734810831009" lon="12.321816449234198"><ele>31.0</ele><time>2026-04-12T14:48:20Z</time></trkpt><trkpt lat="45.74719086313213" lon="12.321918698831112"><ele>31.0</ele><time>2026-04-12T14:48:21Z</time></trkpt><trkpt lat="45.74704032386411" lon="12.322010513018025"><ele>31.0</ele><time>2026-04-12T14:48:22Z</time></trkpt><trkpt lat="45.746884826833096" lon="12.322106097693657"><ele>31.0</ele><time>2026-04-12T14:48:23Z</time></trkpt><trkpt lat="45.746728014894934" lon="12.322215682566123"><ele>31.0</ele><time>2026-04-12T14:48:24Z</time></trkpt><trkpt lat="45.74657163865025" lon="12.322340898305416"><ele>31.0</ele><time>2026-04-12T14:48:25Z</time></trkpt><trkpt lat="45.746420026368405" lon="12.322507093352165"><ele>31.0</ele><time>2026-04-12T14:48:26Z</time></trkpt><trkpt lat="45.746283378244804" lon="12.322710964066003"><ele>31.0</ele><time>2026-04-12T14:48:27Z</time></trkpt><trkpt lat="45.74615592919916" lon="12.322891047822974"><ele>31.0</ele><time>2026-04-12T14:48:28Z</time></trkpt><trkpt lat="45.74603889772004" lon="12.3230439481216"><ele>30.0</ele><time>2026-04-12T14:48:29Z</time></trkpt><trkpt lat="45.74592498371324" lon="12.323181680801408"><ele>29.0</ele><time>2026-04-12T14:48:30Z</time></trkpt><trkpt lat="45.745821223973884" lon="12.323318516777789"><ele>28.0</ele><time>2026-04-12T14:48:31Z</time></trkpt><trkpt lat="45.74572735518857" lon="12.323454008752984"><ele>27.0</ele><time>2026-04-12T14:48:32Z</time></trkpt><trkpt lat="45.74562297724884" lon="12.323594436959391"><ele>27.0</ele><time>2026-04-12T14:48:33Z</time></trkpt><trkpt lat="45.74551271574468" lon="12.323713913997379"><ele>27.0</ele><time>2026-04-12T14:48:34Z</time></trkpt><trkpt lat="45.745403357088804" lon="12.323795603332991"><ele>27.0</ele><time>2026-04-12T14:48:35Z</time></trkpt><trkpt lat="45.74529152448138" lon="12.323829303525715"><ele>27.0</ele><time>2026-04-12T14:48:36Z</time></trkpt><trkpt lat="45.74518096749873" lon="12.323814168898688"><ele>27.25</ele><time>2026-04-12T14:48:37Z</time></trkpt><trkpt lat="45.74506890075265" lon="12.32374868635724"><ele>27.5</ele><time>2026-04-12T14:48:38Z</time></trkpt><trkpt lat="45.744948960516005" lon="12.32364387291533"><ele>27.75</ele><time>2026-04-12T14:48:39Z</time></trkpt><trkpt lat="45.74483854639417" lon="12.323489286708895"><ele>28.0</ele><time>2026-04-12T14:48:40Z</time></trkpt><trkpt lat="45.74474220010055" lon="12.323342224398482"><ele>28.0</ele><time>2026-04-12T14:48:41Z</time></trkpt><trkpt lat="45.7446630538262" lon="12.323212143397344"><ele>28.0</ele><time>2026-04-12T14:48:42Z</time></trkpt><trkpt lat="45.74459381483611" lon="12.32308687292333"><ele>28.0</ele><time>2026-04-12T14:48:43Z</time></trkpt><trkpt lat="45.74453447728389" lon="12.322960173331452"><ele>28.0</ele><time>2026-04-12T14:48:44Z</time></trkpt><trkpt lat="45.74448263576657" lon="12.322811595423474"><ele>27.599999999999998</ele><time>2026-04-12T14:48:45Z</time></trkpt><trkpt lat="45.74443299473729" lon="12.322656250551418"><ele>27.199999999999996</ele><time>2026-04-12T14:48:46Z</time></trkpt><trkpt lat="45.74439735537033" lon="12.322517520612891"><ele>26.8</ele><time>2026-04-12T14:48:47Z</time></trkpt><trkpt lat="45.74436960674268" lon="12.32239460161912"><ele>26.4</ele><time>2026-04-12T14:48:48Z</time></trkpt><trkpt lat="45.744349759259165" lon="12.322280570722706"><ele>26.0</ele><time>2026-04-12T14:48:49Z</time></trkpt><trkpt lat="45.744337059516056" lon="12.32218381239679"><ele>26.0</ele><time>2026-04-12T14:48:50Z</time></trkpt><trkpt lat="45.74435475116323" lon="12.322020342588274"><ele>26.0</ele><time>2026-04-12T14:48:52Z</time></trkpt><trkpt lat="45.74439805230872" lon="12.321862316324628"><ele>26.0</ele><time>2026-04-12T14:48:54Z</time></trkpt><trkpt lat="45.744319369782005" lon="12.321733466251988"><ele>26.0</ele><time>2026-04-12T14:48:56Z</time></trkpt><trkpt lat="45.74424648999984" lon="12.321733217578233"><ele>26.0</ele><time>2026-04-12T14:48:57Z</time></trkpt><trkpt lat="45.74416277396607" lon="12.321784463470088"><ele>26.0</ele><time>2026-04-12T14:48:58Z</time></trkpt><trkpt lat="45.74406629410632" lon="12.321828775903647"><ele>26.0</ele><time>2026-04-12T14:48:59Z</time></trkpt><trkpt lat="45.74395804676295" lon="12.32182811292434"><ele>26.0</ele><time>2026-04-12T14:49:00Z</time></trkpt><trkpt lat="45.74383570172926" lon="12.321793255531817"><ele>26.0</ele><time>2026-04-12T14:49:01Z</time></trkpt><trkpt lat="45.743693689748504" lon="12.3217462214332"><ele>26.333333333333332</ele><time>2026-04-12T14:49:02Z</time></trkpt><trkpt lat="45.743514364442554" lon="12.321714962828056"><ele>26.666666666666664</ele><time>2026-04-12T14:49:03Z</time></trkpt><trkpt lat="45.74332591900139" lon="12.321651155072445"><ele>27.0</ele><time>2026-04-12T14:49:04Z</time></trkpt><trkpt lat="45.743125171875214" lon="12.32162000353177"><ele>27.0</ele><time>2026-04-12T14:49:05Z</time></trkpt><trkpt lat="45.74292287728588" lon="12.321567451495328"><ele>27.0</ele><time>2026-04-12T14:49:06Z</time></trkpt><trkpt lat="45.74271746945546" lon="12.321517293603744"><ele>27.0</ele><time>2026-04-12T14:49:07Z</time></trkpt><trkpt lat="45.74252889438114" lon="12.321461963832105"><ele>26.666666666666664</ele><time>2026-04-12T14:49:08Z</time></trkpt><trkpt lat="45.74235064201494" lon="12.321380644901174"><ele>26.333333333333332</ele><time>2026-04-12T14:49:09Z</time></trkpt><trkpt lat="45.742168192885686" lon="12.321274243929768"><ele>26.0</ele><time>2026-04-12T14:49:10Z</time></trkpt><trkpt lat="45.74199379634031" lon="12.32115187002489"><ele>26.666666666666664</ele><time>2026-04-12T14:49:11Z</time></trkpt><trkpt lat="45.741814302969885" lon="12.321015176494356"><ele>27.333333333333336</ele><time>2026-04-12T14:49:12Z</time></trkpt><trkpt lat="45.74161735726794" lon="12.320878453545562"><ele>28.0</ele><time>2026-04-12T14:49:13Z</time></trkpt><trkpt lat="45.741404310145256" lon="12.320720381528337"><ele>28.0</ele><time>2026-04-12T14:49:14Z</time></trkpt><trkpt lat="45.741169638497624" lon="12.32055496268231"><ele>28.0</ele><time>2026-04-12T14:49:15Z</time></trkpt><trkpt lat="45.740927593968074" lon="12.320383288270081"><ele>28.0</ele><time>2026-04-12T14:49:16Z</time></trkpt><trkpt lat="45.74071447435659" lon="12.320234750963209"><ele>28.0</ele><time>2026-04-12T14:49:17Z</time></trkpt><trkpt lat="45.74051677319459" lon="12.320099917191323"><ele>28.0</ele><time>2026-04-12T14:49:18Z</time></trkpt><trkpt lat="45.74033291014035" lon="12.319975937085008"><ele>28.0</ele><time>2026-04-12T14:49:19Z</time></trkpt><trkpt lat="45.74015905509844" lon="12.319855710001509"><ele>28.0</ele><time>2026-04-12T14:49:20Z</time></trkpt><trkpt lat="45.73998478527018" lon="12.319734453947872"><ele>27.666666666666668</ele><time>2026-04-12T14:49:21Z</time></trkpt><trkpt lat="45.73980967826681" lon="12.319612145745381"><ele>27.333333333333336</ele><time>2026-04-12T14:49:22Z</time></trkpt><trkpt lat="45.739637706596056" lon="12.319490059319834"><ele>27.0</ele><time>2026-04-12T14:49:23Z</time></trkpt><trkpt lat="45.739480770877684" lon="12.319374966104926"><ele>27.0</ele><time>2026-04-12T14:49:24Z</time></trkpt><trkpt lat="45.739330195101516" lon="12.319260848377759"><ele>27.0</ele><time>2026-04-12T14:49:25Z</time></trkpt><trkpt lat="45.739170878976005" lon="12.319126477450869"><ele>27.0</ele><time>2026-04-12T14:49:26Z</time></trkpt><trkpt lat="45.7390362942757" lon="12.318972893861538"><ele>27.333333333333336</ele><time>2026-04-12T14:49:27Z</time></trkpt><trkpt lat="45.73891785530457" lon="12.318804028243349"><ele>27.666666666666668</ele><time>2026-04-12T14:49:28Z</time></trkpt><trkpt lat="45.73881568320753" lon="12.318628017335945"><ele>28.0</ele><time>2026-04-12T14:49:29Z</time></trkpt><trkpt lat="45.73873086794061" lon="12.318458926736438"><ele>28.0</ele><time>2026-04-12T14:49:30Z</time></trkpt><trkpt lat="45.73865466679712" lon="12.318284912195402"><ele>28.0</ele><time>2026-04-12T14:49:31Z</time></trkpt><trkpt lat="45.738569267134906" lon="12.318095874776308"><ele>28.0</ele><time>2026-04-12T14:49:32Z</time></trkpt><trkpt lat="45.738479599078694" lon="12.317898732653005"><ele>28.0</ele><time>2026-04-12T14:49:33Z</time></trkpt><trkpt lat="45.73838956699317" lon="12.317705913069316"><ele>28.0</ele><time>2026-04-12T14:49:34Z</time></trkpt><trkpt lat="45.73830435416049" lon="12.317512525764021"><ele>28.0</ele><time>2026-04-12T14:49:35Z</time></trkpt><trkpt lat="45.73822136255347" lon="12.317319655678562"><ele>28.0</ele><time>2026-04-12T14:49:36Z</time></trkpt><trkpt lat="45.738139662735335" lon="12.317128071282784"><ele>28.0</ele><time>2026-04-12T14:49:37Z</time></trkpt><trkpt lat="45.7380600610809" lon="12.316949024895298"><ele>28.0</ele><time>2026-04-12T14:49:38Z</time></trkpt><trkpt lat="45.7379831235883" lon="12.316781965861496"><ele>28.0</ele><time>2026-04-12T14:49:39Z</time></trkpt><trkpt lat="45.7379095506676" lon="12.31661260519355"><ele>28.0</ele><time>2026-04-12T14:49:40Z</time></trkpt><trkpt lat="45.73782798696381" lon="12.316436940236464"><ele>28.0</ele><time>2026-04-12T14:49:41Z</time></trkpt><trkpt lat="45.737748084492466" lon="12.316259554618254"><ele>28.0</ele><time>2026-04-12T14:49:42Z</time></trkpt><trkpt lat="45.73766912775661" lon="12.316085524954083"><ele>28.0</ele><time>2026-04-12T14:49:43Z</time></trkpt><trkpt lat="45.737593137564836" lon="12.31591301928452"><ele>28.0</ele><time>2026-04-12T14:49:44Z</time></trkpt><trkpt lat="45.737521188315434" lon="12.315751059420997"><ele>28.0</ele><time>2026-04-12T14:49:45Z</time></trkpt><trkpt lat="45.73745105686017" lon="12.315590018764981"><ele>28.0</ele><time>2026-04-12T14:49:46Z</time></trkpt><trkpt lat="45.737375471896335" lon="12.315439208530849"><ele>28.0</ele><time>2026-04-12T14:49:47Z</time></trkpt><trkpt lat="45.737309266632664" lon="12.315291330119958"><ele>28.0</ele><time>2026-04-12T14:49:48Z</time></trkpt><trkpt lat="45.73724631191975" lon="12.31515211156939"><ele>28.0</ele><time>2026-04-12T14:49:49Z</time></trkpt><trkpt lat="45.73717357947838" lon="12.315008862452723"><ele>28.0</ele><time>2026-04-12T14:49:50Z</time></trkpt><trkpt lat="45.737099124800956" lon="12.314858958403285"><ele>28.0</ele><time>2026-04-12T14:49:51Z</time></trkpt><trkpt lat="45.737041227816874" lon="12.314723137324869"><ele>28.000000000000004</ele><time>2026-04-12T14:49:52Z</time></trkpt><trkpt lat="45.73697948959245" lon="12.314626294248338"><ele>28.0</ele><time>2026-04-12T14:49:53Z</time></trkpt><trkpt lat="45.7369367580214" lon="12.314542658637434"><ele>28.0</ele><time>2026-04-12T14:49:54Z</time></trkpt><trkpt lat="45.73690624934552" lon="12.314400047411326"><ele>28.0</ele><time>2026-04-12T14:49:56Z</time></trkpt><trkpt lat="45.73681622203851" lon="12.314400197573939"><ele>28.000000000000004</ele><time>2026-04-12T14:49:58Z</time></trkpt><trkpt lat="45.73674967625698" lon="12.314472556603036"><ele>28.0</ele><time>2026-04-12T14:49:59Z</time></trkpt><trkpt lat="45.736690009594675" lon="12.314574630404334"><ele>28.000000000000004</ele><time>2026-04-12T14:50:00Z</time></trkpt><trkpt lat="45.73662465743418" lon="12.314657601049483"><ele>28.0</ele><time>2026-04-12T14:50:01Z</time></trkpt><trkpt lat="45.73656559871683" lon="12.314730462430642"><ele>28.0</ele><time>2026-04-12T14:50:02Z</time></trkpt><trkpt lat="45.73650276419276" lon="12.314815194382186"><ele>28.0</ele><time>2026-04-12T14:50:03Z</time></trkpt><trkpt lat="45.73643757264456" lon="12.314907708271468"><ele>28.000000000000004</ele><time>2026-04-12T14:50:04Z</time></trkpt><trkpt lat="45.73636981914043" lon="12.315004663125311"><ele>28.0</ele><time>2026-04-12T14:50:05Z</time></trkpt><trkpt lat="45.73629115494114" lon="12.315110326879454"><ele>28.0</ele><time>2026-04-12T14:50:06Z</time></trkpt><trkpt lat="45.73619953629125" lon="12.315227828699813"><ele>28.0</ele><time>2026-04-12T14:50:07Z</time></trkpt><trkpt lat="45.736099601227686" lon="12.315359565419431"><ele>28.0</ele><time>2026-04-12T14:50:08Z</time></trkpt><trkpt lat="45.736000022267476" lon="12.31548520540427"><ele>28.0</ele><time>2026-04-12T14:50:09Z</time></trkpt><trkpt lat="45.735916493733356" lon="12.315601885879492"><ele>28.0</ele><time>2026-04-12T14:50:10Z</time></trkpt><trkpt lat="45.735829274328765" lon="12.315724682238127"><ele>28.0</ele><time>2026-04-12T14:50:11Z</time></trkpt><trkpt lat="45.73572904553175" lon="12.315864196525418"><ele>28.0</ele><time>2026-04-12T14:50:12Z</time></trkpt><trkpt lat="45.73563037610481" lon="12.316003897700844"><ele>28.0</ele><time>2026-04-12T14:50:13Z</time></trkpt><trkpt lat="45.735539409140955" lon="12.316133414225957"><ele>28.0</ele><time>2026-04-12T14:50:14Z</time></trkpt><trkpt lat="45.73544744245033" lon="12.316254023694475"><ele>28.0</ele><time>2026-04-12T14:50:15Z</time></trkpt><trkpt lat="45.73534622344394" lon="12.316386613922925"><ele>28.0</ele><time>2026-04-12T14:50:16Z</time></trkpt><trkpt lat="45.73524497474821" lon="12.316518509399794"><ele>28.0</ele><time>2026-04-12T14:50:17Z</time></trkpt><trkpt lat="45.73515411084385" lon="12.316644984482618"><ele>27.75</ele><time>2026-04-12T14:50:18Z</time></trkpt><trkpt lat="45.735063421744485" lon="12.316767678183272"><ele>27.5</ele><time>2026-04-12T14:50:19Z</time></trkpt><trkpt lat="45.7349715887312" lon="12.316895210137666"><ele>27.25</ele><time>2026-04-12T14:50:20Z</time></trkpt><trkpt lat="45.734878022002114" lon="12.317022738542448"><ele>27.0</ele><time>2026-04-12T14:50:21Z</time></trkpt><trkpt lat="45.73477813392676" lon="12.317148418328062"><ele>27.0</ele><time>2026-04-12T14:50:22Z</time></trkpt><trkpt lat="45.734679120297024" lon="12.317275103135197"><ele>27.0</ele><time>2026-04-12T14:50:23Z</time></trkpt><trkpt lat="45.73457591166283" lon="12.317405916104786"><ele>27.0</ele><time>2026-04-12T14:50:24Z</time></trkpt><trkpt lat="45.73445307515578" lon="12.317525442945655"><ele>27.0</ele><time>2026-04-12T14:50:25Z</time></trkpt><trkpt lat="45.73432775042003" lon="12.317636601382299"><ele>27.0</ele><time>2026-04-12T14:50:26Z</time></trkpt><trkpt lat="45.73420454958282" lon="12.317738932843975"><ele>27.0</ele><time>2026-04-12T14:50:27Z</time></trkpt><trkpt lat="45.734088617361046" lon="12.317836397838633"><ele>27.0</ele><time>2026-04-12T14:50:28Z</time></trkpt><trkpt lat="45.7339755118906" lon="12.317936314124433"><ele>27.0</ele><time>2026-04-12T14:50:29Z</time></trkpt><trkpt lat="45.7338613484584" lon="12.318032671648023"><ele>27.0</ele><time>2026-04-12T14:50:30Z</time></trkpt><trkpt lat="45.73375269160542" lon="12.318124467752558"><ele>27.0</ele><time>2026-04-12T14:50:31Z</time></trkpt><trkpt lat="45.733649735218584" lon="12.318214417421778"><ele>27.0</ele><time>2026-04-12T14:50:32Z</time></trkpt><trkpt lat="45.73353819566041" lon="12.318317304139976"><ele>27.0</ele><time>2026-04-12T14:50:33Z</time></trkpt><trkpt lat="45.73341634814651" lon="12.318425240979908"><ele>27.0</ele><time>2026-04-12T14:50:34Z</time></trkpt><trkpt lat="45.733288218487786" lon="12.318533031138767"><ele>27.0</ele><time>2026-04-12T14:50:35Z</time></trkpt><trkpt lat="45.733161568370456" lon="12.31863978573562"><ele>27.0</ele><time>2026-04-12T14:50:36Z</time></trkpt><trkpt lat="45.73304233536503" lon="12.31873966223121"><ele>27.0</ele><time>2026-04-12T14:50:37Z</time></trkpt><trkpt lat="45.73292784087363" lon="12.318842916183774"><ele>26.75</ele><time>2026-04-12T14:50:38Z</time></trkpt><trkpt lat="45.732809516155264" lon="12.31894984130685"><ele>26.5</ele><time>2026-04-12T14:50:39Z</time></trkpt><trkpt lat="45.732689812383185" lon="12.319051244197519"><ele>26.25</ele><time>2026-04-12T14:50:40Z</time></trkpt><trkpt lat="45.73257093951154" lon="12.31914996751592"><ele>26.0</ele><time>2026-04-12T14:50:41Z</time></trkpt><trkpt lat="45.732452450311385" lon="12.319249601892295"><ele>26.0</ele><time>2026-04-12T14:50:42Z</time></trkpt><trkpt lat="45.732333658153124" lon="12.319353895861227"><ele>26.0</ele><time>2026-04-12T14:50:43Z</time></trkpt><trkpt lat="45.73221202079311" lon="12.319458572510223"><ele>26.0</ele><time>2026-04-12T14:50:44Z</time></trkpt><trkpt lat="45.73209128375917" lon="12.319565618249612"><ele>26.0</ele><time>2026-04-12T14:50:45Z</time></trkpt><trkpt lat="45.73197012826171" lon="12.319680021135522"><ele>26.0</ele><time>2026-04-12T14:50:46Z</time></trkpt><trkpt lat="45.73185122906093" lon="12.319806081000882"><ele>26.0</ele><time>2026-04-12T14:50:47Z</time></trkpt><trkpt lat="45.731737843018166" lon="12.319943783036605"><ele>26.0</ele><time>2026-04-12T14:50:48Z</time></trkpt><trkpt lat="45.73162825841957" lon="12.320094128809384"><ele>26.0</ele><time>2026-04-12T14:50:49Z</time></trkpt><trkpt lat="45.73152185002707" lon="12.320255693835549"><ele>26.0</ele><time>2026-04-12T14:50:50Z</time></trkpt><trkpt lat="45.73142318283068" lon="12.320422098041707"><ele>26.0</ele><time>2026-04-12T14:50:51Z</time></trkpt><trkpt lat="45.731332470905144" lon="12.320591904952456"><ele>26.0</ele><time>2026-04-12T14:50:52Z</time></trkpt><trkpt lat="45.73125337040793" lon="12.320761000311014"><ele>26.0</ele><time>2026-04-12T14:50:53Z</time></trkpt><trkpt lat="45.73117608751086" lon="12.320928446957577"><ele>26.25</ele><time>2026-04-12T14:50:54Z</time></trkpt><trkpt lat="45.73109810139042" lon="12.321095967984974"><ele>26.5</ele><time>2026-04-12T14:50:55Z</time></trkpt><trkpt lat="45.731017422072554" lon="12.321276216609665"><ele>26.75</ele><time>2026-04-12T14:50:56Z</time></trkpt><trkpt lat="45.7309433417593" lon="12.321458652528877"><ele>27.0</ele><time>2026-04-12T14:50:57Z</time></trkpt><trkpt lat="45.7308783166655" lon="12.321645131125969"><ele>26.25</ele><time>2026-04-12T14:50:58Z</time></trkpt><trkpt lat="45.730818428236375" lon="12.321841448318919"><ele>25.5</ele><time>2026-04-12T14:50:59Z</time></trkpt><trkpt lat="45.73076246140634" lon="12.322032401600696"><ele>24.75</ele><time>2026-04-12T14:51:00Z</time></trkpt><trkpt lat="45.7307042336297" lon="12.32222593615034"><ele>24.0</ele><time>2026-04-12T14:51:01Z</time></trkpt><trkpt lat="45.7306490545929" lon="12.32240025493441"><ele>23.75</ele><time>2026-04-12T14:51:02Z</time></trkpt><trkpt lat="45.73059381637896" lon="12.322574490529332"><ele>23.5</ele><time>2026-04-12T14:51:03Z</time></trkpt><trkpt lat="45.73053692948121" lon="12.322749517800787"><ele>23.25</ele><time>2026-04-12T14:51:04Z</time></trkpt><trkpt lat="45.730478567014664" lon="12.322920901770937"><ele>23.0</ele><time>2026-04-12T14:51:05Z</time></trkpt><trkpt lat="45.73041932637529" lon="12.323092882873963"><ele>23.25</ele><time>2026-04-12T14:51:06Z</time></trkpt><trkpt lat="45.730364038916754" lon="12.3232613250958"><ele>23.5</ele><time>2026-04-12T14:51:07Z</time></trkpt><trkpt lat="45.73030836749566" lon="12.32342172230685"><ele>23.75</ele><time>2026-04-12T14:51:08Z</time></trkpt><trkpt lat="45.73024706081371" lon="12.323576088124648"><ele>24.0</ele><time>2026-04-12T14:51:09Z</time></trkpt><trkpt lat="45.730187607352406" lon="12.323714248695165"><ele>24.0</ele><time>2026-04-12T14:51:10Z</time></trkpt><trkpt lat="45.73013080713816" lon="12.32384531402639"><ele>24.0</ele><time>2026-04-12T14:51:11Z</time></trkpt><trkpt lat="45.7300754749603" lon="12.323970203429989"><ele>24.0</ele><time>2026-04-12T14:51:12Z</time></trkpt><trkpt lat="45.73002225722926" lon="12.324091047777545"><ele>24.0</ele><time>2026-04-12T14:51:13Z</time></trkpt><trkpt lat="45.729980050737275" lon="12.324198869532134"><ele>24.0</ele><time>2026-04-12T14:51:14Z</time></trkpt><trkpt lat="45.72994341594342" lon="12.32429401871425"><ele>24.0</ele><time>2026-04-12T14:51:15Z</time></trkpt><trkpt lat="45.72988085690199" lon="12.324382707906757"><ele>24.0</ele><time>2026-04-12T14:51:17Z</time></trkpt><trkpt lat="45.729786881009744" lon="12.324406297097754"><ele>24.0</ele><time>2026-04-12T14:51:19Z</time></trkpt><trkpt lat="45.72971190396223" lon="12.324479806559111"><ele>24.0</ele><time>2026-04-12T14:51:21Z</time></trkpt><trkpt lat="45.7297085937096" lon="12.324659928421875"><ele>24.0</ele><time>2026-04-12T14:51:23Z</time></trkpt><trkpt lat="45.72972393366058" lon="12.324777436557222"><ele>23.5</ele><time>2026-04-12T14:51:24Z</time></trkpt><trkpt lat="45.729723517036575" lon="12.324882722054062"><ele>23.0</ele><time>2026-04-12T14:51:25Z</time></trkpt><trkpt lat="45.729709537879565" lon="12.324998092598728"><ele>22.5</ele><time>2026-04-12T14:51:26Z</time></trkpt><trkpt lat="45.72967982503715" lon="12.325121016692682"><ele>22.0</ele><time>2026-04-12T14:51:27Z</time></trkpt><trkpt lat="45.7296359122402" lon="12.325254738607093"><ele>21.5</ele><time>2026-04-12T14:51:28Z</time></trkpt><trkpt lat="45.72959732303096" lon="12.325368729821797"><ele>21.0</ele><time>2026-04-12T14:51:29Z</time></trkpt><trkpt lat="45.72956878785909" lon="12.325488039579886"><ele>21.75</ele><time>2026-04-12T14:51:30Z</time></trkpt><trkpt lat="45.7295376827548" lon="12.325603654443341"><ele>22.5</ele><time>2026-04-12T14:51:31Z</time></trkpt><trkpt lat="45.72950392612539" lon="12.325747966949091"><ele>23.25</ele><time>2026-04-12T14:51:32Z</time></trkpt><trkpt lat="45.72947011740179" lon="12.32594607046749"><ele>24.0</ele><time>2026-04-12T14:51:33Z</time></trkpt><trkpt lat="45.7294432965347" lon="12.326132131992948"><ele>24.0</ele><time>2026-04-12T14:51:34Z</time></trkpt><trkpt lat="45.72941743434155" lon="12.326324676311875"><ele>24.0</ele><time>2026-04-12T14:51:35Z</time></trkpt><trkpt lat="45.72939295592715" lon="12.326531220908826"><ele>24.0</ele><time>2026-04-12T14:51:36Z</time></trkpt><trkpt lat="45.72936810332705" lon="12.326750904460217"><ele>24.0</ele><time>2026-04-12T14:51:37Z</time></trkpt><trkpt lat="45.72934455362916" lon="12.326957638491974"><ele>24.0</ele><time>2026-04-12T14:51:38Z</time></trkpt><trkpt lat="45.72931856387945" lon="12.327173289294242"><ele>24.0</ele><time>2026-04-12T14:51:39Z</time></trkpt><trkpt lat="45.729285736466146" lon="12.327408436523344"><ele>24.0</ele><time>2026-04-12T14:51:40Z</time></trkpt><trkpt lat="45.729244406351924" lon="12.327627857848023"><ele>23.75</ele><time>2026-04-12T14:51:41Z</time></trkpt><trkpt lat="45.72919944616539" lon="12.327842294663162"><ele>23.5</ele><time>2026-04-12T14:51:42Z</time></trkpt><trkpt lat="45.729153932153345" lon="12.328045880339738"><ele>23.25</ele><time>2026-04-12T14:51:43Z</time></trkpt><trkpt lat="45.729112042140144" lon="12.328237086153212"><ele>23.0</ele><time>2026-04-12T14:51:44Z</time></trkpt><trkpt lat="45.729070070164056" lon="12.328444409944066"><ele>23.0</ele><time>2026-04-12T14:51:45Z</time></trkpt><trkpt lat="45.729035223554895" lon="12.328659082149237"><ele>23.0</ele><time>2026-04-12T14:51:46Z</time></trkpt><trkpt lat="45.72900229263338" lon="12.328861240857435"><ele>23.0</ele><time>2026-04-12T14:51:47Z</time></trkpt><trkpt lat="45.72897115064835" lon="12.32905143930487"><ele>23.0</ele><time>2026-04-12T14:51:48Z</time></trkpt><trkpt lat="45.72893650262555" lon="12.329230107781024"><ele>23.0</ele><time>2026-04-12T14:51:49Z</time></trkpt><trkpt lat="45.728893453522765" lon="12.329406759099914"><ele>23.0</ele><time>2026-04-12T14:51:50Z</time></trkpt><trkpt lat="45.728836524644706" lon="12.329577581599981"><ele>23.0</ele><time>2026-04-12T14:51:51Z</time></trkpt><trkpt lat="45.72876653988292" lon="12.329733068327556"><ele>23.0</ele><time>2026-04-12T14:51:52Z</time></trkpt><trkpt lat="45.728696778197694" lon="12.32987329091871"><ele>23.0</ele><time>2026-04-12T14:51:53Z</time></trkpt><trkpt lat="45.728624506586264" lon="12.329999274170895"><ele>23.0</ele><time>2026-04-12T14:51:54Z</time></trkpt><trkpt lat="45.7285391632408" lon="12.330093903856215"><ele>23.0</ele><time>2026-04-12T14:51:55Z</time></trkpt><trkpt lat="45.728428123413046" lon="12.33011154222692"><ele>23.0</ele><time>2026-04-12T14:51:56Z</time></trkpt><trkpt lat="45.72832007068077" lon="12.330134882178962"><ele>23.0</ele><time>2026-04-12T14:51:57Z</time></trkpt><trkpt lat="45.728201459250734" lon="12.330131350014012"><ele>23.0</ele><time>2026-04-12T14:51:58Z</time></trkpt><trkpt lat="45.72806517755483" lon="12.33013200379107"><ele>23.0</ele><time>2026-04-12T14:51:59Z</time></trkpt><trkpt lat="45.72793736340639" lon="12.33010821337243"><ele>23.0</ele><time>2026-04-12T14:52:00Z</time></trkpt><trkpt lat="45.727819646354725" lon="12.330087621670756"><ele>23.0</ele><time>2026-04-12T14:52:01Z</time></trkpt><trkpt lat="45.72769088260327" lon="12.330054633384718"><ele>22.75</ele><time>2026-04-12T14:52:02Z</time></trkpt><trkpt lat="45.72755798214683" lon="12.33001686843282"><ele>22.5</ele><time>2026-04-12T14:52:03Z</time></trkpt><trkpt lat="45.727416242196725" lon="12.329978582291615"><ele>22.25</ele><time>2026-04-12T14:52:04Z</time></trkpt><trkpt lat="45.727273549805155" lon="12.32994409713108"><ele>22.0</ele><time>2026-04-12T14:52:05Z</time></trkpt><trkpt lat="45.727138463146936" lon="12.329920225568484"><ele>22.0</ele><time>2026-04-12T14:52:06Z</time></trkpt><trkpt lat="45.726997974605105" lon="12.32989595419469"><ele>22.0</ele><time>2026-04-12T14:52:07Z</time></trkpt><trkpt lat="45.72686084932077" lon="12.32988046800831"><ele>22.0</ele><time>2026-04-12T14:52:08Z</time></trkpt><trkpt lat="45.72672875560069" lon="12.329869194592595"><ele>22.0</ele><time>2026-04-12T14:52:09Z</time></trkpt><trkpt lat="45.72659596623138" lon="12.329857161444751"><ele>22.25</ele><time>2026-04-12T14:52:10Z</time></trkpt><trkpt lat="45.72646087486847" lon="12.329852908012574"><ele>22.5</ele><time>2026-04-12T14:52:11Z</time></trkpt><trkpt lat="45.726321820999615" lon="12.329861001243913"><ele>22.75</ele><time>2026-04-12T14:52:12Z</time></trkpt><trkpt lat="45.72618570134854" lon="12.32987239896477"><ele>23.0</ele><time>2026-04-12T14:52:13Z</time></trkpt><trkpt lat="45.726053261276945" lon="12.329879533865627"><ele>23.0</ele><time>2026-04-12T14:52:14Z</time></trkpt><trkpt lat="45.7259158819404" lon="12.329888845025545"><ele>23.0</ele><time>2026-04-12T14:52:15Z</time></trkpt><trkpt lat="45.72577667233337" lon="12.329900507530066"><ele>23.0</ele><time>2026-04-12T14:52:16Z</time></trkpt><trkpt lat="45.725642186736636" lon="12.329907438440616"><ele>23.0</ele><time>2026-04-12T14:52:17Z</time></trkpt><trkpt lat="45.725512651467334" lon="12.329913561088917"><ele>23.0</ele><time>2026-04-12T14:52:18Z</time></trkpt><trkpt lat="45.725388089190936" lon="12.329934406930947"><ele>23.0</ele><time>2026-04-12T14:52:19Z</time></trkpt><trkpt lat="45.72527342978291" lon="12.329970286241936"><ele>23.0</ele><time>2026-04-12T14:52:20Z</time></trkpt><trkpt lat="45.725164847057556" lon="12.330023516768684"><ele>23.0</ele><time>2026-04-12T14:52:21Z</time></trkpt><trkpt lat="45.725080565309575" lon="12.330089149857477"><ele>23.2</ele><time>2026-04-12T14:52:22Z</time></trkpt><trkpt lat="45.725005894505514" lon="12.330177320229286"><ele>23.4</ele><time>2026-04-12T14:52:23Z</time></trkpt><trkpt lat="45.72493949436862" lon="12.330281724620267"><ele>23.599999999999998</ele><time>2026-04-12T14:52:24Z</time></trkpt><trkpt lat="45.724870467529804" lon="12.330387124282757"><ele>23.799999999999997</ele><time>2026-04-12T14:52:25Z</time></trkpt><trkpt lat="45.72480104412611" lon="12.33047165420342"><ele>24.0</ele><time>2026-04-12T14:52:26Z</time></trkpt><trkpt lat="45.72473780438719" lon="12.330527868168783"><ele>23.799999999999997</ele><time>2026-04-12T14:52:27Z</time></trkpt><trkpt lat="45.72465900046403" lon="12.330591177662962"><ele>23.599999999999998</ele><time>2026-04-12T14:52:29Z</time></trkpt><trkpt lat="45.72457597951206" lon="12.33063698609752"><ele>23.4</ele><time>2026-04-12T14:52:34Z</time></trkpt><trkpt lat="45.724657500503625" lon="12.33087577899921"><ele>23.2</ele><time>2026-04-12T14:52:36Z</time></trkpt><trkpt lat="45.724670195642545" lon="12.330992937041618"><ele>23.0</ele><time>2026-04-12T14:52:37Z</time></trkpt><trkpt lat="45.72468725347308" lon="12.331149965423222"><ele>23.0</ele><time>2026-04-12T14:52:38Z</time></trkpt><trkpt lat="45.72470078673478" lon="12.331333990513027"><ele>23.0</ele><time>2026-04-12T14:52:39Z</time></trkpt><trkpt lat="45.72470176010126" lon="12.331508568834282"><ele>23.0</ele><time>2026-04-12T14:52:40Z</time></trkpt><trkpt lat="45.724694470959676" lon="12.331691564558877"><ele>23.0</ele><time>2026-04-12T14:52:41Z</time></trkpt><trkpt lat="45.72468439579218" lon="12.331886243029786"><ele>23.0</ele><time>2026-04-12T14:52:42Z</time></trkpt><trkpt lat="45.72466510653826" lon="12.332053336131196"><ele>23.0</ele><time>2026-04-12T14:52:43Z</time></trkpt><trkpt lat="45.724655115535384" lon="12.332211409601298"><ele>23.0</ele><time>2026-04-12T14:52:44Z</time></trkpt><trkpt lat="45.72466658874998" lon="12.332383909463351"><ele>23.0</ele><time>2026-04-12T14:52:45Z</time></trkpt><trkpt lat="45.72470226019459" lon="12.332570972039097"><ele>22.666666666666668</ele><time>2026-04-12T14:52:46Z</time></trkpt><trkpt lat="45.7247568025935" lon="12.332772287346234"><ele>22.333333333333332</ele><time>2026-04-12T14:52:47Z</time></trkpt><trkpt lat="45.724817105731184" lon="12.332981211619973"><ele>22.0</ele><time>2026-04-12T14:52:48Z</time></trkpt><trkpt lat="45.724877913814844" lon="12.333213560407703"><ele>22.0</ele><time>2026-04-12T14:52:49Z</time></trkpt><trkpt lat="45.72494423076323" lon="12.333435575796305"><ele>22.0</ele><time>2026-04-12T14:52:50Z</time></trkpt><trkpt lat="45.72499187130129" lon="12.333663650249708"><ele>22.0</ele><time>2026-04-12T14:52:51Z</time></trkpt><trkpt lat="45.725038239879716" lon="12.333911466658924"><ele>22.333333333333332</ele><time>2026-04-12T14:52:52Z</time></trkpt><trkpt lat="45.72508343002225" lon="12.334170485999971"><ele>22.666666666666668</ele><time>2026-04-12T14:52:53Z</time></trkpt><trkpt lat="45.7251330708095" lon="12.33442518636825"><ele>23.0</ele><time>2026-04-12T14:52:54Z</time></trkpt><trkpt lat="45.72517320455732" lon="12.334680522119127"><ele>23.333333333333336</ele><time>2026-04-12T14:52:55Z</time></trkpt><trkpt lat="45.72516965406138" lon="12.334946146789301"><ele>23.666666666666668</ele><time>2026-04-12T14:52:56Z</time></trkpt><trkpt lat="45.72517842150513" lon="12.335219067801496"><ele>24.0</ele><time>2026-04-12T14:52:57Z</time></trkpt><trkpt lat="45.725169248511364" lon="12.335491663976509"><ele>23.666666666666668</ele><time>2026-04-12T14:52:58Z</time></trkpt><trkpt lat="45.7251693149934" lon="12.335767568758394"><ele>23.333333333333336</ele><time>2026-04-12T14:52:59Z</time></trkpt><trkpt lat="45.72517746828254" lon="12.33604238979895"><ele>23.0</ele><time>2026-04-12T14:53:00Z</time></trkpt><trkpt lat="45.72519561774109" lon="12.336309690460583"><ele>22.666666666666668</ele><time>2026-04-12T14:53:01Z</time></trkpt><trkpt lat="45.725224912090205" lon="12.336572988893922"><ele>22.333333333333332</ele><time>2026-04-12T14:53:02Z</time></trkpt><trkpt lat="45.72526808084353" lon="12.336825366715596"><ele>22.0</ele><time>2026-04-12T14:53:03Z</time></trkpt><trkpt lat="45.725327619385965" lon="12.33708506352357"><ele>22.0</ele><time>2026-04-12T14:53:04Z</time></trkpt><trkpt lat="45.72540166088304" lon="12.337332782909355"><ele>22.0</ele><time>2026-04-12T14:53:05Z</time></trkpt><trkpt lat="45.72546330048324" lon="12.337558828786369"><ele>22.0</ele><time>2026-04-12T14:53:06Z</time></trkpt><trkpt lat="45.72550832576388" lon="12.337772928049446"><ele>22.0</ele><time>2026-04-12T14:53:07Z</time></trkpt><trkpt lat="45.72555447745534" lon="12.337966062465666"><ele>22.0</ele><time>2026-04-12T14:53:08Z</time></trkpt><trkpt lat="45.72558002553979" lon="12.338142930563023"><ele>22.0</ele><time>2026-04-12T14:53:09Z</time></trkpt><trkpt lat="45.72559325365228" lon="12.33831144495745"><ele>22.0</ele><time>2026-04-12T14:53:10Z</time></trkpt><trkpt lat="45.72561849759559" lon="12.338474382147595"><ele>21.5</ele><time>2026-04-12T14:53:11Z</time></trkpt><trkpt lat="45.725393543308236" lon="12.338694308179324"><ele>21.0</ele><time>2026-04-12T14:53:12Z</time></trkpt><trkpt lat="45.72528633711973" lon="12.338940310869619"><ele>21.0</ele><time>2026-04-12T14:53:13Z</time></trkpt><trkpt lat="45.72517882685112" lon="12.339157939516467"><ele>21.0</ele><time>2026-04-12T14:53:14Z</time></trkpt><trkpt lat="45.725103692045835" lon="12.339359941167418"><ele>21.0</ele><time>2026-04-12T14:53:15Z</time></trkpt><trkpt lat="45.72503729633363" lon="12.33954262127917"><ele>21.0</ele><time>2026-04-12T14:53:16Z</time></trkpt><trkpt lat="45.724943020111795" lon="12.339682360832121"><ele>21.0</ele><time>2026-04-12T14:53:17Z</time></trkpt><trkpt lat="45.724843667925796" lon="12.339804901232702"><ele>21.0</ele><time>2026-04-12T14:53:18Z</time></trkpt><trkpt lat="45.72471605048715" lon="12.33989538774691"><ele>21.0</ele><time>2026-04-12T14:53:19Z</time></trkpt><trkpt lat="45.72455966747434" lon="12.33994386009118"><ele>21.333333333333332</ele><time>2026-04-12T14:53:20Z</time></trkpt><trkpt lat="45.72438938109819" lon="12.33998671435794"><ele>21.666666666666664</ele><time>2026-04-12T14:53:21Z</time></trkpt><trkpt lat="45.72421785418007" lon="12.340043161050154"><ele>22.0</ele><time>2026-04-12T14:53:22Z</time></trkpt><trkpt lat="45.72404886996908" lon="12.340078794784493"><ele>22.0</ele><time>2026-04-12T14:53:23Z</time></trkpt><trkpt lat="45.72389724080651" lon="12.34011581718489"><ele>22.0</ele><time>2026-04-12T14:53:24Z</time></trkpt><trkpt lat="45.72374162625863" lon="12.340146368518308"><ele>22.0</ele><time>2026-04-12T14:53:25Z</time></trkpt><trkpt lat="45.72358854744633" lon="12.340163221135912"><ele>22.5</ele><time>2026-04-12T14:53:26Z</time></trkpt><trkpt lat="45.72344642766873" lon="12.340165084445156"><ele>23.0</ele><time>2026-04-12T14:53:27Z</time></trkpt><trkpt lat="45.723315159393536" lon="12.340164569760175"><ele>23.5</ele><time>2026-04-12T14:53:28Z</time></trkpt><trkpt lat="45.723187018768996" lon="12.340161226210792"><ele>24.0</ele><time>2026-04-12T14:53:29Z</time></trkpt><trkpt lat="45.72306422451384" lon="12.340157128875163"><ele>24.0</ele><time>2026-04-12T14:53:30Z</time></trkpt><trkpt lat="45.72294947374032" lon="12.340157985893125"><ele>24.0</ele><time>2026-04-12T14:53:31Z</time></trkpt><trkpt lat="45.722842901215344" lon="12.34016488479662"><ele>24.0</ele><time>2026-04-12T14:53:32Z</time></trkpt><trkpt lat="45.72274579533362" lon="12.340141993622105"><ele>24.0</ele><time>2026-04-12T14:53:33Z</time></trkpt><trkpt lat="45.72266165883571" lon="12.340140899671031"><ele>24.0</ele><time>2026-04-12T14:53:34Z</time></trkpt><trkpt lat="45.722591729139154" lon="12.340139767035554"><ele>23.75</ele><time>2026-04-12T14:53:35Z</time></trkpt><trkpt lat="45.72251757538993" lon="12.340137992502257"><ele>23.5</ele><time>2026-04-12T14:53:36Z</time></trkpt><trkpt lat="45.72241859809529" lon="12.340229339192348"><ele>23.25</ele><time>2026-04-12T14:53:37Z</time></trkpt><trkpt lat="45.722302995534854" lon="12.340317791871085"><ele>23.0</ele><time>2026-04-12T14:53:38Z</time></trkpt><trkpt lat="45.72217126808455" lon="12.340424247723158"><ele>23.0</ele><time>2026-04-12T14:53:39Z</time></trkpt><trkpt lat="45.72200605127699" lon="12.340521725636064"><ele>23.0</ele><time>2026-04-12T14:53:40Z</time></trkpt><trkpt lat="45.72179166959594" lon="12.340615413244125"><ele>23.0</ele><time>2026-04-12T14:53:41Z</time></trkpt><trkpt lat="45.72153158940594" lon="12.340708152177966"><ele>22.5</ele><time>2026-04-12T14:53:42Z</time></trkpt><trkpt lat="45.72128600503212" lon="12.340804760905108"><ele>22.0</ele><time>2026-04-12T14:53:43Z</time></trkpt><trkpt lat="45.72106851973589" lon="12.34089804397043"><ele>21.666666666666664</ele><time>2026-04-12T14:53:44Z</time></trkpt><trkpt lat="45.720861108380795" lon="12.340983152250756"><ele>21.333333333333332</ele><time>2026-04-12T14:53:45Z</time></trkpt><trkpt lat="45.7206623902412" lon="12.341061265156615"><ele>21.0</ele><time>2026-04-12T14:53:46Z</time></trkpt><trkpt lat="45.72045927119842" lon="12.34113637467498"><ele>21.0</ele><time>2026-04-12T14:53:47Z</time></trkpt><trkpt lat="45.72024926771339" lon="12.341198537864804"><ele>21.0</ele><time>2026-04-12T14:53:48Z</time></trkpt><trkpt lat="45.72003054933109" lon="12.341215916809276"><ele>21.0</ele><time>2026-04-12T14:53:49Z</time></trkpt><trkpt lat="45.71981501387092" lon="12.341265234550056"><ele>20.666666666666668</ele><time>2026-04-12T14:53:50Z</time></trkpt><trkpt lat="45.71960305860403" lon="12.34128877396071"><ele>20.333333333333336</ele><time>2026-04-12T14:53:51Z</time></trkpt><trkpt lat="45.71940714089478" lon="12.341318038181917"><ele>20.0</ele><time>2026-04-12T14:53:52Z</time></trkpt><trkpt lat="45.71922560120721" lon="12.34134718050883"><ele>19.333333333333336</ele><time>2026-04-12T14:53:53Z</time></trkpt><trkpt lat="45.71905358789592" lon="12.341364005165017"><ele>18.666666666666668</ele><time>2026-04-12T14:53:54Z</time></trkpt><trkpt lat="45.71888941819006" lon="12.341363030530053"><ele>18.0</ele><time>2026-04-12T14:53:55Z</time></trkpt><trkpt lat="45.71873312773493" lon="12.34135665296818"><ele>18.0</ele><time>2026-04-12T14:53:56Z</time></trkpt><trkpt lat="45.71858096204515" lon="12.341353421609027"><ele>18.0</ele><time>2026-04-12T14:53:57Z</time></trkpt><trkpt lat="45.71843598214219" lon="12.341343654033187"><ele>18.0</ele><time>2026-04-12T14:53:58Z</time></trkpt><trkpt lat="45.71830878691794" lon="12.341338779906613"><ele>18.0</ele><time>2026-04-12T14:53:59Z</time></trkpt><trkpt lat="45.71819055422147" lon="12.341368786687429"><ele>18.5</ele><time>2026-04-12T14:54:00Z</time></trkpt><trkpt lat="45.71807224088661" lon="12.34142343124079"><ele>19.0</ele><time>2026-04-12T14:54:01Z</time></trkpt><trkpt lat="45.71793627063198" lon="12.341483444223964"><ele>19.5</ele><time>2026-04-12T14:54:02Z</time></trkpt><trkpt lat="45.71781780293263" lon="12.341550744833212"><ele>20.0</ele><time>2026-04-12T14:54:03Z</time></trkpt><trkpt lat="45.71771278249737" lon="12.341611914633306"><ele>20.0</ele><time>2026-04-12T14:54:04Z</time></trkpt><trkpt lat="45.7176058734261" lon="12.341681612887726"><ele>20.0</ele><time>2026-04-12T14:54:05Z</time></trkpt><trkpt lat="45.717494200349186" lon="12.341750137404501"><ele>20.0</ele><time>2026-04-12T14:54:06Z</time></trkpt><trkpt lat="45.71738159262189" lon="12.341814298656837"><ele>20.0</ele><time>2026-04-12T14:54:07Z</time></trkpt><trkpt lat="45.71728053516389" lon="12.341870469794499"><ele>20.0</ele><time>2026-04-12T14:54:08Z</time></trkpt><trkpt lat="45.717176144896904" lon="12.34193942517464"><ele>20.0</ele><time>2026-04-12T14:54:09Z</time></trkpt><trkpt lat="45.717058212665975" lon="12.342050482960703"><ele>20.0</ele><time>2026-04-12T14:54:10Z</time></trkpt><trkpt lat="45.71691461237216" lon="12.342223681709687"><ele>20.0</ele><time>2026-04-12T14:54:11Z</time></trkpt><trkpt lat="45.716725353794075" lon="12.342418462250976"><ele>20.0</ele><time>2026-04-12T14:54:12Z</time></trkpt><trkpt lat="45.716524903282966" lon="12.3426044332255"><ele>20.0</ele><time>2026-04-12T14:54:13Z</time></trkpt><trkpt lat="45.71635217489989" lon="12.342785528388651"><ele>20.0</ele><time>2026-04-12T14:54:14Z</time></trkpt><trkpt lat="45.71617904974997" lon="12.34297890969055"><ele>20.0</ele><time>2026-04-12T14:54:15Z</time></trkpt><trkpt lat="45.71602043788644" lon="12.343158753132554"><ele>20.0</ele><time>2026-04-12T14:54:16Z</time></trkpt><trkpt lat="45.71586393981774" lon="12.343327619765683"><ele>19.666666666666668</ele><time>2026-04-12T14:54:17Z</time></trkpt><trkpt lat="45.715703805554575" lon="12.343516960278999"><ele>19.333333333333332</ele><time>2026-04-12T14:54:18Z</time></trkpt><trkpt lat="45.71555035375888" lon="12.343734947312212"><ele>19.0</ele><time>2026-04-12T14:54:19Z</time></trkpt><trkpt lat="45.71539981425065" lon="12.343969360456057"><ele>18.333333333333332</ele><time>2026-04-12T14:54:20Z</time></trkpt><trkpt lat="45.71524678989814" lon="12.344197272199818"><ele>17.666666666666668</ele><time>2026-04-12T14:54:21Z</time></trkpt><trkpt lat="45.715088960672084" lon="12.344425971783402"><ele>17.0</ele><time>2026-04-12T14:54:22Z</time></trkpt><trkpt lat="45.714933556836996" lon="12.344648244317469"><ele>17.666666666666668</ele><time>2026-04-12T14:54:23Z</time></trkpt><trkpt lat="45.71477906494436" lon="12.344871733130542"><ele>18.333333333333332</ele><time>2026-04-12T14:54:24Z</time></trkpt><trkpt lat="45.714623626254046" lon="12.345093679614179"><ele>19.0</ele><time>2026-04-12T14:54:25Z</time></trkpt><trkpt lat="45.714475133031804" lon="12.345303285320018"><ele>19.0</ele><time>2026-04-12T14:54:26Z</time></trkpt><trkpt lat="45.71433816519781" lon="12.34550162050203"><ele>19.0</ele><time>2026-04-12T14:54:27Z</time></trkpt><trkpt lat="45.7142124906858" lon="12.345682081075173"><ele>19.0</ele><time>2026-04-12T14:54:28Z</time></trkpt><trkpt lat="45.71408645937361" lon="12.34584315460215"><ele>19.0</ele><time>2026-04-12T14:54:29Z</time></trkpt><trkpt lat="45.71393421915813" lon="12.345944795819758"><ele>19.0</ele><time>2026-04-12T14:54:30Z</time></trkpt><trkpt lat="45.71378189776555" lon="12.346014111647051"><ele>19.0</ele><time>2026-04-12T14:54:31Z</time></trkpt><trkpt lat="45.71363621749383" lon="12.34602043970262"><ele>19.666666666666664</ele><time>2026-04-12T14:54:32Z</time></trkpt><trkpt lat="45.7134849701012" lon="12.34598072782531"><ele>20.333333333333332</ele><time>2026-04-12T14:54:33Z</time></trkpt><trkpt lat="45.71331756028758" lon="12.345874796193767"><ele>21.0</ele><time>2026-04-12T14:54:34Z</time></trkpt><trkpt lat="45.7131506503197" lon="12.345709899718111"><ele>21.0</ele><time>2026-04-12T14:54:35Z</time></trkpt><trkpt lat="45.712962183918435" lon="12.345549066425614"><ele>21.0</ele><time>2026-04-12T14:54:36Z</time></trkpt><trkpt lat="45.712798071279174" lon="12.345382861256956"><ele>21.0</ele><time>2026-04-12T14:54:37Z</time></trkpt><trkpt lat="45.7126219526628" lon="12.345304590060852"><ele>19.666666666666668</ele><time>2026-04-12T14:54:38Z</time></trkpt><trkpt lat="45.71244481676224" lon="12.345290444483478"><ele>18.333333333333336</ele><time>2026-04-12T14:54:39Z</time></trkpt><trkpt lat="45.71225322505133" lon="12.345337993793986"><ele>17.0</ele><time>2026-04-12T14:54:40Z</time></trkpt><trkpt lat="45.71205041139771" lon="12.345445396309568"><ele>17.5</ele><time>2026-04-12T14:54:41Z</time></trkpt><trkpt lat="45.71182397101385" lon="12.345595523102501"><ele>18.0</ele><time>2026-04-12T14:54:42Z</time></trkpt><trkpt lat="45.71158309241268" lon="12.345740101574055"><ele>18.0</ele><time>2026-04-12T14:54:43Z</time></trkpt><trkpt lat="45.71136236118221" lon="12.34586575521866"><ele>18.0</ele><time>2026-04-12T14:54:44Z</time></trkpt><trkpt lat="45.711158817416226" lon="12.345990056592417"><ele>18.0</ele><time>2026-04-12T14:54:45Z</time></trkpt><trkpt lat="45.71094620138705" lon="12.346110431472363"><ele>18.0</ele><time>2026-04-12T14:54:46Z</time></trkpt><trkpt lat="45.71073135296326" lon="12.346231001078783"><ele>18.0</ele><time>2026-04-12T14:54:47Z</time></trkpt><trkpt lat="45.71051859584349" lon="12.34635198265927"><ele>18.0</ele><time>2026-04-12T14:54:48Z</time></trkpt><trkpt lat="45.710307128550234" lon="12.346472869146933"><ele>17.666666666666668</ele><time>2026-04-12T14:54:49Z</time></trkpt><trkpt lat="45.710103127994195" lon="12.346592117422958"><ele>17.333333333333336</ele><time>2026-04-12T14:54:50Z</time></trkpt><trkpt lat="45.70991136442087" lon="12.346707124583052"><ele>17.0</ele><time>2026-04-12T14:54:51Z</time></trkpt><trkpt lat="45.70972217251223" lon="12.346819677481461"><ele>17.0</ele><time>2026-04-12T14:54:52Z</time></trkpt><trkpt lat="45.70953805973026" lon="12.346922152685094"><ele>17.0</ele><time>2026-04-12T14:54:53Z</time></trkpt><trkpt lat="45.70936752482573" lon="12.347015799962536"><ele>17.0</ele><time>2026-04-12T14:54:54Z</time></trkpt><trkpt lat="45.70919621034309" lon="12.347061028047397"><ele>17.0</ele><time>2026-04-12T14:54:55Z</time></trkpt><trkpt lat="45.70902458475145" lon="12.347063151213556"><ele>17.0</ele><time>2026-04-12T14:54:56Z</time></trkpt><trkpt lat="45.708835602358526" lon="12.347036575466255"><ele>17.0</ele><time>2026-04-12T14:54:57Z</time></trkpt><trkpt lat="45.7086436974303" lon="12.34702431643493"><ele>16.666666666666668</ele><time>2026-04-12T14:54:58Z</time></trkpt><trkpt lat="45.70846577301036" lon="12.347031502771188"><ele>16.333333333333332</ele><time>2026-04-12T14:54:59Z</time></trkpt><trkpt lat="45.70828586370778" lon="12.347102003256857"><ele>16.0</ele><time>2026-04-12T14:55:00Z</time></trkpt><trkpt lat="45.708088404341225" lon="12.347203813460744"><ele>16.0</ele><time>2026-04-12T14:55:01Z</time></trkpt><trkpt lat="45.70789853519932" lon="12.347304357854323"><ele>16.0</ele><time>2026-04-12T14:55:02Z</time></trkpt><trkpt lat="45.707725551552464" lon="12.347391779062397"><ele>16.0</ele><time>2026-04-12T14:55:03Z</time></trkpt><trkpt lat="45.70756421482193" lon="12.347474338809237"><ele>16.0</ele><time>2026-04-12T14:55:04Z</time></trkpt><trkpt lat="45.7074110689985" lon="12.34755249667906"><ele>16.0</ele><time>2026-04-12T14:55:05Z</time></trkpt><trkpt lat="45.707267066409486" lon="12.347629464614087"><ele>16.0</ele><time>2026-04-12T14:55:06Z</time></trkpt><trkpt lat="45.70713342096042" lon="12.347702041565784"><ele>15.999999999999998</ele><time>2026-04-12T14:55:07Z</time></trkpt><trkpt lat="45.707039077946334" lon="12.347746261523339"><ele>16.0</ele><time>2026-04-12T14:55:08Z</time></trkpt><trkpt lat="45.706961117719565" lon="12.347767466320084"><ele>16.0</ele><time>2026-04-12T14:55:10Z</time></trkpt><trkpt lat="45.70690603387883" lon="12.347845388803009"><ele>16.0</ele><time>2026-04-12T14:55:13Z</time></trkpt><trkpt lat="45.70691142965941" lon="12.347968191977136"><ele>15.999999999999998</ele><time>2026-04-12T14:55:14Z</time></trkpt><trkpt lat="45.70694633234059" lon="12.348105011961106"><ele>16.0</ele><time>2026-04-12T14:55:15Z</time></trkpt><trkpt lat="45.706994706781096" lon="12.348285341551204"><ele>16.333333333333332</ele><time>2026-04-12T14:55:16Z</time></trkpt><trkpt lat="45.70703109335889" lon="12.34849810379619"><ele>16.666666666666668</ele><time>2026-04-12T14:55:17Z</time></trkpt><trkpt lat="45.70703885624719" lon="12.34872426427773"><ele>17.0</ele><time>2026-04-12T14:55:18Z</time></trkpt><trkpt lat="45.707042932349104" lon="12.349005679215463"><ele>17.0</ele><time>2026-04-12T14:55:19Z</time></trkpt><trkpt lat="45.70705650987894" lon="12.349232311256"><ele>17.0</ele><time>2026-04-12T14:55:20Z</time></trkpt><trkpt lat="45.707070416926406" lon="12.349447715823933"><ele>17.0</ele><time>2026-04-12T14:55:21Z</time></trkpt><trkpt lat="45.70708925738428" lon="12.349642222066144"><ele>17.0</ele><time>2026-04-12T14:55:22Z</time></trkpt><trkpt lat="45.70712259982806" lon="12.349823881304703"><ele>16.666666666666668</ele><time>2026-04-12T14:55:23Z</time></trkpt><trkpt lat="45.707184349977865" lon="12.34998586754344"><ele>16.333333333333332</ele><time>2026-04-12T14:55:24Z</time></trkpt><trkpt lat="45.707282955854105" lon="12.35014775706722"><ele>16.0</ele><time>2026-04-12T14:55:25Z</time></trkpt><trkpt lat="45.70741692209608" lon="12.350312373037426"><ele>16.0</ele><time>2026-04-12T14:55:26Z</time></trkpt><trkpt lat="45.70755253208582" lon="12.350472362064288"><ele>16.0</ele><time>2026-04-12T14:55:27Z</time></trkpt><trkpt lat="45.70766891234358" lon="12.35061402259604"><ele>16.0</ele><time>2026-04-12T14:55:28Z</time></trkpt><trkpt lat="45.70775997837305" lon="12.350739762846246"><ele>16.0</ele><time>2026-04-12T14:55:29Z</time></trkpt><trkpt lat="45.7078366324018" lon="12.3508568525821"><ele>16.0</ele><time>2026-04-12T14:55:30Z</time></trkpt><trkpt lat="45.70790001878367" lon="12.350966397183205"><ele>16.0</ele><time>2026-04-12T14:55:31Z</time></trkpt><trkpt lat="45.707928372325895" lon="12.351079287249917"><ele>16.0</ele><time>2026-04-12T14:55:32Z</time></trkpt><trkpt lat="45.70790637900021" lon="12.351195082688628"><ele>16.0</ele><time>2026-04-12T14:55:33Z</time></trkpt><trkpt lat="45.707845853050635" lon="12.351286510085096"><ele>16.0</ele><time>2026-04-12T14:55:34Z</time></trkpt><trkpt lat="45.70776062377189" lon="12.351391089459813"><ele>16.0</ele><time>2026-04-12T14:55:35Z</time></trkpt><trkpt lat="45.707634118470345" lon="12.351482891277312"><ele>16.0</ele><time>2026-04-12T14:55:36Z</time></trkpt><trkpt lat="45.707513701133394" lon="12.351565341964944"><ele>16.0</ele><time>2026-04-12T14:55:37Z</time></trkpt><trkpt lat="45.70736554976631" lon="12.351679112348629"><ele>16.333333333333332</ele><time>2026-04-12T14:55:38Z</time></trkpt><trkpt lat="45.70722714479595" lon="12.351794863086116"><ele>16.666666666666668</ele><time>2026-04-12T14:55:39Z</time></trkpt><trkpt lat="45.70711380720661" lon="12.351920692547216"><ele>17.0</ele><time>2026-04-12T14:55:40Z</time></trkpt><trkpt lat="45.7070029519397" lon="12.35207108110835"><ele>17.0</ele><time>2026-04-12T14:55:41Z</time></trkpt><trkpt lat="45.70689476634875" lon="12.352227934478151"><ele>17.0</ele><time>2026-04-12T14:55:42Z</time></trkpt><trkpt lat="45.70679016148374" lon="12.352392612631212"><ele>17.0</ele><time>2026-04-12T14:55:43Z</time></trkpt><trkpt lat="45.706689794722664" lon="12.352572328498063"><ele>17.0</ele><time>2026-04-12T14:55:44Z</time></trkpt><trkpt lat="45.70659700043906" lon="12.352726173736695"><ele>17.0</ele><time>2026-04-12T14:55:45Z</time></trkpt><trkpt lat="45.706515897068655" lon="12.352872044257921"><ele>17.0</ele><time>2026-04-12T14:55:46Z</time></trkpt><trkpt lat="45.70643994250624" lon="12.352998778450765"><ele>17.0</ele><time>2026-04-12T14:55:47Z</time></trkpt><trkpt lat="45.7063554162193" lon="12.353081017182792"><ele>17.0</ele><time>2026-04-12T14:55:48Z</time></trkpt><trkpt lat="45.706278557945495" lon="12.35311126042233"><ele>17.0</ele><time>2026-04-12T14:55:49Z</time></trkpt><trkpt lat="45.70616330314221" lon="12.3532196634105"><ele>17.0</ele><time>2026-04-12T14:55:51Z</time></trkpt><trkpt lat="45.70615206054373" lon="12.353314762779755"><ele>17.0</ele><time>2026-04-12T14:55:52Z</time></trkpt><trkpt lat="45.706171613999366" lon="12.353472544146426"><ele>17.0</ele><time>2026-04-12T14:55:53Z</time></trkpt><trkpt lat="45.70619073566794" lon="12.353702784497177"><ele>16.0</ele><time>2026-04-12T14:55:54Z</time></trkpt><trkpt lat="45.7061980058855" lon="12.354032803711705"><ele>15.0</ele><time>2026-04-12T14:55:55Z</time></trkpt><trkpt lat="45.70619607750226" lon="12.354444363294782"><ele>14.5</ele><time>2026-04-12T14:55:56Z</time></trkpt><trkpt lat="45.706202706808774" lon="12.35489839686025"><ele>14.0</ele><time>2026-04-12T14:55:57Z</time></trkpt><trkpt lat="45.70624171152752" lon="12.355352814987008"><ele>13.5</ele><time>2026-04-12T14:55:58Z</time></trkpt><trkpt lat="45.706296928097515" lon="12.355722778870886"><ele>13.0</ele><time>2026-04-12T14:55:59Z</time></trkpt><trkpt lat="45.706343884387785" lon="12.356058209074067"><ele>13.0</ele><time>2026-04-12T14:56:00Z</time></trkpt><trkpt lat="45.70638637713862" lon="12.356364019194011"><ele>13.0</ele><time>2026-04-12T14:56:01Z</time></trkpt><trkpt lat="45.706426535619364" lon="12.356644340163639"><ele>13.0</ele><time>2026-04-12T14:56:02Z</time></trkpt><trkpt lat="45.706480037880205" lon="12.35689999146647"><ele>13.333333333333332</ele><time>2026-04-12T14:56:03Z</time></trkpt><trkpt lat="45.70655137932358" lon="12.357140175750466"><ele>13.666666666666668</ele><time>2026-04-12T14:56:04Z</time></trkpt><trkpt lat="45.706633932456675" lon="12.357375654360931"><ele>14.0</ele><time>2026-04-12T14:56:05Z</time></trkpt><trkpt lat="45.706692882594446" lon="12.357599209966663"><ele>14.0</ele><time>2026-04-12T14:56:06Z</time></trkpt><trkpt lat="45.706708233848296" lon="12.357819657233774"><ele>14.0</ele><time>2026-04-12T14:56:07Z</time></trkpt><trkpt lat="45.70672281909851" lon="12.358025475774449"><ele>14.0</ele><time>2026-04-12T14:56:08Z</time></trkpt><trkpt lat="45.70672447591971" lon="12.358215611836833"><ele>14.0</ele><time>2026-04-12T14:56:09Z</time></trkpt><trkpt lat="45.706735773647004" lon="12.358416992359986"><ele>14.25</ele><time>2026-04-12T14:56:10Z</time></trkpt><trkpt lat="45.70671879519045" lon="12.35863687732193"><ele>14.5</ele><time>2026-04-12T14:56:11Z</time></trkpt><trkpt lat="45.70669787292166" lon="12.35883838991181"><ele>14.75</ele><time>2026-04-12T14:56:12Z</time></trkpt><trkpt lat="45.706689391496276" lon="12.359015898182072"><ele>15.0</ele><time>2026-04-12T14:56:13Z</time></trkpt><trkpt lat="45.706713076195214" lon="12.359175978032145"><ele>15.4</ele><time>2026-04-12T14:56:14Z</time></trkpt><trkpt lat="45.70676157805704" lon="12.359327143357087"><ele>15.8</ele><time>2026-04-12T14:56:15Z</time></trkpt><trkpt lat="45.706815228369734" lon="12.359472655940298"><ele>16.2</ele><time>2026-04-12T14:56:16Z</time></trkpt><trkpt lat="45.70686403459568" lon="12.359604981550662"><ele>16.6</ele><time>2026-04-12T14:56:17Z</time></trkpt><trkpt lat="45.70690259227407" lon="12.359726409288703"><ele>17.0</ele><time>2026-04-12T14:56:18Z</time></trkpt><trkpt lat="45.706937548437914" lon="12.35983069451187"><ele>18.0</ele><time>2026-04-12T14:56:19Z</time></trkpt><trkpt lat="45.70696888169782" lon="12.359920719995948"><ele>18.0</ele><time>2026-04-12T14:56:21Z</time></trkpt><trkpt lat="45.70684108198217" lon="12.359911606593208"><ele>18.0</ele><time>2026-04-12T14:57:14Z</time></trkpt></trkseg></trk></gpx>